<?xml version="1.0" encoding="UTF-8" standalone="no" ?>
<gpx xmlns="http://www.topografix.com/GPX/1/1" xmlns:xsi="http://www.w3.org/2001/XMLSchema-instance" xsi:schemaLocation="http://www.topografix.com/GPX/1/1 http://www.topografix.com/GPX/1/1/gpx.xsd" version="1.1" creator="VisuGPX - https://www.visugpx.com">
  <metadata>
    <name>E-N-Carquefou St Mars Désert Mauves Divatte Pirmil</name>
    <desc><![CDATA[E-N-Carquefou St Mars Désert Mauves Divatte Pirmil]]></desc>
  </metadata>
  <trk>
    <name><![CDATA[2021-02-06 12:51 +01:00]]></name>
    <trkseg>
      <trkpt lat="47.16779" lon="-1.62653">
        <ele>76</ele>
        <time>2021-02-06T11:51:49.000Z</time>
      </trkpt>
      <trkpt lat="47.16772" lon="-1.62645">
        <ele>67</ele>
        <time>2021-02-06T11:52:56.000Z</time>
      </trkpt>
      <trkpt lat="47.1678" lon="-1.62653">
        <ele>74</ele>
        <time>2021-02-06T11:54:37.000Z</time>
      </trkpt>
      <trkpt lat="47.1679" lon="-1.62651">
        <ele>76</ele>
        <time>2021-02-06T11:54:41.000Z</time>
      </trkpt>
      <trkpt lat="47.16796" lon="-1.6264">
        <ele>78</ele>
        <time>2021-02-06T11:54:43.000Z</time>
      </trkpt>
      <trkpt lat="47.16805" lon="-1.6262">
        <ele>76</ele>
        <time>2021-02-06T11:54:46.000Z</time>
      </trkpt>
      <trkpt lat="47.16814" lon="-1.62607">
        <ele>74</ele>
        <time>2021-02-06T11:54:48.000Z</time>
      </trkpt>
      <trkpt lat="47.16823" lon="-1.62594">
        <ele>74</ele>
        <time>2021-02-06T11:54:50.000Z</time>
      </trkpt>
      <trkpt lat="47.16829" lon="-1.6258">
        <ele>74</ele>
        <time>2021-02-06T11:54:52.000Z</time>
      </trkpt>
      <trkpt lat="47.16826" lon="-1.62565">
        <ele>73</ele>
        <time>2021-02-06T11:54:54.000Z</time>
      </trkpt>
      <trkpt lat="47.16816" lon="-1.62549">
        <ele>74</ele>
        <time>2021-02-06T11:54:56.000Z</time>
      </trkpt>
      <trkpt lat="47.16804" lon="-1.62542">
        <ele>73</ele>
        <time>2021-02-06T11:54:58.000Z</time>
      </trkpt>
      <trkpt lat="47.16792" lon="-1.62535">
        <ele>72</ele>
        <time>2021-02-06T11:55:00.000Z</time>
      </trkpt>
      <trkpt lat="47.1678" lon="-1.62529">
        <ele>72</ele>
        <time>2021-02-06T11:55:02.000Z</time>
      </trkpt>
      <trkpt lat="47.16768" lon="-1.62522">
        <ele>71</ele>
        <time>2021-02-06T11:55:04.000Z</time>
      </trkpt>
      <trkpt lat="47.16755" lon="-1.62514">
        <ele>71</ele>
        <time>2021-02-06T11:55:06.000Z</time>
      </trkpt>
      <trkpt lat="47.16741" lon="-1.62505">
        <ele>70</ele>
        <time>2021-02-06T11:55:08.000Z</time>
      </trkpt>
      <trkpt lat="47.16729" lon="-1.625">
        <ele>70</ele>
        <time>2021-02-06T11:55:10.000Z</time>
      </trkpt>
      <trkpt lat="47.16717" lon="-1.62496">
        <ele>70</ele>
        <time>2021-02-06T11:55:12.000Z</time>
      </trkpt>
      <trkpt lat="47.16711" lon="-1.62483">
        <ele>70</ele>
        <time>2021-02-06T11:55:14.000Z</time>
      </trkpt>
      <trkpt lat="47.16713" lon="-1.6245">
        <ele>67</ele>
        <time>2021-02-06T11:55:17.000Z</time>
      </trkpt>
      <trkpt lat="47.16714" lon="-1.6243">
        <ele>67</ele>
        <time>2021-02-06T11:55:19.000Z</time>
      </trkpt>
      <trkpt lat="47.16721" lon="-1.62412">
        <ele>66</ele>
        <time>2021-02-06T11:55:21.000Z</time>
      </trkpt>
      <trkpt lat="47.16726" lon="-1.62391">
        <ele>65</ele>
        <time>2021-02-06T11:55:23.000Z</time>
      </trkpt>
      <trkpt lat="47.16733" lon="-1.6237">
        <ele>65</ele>
        <time>2021-02-06T11:55:25.000Z</time>
      </trkpt>
      <trkpt lat="47.16745" lon="-1.62356">
        <ele>66</ele>
        <time>2021-02-06T11:55:27.000Z</time>
      </trkpt>
      <trkpt lat="47.16758" lon="-1.62345">
        <ele>68</ele>
        <time>2021-02-06T11:55:29.000Z</time>
      </trkpt>
      <trkpt lat="47.16771" lon="-1.62336">
        <ele>70</ele>
        <time>2021-02-06T11:55:31.000Z</time>
      </trkpt>
      <trkpt lat="47.16785" lon="-1.6233">
        <ele>70</ele>
        <time>2021-02-06T11:55:33.000Z</time>
      </trkpt>
      <trkpt lat="47.16799" lon="-1.62324">
        <ele>73</ele>
        <time>2021-02-06T11:55:35.000Z</time>
      </trkpt>
      <trkpt lat="47.16811" lon="-1.62315">
        <ele>73</ele>
        <time>2021-02-06T11:55:37.000Z</time>
      </trkpt>
      <trkpt lat="47.16823" lon="-1.62305">
        <ele>73</ele>
        <time>2021-02-06T11:55:39.000Z</time>
      </trkpt>
      <trkpt lat="47.16835" lon="-1.62292">
        <ele>71</ele>
        <time>2021-02-06T11:55:41.000Z</time>
      </trkpt>
      <trkpt lat="47.16847" lon="-1.62279">
        <ele>70</ele>
        <time>2021-02-06T11:55:43.000Z</time>
      </trkpt>
      <trkpt lat="47.16856" lon="-1.62268">
        <ele>71</ele>
        <time>2021-02-06T11:55:45.000Z</time>
      </trkpt>
      <trkpt lat="47.16866" lon="-1.62255">
        <ele>71</ele>
        <time>2021-02-06T11:55:47.000Z</time>
      </trkpt>
      <trkpt lat="47.16883" lon="-1.62233">
        <ele>69</ele>
        <time>2021-02-06T11:55:50.000Z</time>
      </trkpt>
      <trkpt lat="47.16893" lon="-1.6222">
        <ele>70</ele>
        <time>2021-02-06T11:55:52.000Z</time>
      </trkpt>
      <trkpt lat="47.16903" lon="-1.62206">
        <ele>70</ele>
        <time>2021-02-06T11:55:54.000Z</time>
      </trkpt>
      <trkpt lat="47.16912" lon="-1.62191">
        <ele>70</ele>
        <time>2021-02-06T11:55:56.000Z</time>
      </trkpt>
      <trkpt lat="47.16921" lon="-1.62176">
        <ele>71</ele>
        <time>2021-02-06T11:55:58.000Z</time>
      </trkpt>
      <trkpt lat="47.1693" lon="-1.62159">
        <ele>71</ele>
        <time>2021-02-06T11:56:00.000Z</time>
      </trkpt>
      <trkpt lat="47.16947" lon="-1.62125">
        <ele>72</ele>
        <time>2021-02-06T11:56:04.000Z</time>
      </trkpt>
      <trkpt lat="47.16955" lon="-1.62109">
        <ele>72</ele>
        <time>2021-02-06T11:56:06.000Z</time>
      </trkpt>
      <trkpt lat="47.16963" lon="-1.62094">
        <ele>73</ele>
        <time>2021-02-06T11:56:08.000Z</time>
      </trkpt>
      <trkpt lat="47.16972" lon="-1.62077">
        <ele>72</ele>
        <time>2021-02-06T11:56:10.000Z</time>
      </trkpt>
      <trkpt lat="47.16985" lon="-1.62052">
        <ele>71</ele>
        <time>2021-02-06T11:56:13.000Z</time>
      </trkpt>
      <trkpt lat="47.16994" lon="-1.62038">
        <ele>72</ele>
        <time>2021-02-06T11:56:15.000Z</time>
      </trkpt>
      <trkpt lat="47.17013" lon="-1.62008">
        <ele>71</ele>
        <time>2021-02-06T11:56:19.000Z</time>
      </trkpt>
      <trkpt lat="47.17024" lon="-1.6199">
        <ele>70</ele>
        <time>2021-02-06T11:56:21.000Z</time>
      </trkpt>
      <trkpt lat="47.17033" lon="-1.61979">
        <ele>70</ele>
        <time>2021-02-06T11:56:23.000Z</time>
      </trkpt>
      <trkpt lat="47.17042" lon="-1.61967">
        <ele>72</ele>
        <time>2021-02-06T11:56:25.000Z</time>
      </trkpt>
      <trkpt lat="47.17051" lon="-1.61953">
        <ele>71</ele>
        <time>2021-02-06T11:56:27.000Z</time>
      </trkpt>
      <trkpt lat="47.17061" lon="-1.6194">
        <ele>71</ele>
        <time>2021-02-06T11:56:29.000Z</time>
      </trkpt>
      <trkpt lat="47.1707" lon="-1.61929">
        <ele>71</ele>
        <time>2021-02-06T11:56:31.000Z</time>
      </trkpt>
      <trkpt lat="47.17079" lon="-1.61919">
        <ele>71</ele>
        <time>2021-02-06T11:56:33.000Z</time>
      </trkpt>
      <trkpt lat="47.17089" lon="-1.61909">
        <ele>71</ele>
        <time>2021-02-06T11:56:35.000Z</time>
      </trkpt>
      <trkpt lat="47.171" lon="-1.61897">
        <ele>70</ele>
        <time>2021-02-06T11:56:37.000Z</time>
      </trkpt>
      <trkpt lat="47.17111" lon="-1.61888">
        <ele>71</ele>
        <time>2021-02-06T11:56:39.000Z</time>
      </trkpt>
      <trkpt lat="47.17122" lon="-1.61878">
        <ele>71</ele>
        <time>2021-02-06T11:56:41.000Z</time>
      </trkpt>
      <trkpt lat="47.17133" lon="-1.61868">
        <ele>71</ele>
        <time>2021-02-06T11:56:43.000Z</time>
      </trkpt>
      <trkpt lat="47.17143" lon="-1.61858">
        <ele>71</ele>
        <time>2021-02-06T11:56:45.000Z</time>
      </trkpt>
      <trkpt lat="47.17158" lon="-1.61844">
        <ele>71</ele>
        <time>2021-02-06T11:56:48.000Z</time>
      </trkpt>
      <trkpt lat="47.17169" lon="-1.61835">
        <ele>69</ele>
        <time>2021-02-06T11:56:50.000Z</time>
      </trkpt>
      <trkpt lat="47.1718" lon="-1.61824">
        <ele>71</ele>
        <time>2021-02-06T11:56:52.000Z</time>
      </trkpt>
      <trkpt lat="47.1719" lon="-1.61813">
        <ele>70</ele>
        <time>2021-02-06T11:56:54.000Z</time>
      </trkpt>
      <trkpt lat="47.172" lon="-1.61803">
        <ele>69</ele>
        <time>2021-02-06T11:56:56.000Z</time>
      </trkpt>
      <trkpt lat="47.1721" lon="-1.61792">
        <ele>69</ele>
        <time>2021-02-06T11:56:58.000Z</time>
      </trkpt>
      <trkpt lat="47.17219" lon="-1.6178">
        <ele>70</ele>
        <time>2021-02-06T11:57:00.000Z</time>
      </trkpt>
      <trkpt lat="47.17224" lon="-1.61764">
        <ele>70</ele>
        <time>2021-02-06T11:57:02.000Z</time>
      </trkpt>
      <trkpt lat="47.17229" lon="-1.6175">
        <ele>70</ele>
        <time>2021-02-06T11:57:04.000Z</time>
      </trkpt>
      <trkpt lat="47.17238" lon="-1.61737">
        <ele>72</ele>
        <time>2021-02-06T11:57:06.000Z</time>
      </trkpt>
      <trkpt lat="47.17247" lon="-1.61723">
        <ele>71</ele>
        <time>2021-02-06T11:57:08.000Z</time>
      </trkpt>
      <trkpt lat="47.17254" lon="-1.61707">
        <ele>71</ele>
        <time>2021-02-06T11:57:10.000Z</time>
      </trkpt>
      <trkpt lat="47.17261" lon="-1.61692">
        <ele>72</ele>
        <time>2021-02-06T11:57:12.000Z</time>
      </trkpt>
      <trkpt lat="47.17269" lon="-1.61678">
        <ele>72</ele>
        <time>2021-02-06T11:57:14.000Z</time>
      </trkpt>
      <trkpt lat="47.17278" lon="-1.61657">
        <ele>67</ele>
        <time>2021-02-06T11:57:17.000Z</time>
      </trkpt>
      <trkpt lat="47.17286" lon="-1.61644">
        <ele>69</ele>
        <time>2021-02-06T11:57:19.000Z</time>
      </trkpt>
      <trkpt lat="47.17294" lon="-1.61631">
        <ele>71</ele>
        <time>2021-02-06T11:57:21.000Z</time>
      </trkpt>
      <trkpt lat="47.17306" lon="-1.61611">
        <ele>72</ele>
        <time>2021-02-06T11:57:24.000Z</time>
      </trkpt>
      <trkpt lat="47.17314" lon="-1.61597">
        <ele>73</ele>
        <time>2021-02-06T11:57:26.000Z</time>
      </trkpt>
      <trkpt lat="47.17323" lon="-1.61583">
        <ele>74</ele>
        <time>2021-02-06T11:57:28.000Z</time>
      </trkpt>
      <trkpt lat="47.17333" lon="-1.61573">
        <ele>74</ele>
        <time>2021-02-06T11:57:30.000Z</time>
      </trkpt>
      <trkpt lat="47.17342" lon="-1.61563">
        <ele>74</ele>
        <time>2021-02-06T11:57:32.000Z</time>
      </trkpt>
      <trkpt lat="47.17354" lon="-1.61553">
        <ele>72</ele>
        <time>2021-02-06T11:57:34.000Z</time>
      </trkpt>
      <trkpt lat="47.17364" lon="-1.61542">
        <ele>73</ele>
        <time>2021-02-06T11:57:36.000Z</time>
      </trkpt>
      <trkpt lat="47.17374" lon="-1.61532">
        <ele>72</ele>
        <time>2021-02-06T11:57:38.000Z</time>
      </trkpt>
      <trkpt lat="47.17385" lon="-1.61523">
        <ele>72</ele>
        <time>2021-02-06T11:57:40.000Z</time>
      </trkpt>
      <trkpt lat="47.17402" lon="-1.61509">
        <ele>71</ele>
        <time>2021-02-06T11:57:43.000Z</time>
      </trkpt>
      <trkpt lat="47.17417" lon="-1.61497">
        <ele>72</ele>
        <time>2021-02-06T11:57:46.000Z</time>
      </trkpt>
      <trkpt lat="47.17428" lon="-1.61486">
        <ele>69</ele>
        <time>2021-02-06T11:57:48.000Z</time>
      </trkpt>
      <trkpt lat="47.1744" lon="-1.6148">
        <ele>68</ele>
        <time>2021-02-06T11:57:50.000Z</time>
      </trkpt>
      <trkpt lat="47.17452" lon="-1.61475">
        <ele>68</ele>
        <time>2021-02-06T11:57:52.000Z</time>
      </trkpt>
      <trkpt lat="47.17464" lon="-1.61469">
        <ele>68</ele>
        <time>2021-02-06T11:57:54.000Z</time>
      </trkpt>
      <trkpt lat="47.17476" lon="-1.61464">
        <ele>68</ele>
        <time>2021-02-06T11:57:56.000Z</time>
      </trkpt>
      <trkpt lat="47.17487" lon="-1.6146">
        <ele>67</ele>
        <time>2021-02-06T11:57:58.000Z</time>
      </trkpt>
      <trkpt lat="47.17498" lon="-1.61456">
        <ele>66</ele>
        <time>2021-02-06T11:58:00.000Z</time>
      </trkpt>
      <trkpt lat="47.17511" lon="-1.61444">
        <ele>66</ele>
        <time>2021-02-06T11:58:03.000Z</time>
      </trkpt>
      <trkpt lat="47.17514" lon="-1.61426">
        <ele>65</ele>
        <time>2021-02-06T11:58:05.000Z</time>
      </trkpt>
      <trkpt lat="47.17516" lon="-1.61407">
        <ele>65</ele>
        <time>2021-02-06T11:58:07.000Z</time>
      </trkpt>
      <trkpt lat="47.17521" lon="-1.61387">
        <ele>64</ele>
        <time>2021-02-06T11:58:09.000Z</time>
      </trkpt>
      <trkpt lat="47.17526" lon="-1.61367">
        <ele>64</ele>
        <time>2021-02-06T11:58:11.000Z</time>
      </trkpt>
      <trkpt lat="47.17526" lon="-1.6134">
        <ele>62</ele>
        <time>2021-02-06T11:58:14.000Z</time>
      </trkpt>
      <trkpt lat="47.17522" lon="-1.61323">
        <ele>63</ele>
        <time>2021-02-06T11:58:16.000Z</time>
      </trkpt>
      <trkpt lat="47.17519" lon="-1.61296">
        <ele>64</ele>
        <time>2021-02-06T11:58:19.000Z</time>
      </trkpt>
      <trkpt lat="47.17511" lon="-1.6128">
        <ele>65</ele>
        <time>2021-02-06T11:58:21.000Z</time>
      </trkpt>
      <trkpt lat="47.17502" lon="-1.61263">
        <ele>63</ele>
        <time>2021-02-06T11:58:23.000Z</time>
      </trkpt>
      <trkpt lat="47.17491" lon="-1.61237">
        <ele>64</ele>
        <time>2021-02-06T11:58:26.000Z</time>
      </trkpt>
      <trkpt lat="47.17484" lon="-1.61219">
        <ele>63</ele>
        <time>2021-02-06T11:58:28.000Z</time>
      </trkpt>
      <trkpt lat="47.17477" lon="-1.612">
        <ele>60</ele>
        <time>2021-02-06T11:58:30.000Z</time>
      </trkpt>
      <trkpt lat="47.17469" lon="-1.61183">
        <ele>59</ele>
        <time>2021-02-06T11:58:32.000Z</time>
      </trkpt>
      <trkpt lat="47.17463" lon="-1.61167">
        <ele>61</ele>
        <time>2021-02-06T11:58:34.000Z</time>
      </trkpt>
      <trkpt lat="47.17452" lon="-1.61143">
        <ele>62</ele>
        <time>2021-02-06T11:58:37.000Z</time>
      </trkpt>
      <trkpt lat="47.17446" lon="-1.61127">
        <ele>60</ele>
        <time>2021-02-06T11:58:39.000Z</time>
      </trkpt>
      <trkpt lat="47.17439" lon="-1.61109">
        <ele>61</ele>
        <time>2021-02-06T11:58:41.000Z</time>
      </trkpt>
      <trkpt lat="47.17432" lon="-1.61092">
        <ele>58</ele>
        <time>2021-02-06T11:58:43.000Z</time>
      </trkpt>
      <trkpt lat="47.17425" lon="-1.61074">
        <ele>59</ele>
        <time>2021-02-06T11:58:45.000Z</time>
      </trkpt>
      <trkpt lat="47.17423" lon="-1.6105">
        <ele>59</ele>
        <time>2021-02-06T11:58:47.000Z</time>
      </trkpt>
      <trkpt lat="47.1742" lon="-1.61022">
        <ele>57</ele>
        <time>2021-02-06T11:58:50.000Z</time>
      </trkpt>
      <trkpt lat="47.1743" lon="-1.61026">
        <ele>57</ele>
        <time>2021-02-06T11:58:53.000Z</time>
      </trkpt>
      <trkpt lat="47.17433" lon="-1.6104">
        <ele>57</ele>
        <time>2021-02-06T11:58:55.000Z</time>
      </trkpt>
      <trkpt lat="47.17439" lon="-1.61054">
        <ele>57</ele>
        <time>2021-02-06T11:58:57.000Z</time>
      </trkpt>
      <trkpt lat="47.17448" lon="-1.61069">
        <ele>56</ele>
        <time>2021-02-06T11:58:59.000Z</time>
      </trkpt>
      <trkpt lat="47.17458" lon="-1.61082">
        <ele>55</ele>
        <time>2021-02-06T11:59:01.000Z</time>
      </trkpt>
      <trkpt lat="47.1747" lon="-1.61093">
        <ele>56</ele>
        <time>2021-02-06T11:59:03.000Z</time>
      </trkpt>
      <trkpt lat="47.17483" lon="-1.61101">
        <ele>55</ele>
        <time>2021-02-06T11:59:05.000Z</time>
      </trkpt>
      <trkpt lat="47.17498" lon="-1.61101">
        <ele>55</ele>
        <time>2021-02-06T11:59:07.000Z</time>
      </trkpt>
      <trkpt lat="47.17511" lon="-1.61097">
        <ele>55</ele>
        <time>2021-02-06T11:59:09.000Z</time>
      </trkpt>
      <trkpt lat="47.17524" lon="-1.61088">
        <ele>55</ele>
        <time>2021-02-06T11:59:11.000Z</time>
      </trkpt>
      <trkpt lat="47.17536" lon="-1.61077">
        <ele>54</ele>
        <time>2021-02-06T11:59:13.000Z</time>
      </trkpt>
      <trkpt lat="47.17553" lon="-1.61064">
        <ele>53</ele>
        <time>2021-02-06T11:59:16.000Z</time>
      </trkpt>
      <trkpt lat="47.1757" lon="-1.61051">
        <ele>56</ele>
        <time>2021-02-06T11:59:19.000Z</time>
      </trkpt>
      <trkpt lat="47.1758" lon="-1.6104">
        <ele>55</ele>
        <time>2021-02-06T11:59:21.000Z</time>
      </trkpt>
      <trkpt lat="47.17593" lon="-1.61029">
        <ele>56</ele>
        <time>2021-02-06T11:59:23.000Z</time>
      </trkpt>
      <trkpt lat="47.17605" lon="-1.61017">
        <ele>56</ele>
        <time>2021-02-06T11:59:25.000Z</time>
      </trkpt>
      <trkpt lat="47.17617" lon="-1.61007">
        <ele>56</ele>
        <time>2021-02-06T11:59:27.000Z</time>
      </trkpt>
      <trkpt lat="47.17629" lon="-1.60996">
        <ele>56</ele>
        <time>2021-02-06T11:59:29.000Z</time>
      </trkpt>
      <trkpt lat="47.17641" lon="-1.60987">
        <ele>56</ele>
        <time>2021-02-06T11:59:31.000Z</time>
      </trkpt>
      <trkpt lat="47.17652" lon="-1.60977">
        <ele>55</ele>
        <time>2021-02-06T11:59:33.000Z</time>
      </trkpt>
      <trkpt lat="47.17663" lon="-1.60969">
        <ele>55</ele>
        <time>2021-02-06T11:59:35.000Z</time>
      </trkpt>
      <trkpt lat="47.17676" lon="-1.60968">
        <ele>55</ele>
        <time>2021-02-06T11:59:37.000Z</time>
      </trkpt>
      <trkpt lat="47.17688" lon="-1.6097">
        <ele>55</ele>
        <time>2021-02-06T11:59:39.000Z</time>
      </trkpt>
      <trkpt lat="47.177" lon="-1.60969">
        <ele>54</ele>
        <time>2021-02-06T11:59:41.000Z</time>
      </trkpt>
      <trkpt lat="47.17712" lon="-1.60963">
        <ele>54</ele>
        <time>2021-02-06T11:59:43.000Z</time>
      </trkpt>
      <trkpt lat="47.17724" lon="-1.60956">
        <ele>54</ele>
        <time>2021-02-06T11:59:45.000Z</time>
      </trkpt>
      <trkpt lat="47.17742" lon="-1.60946">
        <ele>54</ele>
        <time>2021-02-06T11:59:48.000Z</time>
      </trkpt>
      <trkpt lat="47.17753" lon="-1.60937">
        <ele>54</ele>
        <time>2021-02-06T11:59:50.000Z</time>
      </trkpt>
      <trkpt lat="47.17764" lon="-1.60928">
        <ele>53</ele>
        <time>2021-02-06T11:59:52.000Z</time>
      </trkpt>
      <trkpt lat="47.17781" lon="-1.60912">
        <ele>53</ele>
        <time>2021-02-06T11:59:55.000Z</time>
      </trkpt>
      <trkpt lat="47.17791" lon="-1.60904">
        <ele>53</ele>
        <time>2021-02-06T11:59:57.000Z</time>
      </trkpt>
      <trkpt lat="47.17801" lon="-1.60894">
        <ele>54</ele>
        <time>2021-02-06T11:59:59.000Z</time>
      </trkpt>
      <trkpt lat="47.17812" lon="-1.60884">
        <ele>54</ele>
        <time>2021-02-06T12:00:01.000Z</time>
      </trkpt>
      <trkpt lat="47.17823" lon="-1.60875">
        <ele>53</ele>
        <time>2021-02-06T12:00:03.000Z</time>
      </trkpt>
      <trkpt lat="47.17831" lon="-1.60859">
        <ele>53</ele>
        <time>2021-02-06T12:00:05.000Z</time>
      </trkpt>
      <trkpt lat="47.17839" lon="-1.60843">
        <ele>53</ele>
        <time>2021-02-06T12:00:07.000Z</time>
      </trkpt>
      <trkpt lat="47.17844" lon="-1.60824">
        <ele>54</ele>
        <time>2021-02-06T12:00:09.000Z</time>
      </trkpt>
      <trkpt lat="47.17849" lon="-1.60806">
        <ele>54</ele>
        <time>2021-02-06T12:00:11.000Z</time>
      </trkpt>
      <trkpt lat="47.17853" lon="-1.60786">
        <ele>54</ele>
        <time>2021-02-06T12:00:13.000Z</time>
      </trkpt>
      <trkpt lat="47.17857" lon="-1.60768">
        <ele>55</ele>
        <time>2021-02-06T12:00:15.000Z</time>
      </trkpt>
      <trkpt lat="47.17861" lon="-1.60749">
        <ele>55</ele>
        <time>2021-02-06T12:00:17.000Z</time>
      </trkpt>
      <trkpt lat="47.17865" lon="-1.60731">
        <ele>55</ele>
        <time>2021-02-06T12:00:19.000Z</time>
      </trkpt>
      <trkpt lat="47.17869" lon="-1.60713">
        <ele>56</ele>
        <time>2021-02-06T12:00:21.000Z</time>
      </trkpt>
      <trkpt lat="47.17873" lon="-1.60695">
        <ele>57</ele>
        <time>2021-02-06T12:00:23.000Z</time>
      </trkpt>
      <trkpt lat="47.17878" lon="-1.60678">
        <ele>57</ele>
        <time>2021-02-06T12:00:25.000Z</time>
      </trkpt>
      <trkpt lat="47.17883" lon="-1.60662">
        <ele>58</ele>
        <time>2021-02-06T12:00:27.000Z</time>
      </trkpt>
      <trkpt lat="47.17889" lon="-1.60646">
        <ele>58</ele>
        <time>2021-02-06T12:00:29.000Z</time>
      </trkpt>
      <trkpt lat="47.17894" lon="-1.60634">
        <ele>58</ele>
        <time>2021-02-06T12:00:31.000Z</time>
      </trkpt>
      <trkpt lat="47.17898" lon="-1.6062">
        <ele>58</ele>
        <time>2021-02-06T12:00:33.000Z</time>
      </trkpt>
      <trkpt lat="47.17901" lon="-1.60605">
        <ele>58</ele>
        <time>2021-02-06T12:00:35.000Z</time>
      </trkpt>
      <trkpt lat="47.17904" lon="-1.6059">
        <ele>57</ele>
        <time>2021-02-06T12:00:37.000Z</time>
      </trkpt>
      <trkpt lat="47.17914" lon="-1.6058">
        <ele>56</ele>
        <time>2021-02-06T12:00:40.000Z</time>
      </trkpt>
      <trkpt lat="47.17924" lon="-1.60581">
        <ele>55</ele>
        <time>2021-02-06T12:00:42.000Z</time>
      </trkpt>
      <trkpt lat="47.17935" lon="-1.60579">
        <ele>54</ele>
        <time>2021-02-06T12:00:44.000Z</time>
      </trkpt>
      <trkpt lat="47.17948" lon="-1.60574">
        <ele>54</ele>
        <time>2021-02-06T12:00:46.000Z</time>
      </trkpt>
      <trkpt lat="47.1796" lon="-1.60569">
        <ele>54</ele>
        <time>2021-02-06T12:00:48.000Z</time>
      </trkpt>
      <trkpt lat="47.1797" lon="-1.60563">
        <ele>54</ele>
        <time>2021-02-06T12:00:50.000Z</time>
      </trkpt>
      <trkpt lat="47.17984" lon="-1.60558">
        <ele>55</ele>
        <time>2021-02-06T12:00:52.000Z</time>
      </trkpt>
      <trkpt lat="47.17998" lon="-1.60554">
        <ele>55</ele>
        <time>2021-02-06T12:00:54.000Z</time>
      </trkpt>
      <trkpt lat="47.18011" lon="-1.60552">
        <ele>56</ele>
        <time>2021-02-06T12:00:56.000Z</time>
      </trkpt>
      <trkpt lat="47.18025" lon="-1.60551">
        <ele>56</ele>
        <time>2021-02-06T12:00:58.000Z</time>
      </trkpt>
      <trkpt lat="47.18038" lon="-1.60555">
        <ele>56</ele>
        <time>2021-02-06T12:01:00.000Z</time>
      </trkpt>
      <trkpt lat="47.1805" lon="-1.60561">
        <ele>56</ele>
        <time>2021-02-06T12:01:02.000Z</time>
      </trkpt>
      <trkpt lat="47.18061" lon="-1.60567">
        <ele>55</ele>
        <time>2021-02-06T12:01:04.000Z</time>
      </trkpt>
      <trkpt lat="47.18073" lon="-1.60574">
        <ele>55</ele>
        <time>2021-02-06T12:01:06.000Z</time>
      </trkpt>
      <trkpt lat="47.18085" lon="-1.6058">
        <ele>55</ele>
        <time>2021-02-06T12:01:08.000Z</time>
      </trkpt>
      <trkpt lat="47.18103" lon="-1.60589">
        <ele>55</ele>
        <time>2021-02-06T12:01:11.000Z</time>
      </trkpt>
      <trkpt lat="47.18113" lon="-1.60593">
        <ele>55</ele>
        <time>2021-02-06T12:01:13.000Z</time>
      </trkpt>
      <trkpt lat="47.18124" lon="-1.60596">
        <ele>55</ele>
        <time>2021-02-06T12:01:15.000Z</time>
      </trkpt>
      <trkpt lat="47.18135" lon="-1.60599">
        <ele>55</ele>
        <time>2021-02-06T12:01:17.000Z</time>
      </trkpt>
      <trkpt lat="47.18146" lon="-1.606">
        <ele>54</ele>
        <time>2021-02-06T12:01:19.000Z</time>
      </trkpt>
      <trkpt lat="47.18158" lon="-1.606">
        <ele>54</ele>
        <time>2021-02-06T12:01:21.000Z</time>
      </trkpt>
      <trkpt lat="47.18174" lon="-1.60601">
        <ele>54</ele>
        <time>2021-02-06T12:01:24.000Z</time>
      </trkpt>
      <trkpt lat="47.18189" lon="-1.60591">
        <ele>55</ele>
        <time>2021-02-06T12:01:28.000Z</time>
      </trkpt>
      <trkpt lat="47.18192" lon="-1.60577">
        <ele>56</ele>
        <time>2021-02-06T12:01:30.000Z</time>
      </trkpt>
      <trkpt lat="47.18202" lon="-1.6057">
        <ele>56</ele>
        <time>2021-02-06T12:01:32.000Z</time>
      </trkpt>
      <trkpt lat="47.18212" lon="-1.60566">
        <ele>56</ele>
        <time>2021-02-06T12:01:34.000Z</time>
      </trkpt>
      <trkpt lat="47.1822" lon="-1.60557">
        <ele>55</ele>
        <time>2021-02-06T12:01:36.000Z</time>
      </trkpt>
      <trkpt lat="47.18231" lon="-1.60552">
        <ele>55</ele>
        <time>2021-02-06T12:01:38.000Z</time>
      </trkpt>
      <trkpt lat="47.18241" lon="-1.60547">
        <ele>55</ele>
        <time>2021-02-06T12:01:40.000Z</time>
      </trkpt>
      <trkpt lat="47.18251" lon="-1.60541">
        <ele>55</ele>
        <time>2021-02-06T12:01:42.000Z</time>
      </trkpt>
      <trkpt lat="47.18261" lon="-1.60531">
        <ele>53</ele>
        <time>2021-02-06T12:01:44.000Z</time>
      </trkpt>
      <trkpt lat="47.18271" lon="-1.60521">
        <ele>53</ele>
        <time>2021-02-06T12:01:46.000Z</time>
      </trkpt>
      <trkpt lat="47.1828" lon="-1.60512">
        <ele>53</ele>
        <time>2021-02-06T12:01:48.000Z</time>
      </trkpt>
      <trkpt lat="47.18298" lon="-1.605">
        <ele>52</ele>
        <time>2021-02-06T12:01:51.000Z</time>
      </trkpt>
      <trkpt lat="47.18309" lon="-1.60491">
        <ele>52</ele>
        <time>2021-02-06T12:01:53.000Z</time>
      </trkpt>
      <trkpt lat="47.18316" lon="-1.60478">
        <ele>53</ele>
        <time>2021-02-06T12:01:55.000Z</time>
      </trkpt>
      <trkpt lat="47.1833" lon="-1.6046">
        <ele>52</ele>
        <time>2021-02-06T12:01:58.000Z</time>
      </trkpt>
      <trkpt lat="47.1834" lon="-1.60449">
        <ele>52</ele>
        <time>2021-02-06T12:02:00.000Z</time>
      </trkpt>
      <trkpt lat="47.18348" lon="-1.60439">
        <ele>53</ele>
        <time>2021-02-06T12:02:02.000Z</time>
      </trkpt>
      <trkpt lat="47.18357" lon="-1.60427">
        <ele>53</ele>
        <time>2021-02-06T12:02:04.000Z</time>
      </trkpt>
      <trkpt lat="47.18366" lon="-1.60415">
        <ele>52</ele>
        <time>2021-02-06T12:02:06.000Z</time>
      </trkpt>
      <trkpt lat="47.18375" lon="-1.60403">
        <ele>52</ele>
        <time>2021-02-06T12:02:08.000Z</time>
      </trkpt>
      <trkpt lat="47.18384" lon="-1.60391">
        <ele>53</ele>
        <time>2021-02-06T12:02:10.000Z</time>
      </trkpt>
      <trkpt lat="47.18392" lon="-1.60379">
        <ele>53</ele>
        <time>2021-02-06T12:02:12.000Z</time>
      </trkpt>
      <trkpt lat="47.18401" lon="-1.60368">
        <ele>52</ele>
        <time>2021-02-06T12:02:14.000Z</time>
      </trkpt>
      <trkpt lat="47.1841" lon="-1.60357">
        <ele>52</ele>
        <time>2021-02-06T12:02:16.000Z</time>
      </trkpt>
      <trkpt lat="47.18417" lon="-1.60345">
        <ele>53</ele>
        <time>2021-02-06T12:02:18.000Z</time>
      </trkpt>
      <trkpt lat="47.18426" lon="-1.60333">
        <ele>54</ele>
        <time>2021-02-06T12:02:20.000Z</time>
      </trkpt>
      <trkpt lat="47.18434" lon="-1.6032">
        <ele>53</ele>
        <time>2021-02-06T12:02:22.000Z</time>
      </trkpt>
      <trkpt lat="47.18442" lon="-1.60307">
        <ele>54</ele>
        <time>2021-02-06T12:02:24.000Z</time>
      </trkpt>
      <trkpt lat="47.1845" lon="-1.60294">
        <ele>55</ele>
        <time>2021-02-06T12:02:26.000Z</time>
      </trkpt>
      <trkpt lat="47.18458" lon="-1.60281">
        <ele>55</ele>
        <time>2021-02-06T12:02:28.000Z</time>
      </trkpt>
      <trkpt lat="47.18465" lon="-1.60268">
        <ele>54</ele>
        <time>2021-02-06T12:02:30.000Z</time>
      </trkpt>
      <trkpt lat="47.18472" lon="-1.60255">
        <ele>54</ele>
        <time>2021-02-06T12:02:32.000Z</time>
      </trkpt>
      <trkpt lat="47.18479" lon="-1.60242">
        <ele>55</ele>
        <time>2021-02-06T12:02:34.000Z</time>
      </trkpt>
      <trkpt lat="47.1849" lon="-1.60222">
        <ele>54</ele>
        <time>2021-02-06T12:02:37.000Z</time>
      </trkpt>
      <trkpt lat="47.18497" lon="-1.60207">
        <ele>51</ele>
        <time>2021-02-06T12:02:39.000Z</time>
      </trkpt>
      <trkpt lat="47.18504" lon="-1.60194">
        <ele>52</ele>
        <time>2021-02-06T12:02:41.000Z</time>
      </trkpt>
      <trkpt lat="47.18511" lon="-1.60181">
        <ele>53</ele>
        <time>2021-02-06T12:02:43.000Z</time>
      </trkpt>
      <trkpt lat="47.18518" lon="-1.60168">
        <ele>54</ele>
        <time>2021-02-06T12:02:45.000Z</time>
      </trkpt>
      <trkpt lat="47.18524" lon="-1.60155">
        <ele>54</ele>
        <time>2021-02-06T12:02:47.000Z</time>
      </trkpt>
      <trkpt lat="47.1853" lon="-1.6014">
        <ele>55</ele>
        <time>2021-02-06T12:02:49.000Z</time>
      </trkpt>
      <trkpt lat="47.18537" lon="-1.60125">
        <ele>56</ele>
        <time>2021-02-06T12:02:51.000Z</time>
      </trkpt>
      <trkpt lat="47.18542" lon="-1.60111">
        <ele>56</ele>
        <time>2021-02-06T12:02:53.000Z</time>
      </trkpt>
      <trkpt lat="47.18549" lon="-1.60096">
        <ele>56</ele>
        <time>2021-02-06T12:02:55.000Z</time>
      </trkpt>
      <trkpt lat="47.18555" lon="-1.60081">
        <ele>56</ele>
        <time>2021-02-06T12:02:57.000Z</time>
      </trkpt>
      <trkpt lat="47.18564" lon="-1.60061">
        <ele>55</ele>
        <time>2021-02-06T12:03:00.000Z</time>
      </trkpt>
      <trkpt lat="47.18569" lon="-1.60046">
        <ele>55</ele>
        <time>2021-02-06T12:03:02.000Z</time>
      </trkpt>
      <trkpt lat="47.18574" lon="-1.6003">
        <ele>56</ele>
        <time>2021-02-06T12:03:04.000Z</time>
      </trkpt>
      <trkpt lat="47.1858" lon="-1.60013">
        <ele>56</ele>
        <time>2021-02-06T12:03:06.000Z</time>
      </trkpt>
      <trkpt lat="47.18588" lon="-1.59989">
        <ele>57</ele>
        <time>2021-02-06T12:03:09.000Z</time>
      </trkpt>
      <trkpt lat="47.18593" lon="-1.59976">
        <ele>55</ele>
        <time>2021-02-06T12:03:11.000Z</time>
      </trkpt>
      <trkpt lat="47.18596" lon="-1.5996">
        <ele>55</ele>
        <time>2021-02-06T12:03:13.000Z</time>
      </trkpt>
      <trkpt lat="47.18602" lon="-1.59944">
        <ele>56</ele>
        <time>2021-02-06T12:03:15.000Z</time>
      </trkpt>
      <trkpt lat="47.18607" lon="-1.59928">
        <ele>56</ele>
        <time>2021-02-06T12:03:17.000Z</time>
      </trkpt>
      <trkpt lat="47.1861" lon="-1.59914">
        <ele>57</ele>
        <time>2021-02-06T12:03:19.000Z</time>
      </trkpt>
      <trkpt lat="47.18613" lon="-1.59899">
        <ele>57</ele>
        <time>2021-02-06T12:03:21.000Z</time>
      </trkpt>
      <trkpt lat="47.18617" lon="-1.59884">
        <ele>57</ele>
        <time>2021-02-06T12:03:23.000Z</time>
      </trkpt>
      <trkpt lat="47.1862" lon="-1.59869">
        <ele>57</ele>
        <time>2021-02-06T12:03:25.000Z</time>
      </trkpt>
      <trkpt lat="47.1862" lon="-1.59845">
        <ele>57</ele>
        <time>2021-02-06T12:03:28.000Z</time>
      </trkpt>
      <trkpt lat="47.18619" lon="-1.5983">
        <ele>59</ele>
        <time>2021-02-06T12:03:30.000Z</time>
      </trkpt>
      <trkpt lat="47.18624" lon="-1.59819">
        <ele>59</ele>
        <time>2021-02-06T12:03:32.000Z</time>
      </trkpt>
      <trkpt lat="47.18628" lon="-1.59806">
        <ele>59</ele>
        <time>2021-02-06T12:03:34.000Z</time>
      </trkpt>
      <trkpt lat="47.1863" lon="-1.59789">
        <ele>58</ele>
        <time>2021-02-06T12:03:36.000Z</time>
      </trkpt>
      <trkpt lat="47.18636" lon="-1.59766">
        <ele>57</ele>
        <time>2021-02-06T12:03:39.000Z</time>
      </trkpt>
      <trkpt lat="47.18649" lon="-1.59748">
        <ele>57</ele>
        <time>2021-02-06T12:03:42.000Z</time>
      </trkpt>
      <trkpt lat="47.18653" lon="-1.59732">
        <ele>58</ele>
        <time>2021-02-06T12:03:44.000Z</time>
      </trkpt>
      <trkpt lat="47.18656" lon="-1.59716">
        <ele>58</ele>
        <time>2021-02-06T12:03:46.000Z</time>
      </trkpt>
      <trkpt lat="47.18658" lon="-1.597">
        <ele>58</ele>
        <time>2021-02-06T12:03:48.000Z</time>
      </trkpt>
      <trkpt lat="47.18663" lon="-1.59675">
        <ele>58</ele>
        <time>2021-02-06T12:03:51.000Z</time>
      </trkpt>
      <trkpt lat="47.18668" lon="-1.59659">
        <ele>58</ele>
        <time>2021-02-06T12:03:53.000Z</time>
      </trkpt>
      <trkpt lat="47.18672" lon="-1.59643">
        <ele>59</ele>
        <time>2021-02-06T12:03:55.000Z</time>
      </trkpt>
      <trkpt lat="47.18674" lon="-1.59626">
        <ele>59</ele>
        <time>2021-02-06T12:03:57.000Z</time>
      </trkpt>
      <trkpt lat="47.18677" lon="-1.59609">
        <ele>60</ele>
        <time>2021-02-06T12:03:59.000Z</time>
      </trkpt>
      <trkpt lat="47.18679" lon="-1.59592">
        <ele>59</ele>
        <time>2021-02-06T12:04:01.000Z</time>
      </trkpt>
      <trkpt lat="47.18681" lon="-1.59575">
        <ele>58</ele>
        <time>2021-02-06T12:04:03.000Z</time>
      </trkpt>
      <trkpt lat="47.18684" lon="-1.59548">
        <ele>58</ele>
        <time>2021-02-06T12:04:06.000Z</time>
      </trkpt>
      <trkpt lat="47.18685" lon="-1.59531">
        <ele>58</ele>
        <time>2021-02-06T12:04:08.000Z</time>
      </trkpt>
      <trkpt lat="47.18687" lon="-1.59513">
        <ele>57</ele>
        <time>2021-02-06T12:04:10.000Z</time>
      </trkpt>
      <trkpt lat="47.1869" lon="-1.59496">
        <ele>57</ele>
        <time>2021-02-06T12:04:12.000Z</time>
      </trkpt>
      <trkpt lat="47.18692" lon="-1.59479">
        <ele>57</ele>
        <time>2021-02-06T12:04:14.000Z</time>
      </trkpt>
      <trkpt lat="47.18694" lon="-1.59461">
        <ele>57</ele>
        <time>2021-02-06T12:04:16.000Z</time>
      </trkpt>
      <trkpt lat="47.18696" lon="-1.59443">
        <ele>56</ele>
        <time>2021-02-06T12:04:18.000Z</time>
      </trkpt>
      <trkpt lat="47.18697" lon="-1.59426">
        <ele>57</ele>
        <time>2021-02-06T12:04:20.000Z</time>
      </trkpt>
      <trkpt lat="47.18699" lon="-1.59409">
        <ele>57</ele>
        <time>2021-02-06T12:04:22.000Z</time>
      </trkpt>
      <trkpt lat="47.18701" lon="-1.59392">
        <ele>57</ele>
        <time>2021-02-06T12:04:24.000Z</time>
      </trkpt>
      <trkpt lat="47.18703" lon="-1.59376">
        <ele>56</ele>
        <time>2021-02-06T12:04:26.000Z</time>
      </trkpt>
      <trkpt lat="47.18705" lon="-1.59361">
        <ele>55</ele>
        <time>2021-02-06T12:04:28.000Z</time>
      </trkpt>
      <trkpt lat="47.18707" lon="-1.59342">
        <ele>55</ele>
        <time>2021-02-06T12:04:30.000Z</time>
      </trkpt>
      <trkpt lat="47.18709" lon="-1.59324">
        <ele>56</ele>
        <time>2021-02-06T12:04:32.000Z</time>
      </trkpt>
      <trkpt lat="47.1871" lon="-1.59307">
        <ele>56</ele>
        <time>2021-02-06T12:04:34.000Z</time>
      </trkpt>
      <trkpt lat="47.18712" lon="-1.5929">
        <ele>56</ele>
        <time>2021-02-06T12:04:36.000Z</time>
      </trkpt>
      <trkpt lat="47.18713" lon="-1.59273">
        <ele>56</ele>
        <time>2021-02-06T12:04:38.000Z</time>
      </trkpt>
      <trkpt lat="47.18715" lon="-1.59257">
        <ele>56</ele>
        <time>2021-02-06T12:04:40.000Z</time>
      </trkpt>
      <trkpt lat="47.18718" lon="-1.5924">
        <ele>56</ele>
        <time>2021-02-06T12:04:42.000Z</time>
      </trkpt>
      <trkpt lat="47.18719" lon="-1.59223">
        <ele>56</ele>
        <time>2021-02-06T12:04:44.000Z</time>
      </trkpt>
      <trkpt lat="47.18721" lon="-1.59206">
        <ele>57</ele>
        <time>2021-02-06T12:04:46.000Z</time>
      </trkpt>
      <trkpt lat="47.18723" lon="-1.5919">
        <ele>57</ele>
        <time>2021-02-06T12:04:48.000Z</time>
      </trkpt>
      <trkpt lat="47.18725" lon="-1.59165">
        <ele>57</ele>
        <time>2021-02-06T12:04:51.000Z</time>
      </trkpt>
      <trkpt lat="47.18727" lon="-1.59148">
        <ele>57</ele>
        <time>2021-02-06T12:04:53.000Z</time>
      </trkpt>
      <trkpt lat="47.18729" lon="-1.59131">
        <ele>57</ele>
        <time>2021-02-06T12:04:55.000Z</time>
      </trkpt>
      <trkpt lat="47.18732" lon="-1.59105">
        <ele>57</ele>
        <time>2021-02-06T12:04:58.000Z</time>
      </trkpt>
      <trkpt lat="47.18735" lon="-1.59088">
        <ele>56</ele>
        <time>2021-02-06T12:05:00.000Z</time>
      </trkpt>
      <trkpt lat="47.18737" lon="-1.59071">
        <ele>56</ele>
        <time>2021-02-06T12:05:02.000Z</time>
      </trkpt>
      <trkpt lat="47.18738" lon="-1.59054">
        <ele>56</ele>
        <time>2021-02-06T12:05:04.000Z</time>
      </trkpt>
      <trkpt lat="47.18741" lon="-1.59029">
        <ele>57</ele>
        <time>2021-02-06T12:05:07.000Z</time>
      </trkpt>
      <trkpt lat="47.18742" lon="-1.59012">
        <ele>56</ele>
        <time>2021-02-06T12:05:09.000Z</time>
      </trkpt>
      <trkpt lat="47.18744" lon="-1.58995">
        <ele>56</ele>
        <time>2021-02-06T12:05:11.000Z</time>
      </trkpt>
      <trkpt lat="47.18746" lon="-1.58978">
        <ele>56</ele>
        <time>2021-02-06T12:05:13.000Z</time>
      </trkpt>
      <trkpt lat="47.18747" lon="-1.58962">
        <ele>55</ele>
        <time>2021-02-06T12:05:15.000Z</time>
      </trkpt>
      <trkpt lat="47.18749" lon="-1.58947">
        <ele>54</ele>
        <time>2021-02-06T12:05:17.000Z</time>
      </trkpt>
      <trkpt lat="47.18751" lon="-1.58929">
        <ele>55</ele>
        <time>2021-02-06T12:05:19.000Z</time>
      </trkpt>
      <trkpt lat="47.18753" lon="-1.58911">
        <ele>55</ele>
        <time>2021-02-06T12:05:21.000Z</time>
      </trkpt>
      <trkpt lat="47.18755" lon="-1.58893">
        <ele>55</ele>
        <time>2021-02-06T12:05:23.000Z</time>
      </trkpt>
      <trkpt lat="47.18757" lon="-1.58875">
        <ele>54</ele>
        <time>2021-02-06T12:05:25.000Z</time>
      </trkpt>
      <trkpt lat="47.1876" lon="-1.58857">
        <ele>55</ele>
        <time>2021-02-06T12:05:27.000Z</time>
      </trkpt>
      <trkpt lat="47.18762" lon="-1.58839">
        <ele>55</ele>
        <time>2021-02-06T12:05:29.000Z</time>
      </trkpt>
      <trkpt lat="47.18764" lon="-1.58815">
        <ele>56</ele>
        <time>2021-02-06T12:05:32.000Z</time>
      </trkpt>
      <trkpt lat="47.18764" lon="-1.58801">
        <ele>56</ele>
        <time>2021-02-06T12:05:34.000Z</time>
      </trkpt>
      <trkpt lat="47.18761" lon="-1.58785">
        <ele>58</ele>
        <time>2021-02-06T12:05:37.000Z</time>
      </trkpt>
      <trkpt lat="47.18755" lon="-1.58767">
        <ele>58</ele>
        <time>2021-02-06T12:05:40.000Z</time>
      </trkpt>
      <trkpt lat="47.18755" lon="-1.58746">
        <ele>59</ele>
        <time>2021-02-06T12:05:42.000Z</time>
      </trkpt>
      <trkpt lat="47.18761" lon="-1.58726">
        <ele>58</ele>
        <time>2021-02-06T12:05:44.000Z</time>
      </trkpt>
      <trkpt lat="47.1877" lon="-1.5871">
        <ele>58</ele>
        <time>2021-02-06T12:05:46.000Z</time>
      </trkpt>
      <trkpt lat="47.18784" lon="-1.58689">
        <ele>59</ele>
        <time>2021-02-06T12:05:49.000Z</time>
      </trkpt>
      <trkpt lat="47.18787" lon="-1.58671">
        <ele>60</ele>
        <time>2021-02-06T12:05:51.000Z</time>
      </trkpt>
      <trkpt lat="47.18791" lon="-1.58654">
        <ele>59</ele>
        <time>2021-02-06T12:05:53.000Z</time>
      </trkpt>
      <trkpt lat="47.18796" lon="-1.58636">
        <ele>59</ele>
        <time>2021-02-06T12:05:55.000Z</time>
      </trkpt>
      <trkpt lat="47.188" lon="-1.58619">
        <ele>59</ele>
        <time>2021-02-06T12:05:57.000Z</time>
      </trkpt>
      <trkpt lat="47.18805" lon="-1.58602">
        <ele>58</ele>
        <time>2021-02-06T12:05:59.000Z</time>
      </trkpt>
      <trkpt lat="47.18809" lon="-1.58585">
        <ele>58</ele>
        <time>2021-02-06T12:06:01.000Z</time>
      </trkpt>
      <trkpt lat="47.18814" lon="-1.58568">
        <ele>58</ele>
        <time>2021-02-06T12:06:03.000Z</time>
      </trkpt>
      <trkpt lat="47.18819" lon="-1.58552">
        <ele>57</ele>
        <time>2021-02-06T12:06:05.000Z</time>
      </trkpt>
      <trkpt lat="47.18823" lon="-1.58535">
        <ele>57</ele>
        <time>2021-02-06T12:06:07.000Z</time>
      </trkpt>
      <trkpt lat="47.18827" lon="-1.58518">
        <ele>58</ele>
        <time>2021-02-06T12:06:09.000Z</time>
      </trkpt>
      <trkpt lat="47.18833" lon="-1.58501">
        <ele>58</ele>
        <time>2021-02-06T12:06:11.000Z</time>
      </trkpt>
      <trkpt lat="47.18838" lon="-1.58484">
        <ele>59</ele>
        <time>2021-02-06T12:06:13.000Z</time>
      </trkpt>
      <trkpt lat="47.18842" lon="-1.58467">
        <ele>59</ele>
        <time>2021-02-06T12:06:15.000Z</time>
      </trkpt>
      <trkpt lat="47.18848" lon="-1.5845">
        <ele>59</ele>
        <time>2021-02-06T12:06:17.000Z</time>
      </trkpt>
      <trkpt lat="47.18853" lon="-1.58435">
        <ele>58</ele>
        <time>2021-02-06T12:06:19.000Z</time>
      </trkpt>
      <trkpt lat="47.18859" lon="-1.58411">
        <ele>57</ele>
        <time>2021-02-06T12:06:22.000Z</time>
      </trkpt>
      <trkpt lat="47.18866" lon="-1.58386">
        <ele>57</ele>
        <time>2021-02-06T12:06:25.000Z</time>
      </trkpt>
      <trkpt lat="47.18873" lon="-1.58369">
        <ele>57</ele>
        <time>2021-02-06T12:06:27.000Z</time>
      </trkpt>
      <trkpt lat="47.18878" lon="-1.58353">
        <ele>57</ele>
        <time>2021-02-06T12:06:29.000Z</time>
      </trkpt>
      <trkpt lat="47.18882" lon="-1.58337">
        <ele>57</ele>
        <time>2021-02-06T12:06:31.000Z</time>
      </trkpt>
      <trkpt lat="47.18888" lon="-1.58321">
        <ele>58</ele>
        <time>2021-02-06T12:06:33.000Z</time>
      </trkpt>
      <trkpt lat="47.18893" lon="-1.58305">
        <ele>58</ele>
        <time>2021-02-06T12:06:35.000Z</time>
      </trkpt>
      <trkpt lat="47.18898" lon="-1.5829">
        <ele>57</ele>
        <time>2021-02-06T12:06:37.000Z</time>
      </trkpt>
      <trkpt lat="47.18905" lon="-1.58274">
        <ele>58</ele>
        <time>2021-02-06T12:06:39.000Z</time>
      </trkpt>
      <trkpt lat="47.18912" lon="-1.58257">
        <ele>56</ele>
        <time>2021-02-06T12:06:41.000Z</time>
      </trkpt>
      <trkpt lat="47.18918" lon="-1.5824">
        <ele>56</ele>
        <time>2021-02-06T12:06:43.000Z</time>
      </trkpt>
      <trkpt lat="47.18924" lon="-1.58226">
        <ele>55</ele>
        <time>2021-02-06T12:06:45.000Z</time>
      </trkpt>
      <trkpt lat="47.18928" lon="-1.58211">
        <ele>57</ele>
        <time>2021-02-06T12:06:47.000Z</time>
      </trkpt>
      <trkpt lat="47.18934" lon="-1.58194">
        <ele>58</ele>
        <time>2021-02-06T12:06:49.000Z</time>
      </trkpt>
      <trkpt lat="47.18939" lon="-1.58176">
        <ele>57</ele>
        <time>2021-02-06T12:06:51.000Z</time>
      </trkpt>
      <trkpt lat="47.18945" lon="-1.58159">
        <ele>57</ele>
        <time>2021-02-06T12:06:53.000Z</time>
      </trkpt>
      <trkpt lat="47.18952" lon="-1.58143">
        <ele>58</ele>
        <time>2021-02-06T12:06:55.000Z</time>
      </trkpt>
      <trkpt lat="47.18958" lon="-1.58128">
        <ele>59</ele>
        <time>2021-02-06T12:06:57.000Z</time>
      </trkpt>
      <trkpt lat="47.18964" lon="-1.58113">
        <ele>58</ele>
        <time>2021-02-06T12:06:59.000Z</time>
      </trkpt>
      <trkpt lat="47.18969" lon="-1.58096">
        <ele>59</ele>
        <time>2021-02-06T12:07:01.000Z</time>
      </trkpt>
      <trkpt lat="47.18982" lon="-1.58062">
        <ele>59</ele>
        <time>2021-02-06T12:07:05.000Z</time>
      </trkpt>
      <trkpt lat="47.18987" lon="-1.58046">
        <ele>59</ele>
        <time>2021-02-06T12:07:07.000Z</time>
      </trkpt>
      <trkpt lat="47.18993" lon="-1.58029">
        <ele>60</ele>
        <time>2021-02-06T12:07:09.000Z</time>
      </trkpt>
      <trkpt lat="47.18999" lon="-1.58013">
        <ele>59</ele>
        <time>2021-02-06T12:07:11.000Z</time>
      </trkpt>
      <trkpt lat="47.19005" lon="-1.57996">
        <ele>58</ele>
        <time>2021-02-06T12:07:13.000Z</time>
      </trkpt>
      <trkpt lat="47.1901" lon="-1.57981">
        <ele>57</ele>
        <time>2021-02-06T12:07:15.000Z</time>
      </trkpt>
      <trkpt lat="47.19015" lon="-1.57964">
        <ele>57</ele>
        <time>2021-02-06T12:07:17.000Z</time>
      </trkpt>
      <trkpt lat="47.19021" lon="-1.57948">
        <ele>57</ele>
        <time>2021-02-06T12:07:19.000Z</time>
      </trkpt>
      <trkpt lat="47.19027" lon="-1.57932">
        <ele>58</ele>
        <time>2021-02-06T12:07:21.000Z</time>
      </trkpt>
      <trkpt lat="47.19033" lon="-1.57918">
        <ele>58</ele>
        <time>2021-02-06T12:07:23.000Z</time>
      </trkpt>
      <trkpt lat="47.19038" lon="-1.579">
        <ele>59</ele>
        <time>2021-02-06T12:07:25.000Z</time>
      </trkpt>
      <trkpt lat="47.19045" lon="-1.57884">
        <ele>59</ele>
        <time>2021-02-06T12:07:27.000Z</time>
      </trkpt>
      <trkpt lat="47.1905" lon="-1.57872">
        <ele>58</ele>
        <time>2021-02-06T12:07:29.000Z</time>
      </trkpt>
      <trkpt lat="47.19056" lon="-1.57852">
        <ele>58</ele>
        <time>2021-02-06T12:07:31.000Z</time>
      </trkpt>
      <trkpt lat="47.19062" lon="-1.57835">
        <ele>59</ele>
        <time>2021-02-06T12:07:33.000Z</time>
      </trkpt>
      <trkpt lat="47.19067" lon="-1.57818">
        <ele>58</ele>
        <time>2021-02-06T12:07:35.000Z</time>
      </trkpt>
      <trkpt lat="47.19073" lon="-1.57803">
        <ele>58</ele>
        <time>2021-02-06T12:07:37.000Z</time>
      </trkpt>
      <trkpt lat="47.19082" lon="-1.57777">
        <ele>60</ele>
        <time>2021-02-06T12:07:40.000Z</time>
      </trkpt>
      <trkpt lat="47.19089" lon="-1.57762">
        <ele>58</ele>
        <time>2021-02-06T12:07:42.000Z</time>
      </trkpt>
      <trkpt lat="47.19095" lon="-1.57747">
        <ele>58</ele>
        <time>2021-02-06T12:07:44.000Z</time>
      </trkpt>
      <trkpt lat="47.19101" lon="-1.57729">
        <ele>59</ele>
        <time>2021-02-06T12:07:46.000Z</time>
      </trkpt>
      <trkpt lat="47.19106" lon="-1.57712">
        <ele>58</ele>
        <time>2021-02-06T12:07:48.000Z</time>
      </trkpt>
      <trkpt lat="47.19113" lon="-1.57688">
        <ele>58</ele>
        <time>2021-02-06T12:07:51.000Z</time>
      </trkpt>
      <trkpt lat="47.19118" lon="-1.57673">
        <ele>58</ele>
        <time>2021-02-06T12:07:53.000Z</time>
      </trkpt>
      <trkpt lat="47.19125" lon="-1.57656">
        <ele>59</ele>
        <time>2021-02-06T12:07:55.000Z</time>
      </trkpt>
      <trkpt lat="47.19131" lon="-1.57639">
        <ele>59</ele>
        <time>2021-02-06T12:07:57.000Z</time>
      </trkpt>
      <trkpt lat="47.1914" lon="-1.57614">
        <ele>59</ele>
        <time>2021-02-06T12:08:00.000Z</time>
      </trkpt>
      <trkpt lat="47.19145" lon="-1.57599">
        <ele>60</ele>
        <time>2021-02-06T12:08:02.000Z</time>
      </trkpt>
      <trkpt lat="47.19155" lon="-1.57575">
        <ele>60</ele>
        <time>2021-02-06T12:08:05.000Z</time>
      </trkpt>
      <trkpt lat="47.19168" lon="-1.57543">
        <ele>60</ele>
        <time>2021-02-06T12:08:09.000Z</time>
      </trkpt>
      <trkpt lat="47.19174" lon="-1.57525">
        <ele>60</ele>
        <time>2021-02-06T12:08:11.000Z</time>
      </trkpt>
      <trkpt lat="47.19179" lon="-1.57508">
        <ele>59</ele>
        <time>2021-02-06T12:08:13.000Z</time>
      </trkpt>
      <trkpt lat="47.19184" lon="-1.57491">
        <ele>59</ele>
        <time>2021-02-06T12:08:15.000Z</time>
      </trkpt>
      <trkpt lat="47.19189" lon="-1.57475">
        <ele>59</ele>
        <time>2021-02-06T12:08:17.000Z</time>
      </trkpt>
      <trkpt lat="47.19194" lon="-1.57458">
        <ele>60</ele>
        <time>2021-02-06T12:08:19.000Z</time>
      </trkpt>
      <trkpt lat="47.19201" lon="-1.57434">
        <ele>60</ele>
        <time>2021-02-06T12:08:22.000Z</time>
      </trkpt>
      <trkpt lat="47.19205" lon="-1.57416">
        <ele>60</ele>
        <time>2021-02-06T12:08:24.000Z</time>
      </trkpt>
      <trkpt lat="47.1921" lon="-1.574">
        <ele>60</ele>
        <time>2021-02-06T12:08:26.000Z</time>
      </trkpt>
      <trkpt lat="47.19217" lon="-1.57375">
        <ele>60</ele>
        <time>2021-02-06T12:08:29.000Z</time>
      </trkpt>
      <trkpt lat="47.19221" lon="-1.57361">
        <ele>58</ele>
        <time>2021-02-06T12:08:31.000Z</time>
      </trkpt>
      <trkpt lat="47.19223" lon="-1.57341">
        <ele>60</ele>
        <time>2021-02-06T12:08:33.000Z</time>
      </trkpt>
      <trkpt lat="47.19227" lon="-1.57323">
        <ele>62</ele>
        <time>2021-02-06T12:08:35.000Z</time>
      </trkpt>
      <trkpt lat="47.1923" lon="-1.57305">
        <ele>64</ele>
        <time>2021-02-06T12:08:37.000Z</time>
      </trkpt>
      <trkpt lat="47.19233" lon="-1.57288">
        <ele>64</ele>
        <time>2021-02-06T12:08:39.000Z</time>
      </trkpt>
      <trkpt lat="47.19235" lon="-1.5727">
        <ele>64</ele>
        <time>2021-02-06T12:08:41.000Z</time>
      </trkpt>
      <trkpt lat="47.19237" lon="-1.57252">
        <ele>63</ele>
        <time>2021-02-06T12:08:43.000Z</time>
      </trkpt>
      <trkpt lat="47.19242" lon="-1.57216">
        <ele>64</ele>
        <time>2021-02-06T12:08:47.000Z</time>
      </trkpt>
      <trkpt lat="47.19245" lon="-1.57199">
        <ele>63</ele>
        <time>2021-02-06T12:08:49.000Z</time>
      </trkpt>
      <trkpt lat="47.19246" lon="-1.57181">
        <ele>63</ele>
        <time>2021-02-06T12:08:51.000Z</time>
      </trkpt>
      <trkpt lat="47.19248" lon="-1.57164">
        <ele>62</ele>
        <time>2021-02-06T12:08:53.000Z</time>
      </trkpt>
      <trkpt lat="47.19252" lon="-1.57147">
        <ele>61</ele>
        <time>2021-02-06T12:08:55.000Z</time>
      </trkpt>
      <trkpt lat="47.19256" lon="-1.5713">
        <ele>60</ele>
        <time>2021-02-06T12:08:57.000Z</time>
      </trkpt>
      <trkpt lat="47.19259" lon="-1.57111">
        <ele>59</ele>
        <time>2021-02-06T12:08:59.000Z</time>
      </trkpt>
      <trkpt lat="47.1926" lon="-1.57093">
        <ele>59</ele>
        <time>2021-02-06T12:09:01.000Z</time>
      </trkpt>
      <trkpt lat="47.19261" lon="-1.57078">
        <ele>59</ele>
        <time>2021-02-06T12:09:03.000Z</time>
      </trkpt>
      <trkpt lat="47.19257" lon="-1.57066">
        <ele>58</ele>
        <time>2021-02-06T12:09:07.000Z</time>
      </trkpt>
      <trkpt lat="47.19252" lon="-1.57053">
        <ele>57</ele>
        <time>2021-02-06T12:09:09.000Z</time>
      </trkpt>
      <trkpt lat="47.19256" lon="-1.57035">
        <ele>56</ele>
        <time>2021-02-06T12:09:11.000Z</time>
      </trkpt>
      <trkpt lat="47.19265" lon="-1.57021">
        <ele>56</ele>
        <time>2021-02-06T12:09:13.000Z</time>
      </trkpt>
      <trkpt lat="47.19271" lon="-1.57004">
        <ele>57</ele>
        <time>2021-02-06T12:09:15.000Z</time>
      </trkpt>
      <trkpt lat="47.19273" lon="-1.56985">
        <ele>57</ele>
        <time>2021-02-06T12:09:17.000Z</time>
      </trkpt>
      <trkpt lat="47.19275" lon="-1.56966">
        <ele>57</ele>
        <time>2021-02-06T12:09:19.000Z</time>
      </trkpt>
      <trkpt lat="47.19277" lon="-1.56947">
        <ele>58</ele>
        <time>2021-02-06T12:09:21.000Z</time>
      </trkpt>
      <trkpt lat="47.19279" lon="-1.56929">
        <ele>58</ele>
        <time>2021-02-06T12:09:23.000Z</time>
      </trkpt>
      <trkpt lat="47.19279" lon="-1.5691">
        <ele>58</ele>
        <time>2021-02-06T12:09:25.000Z</time>
      </trkpt>
      <trkpt lat="47.19281" lon="-1.56891">
        <ele>58</ele>
        <time>2021-02-06T12:09:27.000Z</time>
      </trkpt>
      <trkpt lat="47.19283" lon="-1.56872">
        <ele>57</ele>
        <time>2021-02-06T12:09:29.000Z</time>
      </trkpt>
      <trkpt lat="47.19283" lon="-1.56856">
        <ele>56</ele>
        <time>2021-02-06T12:09:31.000Z</time>
      </trkpt>
      <trkpt lat="47.19285" lon="-1.56839">
        <ele>58</ele>
        <time>2021-02-06T12:09:33.000Z</time>
      </trkpt>
      <trkpt lat="47.19286" lon="-1.56822">
        <ele>58</ele>
        <time>2021-02-06T12:09:35.000Z</time>
      </trkpt>
      <trkpt lat="47.19287" lon="-1.56805">
        <ele>58</ele>
        <time>2021-02-06T12:09:37.000Z</time>
      </trkpt>
      <trkpt lat="47.19287" lon="-1.56787">
        <ele>58</ele>
        <time>2021-02-06T12:09:39.000Z</time>
      </trkpt>
      <trkpt lat="47.19288" lon="-1.56769">
        <ele>58</ele>
        <time>2021-02-06T12:09:41.000Z</time>
      </trkpt>
      <trkpt lat="47.19289" lon="-1.56752">
        <ele>58</ele>
        <time>2021-02-06T12:09:43.000Z</time>
      </trkpt>
      <trkpt lat="47.19289" lon="-1.56735">
        <ele>58</ele>
        <time>2021-02-06T12:09:45.000Z</time>
      </trkpt>
      <trkpt lat="47.19289" lon="-1.56717">
        <ele>57</ele>
        <time>2021-02-06T12:09:47.000Z</time>
      </trkpt>
      <trkpt lat="47.19288" lon="-1.56699">
        <ele>57</ele>
        <time>2021-02-06T12:09:49.000Z</time>
      </trkpt>
      <trkpt lat="47.19287" lon="-1.56672">
        <ele>57</ele>
        <time>2021-02-06T12:09:52.000Z</time>
      </trkpt>
      <trkpt lat="47.19285" lon="-1.56655">
        <ele>56</ele>
        <time>2021-02-06T12:09:54.000Z</time>
      </trkpt>
      <trkpt lat="47.19281" lon="-1.56639">
        <ele>53</ele>
        <time>2021-02-06T12:09:56.000Z</time>
      </trkpt>
      <trkpt lat="47.1928" lon="-1.5662">
        <ele>53</ele>
        <time>2021-02-06T12:09:58.000Z</time>
      </trkpt>
      <trkpt lat="47.19279" lon="-1.56603">
        <ele>53</ele>
        <time>2021-02-06T12:10:00.000Z</time>
      </trkpt>
      <trkpt lat="47.19278" lon="-1.56584">
        <ele>50</ele>
        <time>2021-02-06T12:10:02.000Z</time>
      </trkpt>
      <trkpt lat="47.19276" lon="-1.56565">
        <ele>49</ele>
        <time>2021-02-06T12:10:04.000Z</time>
      </trkpt>
      <trkpt lat="47.19274" lon="-1.56547">
        <ele>49</ele>
        <time>2021-02-06T12:10:06.000Z</time>
      </trkpt>
      <trkpt lat="47.19273" lon="-1.56519">
        <ele>50</ele>
        <time>2021-02-06T12:10:09.000Z</time>
      </trkpt>
      <trkpt lat="47.1927" lon="-1.56501">
        <ele>50</ele>
        <time>2021-02-06T12:10:11.000Z</time>
      </trkpt>
      <trkpt lat="47.19268" lon="-1.56474">
        <ele>51</ele>
        <time>2021-02-06T12:10:14.000Z</time>
      </trkpt>
      <trkpt lat="47.19266" lon="-1.56455">
        <ele>53</ele>
        <time>2021-02-06T12:10:16.000Z</time>
      </trkpt>
      <trkpt lat="47.19265" lon="-1.56438">
        <ele>54</ele>
        <time>2021-02-06T12:10:18.000Z</time>
      </trkpt>
      <trkpt lat="47.19264" lon="-1.5642">
        <ele>54</ele>
        <time>2021-02-06T12:10:20.000Z</time>
      </trkpt>
      <trkpt lat="47.19263" lon="-1.56403">
        <ele>53</ele>
        <time>2021-02-06T12:10:22.000Z</time>
      </trkpt>
      <trkpt lat="47.19262" lon="-1.56385">
        <ele>54</ele>
        <time>2021-02-06T12:10:24.000Z</time>
      </trkpt>
      <trkpt lat="47.19259" lon="-1.56367">
        <ele>54</ele>
        <time>2021-02-06T12:10:26.000Z</time>
      </trkpt>
      <trkpt lat="47.19256" lon="-1.5635">
        <ele>54</ele>
        <time>2021-02-06T12:10:28.000Z</time>
      </trkpt>
      <trkpt lat="47.19251" lon="-1.56336">
        <ele>54</ele>
        <time>2021-02-06T12:10:30.000Z</time>
      </trkpt>
      <trkpt lat="47.19245" lon="-1.56324">
        <ele>55</ele>
        <time>2021-02-06T12:10:32.000Z</time>
      </trkpt>
      <trkpt lat="47.19237" lon="-1.56309">
        <ele>55</ele>
        <time>2021-02-06T12:10:34.000Z</time>
      </trkpt>
      <trkpt lat="47.19233" lon="-1.56294">
        <ele>55</ele>
        <time>2021-02-06T12:10:36.000Z</time>
      </trkpt>
      <trkpt lat="47.19233" lon="-1.56269">
        <ele>55</ele>
        <time>2021-02-06T12:10:39.000Z</time>
      </trkpt>
      <trkpt lat="47.19239" lon="-1.56253">
        <ele>54</ele>
        <time>2021-02-06T12:10:41.000Z</time>
      </trkpt>
      <trkpt lat="47.19244" lon="-1.56237">
        <ele>54</ele>
        <time>2021-02-06T12:10:43.000Z</time>
      </trkpt>
      <trkpt lat="47.19244" lon="-1.56207">
        <ele>53</ele>
        <time>2021-02-06T12:10:46.000Z</time>
      </trkpt>
      <trkpt lat="47.19242" lon="-1.5619">
        <ele>53</ele>
        <time>2021-02-06T12:10:48.000Z</time>
      </trkpt>
      <trkpt lat="47.19242" lon="-1.5617">
        <ele>53</ele>
        <time>2021-02-06T12:10:50.000Z</time>
      </trkpt>
      <trkpt lat="47.19241" lon="-1.5615">
        <ele>53</ele>
        <time>2021-02-06T12:10:52.000Z</time>
      </trkpt>
      <trkpt lat="47.19241" lon="-1.56132">
        <ele>55</ele>
        <time>2021-02-06T12:10:54.000Z</time>
      </trkpt>
      <trkpt lat="47.19241" lon="-1.56113">
        <ele>56</ele>
        <time>2021-02-06T12:10:56.000Z</time>
      </trkpt>
      <trkpt lat="47.1924" lon="-1.56095">
        <ele>55</ele>
        <time>2021-02-06T12:10:58.000Z</time>
      </trkpt>
      <trkpt lat="47.1924" lon="-1.56077">
        <ele>55</ele>
        <time>2021-02-06T12:11:00.000Z</time>
      </trkpt>
      <trkpt lat="47.19239" lon="-1.56058">
        <ele>55</ele>
        <time>2021-02-06T12:11:02.000Z</time>
      </trkpt>
      <trkpt lat="47.19237" lon="-1.56039">
        <ele>55</ele>
        <time>2021-02-06T12:11:04.000Z</time>
      </trkpt>
      <trkpt lat="47.19236" lon="-1.5602">
        <ele>55</ele>
        <time>2021-02-06T12:11:06.000Z</time>
      </trkpt>
      <trkpt lat="47.19234" lon="-1.56002">
        <ele>55</ele>
        <time>2021-02-06T12:11:08.000Z</time>
      </trkpt>
      <trkpt lat="47.19232" lon="-1.55984">
        <ele>55</ele>
        <time>2021-02-06T12:11:10.000Z</time>
      </trkpt>
      <trkpt lat="47.1923" lon="-1.55965">
        <ele>56</ele>
        <time>2021-02-06T12:11:12.000Z</time>
      </trkpt>
      <trkpt lat="47.19228" lon="-1.55947">
        <ele>57</ele>
        <time>2021-02-06T12:11:14.000Z</time>
      </trkpt>
      <trkpt lat="47.19226" lon="-1.5593">
        <ele>57</ele>
        <time>2021-02-06T12:11:16.000Z</time>
      </trkpt>
      <trkpt lat="47.19225" lon="-1.55905">
        <ele>59</ele>
        <time>2021-02-06T12:11:19.000Z</time>
      </trkpt>
      <trkpt lat="47.19222" lon="-1.55885">
        <ele>60</ele>
        <time>2021-02-06T12:11:21.000Z</time>
      </trkpt>
      <trkpt lat="47.19219" lon="-1.55865">
        <ele>63</ele>
        <time>2021-02-06T12:11:23.000Z</time>
      </trkpt>
      <trkpt lat="47.1922" lon="-1.55845">
        <ele>63</ele>
        <time>2021-02-06T12:11:25.000Z</time>
      </trkpt>
      <trkpt lat="47.19219" lon="-1.55827">
        <ele>61</ele>
        <time>2021-02-06T12:11:27.000Z</time>
      </trkpt>
      <trkpt lat="47.19219" lon="-1.55811">
        <ele>60</ele>
        <time>2021-02-06T12:11:29.000Z</time>
      </trkpt>
      <trkpt lat="47.19218" lon="-1.55791">
        <ele>60</ele>
        <time>2021-02-06T12:11:31.000Z</time>
      </trkpt>
      <trkpt lat="47.19217" lon="-1.55762">
        <ele>60</ele>
        <time>2021-02-06T12:11:34.000Z</time>
      </trkpt>
      <trkpt lat="47.19215" lon="-1.55746">
        <ele>59</ele>
        <time>2021-02-06T12:11:36.000Z</time>
      </trkpt>
      <trkpt lat="47.19217" lon="-1.55725">
        <ele>59</ele>
        <time>2021-02-06T12:11:38.000Z</time>
      </trkpt>
      <trkpt lat="47.19218" lon="-1.55704">
        <ele>60</ele>
        <time>2021-02-06T12:11:40.000Z</time>
      </trkpt>
      <trkpt lat="47.19218" lon="-1.55685">
        <ele>60</ele>
        <time>2021-02-06T12:11:42.000Z</time>
      </trkpt>
      <trkpt lat="47.19219" lon="-1.55667">
        <ele>59</ele>
        <time>2021-02-06T12:11:44.000Z</time>
      </trkpt>
      <trkpt lat="47.1922" lon="-1.55651">
        <ele>59</ele>
        <time>2021-02-06T12:11:46.000Z</time>
      </trkpt>
      <trkpt lat="47.19221" lon="-1.55631">
        <ele>59</ele>
        <time>2021-02-06T12:11:48.000Z</time>
      </trkpt>
      <trkpt lat="47.19222" lon="-1.55612">
        <ele>60</ele>
        <time>2021-02-06T12:11:50.000Z</time>
      </trkpt>
      <trkpt lat="47.19223" lon="-1.55593">
        <ele>59</ele>
        <time>2021-02-06T12:11:52.000Z</time>
      </trkpt>
      <trkpt lat="47.19226" lon="-1.55565">
        <ele>59</ele>
        <time>2021-02-06T12:11:55.000Z</time>
      </trkpt>
      <trkpt lat="47.19228" lon="-1.55548">
        <ele>59</ele>
        <time>2021-02-06T12:11:57.000Z</time>
      </trkpt>
      <trkpt lat="47.19229" lon="-1.5553">
        <ele>60</ele>
        <time>2021-02-06T12:11:59.000Z</time>
      </trkpt>
      <trkpt lat="47.1923" lon="-1.55512">
        <ele>59</ele>
        <time>2021-02-06T12:12:01.000Z</time>
      </trkpt>
      <trkpt lat="47.1923" lon="-1.55495">
        <ele>60</ele>
        <time>2021-02-06T12:12:03.000Z</time>
      </trkpt>
      <trkpt lat="47.19229" lon="-1.55479">
        <ele>60</ele>
        <time>2021-02-06T12:12:05.000Z</time>
      </trkpt>
      <trkpt lat="47.19226" lon="-1.55463">
        <ele>57</ele>
        <time>2021-02-06T12:12:07.000Z</time>
      </trkpt>
      <trkpt lat="47.19216" lon="-1.55449">
        <ele>56</ele>
        <time>2021-02-06T12:12:09.000Z</time>
      </trkpt>
      <trkpt lat="47.19212" lon="-1.55433">
        <ele>57</ele>
        <time>2021-02-06T12:12:11.000Z</time>
      </trkpt>
      <trkpt lat="47.19216" lon="-1.55416">
        <ele>58</ele>
        <time>2021-02-06T12:12:13.000Z</time>
      </trkpt>
      <trkpt lat="47.19225" lon="-1.55404">
        <ele>56</ele>
        <time>2021-02-06T12:12:15.000Z</time>
      </trkpt>
      <trkpt lat="47.1924" lon="-1.5538">
        <ele>59</ele>
        <time>2021-02-06T12:12:19.000Z</time>
      </trkpt>
      <trkpt lat="47.19245" lon="-1.55366">
        <ele>59</ele>
        <time>2021-02-06T12:12:21.000Z</time>
      </trkpt>
      <trkpt lat="47.19249" lon="-1.55349">
        <ele>59</ele>
        <time>2021-02-06T12:12:23.000Z</time>
      </trkpt>
      <trkpt lat="47.19254" lon="-1.55332">
        <ele>59</ele>
        <time>2021-02-06T12:12:25.000Z</time>
      </trkpt>
      <trkpt lat="47.19258" lon="-1.55316">
        <ele>59</ele>
        <time>2021-02-06T12:12:27.000Z</time>
      </trkpt>
      <trkpt lat="47.19263" lon="-1.553">
        <ele>59</ele>
        <time>2021-02-06T12:12:29.000Z</time>
      </trkpt>
      <trkpt lat="47.19266" lon="-1.55283">
        <ele>59</ele>
        <time>2021-02-06T12:12:31.000Z</time>
      </trkpt>
      <trkpt lat="47.19268" lon="-1.55265">
        <ele>57</ele>
        <time>2021-02-06T12:12:33.000Z</time>
      </trkpt>
      <trkpt lat="47.19273" lon="-1.5525">
        <ele>58</ele>
        <time>2021-02-06T12:12:35.000Z</time>
      </trkpt>
      <trkpt lat="47.19279" lon="-1.55225">
        <ele>59</ele>
        <time>2021-02-06T12:12:38.000Z</time>
      </trkpt>
      <trkpt lat="47.19283" lon="-1.5521">
        <ele>58</ele>
        <time>2021-02-06T12:12:40.000Z</time>
      </trkpt>
      <trkpt lat="47.19289" lon="-1.55186">
        <ele>56</ele>
        <time>2021-02-06T12:12:43.000Z</time>
      </trkpt>
      <trkpt lat="47.19293" lon="-1.55169">
        <ele>58</ele>
        <time>2021-02-06T12:12:45.000Z</time>
      </trkpt>
      <trkpt lat="47.19297" lon="-1.55153">
        <ele>59</ele>
        <time>2021-02-06T12:12:47.000Z</time>
      </trkpt>
      <trkpt lat="47.19299" lon="-1.55138">
        <ele>59</ele>
        <time>2021-02-06T12:12:49.000Z</time>
      </trkpt>
      <trkpt lat="47.19304" lon="-1.55115">
        <ele>59</ele>
        <time>2021-02-06T12:12:52.000Z</time>
      </trkpt>
      <trkpt lat="47.19311" lon="-1.55091">
        <ele>62</ele>
        <time>2021-02-06T12:12:55.000Z</time>
      </trkpt>
      <trkpt lat="47.19317" lon="-1.55076">
        <ele>63</ele>
        <time>2021-02-06T12:12:57.000Z</time>
      </trkpt>
      <trkpt lat="47.19322" lon="-1.5506">
        <ele>64</ele>
        <time>2021-02-06T12:12:59.000Z</time>
      </trkpt>
      <trkpt lat="47.19325" lon="-1.55043">
        <ele>64</ele>
        <time>2021-02-06T12:13:01.000Z</time>
      </trkpt>
      <trkpt lat="47.19333" lon="-1.55015">
        <ele>64</ele>
        <time>2021-02-06T12:13:05.000Z</time>
      </trkpt>
      <trkpt lat="47.19338" lon="-1.54992">
        <ele>61</ele>
        <time>2021-02-06T12:13:08.000Z</time>
      </trkpt>
      <trkpt lat="47.19342" lon="-1.54977">
        <ele>62</ele>
        <time>2021-02-06T12:13:10.000Z</time>
      </trkpt>
      <trkpt lat="47.19347" lon="-1.54961">
        <ele>63</ele>
        <time>2021-02-06T12:13:12.000Z</time>
      </trkpt>
      <trkpt lat="47.19351" lon="-1.54945">
        <ele>66</ele>
        <time>2021-02-06T12:13:14.000Z</time>
      </trkpt>
      <trkpt lat="47.19354" lon="-1.5493">
        <ele>67</ele>
        <time>2021-02-06T12:13:16.000Z</time>
      </trkpt>
      <trkpt lat="47.19358" lon="-1.54913">
        <ele>66</ele>
        <time>2021-02-06T12:13:18.000Z</time>
      </trkpt>
      <trkpt lat="47.19361" lon="-1.54897">
        <ele>67</ele>
        <time>2021-02-06T12:13:20.000Z</time>
      </trkpt>
      <trkpt lat="47.19362" lon="-1.54882">
        <ele>69</ele>
        <time>2021-02-06T12:13:22.000Z</time>
      </trkpt>
      <trkpt lat="47.19365" lon="-1.54867">
        <ele>70</ele>
        <time>2021-02-06T12:13:24.000Z</time>
      </trkpt>
      <trkpt lat="47.19369" lon="-1.54851">
        <ele>71</ele>
        <time>2021-02-06T12:13:26.000Z</time>
      </trkpt>
      <trkpt lat="47.19373" lon="-1.54832">
        <ele>71</ele>
        <time>2021-02-06T12:13:28.000Z</time>
      </trkpt>
      <trkpt lat="47.19383" lon="-1.54804">
        <ele>68</ele>
        <time>2021-02-06T12:13:31.000Z</time>
      </trkpt>
      <trkpt lat="47.19389" lon="-1.54783">
        <ele>66</ele>
        <time>2021-02-06T12:13:33.000Z</time>
      </trkpt>
      <trkpt lat="47.19394" lon="-1.54759">
        <ele>62</ele>
        <time>2021-02-06T12:13:35.000Z</time>
      </trkpt>
      <trkpt lat="47.19398" lon="-1.54738">
        <ele>60</ele>
        <time>2021-02-06T12:13:37.000Z</time>
      </trkpt>
      <trkpt lat="47.19403" lon="-1.54716">
        <ele>60</ele>
        <time>2021-02-06T12:13:39.000Z</time>
      </trkpt>
      <trkpt lat="47.19408" lon="-1.54694">
        <ele>62</ele>
        <time>2021-02-06T12:13:41.000Z</time>
      </trkpt>
      <trkpt lat="47.19414" lon="-1.54675">
        <ele>63</ele>
        <time>2021-02-06T12:13:43.000Z</time>
      </trkpt>
      <trkpt lat="47.19422" lon="-1.54655">
        <ele>61</ele>
        <time>2021-02-06T12:13:45.000Z</time>
      </trkpt>
      <trkpt lat="47.19428" lon="-1.54635">
        <ele>58</ele>
        <time>2021-02-06T12:13:47.000Z</time>
      </trkpt>
      <trkpt lat="47.19432" lon="-1.54621">
        <ele>59</ele>
        <time>2021-02-06T12:13:49.000Z</time>
      </trkpt>
      <trkpt lat="47.19424" lon="-1.54607">
        <ele>58</ele>
        <time>2021-02-06T12:13:51.000Z</time>
      </trkpt>
      <trkpt lat="47.19418" lon="-1.54592">
        <ele>57</ele>
        <time>2021-02-06T12:13:53.000Z</time>
      </trkpt>
      <trkpt lat="47.19425" lon="-1.54573">
        <ele>58</ele>
        <time>2021-02-06T12:13:55.000Z</time>
      </trkpt>
      <trkpt lat="47.19434" lon="-1.54559">
        <ele>58</ele>
        <time>2021-02-06T12:13:57.000Z</time>
      </trkpt>
      <trkpt lat="47.19447" lon="-1.54549">
        <ele>59</ele>
        <time>2021-02-06T12:13:59.000Z</time>
      </trkpt>
      <trkpt lat="47.19453" lon="-1.54533">
        <ele>58</ele>
        <time>2021-02-06T12:14:01.000Z</time>
      </trkpt>
      <trkpt lat="47.19457" lon="-1.54517">
        <ele>59</ele>
        <time>2021-02-06T12:14:03.000Z</time>
      </trkpt>
      <trkpt lat="47.19463" lon="-1.545">
        <ele>58</ele>
        <time>2021-02-06T12:14:05.000Z</time>
      </trkpt>
      <trkpt lat="47.19467" lon="-1.54486">
        <ele>58</ele>
        <time>2021-02-06T12:14:07.000Z</time>
      </trkpt>
      <trkpt lat="47.19469" lon="-1.54473">
        <ele>58</ele>
        <time>2021-02-06T12:14:09.000Z</time>
      </trkpt>
      <trkpt lat="47.19477" lon="-1.54464">
        <ele>57</ele>
        <time>2021-02-06T12:14:11.000Z</time>
      </trkpt>
      <trkpt lat="47.19485" lon="-1.54452">
        <ele>57</ele>
        <time>2021-02-06T12:14:14.000Z</time>
      </trkpt>
      <trkpt lat="47.19499" lon="-1.54445">
        <ele>58</ele>
        <time>2021-02-06T12:14:16.000Z</time>
      </trkpt>
      <trkpt lat="47.19511" lon="-1.54436">
        <ele>59</ele>
        <time>2021-02-06T12:14:18.000Z</time>
      </trkpt>
      <trkpt lat="47.19524" lon="-1.54427">
        <ele>60</ele>
        <time>2021-02-06T12:14:20.000Z</time>
      </trkpt>
      <trkpt lat="47.19537" lon="-1.54418">
        <ele>59</ele>
        <time>2021-02-06T12:14:22.000Z</time>
      </trkpt>
      <trkpt lat="47.19549" lon="-1.54408">
        <ele>59</ele>
        <time>2021-02-06T12:14:24.000Z</time>
      </trkpt>
      <trkpt lat="47.19561" lon="-1.54399">
        <ele>58</ele>
        <time>2021-02-06T12:14:26.000Z</time>
      </trkpt>
      <trkpt lat="47.19573" lon="-1.5439">
        <ele>58</ele>
        <time>2021-02-06T12:14:28.000Z</time>
      </trkpt>
      <trkpt lat="47.19585" lon="-1.54381">
        <ele>58</ele>
        <time>2021-02-06T12:14:30.000Z</time>
      </trkpt>
      <trkpt lat="47.19598" lon="-1.54371">
        <ele>57</ele>
        <time>2021-02-06T12:14:32.000Z</time>
      </trkpt>
      <trkpt lat="47.19609" lon="-1.54359">
        <ele>58</ele>
        <time>2021-02-06T12:14:34.000Z</time>
      </trkpt>
      <trkpt lat="47.1962" lon="-1.54347">
        <ele>58</ele>
        <time>2021-02-06T12:14:36.000Z</time>
      </trkpt>
      <trkpt lat="47.19633" lon="-1.54327">
        <ele>58</ele>
        <time>2021-02-06T12:14:39.000Z</time>
      </trkpt>
      <trkpt lat="47.19643" lon="-1.54313">
        <ele>58</ele>
        <time>2021-02-06T12:14:41.000Z</time>
      </trkpt>
      <trkpt lat="47.19654" lon="-1.54302">
        <ele>59</ele>
        <time>2021-02-06T12:14:43.000Z</time>
      </trkpt>
      <trkpt lat="47.19665" lon="-1.54297">
        <ele>58</ele>
        <time>2021-02-06T12:14:45.000Z</time>
      </trkpt>
      <trkpt lat="47.19676" lon="-1.54287">
        <ele>58</ele>
        <time>2021-02-06T12:14:47.000Z</time>
      </trkpt>
      <trkpt lat="47.19688" lon="-1.54275">
        <ele>57</ele>
        <time>2021-02-06T12:14:49.000Z</time>
      </trkpt>
      <trkpt lat="47.19701" lon="-1.54266">
        <ele>57</ele>
        <time>2021-02-06T12:14:51.000Z</time>
      </trkpt>
      <trkpt lat="47.19712" lon="-1.54258">
        <ele>58</ele>
        <time>2021-02-06T12:14:53.000Z</time>
      </trkpt>
      <trkpt lat="47.19724" lon="-1.5425">
        <ele>58</ele>
        <time>2021-02-06T12:14:55.000Z</time>
      </trkpt>
      <trkpt lat="47.19734" lon="-1.54242">
        <ele>57</ele>
        <time>2021-02-06T12:14:57.000Z</time>
      </trkpt>
      <trkpt lat="47.19744" lon="-1.54233">
        <ele>57</ele>
        <time>2021-02-06T12:14:59.000Z</time>
      </trkpt>
      <trkpt lat="47.19751" lon="-1.54224">
        <ele>57</ele>
        <time>2021-02-06T12:15:01.000Z</time>
      </trkpt>
      <trkpt lat="47.19759" lon="-1.54215">
        <ele>58</ele>
        <time>2021-02-06T12:15:03.000Z</time>
      </trkpt>
      <trkpt lat="47.19768" lon="-1.54206">
        <ele>60</ele>
        <time>2021-02-06T12:15:05.000Z</time>
      </trkpt>
      <trkpt lat="47.19777" lon="-1.54199">
        <ele>61</ele>
        <time>2021-02-06T12:15:07.000Z</time>
      </trkpt>
      <trkpt lat="47.19793" lon="-1.54211">
        <ele>58</ele>
        <time>2021-02-06T12:15:11.000Z</time>
      </trkpt>
      <trkpt lat="47.19811" lon="-1.54225">
        <ele>58</ele>
        <time>2021-02-06T12:15:14.000Z</time>
      </trkpt>
      <trkpt lat="47.19823" lon="-1.54233">
        <ele>59</ele>
        <time>2021-02-06T12:15:16.000Z</time>
      </trkpt>
      <trkpt lat="47.19836" lon="-1.54242">
        <ele>59</ele>
        <time>2021-02-06T12:15:18.000Z</time>
      </trkpt>
      <trkpt lat="47.19845" lon="-1.54248">
        <ele>60</ele>
        <time>2021-02-06T12:15:20.000Z</time>
      </trkpt>
      <trkpt lat="47.1986" lon="-1.54262">
        <ele>60</ele>
        <time>2021-02-06T12:15:24.000Z</time>
      </trkpt>
      <trkpt lat="47.19873" lon="-1.5427">
        <ele>60</ele>
        <time>2021-02-06T12:15:28.000Z</time>
      </trkpt>
      <trkpt lat="47.19883" lon="-1.54276">
        <ele>61</ele>
        <time>2021-02-06T12:15:31.000Z</time>
      </trkpt>
      <trkpt lat="47.19894" lon="-1.54282">
        <ele>61</ele>
        <time>2021-02-06T12:15:33.000Z</time>
      </trkpt>
      <trkpt lat="47.19903" lon="-1.54289">
        <ele>61</ele>
        <time>2021-02-06T12:15:35.000Z</time>
      </trkpt>
      <trkpt lat="47.19913" lon="-1.54296">
        <ele>62</ele>
        <time>2021-02-06T12:15:37.000Z</time>
      </trkpt>
      <trkpt lat="47.19923" lon="-1.54303">
        <ele>61</ele>
        <time>2021-02-06T12:15:39.000Z</time>
      </trkpt>
      <trkpt lat="47.19933" lon="-1.5431">
        <ele>60</ele>
        <time>2021-02-06T12:15:41.000Z</time>
      </trkpt>
      <trkpt lat="47.19944" lon="-1.54318">
        <ele>59</ele>
        <time>2021-02-06T12:15:43.000Z</time>
      </trkpt>
      <trkpt lat="47.19956" lon="-1.54324">
        <ele>60</ele>
        <time>2021-02-06T12:15:45.000Z</time>
      </trkpt>
      <trkpt lat="47.19967" lon="-1.54332">
        <ele>60</ele>
        <time>2021-02-06T12:15:47.000Z</time>
      </trkpt>
      <trkpt lat="47.19978" lon="-1.54341">
        <ele>59</ele>
        <time>2021-02-06T12:15:49.000Z</time>
      </trkpt>
      <trkpt lat="47.19989" lon="-1.54348">
        <ele>59</ele>
        <time>2021-02-06T12:15:51.000Z</time>
      </trkpt>
      <trkpt lat="47.20001" lon="-1.54355">
        <ele>58</ele>
        <time>2021-02-06T12:15:53.000Z</time>
      </trkpt>
      <trkpt lat="47.20016" lon="-1.54366">
        <ele>58</ele>
        <time>2021-02-06T12:15:56.000Z</time>
      </trkpt>
      <trkpt lat="47.2003" lon="-1.54372">
        <ele>57</ele>
        <time>2021-02-06T12:15:59.000Z</time>
      </trkpt>
      <trkpt lat="47.20041" lon="-1.54379">
        <ele>56</ele>
        <time>2021-02-06T12:16:01.000Z</time>
      </trkpt>
      <trkpt lat="47.2005" lon="-1.54371">
        <ele>55</ele>
        <time>2021-02-06T12:16:04.000Z</time>
      </trkpt>
      <trkpt lat="47.20054" lon="-1.54359">
        <ele>55</ele>
        <time>2021-02-06T12:16:06.000Z</time>
      </trkpt>
      <trkpt lat="47.20066" lon="-1.54354">
        <ele>55</ele>
        <time>2021-02-06T12:16:08.000Z</time>
      </trkpt>
      <trkpt lat="47.20062" lon="-1.54343">
        <ele>56</ele>
        <time>2021-02-06T12:16:12.000Z</time>
      </trkpt>
      <trkpt lat="47.20054" lon="-1.54335">
        <ele>58</ele>
        <time>2021-02-06T12:16:14.000Z</time>
      </trkpt>
      <trkpt lat="47.20047" lon="-1.54324">
        <ele>53</ele>
        <time>2021-02-06T12:16:16.000Z</time>
      </trkpt>
      <trkpt lat="47.20044" lon="-1.54306">
        <ele>55</ele>
        <time>2021-02-06T12:16:18.000Z</time>
      </trkpt>
      <trkpt lat="47.20048" lon="-1.54284">
        <ele>55</ele>
        <time>2021-02-06T12:16:20.000Z</time>
      </trkpt>
      <trkpt lat="47.20056" lon="-1.54263">
        <ele>56</ele>
        <time>2021-02-06T12:16:22.000Z</time>
      </trkpt>
      <trkpt lat="47.20065" lon="-1.54236">
        <ele>57</ele>
        <time>2021-02-06T12:16:25.000Z</time>
      </trkpt>
      <trkpt lat="47.20072" lon="-1.54213">
        <ele>56</ele>
        <time>2021-02-06T12:16:28.000Z</time>
      </trkpt>
      <trkpt lat="47.20077" lon="-1.54185">
        <ele>55</ele>
        <time>2021-02-06T12:16:31.000Z</time>
      </trkpt>
      <trkpt lat="47.20085" lon="-1.54168">
        <ele>56</ele>
        <time>2021-02-06T12:16:33.000Z</time>
      </trkpt>
      <trkpt lat="47.20093" lon="-1.54151">
        <ele>56</ele>
        <time>2021-02-06T12:16:35.000Z</time>
      </trkpt>
      <trkpt lat="47.20097" lon="-1.54136">
        <ele>56</ele>
        <time>2021-02-06T12:16:37.000Z</time>
      </trkpt>
      <trkpt lat="47.20105" lon="-1.5411">
        <ele>58</ele>
        <time>2021-02-06T12:16:40.000Z</time>
      </trkpt>
      <trkpt lat="47.2011" lon="-1.54093">
        <ele>57</ele>
        <time>2021-02-06T12:16:42.000Z</time>
      </trkpt>
      <trkpt lat="47.20117" lon="-1.54073">
        <ele>58</ele>
        <time>2021-02-06T12:16:44.000Z</time>
      </trkpt>
      <trkpt lat="47.20125" lon="-1.54054">
        <ele>56</ele>
        <time>2021-02-06T12:16:46.000Z</time>
      </trkpt>
      <trkpt lat="47.2013" lon="-1.54037">
        <ele>57</ele>
        <time>2021-02-06T12:16:48.000Z</time>
      </trkpt>
      <trkpt lat="47.20136" lon="-1.54019">
        <ele>57</ele>
        <time>2021-02-06T12:16:50.000Z</time>
      </trkpt>
      <trkpt lat="47.20145" lon="-1.53993">
        <ele>57</ele>
        <time>2021-02-06T12:16:53.000Z</time>
      </trkpt>
      <trkpt lat="47.2015" lon="-1.53975">
        <ele>57</ele>
        <time>2021-02-06T12:16:55.000Z</time>
      </trkpt>
      <trkpt lat="47.20156" lon="-1.53959">
        <ele>58</ele>
        <time>2021-02-06T12:16:57.000Z</time>
      </trkpt>
      <trkpt lat="47.20162" lon="-1.53942">
        <ele>58</ele>
        <time>2021-02-06T12:16:59.000Z</time>
      </trkpt>
      <trkpt lat="47.20171" lon="-1.53918">
        <ele>59</ele>
        <time>2021-02-06T12:17:02.000Z</time>
      </trkpt>
      <trkpt lat="47.20177" lon="-1.53902">
        <ele>59</ele>
        <time>2021-02-06T12:17:04.000Z</time>
      </trkpt>
      <trkpt lat="47.20186" lon="-1.53877">
        <ele>59</ele>
        <time>2021-02-06T12:17:07.000Z</time>
      </trkpt>
      <trkpt lat="47.20186" lon="-1.53863">
        <ele>54</ele>
        <time>2021-02-06T12:17:09.000Z</time>
      </trkpt>
      <trkpt lat="47.20194" lon="-1.53846">
        <ele>54</ele>
        <time>2021-02-06T12:17:11.000Z</time>
      </trkpt>
      <trkpt lat="47.20203" lon="-1.53827">
        <ele>54</ele>
        <time>2021-02-06T12:17:13.000Z</time>
      </trkpt>
      <trkpt lat="47.2021" lon="-1.53805">
        <ele>54</ele>
        <time>2021-02-06T12:17:16.000Z</time>
      </trkpt>
      <trkpt lat="47.20218" lon="-1.53782">
        <ele>56</ele>
        <time>2021-02-06T12:17:19.000Z</time>
      </trkpt>
      <trkpt lat="47.20226" lon="-1.53757">
        <ele>57</ele>
        <time>2021-02-06T12:17:22.000Z</time>
      </trkpt>
      <trkpt lat="47.20235" lon="-1.53744">
        <ele>55</ele>
        <time>2021-02-06T12:17:24.000Z</time>
      </trkpt>
      <trkpt lat="47.20242" lon="-1.53726">
        <ele>56</ele>
        <time>2021-02-06T12:17:26.000Z</time>
      </trkpt>
      <trkpt lat="47.2025" lon="-1.53709">
        <ele>57</ele>
        <time>2021-02-06T12:17:28.000Z</time>
      </trkpt>
      <trkpt lat="47.20256" lon="-1.53692">
        <ele>57</ele>
        <time>2021-02-06T12:17:30.000Z</time>
      </trkpt>
      <trkpt lat="47.20263" lon="-1.53675">
        <ele>56</ele>
        <time>2021-02-06T12:17:32.000Z</time>
      </trkpt>
      <trkpt lat="47.20269" lon="-1.53657">
        <ele>56</ele>
        <time>2021-02-06T12:17:34.000Z</time>
      </trkpt>
      <trkpt lat="47.20275" lon="-1.53641">
        <ele>57</ele>
        <time>2021-02-06T12:17:36.000Z</time>
      </trkpt>
      <trkpt lat="47.20281" lon="-1.53626">
        <ele>58</ele>
        <time>2021-02-06T12:17:38.000Z</time>
      </trkpt>
      <trkpt lat="47.20287" lon="-1.53607">
        <ele>57</ele>
        <time>2021-02-06T12:17:41.000Z</time>
      </trkpt>
      <trkpt lat="47.20295" lon="-1.5359">
        <ele>56</ele>
        <time>2021-02-06T12:17:43.000Z</time>
      </trkpt>
      <trkpt lat="47.203" lon="-1.53572">
        <ele>56</ele>
        <time>2021-02-06T12:17:45.000Z</time>
      </trkpt>
      <trkpt lat="47.20307" lon="-1.53556">
        <ele>56</ele>
        <time>2021-02-06T12:17:47.000Z</time>
      </trkpt>
      <trkpt lat="47.20314" lon="-1.53533">
        <ele>54</ele>
        <time>2021-02-06T12:17:50.000Z</time>
      </trkpt>
      <trkpt lat="47.20321" lon="-1.53516">
        <ele>54</ele>
        <time>2021-02-06T12:17:52.000Z</time>
      </trkpt>
      <trkpt lat="47.20327" lon="-1.535">
        <ele>54</ele>
        <time>2021-02-06T12:17:54.000Z</time>
      </trkpt>
      <trkpt lat="47.20335" lon="-1.53486">
        <ele>55</ele>
        <time>2021-02-06T12:17:56.000Z</time>
      </trkpt>
      <trkpt lat="47.2034" lon="-1.53471">
        <ele>55</ele>
        <time>2021-02-06T12:17:58.000Z</time>
      </trkpt>
      <trkpt lat="47.20348" lon="-1.53447">
        <ele>56</ele>
        <time>2021-02-06T12:18:01.000Z</time>
      </trkpt>
      <trkpt lat="47.20353" lon="-1.53432">
        <ele>55</ele>
        <time>2021-02-06T12:18:03.000Z</time>
      </trkpt>
      <trkpt lat="47.20359" lon="-1.53416">
        <ele>55</ele>
        <time>2021-02-06T12:18:05.000Z</time>
      </trkpt>
      <trkpt lat="47.20365" lon="-1.53402">
        <ele>57</ele>
        <time>2021-02-06T12:18:07.000Z</time>
      </trkpt>
      <trkpt lat="47.20372" lon="-1.53386">
        <ele>58</ele>
        <time>2021-02-06T12:18:09.000Z</time>
      </trkpt>
      <trkpt lat="47.20377" lon="-1.53371">
        <ele>58</ele>
        <time>2021-02-06T12:18:11.000Z</time>
      </trkpt>
      <trkpt lat="47.20383" lon="-1.53356">
        <ele>58</ele>
        <time>2021-02-06T12:18:13.000Z</time>
      </trkpt>
      <trkpt lat="47.20389" lon="-1.53341">
        <ele>58</ele>
        <time>2021-02-06T12:18:15.000Z</time>
      </trkpt>
      <trkpt lat="47.20399" lon="-1.53318">
        <ele>57</ele>
        <time>2021-02-06T12:18:18.000Z</time>
      </trkpt>
      <trkpt lat="47.20404" lon="-1.53303">
        <ele>57</ele>
        <time>2021-02-06T12:18:20.000Z</time>
      </trkpt>
      <trkpt lat="47.20409" lon="-1.53288">
        <ele>57</ele>
        <time>2021-02-06T12:18:22.000Z</time>
      </trkpt>
      <trkpt lat="47.20418" lon="-1.53265">
        <ele>57</ele>
        <time>2021-02-06T12:18:25.000Z</time>
      </trkpt>
      <trkpt lat="47.20424" lon="-1.53251">
        <ele>57</ele>
        <time>2021-02-06T12:18:27.000Z</time>
      </trkpt>
      <trkpt lat="47.20433" lon="-1.53227">
        <ele>58</ele>
        <time>2021-02-06T12:18:30.000Z</time>
      </trkpt>
      <trkpt lat="47.2044" lon="-1.53212">
        <ele>58</ele>
        <time>2021-02-06T12:18:32.000Z</time>
      </trkpt>
      <trkpt lat="47.20446" lon="-1.53197">
        <ele>58</ele>
        <time>2021-02-06T12:18:34.000Z</time>
      </trkpt>
      <trkpt lat="47.20452" lon="-1.53182">
        <ele>58</ele>
        <time>2021-02-06T12:18:36.000Z</time>
      </trkpt>
      <trkpt lat="47.20456" lon="-1.53169">
        <ele>58</ele>
        <time>2021-02-06T12:18:38.000Z</time>
      </trkpt>
      <trkpt lat="47.20465" lon="-1.53159">
        <ele>58</ele>
        <time>2021-02-06T12:18:42.000Z</time>
      </trkpt>
      <trkpt lat="47.20472" lon="-1.53142">
        <ele>54</ele>
        <time>2021-02-06T12:18:46.000Z</time>
      </trkpt>
      <trkpt lat="47.20475" lon="-1.53127">
        <ele>55</ele>
        <time>2021-02-06T12:18:48.000Z</time>
      </trkpt>
      <trkpt lat="47.20482" lon="-1.53111">
        <ele>56</ele>
        <time>2021-02-06T12:18:50.000Z</time>
      </trkpt>
      <trkpt lat="47.20487" lon="-1.53095">
        <ele>56</ele>
        <time>2021-02-06T12:18:52.000Z</time>
      </trkpt>
      <trkpt lat="47.20493" lon="-1.53079">
        <ele>56</ele>
        <time>2021-02-06T12:18:54.000Z</time>
      </trkpt>
      <trkpt lat="47.205" lon="-1.53063">
        <ele>56</ele>
        <time>2021-02-06T12:18:56.000Z</time>
      </trkpt>
      <trkpt lat="47.20506" lon="-1.53049">
        <ele>56</ele>
        <time>2021-02-06T12:18:58.000Z</time>
      </trkpt>
      <trkpt lat="47.20513" lon="-1.53034">
        <ele>56</ele>
        <time>2021-02-06T12:19:00.000Z</time>
      </trkpt>
      <trkpt lat="47.2052" lon="-1.5302">
        <ele>56</ele>
        <time>2021-02-06T12:19:02.000Z</time>
      </trkpt>
      <trkpt lat="47.20526" lon="-1.53004">
        <ele>56</ele>
        <time>2021-02-06T12:19:04.000Z</time>
      </trkpt>
      <trkpt lat="47.20532" lon="-1.52989">
        <ele>56</ele>
        <time>2021-02-06T12:19:06.000Z</time>
      </trkpt>
      <trkpt lat="47.20539" lon="-1.52974">
        <ele>56</ele>
        <time>2021-02-06T12:19:08.000Z</time>
      </trkpt>
      <trkpt lat="47.20547" lon="-1.52959">
        <ele>57</ele>
        <time>2021-02-06T12:19:10.000Z</time>
      </trkpt>
      <trkpt lat="47.20557" lon="-1.52936">
        <ele>57</ele>
        <time>2021-02-06T12:19:13.000Z</time>
      </trkpt>
      <trkpt lat="47.20567" lon="-1.52914">
        <ele>57</ele>
        <time>2021-02-06T12:19:16.000Z</time>
      </trkpt>
      <trkpt lat="47.20577" lon="-1.52891">
        <ele>56</ele>
        <time>2021-02-06T12:19:19.000Z</time>
      </trkpt>
      <trkpt lat="47.20586" lon="-1.5287">
        <ele>54</ele>
        <time>2021-02-06T12:19:22.000Z</time>
      </trkpt>
      <trkpt lat="47.20594" lon="-1.52858">
        <ele>54</ele>
        <time>2021-02-06T12:19:25.000Z</time>
      </trkpt>
      <trkpt lat="47.20602" lon="-1.52843">
        <ele>54</ele>
        <time>2021-02-06T12:19:28.000Z</time>
      </trkpt>
      <trkpt lat="47.20611" lon="-1.52819">
        <ele>52</ele>
        <time>2021-02-06T12:19:31.000Z</time>
      </trkpt>
      <trkpt lat="47.20615" lon="-1.52803">
        <ele>53</ele>
        <time>2021-02-06T12:19:33.000Z</time>
      </trkpt>
      <trkpt lat="47.20623" lon="-1.52789">
        <ele>53</ele>
        <time>2021-02-06T12:19:35.000Z</time>
      </trkpt>
      <trkpt lat="47.20631" lon="-1.52776">
        <ele>52</ele>
        <time>2021-02-06T12:19:37.000Z</time>
      </trkpt>
      <trkpt lat="47.20641" lon="-1.52756">
        <ele>51</ele>
        <time>2021-02-06T12:19:40.000Z</time>
      </trkpt>
      <trkpt lat="47.20647" lon="-1.52742">
        <ele>51</ele>
        <time>2021-02-06T12:19:42.000Z</time>
      </trkpt>
      <trkpt lat="47.20655" lon="-1.52731">
        <ele>51</ele>
        <time>2021-02-06T12:19:44.000Z</time>
      </trkpt>
      <trkpt lat="47.20663" lon="-1.52716">
        <ele>53</ele>
        <time>2021-02-06T12:19:46.000Z</time>
      </trkpt>
      <trkpt lat="47.20673" lon="-1.52697">
        <ele>53</ele>
        <time>2021-02-06T12:19:49.000Z</time>
      </trkpt>
      <trkpt lat="47.20681" lon="-1.52669">
        <ele>55</ele>
        <time>2021-02-06T12:19:53.000Z</time>
      </trkpt>
      <trkpt lat="47.2069" lon="-1.52656">
        <ele>56</ele>
        <time>2021-02-06T12:19:55.000Z</time>
      </trkpt>
      <trkpt lat="47.20699" lon="-1.52645">
        <ele>55</ele>
        <time>2021-02-06T12:19:57.000Z</time>
      </trkpt>
      <trkpt lat="47.20712" lon="-1.52649">
        <ele>56</ele>
        <time>2021-02-06T12:19:59.000Z</time>
      </trkpt>
      <trkpt lat="47.20724" lon="-1.52655">
        <ele>57</ele>
        <time>2021-02-06T12:20:01.000Z</time>
      </trkpt>
      <trkpt lat="47.20737" lon="-1.52661">
        <ele>58</ele>
        <time>2021-02-06T12:20:03.000Z</time>
      </trkpt>
      <trkpt lat="47.2075" lon="-1.52668">
        <ele>59</ele>
        <time>2021-02-06T12:20:05.000Z</time>
      </trkpt>
      <trkpt lat="47.20763" lon="-1.52675">
        <ele>60</ele>
        <time>2021-02-06T12:20:07.000Z</time>
      </trkpt>
      <trkpt lat="47.20775" lon="-1.52677">
        <ele>59</ele>
        <time>2021-02-06T12:20:09.000Z</time>
      </trkpt>
      <trkpt lat="47.20787" lon="-1.52683">
        <ele>59</ele>
        <time>2021-02-06T12:20:11.000Z</time>
      </trkpt>
      <trkpt lat="47.208" lon="-1.5269">
        <ele>59</ele>
        <time>2021-02-06T12:20:13.000Z</time>
      </trkpt>
      <trkpt lat="47.20811" lon="-1.52697">
        <ele>59</ele>
        <time>2021-02-06T12:20:15.000Z</time>
      </trkpt>
      <trkpt lat="47.20823" lon="-1.52703">
        <ele>59</ele>
        <time>2021-02-06T12:20:17.000Z</time>
      </trkpt>
      <trkpt lat="47.20832" lon="-1.5271">
        <ele>58</ele>
        <time>2021-02-06T12:20:19.000Z</time>
      </trkpt>
      <trkpt lat="47.20846" lon="-1.52715">
        <ele>59</ele>
        <time>2021-02-06T12:20:21.000Z</time>
      </trkpt>
      <trkpt lat="47.20856" lon="-1.52726">
        <ele>60</ele>
        <time>2021-02-06T12:20:23.000Z</time>
      </trkpt>
      <trkpt lat="47.20866" lon="-1.52736">
        <ele>60</ele>
        <time>2021-02-06T12:20:25.000Z</time>
      </trkpt>
      <trkpt lat="47.20874" lon="-1.52745">
        <ele>61</ele>
        <time>2021-02-06T12:20:28.000Z</time>
      </trkpt>
      <trkpt lat="47.20885" lon="-1.52749">
        <ele>62</ele>
        <time>2021-02-06T12:20:31.000Z</time>
      </trkpt>
      <trkpt lat="47.20899" lon="-1.52756">
        <ele>61</ele>
        <time>2021-02-06T12:20:34.000Z</time>
      </trkpt>
      <trkpt lat="47.2091" lon="-1.5276">
        <ele>60</ele>
        <time>2021-02-06T12:20:36.000Z</time>
      </trkpt>
      <trkpt lat="47.20922" lon="-1.52769">
        <ele>59</ele>
        <time>2021-02-06T12:20:39.000Z</time>
      </trkpt>
      <trkpt lat="47.20934" lon="-1.5276">
        <ele>58</ele>
        <time>2021-02-06T12:20:42.000Z</time>
      </trkpt>
      <trkpt lat="47.2094" lon="-1.52747">
        <ele>59</ele>
        <time>2021-02-06T12:20:44.000Z</time>
      </trkpt>
      <trkpt lat="47.20948" lon="-1.52735">
        <ele>57</ele>
        <time>2021-02-06T12:20:46.000Z</time>
      </trkpt>
      <trkpt lat="47.20956" lon="-1.5272">
        <ele>57</ele>
        <time>2021-02-06T12:20:48.000Z</time>
      </trkpt>
      <trkpt lat="47.20965" lon="-1.52708">
        <ele>57</ele>
        <time>2021-02-06T12:20:50.000Z</time>
      </trkpt>
      <trkpt lat="47.20976" lon="-1.52699">
        <ele>57</ele>
        <time>2021-02-06T12:20:52.000Z</time>
      </trkpt>
      <trkpt lat="47.20988" lon="-1.52703">
        <ele>56</ele>
        <time>2021-02-06T12:20:54.000Z</time>
      </trkpt>
      <trkpt lat="47.21" lon="-1.52712">
        <ele>56</ele>
        <time>2021-02-06T12:20:56.000Z</time>
      </trkpt>
      <trkpt lat="47.2101" lon="-1.52726">
        <ele>56</ele>
        <time>2021-02-06T12:20:58.000Z</time>
      </trkpt>
      <trkpt lat="47.21024" lon="-1.52742">
        <ele>57</ele>
        <time>2021-02-06T12:21:01.000Z</time>
      </trkpt>
      <trkpt lat="47.21032" lon="-1.52754">
        <ele>55</ele>
        <time>2021-02-06T12:21:03.000Z</time>
      </trkpt>
      <trkpt lat="47.21041" lon="-1.52766">
        <ele>57</ele>
        <time>2021-02-06T12:21:05.000Z</time>
      </trkpt>
      <trkpt lat="47.21045" lon="-1.52779">
        <ele>58</ele>
        <time>2021-02-06T12:21:07.000Z</time>
      </trkpt>
      <trkpt lat="47.21053" lon="-1.52793">
        <ele>59</ele>
        <time>2021-02-06T12:21:09.000Z</time>
      </trkpt>
      <trkpt lat="47.21063" lon="-1.52801">
        <ele>62</ele>
        <time>2021-02-06T12:21:11.000Z</time>
      </trkpt>
      <trkpt lat="47.21075" lon="-1.52808">
        <ele>61</ele>
        <time>2021-02-06T12:21:13.000Z</time>
      </trkpt>
      <trkpt lat="47.21087" lon="-1.52813">
        <ele>62</ele>
        <time>2021-02-06T12:21:15.000Z</time>
      </trkpt>
      <trkpt lat="47.21097" lon="-1.52825">
        <ele>62</ele>
        <time>2021-02-06T12:21:17.000Z</time>
      </trkpt>
      <trkpt lat="47.21107" lon="-1.52837">
        <ele>60</ele>
        <time>2021-02-06T12:21:19.000Z</time>
      </trkpt>
      <trkpt lat="47.21117" lon="-1.52849">
        <ele>60</ele>
        <time>2021-02-06T12:21:21.000Z</time>
      </trkpt>
      <trkpt lat="47.21129" lon="-1.5286">
        <ele>59</ele>
        <time>2021-02-06T12:21:23.000Z</time>
      </trkpt>
      <trkpt lat="47.21137" lon="-1.52868">
        <ele>59</ele>
        <time>2021-02-06T12:21:25.000Z</time>
      </trkpt>
      <trkpt lat="47.21146" lon="-1.52873">
        <ele>60</ele>
        <time>2021-02-06T12:21:27.000Z</time>
      </trkpt>
      <trkpt lat="47.21158" lon="-1.52878">
        <ele>60</ele>
        <time>2021-02-06T12:21:29.000Z</time>
      </trkpt>
      <trkpt lat="47.21174" lon="-1.52879">
        <ele>60</ele>
        <time>2021-02-06T12:21:32.000Z</time>
      </trkpt>
      <trkpt lat="47.21185" lon="-1.52885">
        <ele>58</ele>
        <time>2021-02-06T12:21:34.000Z</time>
      </trkpt>
      <trkpt lat="47.21201" lon="-1.5289">
        <ele>58</ele>
        <time>2021-02-06T12:21:37.000Z</time>
      </trkpt>
      <trkpt lat="47.21211" lon="-1.52893">
        <ele>58</ele>
        <time>2021-02-06T12:21:39.000Z</time>
      </trkpt>
      <trkpt lat="47.21228" lon="-1.52898">
        <ele>58</ele>
        <time>2021-02-06T12:21:42.000Z</time>
      </trkpt>
      <trkpt lat="47.21239" lon="-1.52901">
        <ele>58</ele>
        <time>2021-02-06T12:21:44.000Z</time>
      </trkpt>
      <trkpt lat="47.21256" lon="-1.52906">
        <ele>57</ele>
        <time>2021-02-06T12:21:47.000Z</time>
      </trkpt>
      <trkpt lat="47.21272" lon="-1.52911">
        <ele>57</ele>
        <time>2021-02-06T12:21:50.000Z</time>
      </trkpt>
      <trkpt lat="47.21288" lon="-1.52916">
        <ele>58</ele>
        <time>2021-02-06T12:21:53.000Z</time>
      </trkpt>
      <trkpt lat="47.21299" lon="-1.52918">
        <ele>59</ele>
        <time>2021-02-06T12:21:55.000Z</time>
      </trkpt>
      <trkpt lat="47.2131" lon="-1.52922">
        <ele>58</ele>
        <time>2021-02-06T12:21:57.000Z</time>
      </trkpt>
      <trkpt lat="47.21321" lon="-1.52925">
        <ele>58</ele>
        <time>2021-02-06T12:21:59.000Z</time>
      </trkpt>
      <trkpt lat="47.21335" lon="-1.52927">
        <ele>58</ele>
        <time>2021-02-06T12:22:02.000Z</time>
      </trkpt>
      <trkpt lat="47.21344" lon="-1.52929">
        <ele>59</ele>
        <time>2021-02-06T12:22:04.000Z</time>
      </trkpt>
      <trkpt lat="47.21354" lon="-1.52928">
        <ele>57</ele>
        <time>2021-02-06T12:22:10.000Z</time>
      </trkpt>
      <trkpt lat="47.2136" lon="-1.5291">
        <ele>55</ele>
        <time>2021-02-06T12:22:14.000Z</time>
      </trkpt>
      <trkpt lat="47.21359" lon="-1.5289">
        <ele>55</ele>
        <time>2021-02-06T12:22:16.000Z</time>
      </trkpt>
      <trkpt lat="47.21359" lon="-1.5287">
        <ele>55</ele>
        <time>2021-02-06T12:22:18.000Z</time>
      </trkpt>
      <trkpt lat="47.21359" lon="-1.52842">
        <ele>45</ele>
        <time>2021-02-06T12:22:21.000Z</time>
      </trkpt>
      <trkpt lat="47.21361" lon="-1.52822">
        <ele>61</ele>
        <time>2021-02-06T12:22:23.000Z</time>
      </trkpt>
      <trkpt lat="47.21365" lon="-1.52798">
        <ele>60</ele>
        <time>2021-02-06T12:22:25.000Z</time>
      </trkpt>
      <trkpt lat="47.21372" lon="-1.52769">
        <ele>61</ele>
        <time>2021-02-06T12:22:28.000Z</time>
      </trkpt>
      <trkpt lat="47.21378" lon="-1.52748">
        <ele>61</ele>
        <time>2021-02-06T12:22:30.000Z</time>
      </trkpt>
      <trkpt lat="47.21383" lon="-1.52729">
        <ele>62</ele>
        <time>2021-02-06T12:22:32.000Z</time>
      </trkpt>
      <trkpt lat="47.21387" lon="-1.52711">
        <ele>61</ele>
        <time>2021-02-06T12:22:34.000Z</time>
      </trkpt>
      <trkpt lat="47.21391" lon="-1.52692">
        <ele>60</ele>
        <time>2021-02-06T12:22:36.000Z</time>
      </trkpt>
      <trkpt lat="47.21397" lon="-1.52668">
        <ele>60</ele>
        <time>2021-02-06T12:22:39.000Z</time>
      </trkpt>
      <trkpt lat="47.214" lon="-1.52652">
        <ele>63</ele>
        <time>2021-02-06T12:22:41.000Z</time>
      </trkpt>
      <trkpt lat="47.21406" lon="-1.52633">
        <ele>64</ele>
        <time>2021-02-06T12:22:43.000Z</time>
      </trkpt>
      <trkpt lat="47.21411" lon="-1.52614">
        <ele>63</ele>
        <time>2021-02-06T12:22:45.000Z</time>
      </trkpt>
      <trkpt lat="47.21416" lon="-1.52593">
        <ele>63</ele>
        <time>2021-02-06T12:22:47.000Z</time>
      </trkpt>
      <trkpt lat="47.21421" lon="-1.52575">
        <ele>60</ele>
        <time>2021-02-06T12:22:49.000Z</time>
      </trkpt>
      <trkpt lat="47.21427" lon="-1.52555">
        <ele>59</ele>
        <time>2021-02-06T12:22:51.000Z</time>
      </trkpt>
      <trkpt lat="47.21435" lon="-1.52524">
        <ele>55</ele>
        <time>2021-02-06T12:22:54.000Z</time>
      </trkpt>
      <trkpt lat="47.21442" lon="-1.5251">
        <ele>56</ele>
        <time>2021-02-06T12:22:56.000Z</time>
      </trkpt>
      <trkpt lat="47.21447" lon="-1.52494">
        <ele>56</ele>
        <time>2021-02-06T12:22:58.000Z</time>
      </trkpt>
      <trkpt lat="47.21454" lon="-1.52478">
        <ele>55</ele>
        <time>2021-02-06T12:23:00.000Z</time>
      </trkpt>
      <trkpt lat="47.2146" lon="-1.52461">
        <ele>55</ele>
        <time>2021-02-06T12:23:02.000Z</time>
      </trkpt>
      <trkpt lat="47.21466" lon="-1.52443">
        <ele>54</ele>
        <time>2021-02-06T12:23:04.000Z</time>
      </trkpt>
      <trkpt lat="47.21472" lon="-1.52426">
        <ele>52</ele>
        <time>2021-02-06T12:23:06.000Z</time>
      </trkpt>
      <trkpt lat="47.21479" lon="-1.52408">
        <ele>49</ele>
        <time>2021-02-06T12:23:08.000Z</time>
      </trkpt>
      <trkpt lat="47.21485" lon="-1.52388">
        <ele>50</ele>
        <time>2021-02-06T12:23:10.000Z</time>
      </trkpt>
      <trkpt lat="47.21492" lon="-1.52369">
        <ele>52</ele>
        <time>2021-02-06T12:23:12.000Z</time>
      </trkpt>
      <trkpt lat="47.21497" lon="-1.5235">
        <ele>52</ele>
        <time>2021-02-06T12:23:14.000Z</time>
      </trkpt>
      <trkpt lat="47.21502" lon="-1.52333">
        <ele>52</ele>
        <time>2021-02-06T12:23:16.000Z</time>
      </trkpt>
      <trkpt lat="47.21508" lon="-1.52319">
        <ele>51</ele>
        <time>2021-02-06T12:23:18.000Z</time>
      </trkpt>
      <trkpt lat="47.21514" lon="-1.523">
        <ele>53</ele>
        <time>2021-02-06T12:23:20.000Z</time>
      </trkpt>
      <trkpt lat="47.2152" lon="-1.52281">
        <ele>53</ele>
        <time>2021-02-06T12:23:22.000Z</time>
      </trkpt>
      <trkpt lat="47.21529" lon="-1.52255">
        <ele>54</ele>
        <time>2021-02-06T12:23:25.000Z</time>
      </trkpt>
      <trkpt lat="47.21536" lon="-1.52229">
        <ele>54</ele>
        <time>2021-02-06T12:23:28.000Z</time>
      </trkpt>
      <trkpt lat="47.21543" lon="-1.52203">
        <ele>54</ele>
        <time>2021-02-06T12:23:31.000Z</time>
      </trkpt>
      <trkpt lat="47.21548" lon="-1.52175">
        <ele>54</ele>
        <time>2021-02-06T12:23:34.000Z</time>
      </trkpt>
      <trkpt lat="47.21558" lon="-1.52148">
        <ele>55</ele>
        <time>2021-02-06T12:23:37.000Z</time>
      </trkpt>
      <trkpt lat="47.21568" lon="-1.52124">
        <ele>56</ele>
        <time>2021-02-06T12:23:40.000Z</time>
      </trkpt>
      <trkpt lat="47.2158" lon="-1.52097">
        <ele>54</ele>
        <time>2021-02-06T12:23:43.000Z</time>
      </trkpt>
      <trkpt lat="47.21587" lon="-1.52072">
        <ele>53</ele>
        <time>2021-02-06T12:23:46.000Z</time>
      </trkpt>
      <trkpt lat="47.21591" lon="-1.52055">
        <ele>53</ele>
        <time>2021-02-06T12:23:48.000Z</time>
      </trkpt>
      <trkpt lat="47.21596" lon="-1.52038">
        <ele>53</ele>
        <time>2021-02-06T12:23:50.000Z</time>
      </trkpt>
      <trkpt lat="47.21608" lon="-1.52002">
        <ele>50</ele>
        <time>2021-02-06T12:23:54.000Z</time>
      </trkpt>
      <trkpt lat="47.21613" lon="-1.51984">
        <ele>51</ele>
        <time>2021-02-06T12:23:56.000Z</time>
      </trkpt>
      <trkpt lat="47.21619" lon="-1.51967">
        <ele>52</ele>
        <time>2021-02-06T12:23:58.000Z</time>
      </trkpt>
      <trkpt lat="47.21629" lon="-1.51942">
        <ele>52</ele>
        <time>2021-02-06T12:24:01.000Z</time>
      </trkpt>
      <trkpt lat="47.21642" lon="-1.519">
        <ele>49</ele>
        <time>2021-02-06T12:24:06.000Z</time>
      </trkpt>
      <trkpt lat="47.21648" lon="-1.51883">
        <ele>64</ele>
        <time>2021-02-06T12:24:08.000Z</time>
      </trkpt>
      <trkpt lat="47.21654" lon="-1.51872">
        <ele>52</ele>
        <time>2021-02-06T12:24:10.000Z</time>
      </trkpt>
      <trkpt lat="47.21659" lon="-1.51854">
        <ele>54</ele>
        <time>2021-02-06T12:24:12.000Z</time>
      </trkpt>
      <trkpt lat="47.21672" lon="-1.5183">
        <ele>52</ele>
        <time>2021-02-06T12:24:15.000Z</time>
      </trkpt>
      <trkpt lat="47.2168" lon="-1.51812">
        <ele>56</ele>
        <time>2021-02-06T12:24:17.000Z</time>
      </trkpt>
      <trkpt lat="47.21687" lon="-1.51795">
        <ele>55</ele>
        <time>2021-02-06T12:24:19.000Z</time>
      </trkpt>
      <trkpt lat="47.21698" lon="-1.5177">
        <ele>55</ele>
        <time>2021-02-06T12:24:22.000Z</time>
      </trkpt>
      <trkpt lat="47.21705" lon="-1.51753">
        <ele>55</ele>
        <time>2021-02-06T12:24:24.000Z</time>
      </trkpt>
      <trkpt lat="47.21712" lon="-1.51737">
        <ele>55</ele>
        <time>2021-02-06T12:24:26.000Z</time>
      </trkpt>
      <trkpt lat="47.21718" lon="-1.5172">
        <ele>55</ele>
        <time>2021-02-06T12:24:28.000Z</time>
      </trkpt>
      <trkpt lat="47.21727" lon="-1.51696">
        <ele>53</ele>
        <time>2021-02-06T12:24:31.000Z</time>
      </trkpt>
      <trkpt lat="47.21732" lon="-1.5168">
        <ele>53</ele>
        <time>2021-02-06T12:24:33.000Z</time>
      </trkpt>
      <trkpt lat="47.2174" lon="-1.51665">
        <ele>54</ele>
        <time>2021-02-06T12:24:35.000Z</time>
      </trkpt>
      <trkpt lat="47.21747" lon="-1.51648">
        <ele>54</ele>
        <time>2021-02-06T12:24:37.000Z</time>
      </trkpt>
      <trkpt lat="47.21753" lon="-1.51631">
        <ele>55</ele>
        <time>2021-02-06T12:24:39.000Z</time>
      </trkpt>
      <trkpt lat="47.2176" lon="-1.51616">
        <ele>56</ele>
        <time>2021-02-06T12:24:41.000Z</time>
      </trkpt>
      <trkpt lat="47.21768" lon="-1.51602">
        <ele>55</ele>
        <time>2021-02-06T12:24:43.000Z</time>
      </trkpt>
      <trkpt lat="47.21777" lon="-1.51591">
        <ele>55</ele>
        <time>2021-02-06T12:24:45.000Z</time>
      </trkpt>
      <trkpt lat="47.21788" lon="-1.51582">
        <ele>54</ele>
        <time>2021-02-06T12:24:47.000Z</time>
      </trkpt>
      <trkpt lat="47.21798" lon="-1.51573">
        <ele>54</ele>
        <time>2021-02-06T12:24:49.000Z</time>
      </trkpt>
      <trkpt lat="47.21807" lon="-1.51561">
        <ele>52</ele>
        <time>2021-02-06T12:24:51.000Z</time>
      </trkpt>
      <trkpt lat="47.21814" lon="-1.51529">
        <ele>51</ele>
        <time>2021-02-06T12:24:55.000Z</time>
      </trkpt>
      <trkpt lat="47.21812" lon="-1.51511">
        <ele>49</ele>
        <time>2021-02-06T12:24:57.000Z</time>
      </trkpt>
      <trkpt lat="47.21812" lon="-1.51492">
        <ele>50</ele>
        <time>2021-02-06T12:24:59.000Z</time>
      </trkpt>
      <trkpt lat="47.21817" lon="-1.51473">
        <ele>51</ele>
        <time>2021-02-06T12:25:01.000Z</time>
      </trkpt>
      <trkpt lat="47.21819" lon="-1.51454">
        <ele>51</ele>
        <time>2021-02-06T12:25:03.000Z</time>
      </trkpt>
      <trkpt lat="47.21824" lon="-1.51436">
        <ele>51</ele>
        <time>2021-02-06T12:25:05.000Z</time>
      </trkpt>
      <trkpt lat="47.21832" lon="-1.514">
        <ele>52</ele>
        <time>2021-02-06T12:25:09.000Z</time>
      </trkpt>
      <trkpt lat="47.21837" lon="-1.51382">
        <ele>53</ele>
        <time>2021-02-06T12:25:11.000Z</time>
      </trkpt>
      <trkpt lat="47.21841" lon="-1.51365">
        <ele>53</ele>
        <time>2021-02-06T12:25:13.000Z</time>
      </trkpt>
      <trkpt lat="47.21845" lon="-1.5135">
        <ele>52</ele>
        <time>2021-02-06T12:25:15.000Z</time>
      </trkpt>
      <trkpt lat="47.2185" lon="-1.51336">
        <ele>51</ele>
        <time>2021-02-06T12:25:17.000Z</time>
      </trkpt>
      <trkpt lat="47.21854" lon="-1.51321">
        <ele>52</ele>
        <time>2021-02-06T12:25:19.000Z</time>
      </trkpt>
      <trkpt lat="47.21859" lon="-1.51304">
        <ele>53</ele>
        <time>2021-02-06T12:25:21.000Z</time>
      </trkpt>
      <trkpt lat="47.21866" lon="-1.51278">
        <ele>53</ele>
        <time>2021-02-06T12:25:24.000Z</time>
      </trkpt>
      <trkpt lat="47.2187" lon="-1.5126">
        <ele>54</ele>
        <time>2021-02-06T12:25:26.000Z</time>
      </trkpt>
      <trkpt lat="47.21875" lon="-1.51245">
        <ele>55</ele>
        <time>2021-02-06T12:25:28.000Z</time>
      </trkpt>
      <trkpt lat="47.21894" lon="-1.51205">
        <ele>57</ele>
        <time>2021-02-06T12:25:33.000Z</time>
      </trkpt>
      <trkpt lat="47.21897" lon="-1.5119">
        <ele>56</ele>
        <time>2021-02-06T12:25:35.000Z</time>
      </trkpt>
      <trkpt lat="47.21901" lon="-1.51173">
        <ele>56</ele>
        <time>2021-02-06T12:25:37.000Z</time>
      </trkpt>
      <trkpt lat="47.21907" lon="-1.51156">
        <ele>56</ele>
        <time>2021-02-06T12:25:39.000Z</time>
      </trkpt>
      <trkpt lat="47.21912" lon="-1.51139">
        <ele>58</ele>
        <time>2021-02-06T12:25:41.000Z</time>
      </trkpt>
      <trkpt lat="47.21917" lon="-1.51123">
        <ele>58</ele>
        <time>2021-02-06T12:25:43.000Z</time>
      </trkpt>
      <trkpt lat="47.21921" lon="-1.51109">
        <ele>56</ele>
        <time>2021-02-06T12:25:45.000Z</time>
      </trkpt>
      <trkpt lat="47.21926" lon="-1.51094">
        <ele>55</ele>
        <time>2021-02-06T12:25:47.000Z</time>
      </trkpt>
      <trkpt lat="47.21933" lon="-1.51079">
        <ele>55</ele>
        <time>2021-02-06T12:25:49.000Z</time>
      </trkpt>
      <trkpt lat="47.21939" lon="-1.51066">
        <ele>55</ele>
        <time>2021-02-06T12:25:51.000Z</time>
      </trkpt>
      <trkpt lat="47.2195" lon="-1.51049">
        <ele>58</ele>
        <time>2021-02-06T12:25:54.000Z</time>
      </trkpt>
      <trkpt lat="47.21953" lon="-1.51033">
        <ele>60</ele>
        <time>2021-02-06T12:25:56.000Z</time>
      </trkpt>
      <trkpt lat="47.21957" lon="-1.51015">
        <ele>59</ele>
        <time>2021-02-06T12:25:58.000Z</time>
      </trkpt>
      <trkpt lat="47.21963" lon="-1.50997">
        <ele>58</ele>
        <time>2021-02-06T12:26:00.000Z</time>
      </trkpt>
      <trkpt lat="47.21968" lon="-1.50979">
        <ele>58</ele>
        <time>2021-02-06T12:26:02.000Z</time>
      </trkpt>
      <trkpt lat="47.21971" lon="-1.50961">
        <ele>57</ele>
        <time>2021-02-06T12:26:04.000Z</time>
      </trkpt>
      <trkpt lat="47.21978" lon="-1.50945">
        <ele>57</ele>
        <time>2021-02-06T12:26:06.000Z</time>
      </trkpt>
      <trkpt lat="47.21982" lon="-1.50927">
        <ele>57</ele>
        <time>2021-02-06T12:26:08.000Z</time>
      </trkpt>
      <trkpt lat="47.2199" lon="-1.5091">
        <ele>55</ele>
        <time>2021-02-06T12:26:10.000Z</time>
      </trkpt>
      <trkpt lat="47.21996" lon="-1.50892">
        <ele>54</ele>
        <time>2021-02-06T12:26:12.000Z</time>
      </trkpt>
      <trkpt lat="47.22" lon="-1.50873">
        <ele>54</ele>
        <time>2021-02-06T12:26:14.000Z</time>
      </trkpt>
      <trkpt lat="47.22008" lon="-1.50849">
        <ele>55</ele>
        <time>2021-02-06T12:26:17.000Z</time>
      </trkpt>
      <trkpt lat="47.22014" lon="-1.50836">
        <ele>55</ele>
        <time>2021-02-06T12:26:19.000Z</time>
      </trkpt>
      <trkpt lat="47.22019" lon="-1.50823">
        <ele>55</ele>
        <time>2021-02-06T12:26:21.000Z</time>
      </trkpt>
      <trkpt lat="47.22025" lon="-1.50807">
        <ele>56</ele>
        <time>2021-02-06T12:26:23.000Z</time>
      </trkpt>
      <trkpt lat="47.22029" lon="-1.50788">
        <ele>56</ele>
        <time>2021-02-06T12:26:25.000Z</time>
      </trkpt>
      <trkpt lat="47.22032" lon="-1.5077">
        <ele>56</ele>
        <time>2021-02-06T12:26:27.000Z</time>
      </trkpt>
      <trkpt lat="47.22036" lon="-1.50741">
        <ele>56</ele>
        <time>2021-02-06T12:26:30.000Z</time>
      </trkpt>
      <trkpt lat="47.22039" lon="-1.5072">
        <ele>56</ele>
        <time>2021-02-06T12:26:32.000Z</time>
      </trkpt>
      <trkpt lat="47.22042" lon="-1.50699">
        <ele>57</ele>
        <time>2021-02-06T12:26:34.000Z</time>
      </trkpt>
      <trkpt lat="47.22044" lon="-1.50678">
        <ele>56</ele>
        <time>2021-02-06T12:26:36.000Z</time>
      </trkpt>
      <trkpt lat="47.22047" lon="-1.50659">
        <ele>57</ele>
        <time>2021-02-06T12:26:38.000Z</time>
      </trkpt>
      <trkpt lat="47.22047" lon="-1.50639">
        <ele>56</ele>
        <time>2021-02-06T12:26:40.000Z</time>
      </trkpt>
      <trkpt lat="47.22046" lon="-1.50612">
        <ele>56</ele>
        <time>2021-02-06T12:26:43.000Z</time>
      </trkpt>
      <trkpt lat="47.2205" lon="-1.50594">
        <ele>53</ele>
        <time>2021-02-06T12:26:45.000Z</time>
      </trkpt>
      <trkpt lat="47.22051" lon="-1.5058">
        <ele>53</ele>
        <time>2021-02-06T12:26:47.000Z</time>
      </trkpt>
      <trkpt lat="47.22053" lon="-1.50565">
        <ele>53</ele>
        <time>2021-02-06T12:26:48.000Z</time>
      </trkpt>
      <trkpt lat="47.22056" lon="-1.50552">
        <ele>53</ele>
        <time>2021-02-06T12:26:49.000Z</time>
      </trkpt>
      <trkpt lat="47.22058" lon="-1.50529">
        <ele>52</ele>
        <time>2021-02-06T12:26:51.000Z</time>
      </trkpt>
      <trkpt lat="47.22055" lon="-1.50512">
        <ele>51</ele>
        <time>2021-02-06T12:26:53.000Z</time>
      </trkpt>
      <trkpt lat="47.22054" lon="-1.50494">
        <ele>51</ele>
        <time>2021-02-06T12:26:55.000Z</time>
      </trkpt>
      <trkpt lat="47.22059" lon="-1.5047">
        <ele>52</ele>
        <time>2021-02-06T12:26:57.000Z</time>
      </trkpt>
      <trkpt lat="47.22063" lon="-1.50446">
        <ele>52</ele>
        <time>2021-02-06T12:26:59.000Z</time>
      </trkpt>
      <trkpt lat="47.22068" lon="-1.50423">
        <ele>54</ele>
        <time>2021-02-06T12:27:01.000Z</time>
      </trkpt>
      <trkpt lat="47.22072" lon="-1.50405">
        <ele>52</ele>
        <time>2021-02-06T12:27:03.000Z</time>
      </trkpt>
      <trkpt lat="47.22076" lon="-1.50386">
        <ele>52</ele>
        <time>2021-02-06T12:27:05.000Z</time>
      </trkpt>
      <trkpt lat="47.22082" lon="-1.50366">
        <ele>52</ele>
        <time>2021-02-06T12:27:07.000Z</time>
      </trkpt>
      <trkpt lat="47.2209" lon="-1.50341">
        <ele>53</ele>
        <time>2021-02-06T12:27:10.000Z</time>
      </trkpt>
      <trkpt lat="47.22096" lon="-1.50325">
        <ele>53</ele>
        <time>2021-02-06T12:27:12.000Z</time>
      </trkpt>
      <trkpt lat="47.22103" lon="-1.50311">
        <ele>52</ele>
        <time>2021-02-06T12:27:14.000Z</time>
      </trkpt>
      <trkpt lat="47.22111" lon="-1.50298">
        <ele>50</ele>
        <time>2021-02-06T12:27:16.000Z</time>
      </trkpt>
      <trkpt lat="47.22117" lon="-1.50282">
        <ele>49</ele>
        <time>2021-02-06T12:27:18.000Z</time>
      </trkpt>
      <trkpt lat="47.22125" lon="-1.50265">
        <ele>50</ele>
        <time>2021-02-06T12:27:20.000Z</time>
      </trkpt>
      <trkpt lat="47.22132" lon="-1.50245">
        <ele>51</ele>
        <time>2021-02-06T12:27:22.000Z</time>
      </trkpt>
      <trkpt lat="47.22138" lon="-1.50226">
        <ele>51</ele>
        <time>2021-02-06T12:27:24.000Z</time>
      </trkpt>
      <trkpt lat="47.22146" lon="-1.50207">
        <ele>49</ele>
        <time>2021-02-06T12:27:26.000Z</time>
      </trkpt>
      <trkpt lat="47.2215" lon="-1.50186">
        <ele>50</ele>
        <time>2021-02-06T12:27:28.000Z</time>
      </trkpt>
      <trkpt lat="47.22154" lon="-1.50164">
        <ele>49</ele>
        <time>2021-02-06T12:27:30.000Z</time>
      </trkpt>
      <trkpt lat="47.2216" lon="-1.50143">
        <ele>49</ele>
        <time>2021-02-06T12:27:32.000Z</time>
      </trkpt>
      <trkpt lat="47.22166" lon="-1.50123">
        <ele>50</ele>
        <time>2021-02-06T12:27:34.000Z</time>
      </trkpt>
      <trkpt lat="47.22172" lon="-1.50103">
        <ele>50</ele>
        <time>2021-02-06T12:27:36.000Z</time>
      </trkpt>
      <trkpt lat="47.22178" lon="-1.50083">
        <ele>50</ele>
        <time>2021-02-06T12:27:38.000Z</time>
      </trkpt>
      <trkpt lat="47.22183" lon="-1.50065">
        <ele>47</ele>
        <time>2021-02-06T12:27:40.000Z</time>
      </trkpt>
      <trkpt lat="47.22185" lon="-1.50047">
        <ele>48</ele>
        <time>2021-02-06T12:27:42.000Z</time>
      </trkpt>
      <trkpt lat="47.22193" lon="-1.50019">
        <ele>49</ele>
        <time>2021-02-06T12:27:45.000Z</time>
      </trkpt>
      <trkpt lat="47.22199" lon="-1.49997">
        <ele>49</ele>
        <time>2021-02-06T12:27:47.000Z</time>
      </trkpt>
      <trkpt lat="47.22206" lon="-1.49978">
        <ele>50</ele>
        <time>2021-02-06T12:27:49.000Z</time>
      </trkpt>
      <trkpt lat="47.22211" lon="-1.49959">
        <ele>50</ele>
        <time>2021-02-06T12:27:51.000Z</time>
      </trkpt>
      <trkpt lat="47.22215" lon="-1.49941">
        <ele>50</ele>
        <time>2021-02-06T12:27:53.000Z</time>
      </trkpt>
      <trkpt lat="47.22219" lon="-1.49913">
        <ele>47</ele>
        <time>2021-02-06T12:27:56.000Z</time>
      </trkpt>
      <trkpt lat="47.22224" lon="-1.49893">
        <ele>48</ele>
        <time>2021-02-06T12:27:58.000Z</time>
      </trkpt>
      <trkpt lat="47.22229" lon="-1.49873">
        <ele>48</ele>
        <time>2021-02-06T12:28:00.000Z</time>
      </trkpt>
      <trkpt lat="47.22233" lon="-1.49854">
        <ele>49</ele>
        <time>2021-02-06T12:28:02.000Z</time>
      </trkpt>
      <trkpt lat="47.22239" lon="-1.49835">
        <ele>49</ele>
        <time>2021-02-06T12:28:04.000Z</time>
      </trkpt>
      <trkpt lat="47.22243" lon="-1.49817">
        <ele>50</ele>
        <time>2021-02-06T12:28:06.000Z</time>
      </trkpt>
      <trkpt lat="47.22247" lon="-1.49799">
        <ele>50</ele>
        <time>2021-02-06T12:28:08.000Z</time>
      </trkpt>
      <trkpt lat="47.22249" lon="-1.4978">
        <ele>50</ele>
        <time>2021-02-06T12:28:10.000Z</time>
      </trkpt>
      <trkpt lat="47.22252" lon="-1.4975">
        <ele>49</ele>
        <time>2021-02-06T12:28:13.000Z</time>
      </trkpt>
      <trkpt lat="47.22256" lon="-1.49729">
        <ele>50</ele>
        <time>2021-02-06T12:28:15.000Z</time>
      </trkpt>
      <trkpt lat="47.22262" lon="-1.49709">
        <ele>51</ele>
        <time>2021-02-06T12:28:17.000Z</time>
      </trkpt>
      <trkpt lat="47.22273" lon="-1.49681">
        <ele>51</ele>
        <time>2021-02-06T12:28:20.000Z</time>
      </trkpt>
      <trkpt lat="47.22278" lon="-1.49666">
        <ele>50</ele>
        <time>2021-02-06T12:28:22.000Z</time>
      </trkpt>
      <trkpt lat="47.22282" lon="-1.49648">
        <ele>51</ele>
        <time>2021-02-06T12:28:24.000Z</time>
      </trkpt>
      <trkpt lat="47.22286" lon="-1.49631">
        <ele>51</ele>
        <time>2021-02-06T12:28:26.000Z</time>
      </trkpt>
      <trkpt lat="47.22291" lon="-1.49612">
        <ele>52</ele>
        <time>2021-02-06T12:28:28.000Z</time>
      </trkpt>
      <trkpt lat="47.22301" lon="-1.49583">
        <ele>51</ele>
        <time>2021-02-06T12:28:31.000Z</time>
      </trkpt>
      <trkpt lat="47.22308" lon="-1.49566">
        <ele>50</ele>
        <time>2021-02-06T12:28:33.000Z</time>
      </trkpt>
      <trkpt lat="47.22314" lon="-1.4955">
        <ele>50</ele>
        <time>2021-02-06T12:28:35.000Z</time>
      </trkpt>
      <trkpt lat="47.2232" lon="-1.49531">
        <ele>51</ele>
        <time>2021-02-06T12:28:37.000Z</time>
      </trkpt>
      <trkpt lat="47.22326" lon="-1.49513">
        <ele>50</ele>
        <time>2021-02-06T12:28:39.000Z</time>
      </trkpt>
      <trkpt lat="47.22331" lon="-1.49495">
        <ele>50</ele>
        <time>2021-02-06T12:28:41.000Z</time>
      </trkpt>
      <trkpt lat="47.22336" lon="-1.49478">
        <ele>51</ele>
        <time>2021-02-06T12:28:43.000Z</time>
      </trkpt>
      <trkpt lat="47.2234" lon="-1.49459">
        <ele>51</ele>
        <time>2021-02-06T12:28:45.000Z</time>
      </trkpt>
      <trkpt lat="47.22344" lon="-1.49443">
        <ele>51</ele>
        <time>2021-02-06T12:28:47.000Z</time>
      </trkpt>
      <trkpt lat="47.2235" lon="-1.49426">
        <ele>52</ele>
        <time>2021-02-06T12:28:49.000Z</time>
      </trkpt>
      <trkpt lat="47.22355" lon="-1.49411">
        <ele>51</ele>
        <time>2021-02-06T12:28:51.000Z</time>
      </trkpt>
      <trkpt lat="47.22363" lon="-1.49395">
        <ele>51</ele>
        <time>2021-02-06T12:28:53.000Z</time>
      </trkpt>
      <trkpt lat="47.22372" lon="-1.49378">
        <ele>52</ele>
        <time>2021-02-06T12:28:55.000Z</time>
      </trkpt>
      <trkpt lat="47.22379" lon="-1.49361">
        <ele>52</ele>
        <time>2021-02-06T12:28:57.000Z</time>
      </trkpt>
      <trkpt lat="47.22391" lon="-1.49334">
        <ele>53</ele>
        <time>2021-02-06T12:29:00.000Z</time>
      </trkpt>
      <trkpt lat="47.22398" lon="-1.49317">
        <ele>52</ele>
        <time>2021-02-06T12:29:02.000Z</time>
      </trkpt>
      <trkpt lat="47.22406" lon="-1.49296">
        <ele>53</ele>
        <time>2021-02-06T12:29:04.000Z</time>
      </trkpt>
      <trkpt lat="47.22413" lon="-1.49277">
        <ele>52</ele>
        <time>2021-02-06T12:29:06.000Z</time>
      </trkpt>
      <trkpt lat="47.22425" lon="-1.49253">
        <ele>49</ele>
        <time>2021-02-06T12:29:09.000Z</time>
      </trkpt>
      <trkpt lat="47.22433" lon="-1.49238">
        <ele>49</ele>
        <time>2021-02-06T12:29:11.000Z</time>
      </trkpt>
      <trkpt lat="47.2244" lon="-1.49217">
        <ele>51</ele>
        <time>2021-02-06T12:29:13.000Z</time>
      </trkpt>
      <trkpt lat="47.22448" lon="-1.49189">
        <ele>52</ele>
        <time>2021-02-06T12:29:16.000Z</time>
      </trkpt>
      <trkpt lat="47.22457" lon="-1.49173">
        <ele>53</ele>
        <time>2021-02-06T12:29:18.000Z</time>
      </trkpt>
      <trkpt lat="47.22463" lon="-1.49155">
        <ele>53</ele>
        <time>2021-02-06T12:29:20.000Z</time>
      </trkpt>
      <trkpt lat="47.22469" lon="-1.49135">
        <ele>52</ele>
        <time>2021-02-06T12:29:22.000Z</time>
      </trkpt>
      <trkpt lat="47.22473" lon="-1.49116">
        <ele>51</ele>
        <time>2021-02-06T12:29:24.000Z</time>
      </trkpt>
      <trkpt lat="47.22478" lon="-1.49099">
        <ele>51</ele>
        <time>2021-02-06T12:29:26.000Z</time>
      </trkpt>
      <trkpt lat="47.22485" lon="-1.49082">
        <ele>51</ele>
        <time>2021-02-06T12:29:28.000Z</time>
      </trkpt>
      <trkpt lat="47.22492" lon="-1.49065">
        <ele>49</ele>
        <time>2021-02-06T12:29:30.000Z</time>
      </trkpt>
      <trkpt lat="47.225" lon="-1.49038">
        <ele>49</ele>
        <time>2021-02-06T12:29:33.000Z</time>
      </trkpt>
      <trkpt lat="47.22506" lon="-1.49021">
        <ele>49</ele>
        <time>2021-02-06T12:29:35.000Z</time>
      </trkpt>
      <trkpt lat="47.22511" lon="-1.49004">
        <ele>50</ele>
        <time>2021-02-06T12:29:37.000Z</time>
      </trkpt>
      <trkpt lat="47.22516" lon="-1.48988">
        <ele>49</ele>
        <time>2021-02-06T12:29:39.000Z</time>
      </trkpt>
      <trkpt lat="47.22521" lon="-1.48971">
        <ele>51</ele>
        <time>2021-02-06T12:29:41.000Z</time>
      </trkpt>
      <trkpt lat="47.22527" lon="-1.48954">
        <ele>52</ele>
        <time>2021-02-06T12:29:43.000Z</time>
      </trkpt>
      <trkpt lat="47.22531" lon="-1.48937">
        <ele>52</ele>
        <time>2021-02-06T12:29:45.000Z</time>
      </trkpt>
      <trkpt lat="47.22539" lon="-1.48909">
        <ele>53</ele>
        <time>2021-02-06T12:29:48.000Z</time>
      </trkpt>
      <trkpt lat="47.22543" lon="-1.48891">
        <ele>54</ele>
        <time>2021-02-06T12:29:50.000Z</time>
      </trkpt>
      <trkpt lat="47.22549" lon="-1.48874">
        <ele>54</ele>
        <time>2021-02-06T12:29:52.000Z</time>
      </trkpt>
      <trkpt lat="47.22552" lon="-1.48859">
        <ele>54</ele>
        <time>2021-02-06T12:29:54.000Z</time>
      </trkpt>
      <trkpt lat="47.22555" lon="-1.48844">
        <ele>53</ele>
        <time>2021-02-06T12:29:56.000Z</time>
      </trkpt>
      <trkpt lat="47.2256" lon="-1.48827">
        <ele>53</ele>
        <time>2021-02-06T12:29:58.000Z</time>
      </trkpt>
      <trkpt lat="47.22574" lon="-1.48798">
        <ele>53</ele>
        <time>2021-02-06T12:30:01.000Z</time>
      </trkpt>
      <trkpt lat="47.2258" lon="-1.48778">
        <ele>53</ele>
        <time>2021-02-06T12:30:03.000Z</time>
      </trkpt>
      <trkpt lat="47.22585" lon="-1.48759">
        <ele>52</ele>
        <time>2021-02-06T12:30:05.000Z</time>
      </trkpt>
      <trkpt lat="47.2259" lon="-1.48741">
        <ele>51</ele>
        <time>2021-02-06T12:30:07.000Z</time>
      </trkpt>
      <trkpt lat="47.226" lon="-1.48704">
        <ele>52</ele>
        <time>2021-02-06T12:30:11.000Z</time>
      </trkpt>
      <trkpt lat="47.22607" lon="-1.48685">
        <ele>51</ele>
        <time>2021-02-06T12:30:13.000Z</time>
      </trkpt>
      <trkpt lat="47.22614" lon="-1.48667">
        <ele>51</ele>
        <time>2021-02-06T12:30:15.000Z</time>
      </trkpt>
      <trkpt lat="47.22619" lon="-1.48651">
        <ele>51</ele>
        <time>2021-02-06T12:30:17.000Z</time>
      </trkpt>
      <trkpt lat="47.22624" lon="-1.48635">
        <ele>51</ele>
        <time>2021-02-06T12:30:19.000Z</time>
      </trkpt>
      <trkpt lat="47.22631" lon="-1.48618">
        <ele>52</ele>
        <time>2021-02-06T12:30:21.000Z</time>
      </trkpt>
      <trkpt lat="47.2264" lon="-1.48596">
        <ele>50</ele>
        <time>2021-02-06T12:30:24.000Z</time>
      </trkpt>
      <trkpt lat="47.22647" lon="-1.4858">
        <ele>50</ele>
        <time>2021-02-06T12:30:26.000Z</time>
      </trkpt>
      <trkpt lat="47.22653" lon="-1.4856">
        <ele>50</ele>
        <time>2021-02-06T12:30:28.000Z</time>
      </trkpt>
      <trkpt lat="47.22658" lon="-1.48541">
        <ele>51</ele>
        <time>2021-02-06T12:30:30.000Z</time>
      </trkpt>
      <trkpt lat="47.22664" lon="-1.48522">
        <ele>51</ele>
        <time>2021-02-06T12:30:32.000Z</time>
      </trkpt>
      <trkpt lat="47.22671" lon="-1.48507">
        <ele>49</ele>
        <time>2021-02-06T12:30:34.000Z</time>
      </trkpt>
      <trkpt lat="47.22679" lon="-1.48483">
        <ele>50</ele>
        <time>2021-02-06T12:30:37.000Z</time>
      </trkpt>
      <trkpt lat="47.22688" lon="-1.48469">
        <ele>48</ele>
        <time>2021-02-06T12:30:39.000Z</time>
      </trkpt>
      <trkpt lat="47.22694" lon="-1.48455">
        <ele>48</ele>
        <time>2021-02-06T12:30:41.000Z</time>
      </trkpt>
      <trkpt lat="47.227" lon="-1.48435">
        <ele>46</ele>
        <time>2021-02-06T12:30:43.000Z</time>
      </trkpt>
      <trkpt lat="47.22708" lon="-1.48408">
        <ele>48</ele>
        <time>2021-02-06T12:30:46.000Z</time>
      </trkpt>
      <trkpt lat="47.22716" lon="-1.48394">
        <ele>49</ele>
        <time>2021-02-06T12:30:48.000Z</time>
      </trkpt>
      <trkpt lat="47.22726" lon="-1.48383">
        <ele>52</ele>
        <time>2021-02-06T12:30:50.000Z</time>
      </trkpt>
      <trkpt lat="47.22736" lon="-1.48371">
        <ele>52</ele>
        <time>2021-02-06T12:30:52.000Z</time>
      </trkpt>
      <trkpt lat="47.22745" lon="-1.48359">
        <ele>50</ele>
        <time>2021-02-06T12:30:54.000Z</time>
      </trkpt>
      <trkpt lat="47.22757" lon="-1.48349">
        <ele>50</ele>
        <time>2021-02-06T12:30:56.000Z</time>
      </trkpt>
      <trkpt lat="47.22765" lon="-1.48336">
        <ele>50</ele>
        <time>2021-02-06T12:30:58.000Z</time>
      </trkpt>
      <trkpt lat="47.22778" lon="-1.48314">
        <ele>50</ele>
        <time>2021-02-06T12:31:01.000Z</time>
      </trkpt>
      <trkpt lat="47.22788" lon="-1.48299">
        <ele>49</ele>
        <time>2021-02-06T12:31:03.000Z</time>
      </trkpt>
      <trkpt lat="47.22795" lon="-1.48284">
        <ele>47</ele>
        <time>2021-02-06T12:31:05.000Z</time>
      </trkpt>
      <trkpt lat="47.22803" lon="-1.48268">
        <ele>49</ele>
        <time>2021-02-06T12:31:07.000Z</time>
      </trkpt>
      <trkpt lat="47.22816" lon="-1.48247">
        <ele>49</ele>
        <time>2021-02-06T12:31:10.000Z</time>
      </trkpt>
      <trkpt lat="47.22823" lon="-1.48233">
        <ele>49</ele>
        <time>2021-02-06T12:31:12.000Z</time>
      </trkpt>
      <trkpt lat="47.22831" lon="-1.4822">
        <ele>51</ele>
        <time>2021-02-06T12:31:14.000Z</time>
      </trkpt>
      <trkpt lat="47.22841" lon="-1.48208">
        <ele>52</ele>
        <time>2021-02-06T12:31:16.000Z</time>
      </trkpt>
      <trkpt lat="47.22856" lon="-1.48186">
        <ele>52</ele>
        <time>2021-02-06T12:31:19.000Z</time>
      </trkpt>
      <trkpt lat="47.22865" lon="-1.48174">
        <ele>52</ele>
        <time>2021-02-06T12:31:21.000Z</time>
      </trkpt>
      <trkpt lat="47.22875" lon="-1.4816">
        <ele>53</ele>
        <time>2021-02-06T12:31:23.000Z</time>
      </trkpt>
      <trkpt lat="47.22885" lon="-1.48146">
        <ele>52</ele>
        <time>2021-02-06T12:31:25.000Z</time>
      </trkpt>
      <trkpt lat="47.22898" lon="-1.48125">
        <ele>52</ele>
        <time>2021-02-06T12:31:28.000Z</time>
      </trkpt>
      <trkpt lat="47.22911" lon="-1.48115">
        <ele>52</ele>
        <time>2021-02-06T12:31:30.000Z</time>
      </trkpt>
      <trkpt lat="47.22924" lon="-1.4811">
        <ele>51</ele>
        <time>2021-02-06T12:31:32.000Z</time>
      </trkpt>
      <trkpt lat="47.22936" lon="-1.48108">
        <ele>51</ele>
        <time>2021-02-06T12:31:34.000Z</time>
      </trkpt>
      <trkpt lat="47.22948" lon="-1.48105">
        <ele>51</ele>
        <time>2021-02-06T12:31:36.000Z</time>
      </trkpt>
      <trkpt lat="47.22957" lon="-1.48092">
        <ele>52</ele>
        <time>2021-02-06T12:31:38.000Z</time>
      </trkpt>
      <trkpt lat="47.2297" lon="-1.48069">
        <ele>52</ele>
        <time>2021-02-06T12:31:41.000Z</time>
      </trkpt>
      <trkpt lat="47.22978" lon="-1.48055">
        <ele>52</ele>
        <time>2021-02-06T12:31:43.000Z</time>
      </trkpt>
      <trkpt lat="47.22987" lon="-1.4804">
        <ele>51</ele>
        <time>2021-02-06T12:31:45.000Z</time>
      </trkpt>
      <trkpt lat="47.22995" lon="-1.48026">
        <ele>49</ele>
        <time>2021-02-06T12:31:47.000Z</time>
      </trkpt>
      <trkpt lat="47.23011" lon="-1.48008">
        <ele>50</ele>
        <time>2021-02-06T12:31:50.000Z</time>
      </trkpt>
      <trkpt lat="47.23018" lon="-1.47997">
        <ele>49</ele>
        <time>2021-02-06T12:31:52.000Z</time>
      </trkpt>
      <trkpt lat="47.23026" lon="-1.4798">
        <ele>49</ele>
        <time>2021-02-06T12:31:54.000Z</time>
      </trkpt>
      <trkpt lat="47.2304" lon="-1.47958">
        <ele>50</ele>
        <time>2021-02-06T12:31:57.000Z</time>
      </trkpt>
      <trkpt lat="47.23048" lon="-1.47946">
        <ele>48</ele>
        <time>2021-02-06T12:31:59.000Z</time>
      </trkpt>
      <trkpt lat="47.23058" lon="-1.47935">
        <ele>47</ele>
        <time>2021-02-06T12:32:01.000Z</time>
      </trkpt>
      <trkpt lat="47.23073" lon="-1.47914">
        <ele>47</ele>
        <time>2021-02-06T12:32:04.000Z</time>
      </trkpt>
      <trkpt lat="47.23084" lon="-1.47901">
        <ele>48</ele>
        <time>2021-02-06T12:32:06.000Z</time>
      </trkpt>
      <trkpt lat="47.23099" lon="-1.47881">
        <ele>49</ele>
        <time>2021-02-06T12:32:09.000Z</time>
      </trkpt>
      <trkpt lat="47.23108" lon="-1.47867">
        <ele>50</ele>
        <time>2021-02-06T12:32:11.000Z</time>
      </trkpt>
      <trkpt lat="47.23117" lon="-1.47853">
        <ele>51</ele>
        <time>2021-02-06T12:32:13.000Z</time>
      </trkpt>
      <trkpt lat="47.23125" lon="-1.47837">
        <ele>51</ele>
        <time>2021-02-06T12:32:15.000Z</time>
      </trkpt>
      <trkpt lat="47.23132" lon="-1.47821">
        <ele>51</ele>
        <time>2021-02-06T12:32:17.000Z</time>
      </trkpt>
      <trkpt lat="47.23138" lon="-1.47805">
        <ele>50</ele>
        <time>2021-02-06T12:32:19.000Z</time>
      </trkpt>
      <trkpt lat="47.23144" lon="-1.47789">
        <ele>50</ele>
        <time>2021-02-06T12:32:21.000Z</time>
      </trkpt>
      <trkpt lat="47.23149" lon="-1.47772">
        <ele>50</ele>
        <time>2021-02-06T12:32:23.000Z</time>
      </trkpt>
      <trkpt lat="47.23157" lon="-1.47755">
        <ele>50</ele>
        <time>2021-02-06T12:32:25.000Z</time>
      </trkpt>
      <trkpt lat="47.23163" lon="-1.47738">
        <ele>50</ele>
        <time>2021-02-06T12:32:27.000Z</time>
      </trkpt>
      <trkpt lat="47.2317" lon="-1.47722">
        <ele>50</ele>
        <time>2021-02-06T12:32:29.000Z</time>
      </trkpt>
      <trkpt lat="47.23184" lon="-1.47691">
        <ele>51</ele>
        <time>2021-02-06T12:32:33.000Z</time>
      </trkpt>
      <trkpt lat="47.2319" lon="-1.47677">
        <ele>51</ele>
        <time>2021-02-06T12:32:35.000Z</time>
      </trkpt>
      <trkpt lat="47.23197" lon="-1.47662">
        <ele>50</ele>
        <time>2021-02-06T12:32:37.000Z</time>
      </trkpt>
      <trkpt lat="47.23203" lon="-1.47645">
        <ele>49</ele>
        <time>2021-02-06T12:32:39.000Z</time>
      </trkpt>
      <trkpt lat="47.2321" lon="-1.47628">
        <ele>50</ele>
        <time>2021-02-06T12:32:41.000Z</time>
      </trkpt>
      <trkpt lat="47.23217" lon="-1.47611">
        <ele>51</ele>
        <time>2021-02-06T12:32:43.000Z</time>
      </trkpt>
      <trkpt lat="47.23229" lon="-1.47593">
        <ele>48</ele>
        <time>2021-02-06T12:32:46.000Z</time>
      </trkpt>
      <trkpt lat="47.23235" lon="-1.47577">
        <ele>49</ele>
        <time>2021-02-06T12:32:48.000Z</time>
      </trkpt>
      <trkpt lat="47.23242" lon="-1.47561">
        <ele>50</ele>
        <time>2021-02-06T12:32:50.000Z</time>
      </trkpt>
      <trkpt lat="47.23251" lon="-1.47545">
        <ele>51</ele>
        <time>2021-02-06T12:32:52.000Z</time>
      </trkpt>
      <trkpt lat="47.23262" lon="-1.47529">
        <ele>48</ele>
        <time>2021-02-06T12:32:54.000Z</time>
      </trkpt>
      <trkpt lat="47.23272" lon="-1.47518">
        <ele>50</ele>
        <time>2021-02-06T12:32:56.000Z</time>
      </trkpt>
      <trkpt lat="47.23283" lon="-1.47511">
        <ele>50</ele>
        <time>2021-02-06T12:32:58.000Z</time>
      </trkpt>
      <trkpt lat="47.23294" lon="-1.47505">
        <ele>51</ele>
        <time>2021-02-06T12:33:00.000Z</time>
      </trkpt>
      <trkpt lat="47.23306" lon="-1.47498">
        <ele>50</ele>
        <time>2021-02-06T12:33:02.000Z</time>
      </trkpt>
      <trkpt lat="47.23318" lon="-1.47489">
        <ele>49</ele>
        <time>2021-02-06T12:33:04.000Z</time>
      </trkpt>
      <trkpt lat="47.23329" lon="-1.47481">
        <ele>50</ele>
        <time>2021-02-06T12:33:06.000Z</time>
      </trkpt>
      <trkpt lat="47.23341" lon="-1.47473">
        <ele>49</ele>
        <time>2021-02-06T12:33:08.000Z</time>
      </trkpt>
      <trkpt lat="47.23352" lon="-1.47464">
        <ele>50</ele>
        <time>2021-02-06T12:33:10.000Z</time>
      </trkpt>
      <trkpt lat="47.23364" lon="-1.47462">
        <ele>51</ele>
        <time>2021-02-06T12:33:12.000Z</time>
      </trkpt>
      <trkpt lat="47.23377" lon="-1.47456">
        <ele>51</ele>
        <time>2021-02-06T12:33:14.000Z</time>
      </trkpt>
      <trkpt lat="47.23388" lon="-1.4745">
        <ele>51</ele>
        <time>2021-02-06T12:33:16.000Z</time>
      </trkpt>
      <trkpt lat="47.23403" lon="-1.47439">
        <ele>49</ele>
        <time>2021-02-06T12:33:19.000Z</time>
      </trkpt>
      <trkpt lat="47.23412" lon="-1.47437">
        <ele>50</ele>
        <time>2021-02-06T12:33:21.000Z</time>
      </trkpt>
      <trkpt lat="47.23423" lon="-1.47445">
        <ele>53</ele>
        <time>2021-02-06T12:33:25.000Z</time>
      </trkpt>
      <trkpt lat="47.2343" lon="-1.47457">
        <ele>53</ele>
        <time>2021-02-06T12:33:27.000Z</time>
      </trkpt>
      <trkpt lat="47.23439" lon="-1.4747">
        <ele>53</ele>
        <time>2021-02-06T12:33:29.000Z</time>
      </trkpt>
      <trkpt lat="47.23447" lon="-1.47482">
        <ele>54</ele>
        <time>2021-02-06T12:33:31.000Z</time>
      </trkpt>
      <trkpt lat="47.23455" lon="-1.47495">
        <ele>54</ele>
        <time>2021-02-06T12:33:33.000Z</time>
      </trkpt>
      <trkpt lat="47.23463" lon="-1.47508">
        <ele>53</ele>
        <time>2021-02-06T12:33:35.000Z</time>
      </trkpt>
      <trkpt lat="47.23475" lon="-1.47528">
        <ele>53</ele>
        <time>2021-02-06T12:33:38.000Z</time>
      </trkpt>
      <trkpt lat="47.23484" lon="-1.47542">
        <ele>53</ele>
        <time>2021-02-06T12:33:40.000Z</time>
      </trkpt>
      <trkpt lat="47.23492" lon="-1.47555">
        <ele>54</ele>
        <time>2021-02-06T12:33:42.000Z</time>
      </trkpt>
      <trkpt lat="47.23501" lon="-1.47568">
        <ele>54</ele>
        <time>2021-02-06T12:33:44.000Z</time>
      </trkpt>
      <trkpt lat="47.23509" lon="-1.47582">
        <ele>54</ele>
        <time>2021-02-06T12:33:46.000Z</time>
      </trkpt>
      <trkpt lat="47.23521" lon="-1.47607">
        <ele>54</ele>
        <time>2021-02-06T12:33:49.000Z</time>
      </trkpt>
      <trkpt lat="47.23531" lon="-1.4762">
        <ele>55</ele>
        <time>2021-02-06T12:33:51.000Z</time>
      </trkpt>
      <trkpt lat="47.23541" lon="-1.47637">
        <ele>53</ele>
        <time>2021-02-06T12:33:54.000Z</time>
      </trkpt>
      <trkpt lat="47.2355" lon="-1.4765">
        <ele>53</ele>
        <time>2021-02-06T12:33:56.000Z</time>
      </trkpt>
      <trkpt lat="47.23564" lon="-1.47667">
        <ele>52</ele>
        <time>2021-02-06T12:33:59.000Z</time>
      </trkpt>
      <trkpt lat="47.23573" lon="-1.47679">
        <ele>53</ele>
        <time>2021-02-06T12:34:01.000Z</time>
      </trkpt>
      <trkpt lat="47.23582" lon="-1.47689">
        <ele>53</ele>
        <time>2021-02-06T12:34:03.000Z</time>
      </trkpt>
      <trkpt lat="47.23593" lon="-1.47696">
        <ele>53</ele>
        <time>2021-02-06T12:34:05.000Z</time>
      </trkpt>
      <trkpt lat="47.23609" lon="-1.47708">
        <ele>49</ele>
        <time>2021-02-06T12:34:08.000Z</time>
      </trkpt>
      <trkpt lat="47.2362" lon="-1.47714">
        <ele>50</ele>
        <time>2021-02-06T12:34:10.000Z</time>
      </trkpt>
      <trkpt lat="47.23632" lon="-1.47721">
        <ele>50</ele>
        <time>2021-02-06T12:34:12.000Z</time>
      </trkpt>
      <trkpt lat="47.23644" lon="-1.47729">
        <ele>50</ele>
        <time>2021-02-06T12:34:14.000Z</time>
      </trkpt>
      <trkpt lat="47.23656" lon="-1.47736">
        <ele>50</ele>
        <time>2021-02-06T12:34:16.000Z</time>
      </trkpt>
      <trkpt lat="47.23667" lon="-1.47742">
        <ele>50</ele>
        <time>2021-02-06T12:34:18.000Z</time>
      </trkpt>
      <trkpt lat="47.23679" lon="-1.47746">
        <ele>51</ele>
        <time>2021-02-06T12:34:20.000Z</time>
      </trkpt>
      <trkpt lat="47.23691" lon="-1.47747">
        <ele>51</ele>
        <time>2021-02-06T12:34:22.000Z</time>
      </trkpt>
      <trkpt lat="47.23703" lon="-1.47744">
        <ele>51</ele>
        <time>2021-02-06T12:34:24.000Z</time>
      </trkpt>
      <trkpt lat="47.23713" lon="-1.47738">
        <ele>51</ele>
        <time>2021-02-06T12:34:26.000Z</time>
      </trkpt>
      <trkpt lat="47.23723" lon="-1.4773">
        <ele>51</ele>
        <time>2021-02-06T12:34:28.000Z</time>
      </trkpt>
      <trkpt lat="47.23732" lon="-1.47722">
        <ele>49</ele>
        <time>2021-02-06T12:34:30.000Z</time>
      </trkpt>
      <trkpt lat="47.23741" lon="-1.47715">
        <ele>48</ele>
        <time>2021-02-06T12:34:32.000Z</time>
      </trkpt>
      <trkpt lat="47.23753" lon="-1.47698">
        <ele>49</ele>
        <time>2021-02-06T12:34:35.000Z</time>
      </trkpt>
      <trkpt lat="47.23762" lon="-1.47687">
        <ele>50</ele>
        <time>2021-02-06T12:34:37.000Z</time>
      </trkpt>
      <trkpt lat="47.23774" lon="-1.47681">
        <ele>49</ele>
        <time>2021-02-06T12:34:39.000Z</time>
      </trkpt>
      <trkpt lat="47.23788" lon="-1.47672">
        <ele>50</ele>
        <time>2021-02-06T12:34:42.000Z</time>
      </trkpt>
      <trkpt lat="47.23797" lon="-1.47663">
        <ele>50</ele>
        <time>2021-02-06T12:34:44.000Z</time>
      </trkpt>
      <trkpt lat="47.23805" lon="-1.47654">
        <ele>51</ele>
        <time>2021-02-06T12:34:46.000Z</time>
      </trkpt>
      <trkpt lat="47.23814" lon="-1.47649">
        <ele>52</ele>
        <time>2021-02-06T12:34:48.000Z</time>
      </trkpt>
      <trkpt lat="47.23825" lon="-1.47647">
        <ele>52</ele>
        <time>2021-02-06T12:34:50.000Z</time>
      </trkpt>
      <trkpt lat="47.23836" lon="-1.47643">
        <ele>52</ele>
        <time>2021-02-06T12:34:52.000Z</time>
      </trkpt>
      <trkpt lat="47.23846" lon="-1.47639">
        <ele>51</ele>
        <time>2021-02-06T12:34:54.000Z</time>
      </trkpt>
      <trkpt lat="47.23858" lon="-1.47635">
        <ele>52</ele>
        <time>2021-02-06T12:34:56.000Z</time>
      </trkpt>
      <trkpt lat="47.23869" lon="-1.47629">
        <ele>52</ele>
        <time>2021-02-06T12:34:58.000Z</time>
      </trkpt>
      <trkpt lat="47.2388" lon="-1.47626">
        <ele>53</ele>
        <time>2021-02-06T12:35:00.000Z</time>
      </trkpt>
      <trkpt lat="47.23897" lon="-1.47625">
        <ele>54</ele>
        <time>2021-02-06T12:35:03.000Z</time>
      </trkpt>
      <trkpt lat="47.23908" lon="-1.47627">
        <ele>54</ele>
        <time>2021-02-06T12:35:05.000Z</time>
      </trkpt>
      <trkpt lat="47.23919" lon="-1.4763">
        <ele>54</ele>
        <time>2021-02-06T12:35:07.000Z</time>
      </trkpt>
      <trkpt lat="47.2393" lon="-1.47636">
        <ele>54</ele>
        <time>2021-02-06T12:35:09.000Z</time>
      </trkpt>
      <trkpt lat="47.23946" lon="-1.47647">
        <ele>55</ele>
        <time>2021-02-06T12:35:12.000Z</time>
      </trkpt>
      <trkpt lat="47.23956" lon="-1.47661">
        <ele>54</ele>
        <time>2021-02-06T12:35:14.000Z</time>
      </trkpt>
      <trkpt lat="47.23965" lon="-1.47675">
        <ele>54</ele>
        <time>2021-02-06T12:35:16.000Z</time>
      </trkpt>
      <trkpt lat="47.23972" lon="-1.47686">
        <ele>54</ele>
        <time>2021-02-06T12:35:18.000Z</time>
      </trkpt>
      <trkpt lat="47.23984" lon="-1.47713">
        <ele>54</ele>
        <time>2021-02-06T12:35:21.000Z</time>
      </trkpt>
      <trkpt lat="47.23989" lon="-1.47729">
        <ele>54</ele>
        <time>2021-02-06T12:35:23.000Z</time>
      </trkpt>
      <trkpt lat="47.23995" lon="-1.47744">
        <ele>54</ele>
        <time>2021-02-06T12:35:25.000Z</time>
      </trkpt>
      <trkpt lat="47.24" lon="-1.47762">
        <ele>54</ele>
        <time>2021-02-06T12:35:27.000Z</time>
      </trkpt>
      <trkpt lat="47.24005" lon="-1.47777">
        <ele>54</ele>
        <time>2021-02-06T12:35:29.000Z</time>
      </trkpt>
      <trkpt lat="47.24013" lon="-1.47793">
        <ele>55</ele>
        <time>2021-02-06T12:35:32.000Z</time>
      </trkpt>
      <trkpt lat="47.24021" lon="-1.47807">
        <ele>53</ele>
        <time>2021-02-06T12:35:34.000Z</time>
      </trkpt>
      <trkpt lat="47.24027" lon="-1.47824">
        <ele>54</ele>
        <time>2021-02-06T12:35:36.000Z</time>
      </trkpt>
      <trkpt lat="47.24037" lon="-1.47847">
        <ele>53</ele>
        <time>2021-02-06T12:35:39.000Z</time>
      </trkpt>
      <trkpt lat="47.24043" lon="-1.47863">
        <ele>53</ele>
        <time>2021-02-06T12:35:41.000Z</time>
      </trkpt>
      <trkpt lat="47.24049" lon="-1.4788">
        <ele>53</ele>
        <time>2021-02-06T12:35:43.000Z</time>
      </trkpt>
      <trkpt lat="47.24054" lon="-1.47896">
        <ele>52</ele>
        <time>2021-02-06T12:35:45.000Z</time>
      </trkpt>
      <trkpt lat="47.24059" lon="-1.47912">
        <ele>53</ele>
        <time>2021-02-06T12:35:47.000Z</time>
      </trkpt>
      <trkpt lat="47.24064" lon="-1.47928">
        <ele>52</ele>
        <time>2021-02-06T12:35:49.000Z</time>
      </trkpt>
      <trkpt lat="47.2407" lon="-1.47946">
        <ele>52</ele>
        <time>2021-02-06T12:35:51.000Z</time>
      </trkpt>
      <trkpt lat="47.24075" lon="-1.47962">
        <ele>52</ele>
        <time>2021-02-06T12:35:53.000Z</time>
      </trkpt>
      <trkpt lat="47.24081" lon="-1.47981">
        <ele>51</ele>
        <time>2021-02-06T12:35:55.000Z</time>
      </trkpt>
      <trkpt lat="47.24088" lon="-1.48">
        <ele>51</ele>
        <time>2021-02-06T12:35:57.000Z</time>
      </trkpt>
      <trkpt lat="47.24098" lon="-1.48017">
        <ele>51</ele>
        <time>2021-02-06T12:35:59.000Z</time>
      </trkpt>
      <trkpt lat="47.24106" lon="-1.48035">
        <ele>50</ele>
        <time>2021-02-06T12:36:01.000Z</time>
      </trkpt>
      <trkpt lat="47.24114" lon="-1.48052">
        <ele>50</ele>
        <time>2021-02-06T12:36:03.000Z</time>
      </trkpt>
      <trkpt lat="47.24123" lon="-1.48067">
        <ele>50</ele>
        <time>2021-02-06T12:36:05.000Z</time>
      </trkpt>
      <trkpt lat="47.24133" lon="-1.4808">
        <ele>51</ele>
        <time>2021-02-06T12:36:07.000Z</time>
      </trkpt>
      <trkpt lat="47.24142" lon="-1.48092">
        <ele>52</ele>
        <time>2021-02-06T12:36:09.000Z</time>
      </trkpt>
      <trkpt lat="47.24151" lon="-1.48102">
        <ele>52</ele>
        <time>2021-02-06T12:36:11.000Z</time>
      </trkpt>
      <trkpt lat="47.2416" lon="-1.48112">
        <ele>53</ele>
        <time>2021-02-06T12:36:13.000Z</time>
      </trkpt>
      <trkpt lat="47.24174" lon="-1.48126">
        <ele>53</ele>
        <time>2021-02-06T12:36:16.000Z</time>
      </trkpt>
      <trkpt lat="47.24184" lon="-1.48135">
        <ele>54</ele>
        <time>2021-02-06T12:36:18.000Z</time>
      </trkpt>
      <trkpt lat="47.24195" lon="-1.48143">
        <ele>54</ele>
        <time>2021-02-06T12:36:20.000Z</time>
      </trkpt>
      <trkpt lat="47.24206" lon="-1.48147">
        <ele>53</ele>
        <time>2021-02-06T12:36:22.000Z</time>
      </trkpt>
      <trkpt lat="47.24215" lon="-1.48153">
        <ele>53</ele>
        <time>2021-02-06T12:36:24.000Z</time>
      </trkpt>
      <trkpt lat="47.24225" lon="-1.4816">
        <ele>52</ele>
        <time>2021-02-06T12:36:26.000Z</time>
      </trkpt>
      <trkpt lat="47.24236" lon="-1.48167">
        <ele>52</ele>
        <time>2021-02-06T12:36:28.000Z</time>
      </trkpt>
      <trkpt lat="47.24246" lon="-1.48173">
        <ele>51</ele>
        <time>2021-02-06T12:36:30.000Z</time>
      </trkpt>
      <trkpt lat="47.24256" lon="-1.48181">
        <ele>52</ele>
        <time>2021-02-06T12:36:32.000Z</time>
      </trkpt>
      <trkpt lat="47.24268" lon="-1.48188">
        <ele>52</ele>
        <time>2021-02-06T12:36:34.000Z</time>
      </trkpt>
      <trkpt lat="47.24284" lon="-1.48197">
        <ele>51</ele>
        <time>2021-02-06T12:36:37.000Z</time>
      </trkpt>
      <trkpt lat="47.24295" lon="-1.48205">
        <ele>51</ele>
        <time>2021-02-06T12:36:39.000Z</time>
      </trkpt>
      <trkpt lat="47.24306" lon="-1.48217">
        <ele>52</ele>
        <time>2021-02-06T12:36:41.000Z</time>
      </trkpt>
      <trkpt lat="47.24316" lon="-1.48227">
        <ele>52</ele>
        <time>2021-02-06T12:36:43.000Z</time>
      </trkpt>
      <trkpt lat="47.24326" lon="-1.48235">
        <ele>53</ele>
        <time>2021-02-06T12:36:45.000Z</time>
      </trkpt>
      <trkpt lat="47.24336" lon="-1.4824">
        <ele>53</ele>
        <time>2021-02-06T12:36:47.000Z</time>
      </trkpt>
      <trkpt lat="47.24346" lon="-1.48245">
        <ele>54</ele>
        <time>2021-02-06T12:36:49.000Z</time>
      </trkpt>
      <trkpt lat="47.24354" lon="-1.48256">
        <ele>54</ele>
        <time>2021-02-06T12:36:51.000Z</time>
      </trkpt>
      <trkpt lat="47.2436" lon="-1.4827">
        <ele>54</ele>
        <time>2021-02-06T12:36:53.000Z</time>
      </trkpt>
      <trkpt lat="47.24367" lon="-1.48284">
        <ele>54</ele>
        <time>2021-02-06T12:36:55.000Z</time>
      </trkpt>
      <trkpt lat="47.24377" lon="-1.48296">
        <ele>53</ele>
        <time>2021-02-06T12:36:57.000Z</time>
      </trkpt>
      <trkpt lat="47.24386" lon="-1.48307">
        <ele>53</ele>
        <time>2021-02-06T12:36:59.000Z</time>
      </trkpt>
      <trkpt lat="47.24395" lon="-1.48319">
        <ele>54</ele>
        <time>2021-02-06T12:37:01.000Z</time>
      </trkpt>
      <trkpt lat="47.24404" lon="-1.48331">
        <ele>54</ele>
        <time>2021-02-06T12:37:03.000Z</time>
      </trkpt>
      <trkpt lat="47.24418" lon="-1.48346">
        <ele>54</ele>
        <time>2021-02-06T12:37:06.000Z</time>
      </trkpt>
      <trkpt lat="47.24428" lon="-1.48353">
        <ele>54</ele>
        <time>2021-02-06T12:37:08.000Z</time>
      </trkpt>
      <trkpt lat="47.24439" lon="-1.48359">
        <ele>53</ele>
        <time>2021-02-06T12:37:10.000Z</time>
      </trkpt>
      <trkpt lat="47.2445" lon="-1.48365">
        <ele>53</ele>
        <time>2021-02-06T12:37:12.000Z</time>
      </trkpt>
      <trkpt lat="47.2446" lon="-1.48367">
        <ele>50</ele>
        <time>2021-02-06T12:37:14.000Z</time>
      </trkpt>
      <trkpt lat="47.2447" lon="-1.48374">
        <ele>52</ele>
        <time>2021-02-06T12:37:16.000Z</time>
      </trkpt>
      <trkpt lat="47.24479" lon="-1.48384">
        <ele>53</ele>
        <time>2021-02-06T12:37:18.000Z</time>
      </trkpt>
      <trkpt lat="47.24491" lon="-1.48391">
        <ele>53</ele>
        <time>2021-02-06T12:37:20.000Z</time>
      </trkpt>
      <trkpt lat="47.24502" lon="-1.48398">
        <ele>53</ele>
        <time>2021-02-06T12:37:22.000Z</time>
      </trkpt>
      <trkpt lat="47.24512" lon="-1.48405">
        <ele>54</ele>
        <time>2021-02-06T12:37:24.000Z</time>
      </trkpt>
      <trkpt lat="47.24522" lon="-1.48413">
        <ele>54</ele>
        <time>2021-02-06T12:37:26.000Z</time>
      </trkpt>
      <trkpt lat="47.24532" lon="-1.48423">
        <ele>54</ele>
        <time>2021-02-06T12:37:28.000Z</time>
      </trkpt>
      <trkpt lat="47.24541" lon="-1.48433">
        <ele>54</ele>
        <time>2021-02-06T12:37:30.000Z</time>
      </trkpt>
      <trkpt lat="47.24551" lon="-1.48443">
        <ele>55</ele>
        <time>2021-02-06T12:37:32.000Z</time>
      </trkpt>
      <trkpt lat="47.2456" lon="-1.48452">
        <ele>55</ele>
        <time>2021-02-06T12:37:34.000Z</time>
      </trkpt>
      <trkpt lat="47.24569" lon="-1.48463">
        <ele>55</ele>
        <time>2021-02-06T12:37:36.000Z</time>
      </trkpt>
      <trkpt lat="47.24578" lon="-1.48473">
        <ele>53</ele>
        <time>2021-02-06T12:37:38.000Z</time>
      </trkpt>
      <trkpt lat="47.24586" lon="-1.48485">
        <ele>53</ele>
        <time>2021-02-06T12:37:40.000Z</time>
      </trkpt>
      <trkpt lat="47.24595" lon="-1.48495">
        <ele>53</ele>
        <time>2021-02-06T12:37:42.000Z</time>
      </trkpt>
      <trkpt lat="47.24603" lon="-1.48504">
        <ele>53</ele>
        <time>2021-02-06T12:37:44.000Z</time>
      </trkpt>
      <trkpt lat="47.24614" lon="-1.48519">
        <ele>51</ele>
        <time>2021-02-06T12:37:47.000Z</time>
      </trkpt>
      <trkpt lat="47.24632" lon="-1.4854">
        <ele>52</ele>
        <time>2021-02-06T12:37:51.000Z</time>
      </trkpt>
      <trkpt lat="47.24641" lon="-1.48551">
        <ele>54</ele>
        <time>2021-02-06T12:37:53.000Z</time>
      </trkpt>
      <trkpt lat="47.24653" lon="-1.48558">
        <ele>53</ele>
        <time>2021-02-06T12:37:55.000Z</time>
      </trkpt>
      <trkpt lat="47.24664" lon="-1.4857">
        <ele>54</ele>
        <time>2021-02-06T12:37:58.000Z</time>
      </trkpt>
      <trkpt lat="47.24672" lon="-1.48578">
        <ele>55</ele>
        <time>2021-02-06T12:38:00.000Z</time>
      </trkpt>
      <trkpt lat="47.24681" lon="-1.48586">
        <ele>55</ele>
        <time>2021-02-06T12:38:02.000Z</time>
      </trkpt>
      <trkpt lat="47.2469" lon="-1.48594">
        <ele>55</ele>
        <time>2021-02-06T12:38:04.000Z</time>
      </trkpt>
      <trkpt lat="47.24697" lon="-1.48603">
        <ele>55</ele>
        <time>2021-02-06T12:38:06.000Z</time>
      </trkpt>
      <trkpt lat="47.24706" lon="-1.48611">
        <ele>55</ele>
        <time>2021-02-06T12:38:08.000Z</time>
      </trkpt>
      <trkpt lat="47.24718" lon="-1.4862">
        <ele>55</ele>
        <time>2021-02-06T12:38:11.000Z</time>
      </trkpt>
      <trkpt lat="47.24726" lon="-1.48627">
        <ele>56</ele>
        <time>2021-02-06T12:38:13.000Z</time>
      </trkpt>
      <trkpt lat="47.24738" lon="-1.48632">
        <ele>56</ele>
        <time>2021-02-06T12:38:15.000Z</time>
      </trkpt>
      <trkpt lat="47.24748" lon="-1.48629">
        <ele>55</ele>
        <time>2021-02-06T12:38:17.000Z</time>
      </trkpt>
      <trkpt lat="47.24759" lon="-1.48628">
        <ele>53</ele>
        <time>2021-02-06T12:38:19.000Z</time>
      </trkpt>
      <trkpt lat="47.24769" lon="-1.4864">
        <ele>54</ele>
        <time>2021-02-06T12:38:22.000Z</time>
      </trkpt>
      <trkpt lat="47.24779" lon="-1.48648">
        <ele>53</ele>
        <time>2021-02-06T12:38:24.000Z</time>
      </trkpt>
      <trkpt lat="47.24789" lon="-1.48652">
        <ele>54</ele>
        <time>2021-02-06T12:38:26.000Z</time>
      </trkpt>
      <trkpt lat="47.24802" lon="-1.4865">
        <ele>55</ele>
        <time>2021-02-06T12:38:29.000Z</time>
      </trkpt>
      <trkpt lat="47.24813" lon="-1.4865">
        <ele>56</ele>
        <time>2021-02-06T12:38:31.000Z</time>
      </trkpt>
      <trkpt lat="47.24823" lon="-1.48649">
        <ele>58</ele>
        <time>2021-02-06T12:38:33.000Z</time>
      </trkpt>
      <trkpt lat="47.24833" lon="-1.4865">
        <ele>58</ele>
        <time>2021-02-06T12:38:35.000Z</time>
      </trkpt>
      <trkpt lat="47.24844" lon="-1.48652">
        <ele>59</ele>
        <time>2021-02-06T12:38:37.000Z</time>
      </trkpt>
      <trkpt lat="47.24858" lon="-1.48655">
        <ele>60</ele>
        <time>2021-02-06T12:38:40.000Z</time>
      </trkpt>
      <trkpt lat="47.24868" lon="-1.48658">
        <ele>60</ele>
        <time>2021-02-06T12:38:42.000Z</time>
      </trkpt>
      <trkpt lat="47.24877" lon="-1.4866">
        <ele>61</ele>
        <time>2021-02-06T12:38:44.000Z</time>
      </trkpt>
      <trkpt lat="47.24887" lon="-1.48662">
        <ele>61</ele>
        <time>2021-02-06T12:38:46.000Z</time>
      </trkpt>
      <trkpt lat="47.24896" lon="-1.48664">
        <ele>62</ele>
        <time>2021-02-06T12:38:48.000Z</time>
      </trkpt>
      <trkpt lat="47.24911" lon="-1.4867">
        <ele>62</ele>
        <time>2021-02-06T12:38:51.000Z</time>
      </trkpt>
      <trkpt lat="47.2492" lon="-1.48675">
        <ele>62</ele>
        <time>2021-02-06T12:38:53.000Z</time>
      </trkpt>
      <trkpt lat="47.24929" lon="-1.48679">
        <ele>63</ele>
        <time>2021-02-06T12:38:55.000Z</time>
      </trkpt>
      <trkpt lat="47.24945" lon="-1.48683">
        <ele>63</ele>
        <time>2021-02-06T12:38:59.000Z</time>
      </trkpt>
      <trkpt lat="47.24954" lon="-1.48686">
        <ele>63</ele>
        <time>2021-02-06T12:39:01.000Z</time>
      </trkpt>
      <trkpt lat="47.24963" lon="-1.48695">
        <ele>64</ele>
        <time>2021-02-06T12:39:03.000Z</time>
      </trkpt>
      <trkpt lat="47.24975" lon="-1.48704">
        <ele>65</ele>
        <time>2021-02-06T12:39:06.000Z</time>
      </trkpt>
      <trkpt lat="47.24985" lon="-1.48708">
        <ele>65</ele>
        <time>2021-02-06T12:39:08.000Z</time>
      </trkpt>
      <trkpt lat="47.24994" lon="-1.48713">
        <ele>66</ele>
        <time>2021-02-06T12:39:10.000Z</time>
      </trkpt>
      <trkpt lat="47.25003" lon="-1.48718">
        <ele>67</ele>
        <time>2021-02-06T12:39:12.000Z</time>
      </trkpt>
      <trkpt lat="47.25011" lon="-1.48724">
        <ele>68</ele>
        <time>2021-02-06T12:39:14.000Z</time>
      </trkpt>
      <trkpt lat="47.2502" lon="-1.48729">
        <ele>69</ele>
        <time>2021-02-06T12:39:16.000Z</time>
      </trkpt>
      <trkpt lat="47.25031" lon="-1.48732">
        <ele>70</ele>
        <time>2021-02-06T12:39:18.000Z</time>
      </trkpt>
      <trkpt lat="47.25042" lon="-1.48733">
        <ele>69</ele>
        <time>2021-02-06T12:39:20.000Z</time>
      </trkpt>
      <trkpt lat="47.25059" lon="-1.48737">
        <ele>68</ele>
        <time>2021-02-06T12:39:23.000Z</time>
      </trkpt>
      <trkpt lat="47.25069" lon="-1.48739">
        <ele>68</ele>
        <time>2021-02-06T12:39:25.000Z</time>
      </trkpt>
      <trkpt lat="47.25079" lon="-1.48742">
        <ele>68</ele>
        <time>2021-02-06T12:39:27.000Z</time>
      </trkpt>
      <trkpt lat="47.2509" lon="-1.48744">
        <ele>67</ele>
        <time>2021-02-06T12:39:29.000Z</time>
      </trkpt>
      <trkpt lat="47.251" lon="-1.48748">
        <ele>67</ele>
        <time>2021-02-06T12:39:31.000Z</time>
      </trkpt>
      <trkpt lat="47.25118" lon="-1.4875">
        <ele>66</ele>
        <time>2021-02-06T12:39:34.000Z</time>
      </trkpt>
      <trkpt lat="47.25128" lon="-1.4875">
        <ele>67</ele>
        <time>2021-02-06T12:39:36.000Z</time>
      </trkpt>
      <trkpt lat="47.25137" lon="-1.48749">
        <ele>67</ele>
        <time>2021-02-06T12:39:38.000Z</time>
      </trkpt>
      <trkpt lat="47.25147" lon="-1.48745">
        <ele>66</ele>
        <time>2021-02-06T12:39:40.000Z</time>
      </trkpt>
      <trkpt lat="47.25157" lon="-1.48742">
        <ele>65</ele>
        <time>2021-02-06T12:39:42.000Z</time>
      </trkpt>
      <trkpt lat="47.25168" lon="-1.48741">
        <ele>65</ele>
        <time>2021-02-06T12:39:44.000Z</time>
      </trkpt>
      <trkpt lat="47.25186" lon="-1.4874">
        <ele>64</ele>
        <time>2021-02-06T12:39:47.000Z</time>
      </trkpt>
      <trkpt lat="47.25196" lon="-1.48738">
        <ele>65</ele>
        <time>2021-02-06T12:39:49.000Z</time>
      </trkpt>
      <trkpt lat="47.25206" lon="-1.48737">
        <ele>65</ele>
        <time>2021-02-06T12:39:51.000Z</time>
      </trkpt>
      <trkpt lat="47.25216" lon="-1.48735">
        <ele>63</ele>
        <time>2021-02-06T12:39:53.000Z</time>
      </trkpt>
      <trkpt lat="47.25226" lon="-1.48733">
        <ele>62</ele>
        <time>2021-02-06T12:39:55.000Z</time>
      </trkpt>
      <trkpt lat="47.25235" lon="-1.48733">
        <ele>63</ele>
        <time>2021-02-06T12:39:57.000Z</time>
      </trkpt>
      <trkpt lat="47.25245" lon="-1.48733">
        <ele>64</ele>
        <time>2021-02-06T12:39:59.000Z</time>
      </trkpt>
      <trkpt lat="47.25255" lon="-1.48733">
        <ele>64</ele>
        <time>2021-02-06T12:40:01.000Z</time>
      </trkpt>
      <trkpt lat="47.25265" lon="-1.48733">
        <ele>63</ele>
        <time>2021-02-06T12:40:03.000Z</time>
      </trkpt>
      <trkpt lat="47.25275" lon="-1.48734">
        <ele>63</ele>
        <time>2021-02-06T12:40:05.000Z</time>
      </trkpt>
      <trkpt lat="47.25288" lon="-1.48734">
        <ele>63</ele>
        <time>2021-02-06T12:40:07.000Z</time>
      </trkpt>
      <trkpt lat="47.25298" lon="-1.48742">
        <ele>65</ele>
        <time>2021-02-06T12:40:10.000Z</time>
      </trkpt>
      <trkpt lat="47.25309" lon="-1.48751">
        <ele>66</ele>
        <time>2021-02-06T12:40:13.000Z</time>
      </trkpt>
      <trkpt lat="47.25319" lon="-1.48754">
        <ele>67</ele>
        <time>2021-02-06T12:40:15.000Z</time>
      </trkpt>
      <trkpt lat="47.2533" lon="-1.48757">
        <ele>67</ele>
        <time>2021-02-06T12:40:17.000Z</time>
      </trkpt>
      <trkpt lat="47.25346" lon="-1.48763">
        <ele>67</ele>
        <time>2021-02-06T12:40:20.000Z</time>
      </trkpt>
      <trkpt lat="47.25357" lon="-1.48767">
        <ele>67</ele>
        <time>2021-02-06T12:40:22.000Z</time>
      </trkpt>
      <trkpt lat="47.25367" lon="-1.48769">
        <ele>68</ele>
        <time>2021-02-06T12:40:24.000Z</time>
      </trkpt>
      <trkpt lat="47.25376" lon="-1.48771">
        <ele>68</ele>
        <time>2021-02-06T12:40:26.000Z</time>
      </trkpt>
      <trkpt lat="47.25387" lon="-1.48772">
        <ele>68</ele>
        <time>2021-02-06T12:40:28.000Z</time>
      </trkpt>
      <trkpt lat="47.25402" lon="-1.48774">
        <ele>68</ele>
        <time>2021-02-06T12:40:31.000Z</time>
      </trkpt>
      <trkpt lat="47.25413" lon="-1.48775">
        <ele>68</ele>
        <time>2021-02-06T12:40:33.000Z</time>
      </trkpt>
      <trkpt lat="47.25423" lon="-1.48775">
        <ele>68</ele>
        <time>2021-02-06T12:40:35.000Z</time>
      </trkpt>
      <trkpt lat="47.25434" lon="-1.48775">
        <ele>68</ele>
        <time>2021-02-06T12:40:37.000Z</time>
      </trkpt>
      <trkpt lat="47.25443" lon="-1.48775">
        <ele>68</ele>
        <time>2021-02-06T12:40:39.000Z</time>
      </trkpt>
      <trkpt lat="47.25458" lon="-1.48773">
        <ele>68</ele>
        <time>2021-02-06T12:40:42.000Z</time>
      </trkpt>
      <trkpt lat="47.25469" lon="-1.48771">
        <ele>67</ele>
        <time>2021-02-06T12:40:44.000Z</time>
      </trkpt>
      <trkpt lat="47.25479" lon="-1.48772">
        <ele>67</ele>
        <time>2021-02-06T12:40:46.000Z</time>
      </trkpt>
      <trkpt lat="47.25489" lon="-1.4877">
        <ele>68</ele>
        <time>2021-02-06T12:40:48.000Z</time>
      </trkpt>
      <trkpt lat="47.25506" lon="-1.48767">
        <ele>68</ele>
        <time>2021-02-06T12:40:51.000Z</time>
      </trkpt>
      <trkpt lat="47.25517" lon="-1.48764">
        <ele>68</ele>
        <time>2021-02-06T12:40:53.000Z</time>
      </trkpt>
      <trkpt lat="47.25529" lon="-1.4876">
        <ele>69</ele>
        <time>2021-02-06T12:40:56.000Z</time>
      </trkpt>
      <trkpt lat="47.25539" lon="-1.48757">
        <ele>66</ele>
        <time>2021-02-06T12:40:58.000Z</time>
      </trkpt>
      <trkpt lat="47.25553" lon="-1.48753">
        <ele>69</ele>
        <time>2021-02-06T12:41:01.000Z</time>
      </trkpt>
      <trkpt lat="47.25562" lon="-1.4875">
        <ele>70</ele>
        <time>2021-02-06T12:41:03.000Z</time>
      </trkpt>
      <trkpt lat="47.25572" lon="-1.48747">
        <ele>70</ele>
        <time>2021-02-06T12:41:05.000Z</time>
      </trkpt>
      <trkpt lat="47.25582" lon="-1.48745">
        <ele>71</ele>
        <time>2021-02-06T12:41:07.000Z</time>
      </trkpt>
      <trkpt lat="47.25591" lon="-1.48743">
        <ele>72</ele>
        <time>2021-02-06T12:41:09.000Z</time>
      </trkpt>
      <trkpt lat="47.25602" lon="-1.48743">
        <ele>73</ele>
        <time>2021-02-06T12:41:11.000Z</time>
      </trkpt>
      <trkpt lat="47.25615" lon="-1.48744">
        <ele>73</ele>
        <time>2021-02-06T12:41:14.000Z</time>
      </trkpt>
      <trkpt lat="47.25626" lon="-1.48746">
        <ele>73</ele>
        <time>2021-02-06T12:41:16.000Z</time>
      </trkpt>
      <trkpt lat="47.25639" lon="-1.48747">
        <ele>73</ele>
        <time>2021-02-06T12:41:19.000Z</time>
      </trkpt>
      <trkpt lat="47.25656" lon="-1.48756">
        <ele>74</ele>
        <time>2021-02-06T12:41:23.000Z</time>
      </trkpt>
      <trkpt lat="47.25666" lon="-1.48755">
        <ele>74</ele>
        <time>2021-02-06T12:41:25.000Z</time>
      </trkpt>
      <trkpt lat="47.25682" lon="-1.48756">
        <ele>74</ele>
        <time>2021-02-06T12:41:28.000Z</time>
      </trkpt>
      <trkpt lat="47.25694" lon="-1.48758">
        <ele>73</ele>
        <time>2021-02-06T12:41:30.000Z</time>
      </trkpt>
      <trkpt lat="47.25705" lon="-1.48758">
        <ele>73</ele>
        <time>2021-02-06T12:41:32.000Z</time>
      </trkpt>
      <trkpt lat="47.25716" lon="-1.48758">
        <ele>74</ele>
        <time>2021-02-06T12:41:34.000Z</time>
      </trkpt>
      <trkpt lat="47.25726" lon="-1.48758">
        <ele>74</ele>
        <time>2021-02-06T12:41:36.000Z</time>
      </trkpt>
      <trkpt lat="47.25736" lon="-1.48756">
        <ele>72</ele>
        <time>2021-02-06T12:41:38.000Z</time>
      </trkpt>
      <trkpt lat="47.25746" lon="-1.48752">
        <ele>71</ele>
        <time>2021-02-06T12:41:40.000Z</time>
      </trkpt>
      <trkpt lat="47.25757" lon="-1.48749">
        <ele>72</ele>
        <time>2021-02-06T12:41:42.000Z</time>
      </trkpt>
      <trkpt lat="47.25767" lon="-1.48746">
        <ele>73</ele>
        <time>2021-02-06T12:41:44.000Z</time>
      </trkpt>
      <trkpt lat="47.2578" lon="-1.48741">
        <ele>73</ele>
        <time>2021-02-06T12:41:47.000Z</time>
      </trkpt>
      <trkpt lat="47.25789" lon="-1.48741">
        <ele>73</ele>
        <time>2021-02-06T12:41:49.000Z</time>
      </trkpt>
      <trkpt lat="47.25801" lon="-1.48741">
        <ele>73</ele>
        <time>2021-02-06T12:41:51.000Z</time>
      </trkpt>
      <trkpt lat="47.25812" lon="-1.4874">
        <ele>72</ele>
        <time>2021-02-06T12:41:53.000Z</time>
      </trkpt>
      <trkpt lat="47.25824" lon="-1.48741">
        <ele>72</ele>
        <time>2021-02-06T12:41:55.000Z</time>
      </trkpt>
      <trkpt lat="47.25841" lon="-1.48742">
        <ele>74</ele>
        <time>2021-02-06T12:41:58.000Z</time>
      </trkpt>
      <trkpt lat="47.2585" lon="-1.48742">
        <ele>73</ele>
        <time>2021-02-06T12:42:00.000Z</time>
      </trkpt>
      <trkpt lat="47.25859" lon="-1.48741">
        <ele>73</ele>
        <time>2021-02-06T12:42:02.000Z</time>
      </trkpt>
      <trkpt lat="47.2587" lon="-1.48744">
        <ele>73</ele>
        <time>2021-02-06T12:42:04.000Z</time>
      </trkpt>
      <trkpt lat="47.2588" lon="-1.48745">
        <ele>73</ele>
        <time>2021-02-06T12:42:06.000Z</time>
      </trkpt>
      <trkpt lat="47.25892" lon="-1.48745">
        <ele>73</ele>
        <time>2021-02-06T12:42:08.000Z</time>
      </trkpt>
      <trkpt lat="47.25902" lon="-1.48745">
        <ele>73</ele>
        <time>2021-02-06T12:42:10.000Z</time>
      </trkpt>
      <trkpt lat="47.25914" lon="-1.48746">
        <ele>72</ele>
        <time>2021-02-06T12:42:12.000Z</time>
      </trkpt>
      <trkpt lat="47.25926" lon="-1.48747">
        <ele>72</ele>
        <time>2021-02-06T12:42:14.000Z</time>
      </trkpt>
      <trkpt lat="47.25938" lon="-1.48748">
        <ele>72</ele>
        <time>2021-02-06T12:42:16.000Z</time>
      </trkpt>
      <trkpt lat="47.2595" lon="-1.48749">
        <ele>72</ele>
        <time>2021-02-06T12:42:18.000Z</time>
      </trkpt>
      <trkpt lat="47.25961" lon="-1.48749">
        <ele>73</ele>
        <time>2021-02-06T12:42:20.000Z</time>
      </trkpt>
      <trkpt lat="47.25973" lon="-1.4875">
        <ele>73</ele>
        <time>2021-02-06T12:42:22.000Z</time>
      </trkpt>
      <trkpt lat="47.25984" lon="-1.48749">
        <ele>72</ele>
        <time>2021-02-06T12:42:24.000Z</time>
      </trkpt>
      <trkpt lat="47.25996" lon="-1.48749">
        <ele>73</ele>
        <time>2021-02-06T12:42:26.000Z</time>
      </trkpt>
      <trkpt lat="47.26009" lon="-1.4875">
        <ele>73</ele>
        <time>2021-02-06T12:42:28.000Z</time>
      </trkpt>
      <trkpt lat="47.26021" lon="-1.48748">
        <ele>72</ele>
        <time>2021-02-06T12:42:30.000Z</time>
      </trkpt>
      <trkpt lat="47.26033" lon="-1.48748">
        <ele>71</ele>
        <time>2021-02-06T12:42:32.000Z</time>
      </trkpt>
      <trkpt lat="47.26045" lon="-1.48745">
        <ele>67</ele>
        <time>2021-02-06T12:42:34.000Z</time>
      </trkpt>
      <trkpt lat="47.26057" lon="-1.48742">
        <ele>68</ele>
        <time>2021-02-06T12:42:36.000Z</time>
      </trkpt>
      <trkpt lat="47.26069" lon="-1.48739">
        <ele>69</ele>
        <time>2021-02-06T12:42:38.000Z</time>
      </trkpt>
      <trkpt lat="47.26086" lon="-1.48735">
        <ele>70</ele>
        <time>2021-02-06T12:42:41.000Z</time>
      </trkpt>
      <trkpt lat="47.261" lon="-1.48733">
        <ele>69</ele>
        <time>2021-02-06T12:42:43.000Z</time>
      </trkpt>
      <trkpt lat="47.26115" lon="-1.48731">
        <ele>69</ele>
        <time>2021-02-06T12:42:46.000Z</time>
      </trkpt>
      <trkpt lat="47.26125" lon="-1.48728">
        <ele>68</ele>
        <time>2021-02-06T12:42:48.000Z</time>
      </trkpt>
      <trkpt lat="47.26136" lon="-1.48718">
        <ele>68</ele>
        <time>2021-02-06T12:42:50.000Z</time>
      </trkpt>
      <trkpt lat="47.26146" lon="-1.48713">
        <ele>66</ele>
        <time>2021-02-06T12:42:52.000Z</time>
      </trkpt>
      <trkpt lat="47.26158" lon="-1.48708">
        <ele>69</ele>
        <time>2021-02-06T12:42:54.000Z</time>
      </trkpt>
      <trkpt lat="47.26169" lon="-1.48705">
        <ele>69</ele>
        <time>2021-02-06T12:42:56.000Z</time>
      </trkpt>
      <trkpt lat="47.26179" lon="-1.48701">
        <ele>71</ele>
        <time>2021-02-06T12:42:58.000Z</time>
      </trkpt>
      <trkpt lat="47.2619" lon="-1.48695">
        <ele>71</ele>
        <time>2021-02-06T12:43:00.000Z</time>
      </trkpt>
      <trkpt lat="47.262" lon="-1.4869">
        <ele>72</ele>
        <time>2021-02-06T12:43:02.000Z</time>
      </trkpt>
      <trkpt lat="47.2621" lon="-1.48686">
        <ele>73</ele>
        <time>2021-02-06T12:43:04.000Z</time>
      </trkpt>
      <trkpt lat="47.2622" lon="-1.48681">
        <ele>73</ele>
        <time>2021-02-06T12:43:06.000Z</time>
      </trkpt>
      <trkpt lat="47.26234" lon="-1.48674">
        <ele>74</ele>
        <time>2021-02-06T12:43:09.000Z</time>
      </trkpt>
      <trkpt lat="47.26244" lon="-1.48671">
        <ele>74</ele>
        <time>2021-02-06T12:43:11.000Z</time>
      </trkpt>
      <trkpt lat="47.26253" lon="-1.48669">
        <ele>75</ele>
        <time>2021-02-06T12:43:13.000Z</time>
      </trkpt>
      <trkpt lat="47.26264" lon="-1.48668">
        <ele>75</ele>
        <time>2021-02-06T12:43:15.000Z</time>
      </trkpt>
      <trkpt lat="47.26274" lon="-1.48666">
        <ele>76</ele>
        <time>2021-02-06T12:43:17.000Z</time>
      </trkpt>
      <trkpt lat="47.26284" lon="-1.48664">
        <ele>76</ele>
        <time>2021-02-06T12:43:19.000Z</time>
      </trkpt>
      <trkpt lat="47.26301" lon="-1.48663">
        <ele>73</ele>
        <time>2021-02-06T12:43:22.000Z</time>
      </trkpt>
      <trkpt lat="47.26311" lon="-1.48664">
        <ele>74</ele>
        <time>2021-02-06T12:43:24.000Z</time>
      </trkpt>
      <trkpt lat="47.26321" lon="-1.48663">
        <ele>74</ele>
        <time>2021-02-06T12:43:26.000Z</time>
      </trkpt>
      <trkpt lat="47.26331" lon="-1.48664">
        <ele>76</ele>
        <time>2021-02-06T12:43:28.000Z</time>
      </trkpt>
      <trkpt lat="47.26348" lon="-1.48663">
        <ele>76</ele>
        <time>2021-02-06T12:43:31.000Z</time>
      </trkpt>
      <trkpt lat="47.26364" lon="-1.48665">
        <ele>73</ele>
        <time>2021-02-06T12:43:34.000Z</time>
      </trkpt>
      <trkpt lat="47.26376" lon="-1.4867">
        <ele>74</ele>
        <time>2021-02-06T12:43:37.000Z</time>
      </trkpt>
      <trkpt lat="47.26389" lon="-1.4867">
        <ele>76</ele>
        <time>2021-02-06T12:43:40.000Z</time>
      </trkpt>
      <trkpt lat="47.26399" lon="-1.4867">
        <ele>77</ele>
        <time>2021-02-06T12:43:42.000Z</time>
      </trkpt>
      <trkpt lat="47.26409" lon="-1.48671">
        <ele>77</ele>
        <time>2021-02-06T12:43:44.000Z</time>
      </trkpt>
      <trkpt lat="47.2642" lon="-1.48671">
        <ele>78</ele>
        <time>2021-02-06T12:43:46.000Z</time>
      </trkpt>
      <trkpt lat="47.26434" lon="-1.48673">
        <ele>77</ele>
        <time>2021-02-06T12:43:49.000Z</time>
      </trkpt>
      <trkpt lat="47.26444" lon="-1.48675">
        <ele>78</ele>
        <time>2021-02-06T12:43:51.000Z</time>
      </trkpt>
      <trkpt lat="47.26454" lon="-1.48677">
        <ele>78</ele>
        <time>2021-02-06T12:43:53.000Z</time>
      </trkpt>
      <trkpt lat="47.26464" lon="-1.48679">
        <ele>78</ele>
        <time>2021-02-06T12:43:55.000Z</time>
      </trkpt>
      <trkpt lat="47.26474" lon="-1.48683">
        <ele>78</ele>
        <time>2021-02-06T12:43:57.000Z</time>
      </trkpt>
      <trkpt lat="47.26484" lon="-1.48686">
        <ele>79</ele>
        <time>2021-02-06T12:43:59.000Z</time>
      </trkpt>
      <trkpt lat="47.26494" lon="-1.48689">
        <ele>79</ele>
        <time>2021-02-06T12:44:01.000Z</time>
      </trkpt>
      <trkpt lat="47.26504" lon="-1.48692">
        <ele>80</ele>
        <time>2021-02-06T12:44:03.000Z</time>
      </trkpt>
      <trkpt lat="47.26514" lon="-1.48695">
        <ele>79</ele>
        <time>2021-02-06T12:44:05.000Z</time>
      </trkpt>
      <trkpt lat="47.26528" lon="-1.487">
        <ele>79</ele>
        <time>2021-02-06T12:44:08.000Z</time>
      </trkpt>
      <trkpt lat="47.26541" lon="-1.48702">
        <ele>78</ele>
        <time>2021-02-06T12:44:10.000Z</time>
      </trkpt>
      <trkpt lat="47.26554" lon="-1.48708">
        <ele>79</ele>
        <time>2021-02-06T12:44:13.000Z</time>
      </trkpt>
      <trkpt lat="47.26563" lon="-1.48713">
        <ele>79</ele>
        <time>2021-02-06T12:44:15.000Z</time>
      </trkpt>
      <trkpt lat="47.26576" lon="-1.48717">
        <ele>80</ele>
        <time>2021-02-06T12:44:18.000Z</time>
      </trkpt>
      <trkpt lat="47.26588" lon="-1.48713">
        <ele>80</ele>
        <time>2021-02-06T12:44:21.000Z</time>
      </trkpt>
      <trkpt lat="47.26599" lon="-1.48713">
        <ele>81</ele>
        <time>2021-02-06T12:44:24.000Z</time>
      </trkpt>
      <trkpt lat="47.2661" lon="-1.48716">
        <ele>80</ele>
        <time>2021-02-06T12:44:27.000Z</time>
      </trkpt>
      <trkpt lat="47.26618" lon="-1.48728">
        <ele>81</ele>
        <time>2021-02-06T12:44:29.000Z</time>
      </trkpt>
      <trkpt lat="47.26627" lon="-1.48739">
        <ele>81</ele>
        <time>2021-02-06T12:44:31.000Z</time>
      </trkpt>
      <trkpt lat="47.26633" lon="-1.48751">
        <ele>81</ele>
        <time>2021-02-06T12:44:33.000Z</time>
      </trkpt>
      <trkpt lat="47.26637" lon="-1.48766">
        <ele>81</ele>
        <time>2021-02-06T12:44:35.000Z</time>
      </trkpt>
      <trkpt lat="47.26643" lon="-1.48779">
        <ele>81</ele>
        <time>2021-02-06T12:44:37.000Z</time>
      </trkpt>
      <trkpt lat="47.26651" lon="-1.48785">
        <ele>82</ele>
        <time>2021-02-06T12:44:39.000Z</time>
      </trkpt>
      <trkpt lat="47.26661" lon="-1.48793">
        <ele>83</ele>
        <time>2021-02-06T12:44:41.000Z</time>
      </trkpt>
      <trkpt lat="47.2668" lon="-1.488">
        <ele>84</ele>
        <time>2021-02-06T12:44:44.000Z</time>
      </trkpt>
      <trkpt lat="47.26689" lon="-1.48804">
        <ele>85</ele>
        <time>2021-02-06T12:44:46.000Z</time>
      </trkpt>
      <trkpt lat="47.26701" lon="-1.48821">
        <ele>86</ele>
        <time>2021-02-06T12:44:49.000Z</time>
      </trkpt>
      <trkpt lat="47.2671" lon="-1.48828">
        <ele>88</ele>
        <time>2021-02-06T12:44:51.000Z</time>
      </trkpt>
      <trkpt lat="47.2672" lon="-1.48851">
        <ele>90</ele>
        <time>2021-02-06T12:44:54.000Z</time>
      </trkpt>
      <trkpt lat="47.2673" lon="-1.48862">
        <ele>88</ele>
        <time>2021-02-06T12:44:56.000Z</time>
      </trkpt>
      <trkpt lat="47.2674" lon="-1.48864">
        <ele>86</ele>
        <time>2021-02-06T12:44:58.000Z</time>
      </trkpt>
      <trkpt lat="47.2675" lon="-1.48858">
        <ele>83</ele>
        <time>2021-02-06T12:45:00.000Z</time>
      </trkpt>
      <trkpt lat="47.26761" lon="-1.48842">
        <ele>82</ele>
        <time>2021-02-06T12:45:03.000Z</time>
      </trkpt>
      <trkpt lat="47.26768" lon="-1.48832">
        <ele>81</ele>
        <time>2021-02-06T12:45:05.000Z</time>
      </trkpt>
      <trkpt lat="47.26776" lon="-1.48821">
        <ele>81</ele>
        <time>2021-02-06T12:45:07.000Z</time>
      </trkpt>
      <trkpt lat="47.26787" lon="-1.48804">
        <ele>81</ele>
        <time>2021-02-06T12:45:10.000Z</time>
      </trkpt>
      <trkpt lat="47.26798" lon="-1.48787">
        <ele>81</ele>
        <time>2021-02-06T12:45:13.000Z</time>
      </trkpt>
      <trkpt lat="47.26809" lon="-1.4877">
        <ele>83</ele>
        <time>2021-02-06T12:45:16.000Z</time>
      </trkpt>
      <trkpt lat="47.2683" lon="-1.48755">
        <ele>76</ele>
        <time>2021-02-06T12:45:20.018Z</time>
      </trkpt>
      <trkpt lat="47.26833" lon="-1.48738">
        <ele>74</ele>
        <time>2021-02-06T12:45:23.000Z</time>
      </trkpt>
      <trkpt lat="47.26839" lon="-1.48726">
        <ele>78</ele>
        <time>2021-02-06T12:45:25.000Z</time>
      </trkpt>
      <trkpt lat="47.26847" lon="-1.48715">
        <ele>80</ele>
        <time>2021-02-06T12:45:27.000Z</time>
      </trkpt>
      <trkpt lat="47.26862" lon="-1.48699">
        <ele>80</ele>
        <time>2021-02-06T12:45:30.000Z</time>
      </trkpt>
      <trkpt lat="47.26873" lon="-1.48687">
        <ele>78</ele>
        <time>2021-02-06T12:45:32.000Z</time>
      </trkpt>
      <trkpt lat="47.26882" lon="-1.48677">
        <ele>76</ele>
        <time>2021-02-06T12:45:34.000Z</time>
      </trkpt>
      <trkpt lat="47.26891" lon="-1.48668">
        <ele>75</ele>
        <time>2021-02-06T12:45:36.000Z</time>
      </trkpt>
      <trkpt lat="47.269" lon="-1.48658">
        <ele>73</ele>
        <time>2021-02-06T12:45:38.000Z</time>
      </trkpt>
      <trkpt lat="47.26909" lon="-1.48648">
        <ele>72</ele>
        <time>2021-02-06T12:45:40.000Z</time>
      </trkpt>
      <trkpt lat="47.26919" lon="-1.48643">
        <ele>71</ele>
        <time>2021-02-06T12:45:42.000Z</time>
      </trkpt>
      <trkpt lat="47.26929" lon="-1.48637">
        <ele>71</ele>
        <time>2021-02-06T12:45:44.000Z</time>
      </trkpt>
      <trkpt lat="47.26938" lon="-1.48629">
        <ele>72</ele>
        <time>2021-02-06T12:45:46.000Z</time>
      </trkpt>
      <trkpt lat="47.26947" lon="-1.48621">
        <ele>73</ele>
        <time>2021-02-06T12:45:48.000Z</time>
      </trkpt>
      <trkpt lat="47.26957" lon="-1.48614">
        <ele>74</ele>
        <time>2021-02-06T12:45:50.000Z</time>
      </trkpt>
      <trkpt lat="47.26974" lon="-1.48603">
        <ele>73</ele>
        <time>2021-02-06T12:45:53.000Z</time>
      </trkpt>
      <trkpt lat="47.26986" lon="-1.48594">
        <ele>73</ele>
        <time>2021-02-06T12:45:55.000Z</time>
      </trkpt>
      <trkpt lat="47.27" lon="-1.48578">
        <ele>70</ele>
        <time>2021-02-06T12:45:58.000Z</time>
      </trkpt>
      <trkpt lat="47.27013" lon="-1.48573">
        <ele>69</ele>
        <time>2021-02-06T12:46:00.000Z</time>
      </trkpt>
      <trkpt lat="47.27033" lon="-1.48564">
        <ele>68</ele>
        <time>2021-02-06T12:46:03.000Z</time>
      </trkpt>
      <trkpt lat="47.27047" lon="-1.48558">
        <ele>68</ele>
        <time>2021-02-06T12:46:05.000Z</time>
      </trkpt>
      <trkpt lat="47.27056" lon="-1.48554">
        <ele>69</ele>
        <time>2021-02-06T12:46:07.000Z</time>
      </trkpt>
      <trkpt lat="47.27064" lon="-1.48544">
        <ele>71</ele>
        <time>2021-02-06T12:46:09.000Z</time>
      </trkpt>
      <trkpt lat="47.27075" lon="-1.48538">
        <ele>71</ele>
        <time>2021-02-06T12:46:11.000Z</time>
      </trkpt>
      <trkpt lat="47.27092" lon="-1.48528">
        <ele>73</ele>
        <time>2021-02-06T12:46:14.000Z</time>
      </trkpt>
      <trkpt lat="47.27101" lon="-1.48518">
        <ele>74</ele>
        <time>2021-02-06T12:46:16.000Z</time>
      </trkpt>
      <trkpt lat="47.27109" lon="-1.48511">
        <ele>75</ele>
        <time>2021-02-06T12:46:18.000Z</time>
      </trkpt>
      <trkpt lat="47.2712" lon="-1.48499">
        <ele>75</ele>
        <time>2021-02-06T12:46:21.000Z</time>
      </trkpt>
      <trkpt lat="47.27131" lon="-1.4849">
        <ele>74</ele>
        <time>2021-02-06T12:46:23.000Z</time>
      </trkpt>
      <trkpt lat="47.2714" lon="-1.48481">
        <ele>75</ele>
        <time>2021-02-06T12:46:25.000Z</time>
      </trkpt>
      <trkpt lat="47.27155" lon="-1.48467">
        <ele>75</ele>
        <time>2021-02-06T12:46:28.000Z</time>
      </trkpt>
      <trkpt lat="47.27164" lon="-1.48457">
        <ele>75</ele>
        <time>2021-02-06T12:46:30.000Z</time>
      </trkpt>
      <trkpt lat="47.27174" lon="-1.48452">
        <ele>76</ele>
        <time>2021-02-06T12:46:32.000Z</time>
      </trkpt>
      <trkpt lat="47.27185" lon="-1.48444">
        <ele>76</ele>
        <time>2021-02-06T12:46:34.000Z</time>
      </trkpt>
      <trkpt lat="47.27199" lon="-1.48432">
        <ele>75</ele>
        <time>2021-02-06T12:46:37.000Z</time>
      </trkpt>
      <trkpt lat="47.27207" lon="-1.48425">
        <ele>73</ele>
        <time>2021-02-06T12:46:39.000Z</time>
      </trkpt>
      <trkpt lat="47.27216" lon="-1.48417">
        <ele>75</ele>
        <time>2021-02-06T12:46:41.000Z</time>
      </trkpt>
      <trkpt lat="47.27226" lon="-1.48409">
        <ele>74</ele>
        <time>2021-02-06T12:46:43.000Z</time>
      </trkpt>
      <trkpt lat="47.2724" lon="-1.48399">
        <ele>74</ele>
        <time>2021-02-06T12:46:46.000Z</time>
      </trkpt>
      <trkpt lat="47.27251" lon="-1.48391">
        <ele>74</ele>
        <time>2021-02-06T12:46:48.000Z</time>
      </trkpt>
      <trkpt lat="47.27262" lon="-1.48382">
        <ele>75</ele>
        <time>2021-02-06T12:46:50.000Z</time>
      </trkpt>
      <trkpt lat="47.27272" lon="-1.48375">
        <ele>76</ele>
        <time>2021-02-06T12:46:52.000Z</time>
      </trkpt>
      <trkpt lat="47.27279" lon="-1.48363">
        <ele>76</ele>
        <time>2021-02-06T12:46:55.000Z</time>
      </trkpt>
      <trkpt lat="47.27288" lon="-1.48358">
        <ele>77</ele>
        <time>2021-02-06T12:46:58.000Z</time>
      </trkpt>
      <trkpt lat="47.27304" lon="-1.48351">
        <ele>76</ele>
        <time>2021-02-06T12:47:02.000Z</time>
      </trkpt>
      <trkpt lat="47.27316" lon="-1.48342">
        <ele>74</ele>
        <time>2021-02-06T12:47:05.000Z</time>
      </trkpt>
      <trkpt lat="47.27325" lon="-1.48337">
        <ele>73</ele>
        <time>2021-02-06T12:47:07.000Z</time>
      </trkpt>
      <trkpt lat="47.27336" lon="-1.48329">
        <ele>74</ele>
        <time>2021-02-06T12:47:09.000Z</time>
      </trkpt>
      <trkpt lat="47.27354" lon="-1.48326">
        <ele>76</ele>
        <time>2021-02-06T12:47:12.000Z</time>
      </trkpt>
      <trkpt lat="47.27366" lon="-1.48325">
        <ele>76</ele>
        <time>2021-02-06T12:47:14.000Z</time>
      </trkpt>
      <trkpt lat="47.27379" lon="-1.48321">
        <ele>75</ele>
        <time>2021-02-06T12:47:16.000Z</time>
      </trkpt>
      <trkpt lat="47.2739" lon="-1.48321">
        <ele>75</ele>
        <time>2021-02-06T12:47:18.000Z</time>
      </trkpt>
      <trkpt lat="47.27405" lon="-1.48328">
        <ele>77</ele>
        <time>2021-02-06T12:47:21.000Z</time>
      </trkpt>
      <trkpt lat="47.27416" lon="-1.48329">
        <ele>76</ele>
        <time>2021-02-06T12:47:23.000Z</time>
      </trkpt>
      <trkpt lat="47.27426" lon="-1.4833">
        <ele>76</ele>
        <time>2021-02-06T12:47:25.000Z</time>
      </trkpt>
      <trkpt lat="47.27436" lon="-1.48331">
        <ele>77</ele>
        <time>2021-02-06T12:47:27.000Z</time>
      </trkpt>
      <trkpt lat="47.27446" lon="-1.48333">
        <ele>77</ele>
        <time>2021-02-06T12:47:29.000Z</time>
      </trkpt>
      <trkpt lat="47.27456" lon="-1.48333">
        <ele>77</ele>
        <time>2021-02-06T12:47:31.000Z</time>
      </trkpt>
      <trkpt lat="47.27469" lon="-1.48331">
        <ele>77</ele>
        <time>2021-02-06T12:47:34.000Z</time>
      </trkpt>
      <trkpt lat="47.27478" lon="-1.48333">
        <ele>76</ele>
        <time>2021-02-06T12:47:36.000Z</time>
      </trkpt>
      <trkpt lat="47.27489" lon="-1.48334">
        <ele>76</ele>
        <time>2021-02-06T12:47:38.000Z</time>
      </trkpt>
      <trkpt lat="47.275" lon="-1.48334">
        <ele>75</ele>
        <time>2021-02-06T12:47:40.000Z</time>
      </trkpt>
      <trkpt lat="47.27514" lon="-1.48338">
        <ele>75</ele>
        <time>2021-02-06T12:47:42.000Z</time>
      </trkpt>
      <trkpt lat="47.27531" lon="-1.48342">
        <ele>76</ele>
        <time>2021-02-06T12:47:45.000Z</time>
      </trkpt>
      <trkpt lat="47.27544" lon="-1.48343">
        <ele>75</ele>
        <time>2021-02-06T12:47:47.000Z</time>
      </trkpt>
      <trkpt lat="47.27557" lon="-1.48343">
        <ele>75</ele>
        <time>2021-02-06T12:47:49.000Z</time>
      </trkpt>
      <trkpt lat="47.27579" lon="-1.48346">
        <ele>76</ele>
        <time>2021-02-06T12:47:53.000Z</time>
      </trkpt>
      <trkpt lat="47.2759" lon="-1.48345">
        <ele>76</ele>
        <time>2021-02-06T12:47:55.000Z</time>
      </trkpt>
      <trkpt lat="47.27603" lon="-1.48342">
        <ele>76</ele>
        <time>2021-02-06T12:47:57.000Z</time>
      </trkpt>
      <trkpt lat="47.27614" lon="-1.48342">
        <ele>76</ele>
        <time>2021-02-06T12:47:59.000Z</time>
      </trkpt>
      <trkpt lat="47.27626" lon="-1.48342">
        <ele>76</ele>
        <time>2021-02-06T12:48:01.000Z</time>
      </trkpt>
      <trkpt lat="47.2764" lon="-1.48341">
        <ele>77</ele>
        <time>2021-02-06T12:48:03.000Z</time>
      </trkpt>
      <trkpt lat="47.27654" lon="-1.48341">
        <ele>79</ele>
        <time>2021-02-06T12:48:05.000Z</time>
      </trkpt>
      <trkpt lat="47.27667" lon="-1.48343">
        <ele>80</ele>
        <time>2021-02-06T12:48:07.000Z</time>
      </trkpt>
      <trkpt lat="47.2768" lon="-1.48345">
        <ele>80</ele>
        <time>2021-02-06T12:48:09.000Z</time>
      </trkpt>
      <trkpt lat="47.27691" lon="-1.48349">
        <ele>79</ele>
        <time>2021-02-06T12:48:11.000Z</time>
      </trkpt>
      <trkpt lat="47.27701" lon="-1.48352">
        <ele>79</ele>
        <time>2021-02-06T12:48:13.000Z</time>
      </trkpt>
      <trkpt lat="47.27716" lon="-1.48359">
        <ele>77</ele>
        <time>2021-02-06T12:48:16.000Z</time>
      </trkpt>
      <trkpt lat="47.27727" lon="-1.48363">
        <ele>76</ele>
        <time>2021-02-06T12:48:18.000Z</time>
      </trkpt>
      <trkpt lat="47.27737" lon="-1.48368">
        <ele>75</ele>
        <time>2021-02-06T12:48:20.000Z</time>
      </trkpt>
      <trkpt lat="47.27745" lon="-1.48377">
        <ele>74</ele>
        <time>2021-02-06T12:48:22.000Z</time>
      </trkpt>
      <trkpt lat="47.27755" lon="-1.48389">
        <ele>74</ele>
        <time>2021-02-06T12:48:24.000Z</time>
      </trkpt>
      <trkpt lat="47.27766" lon="-1.48397">
        <ele>72</ele>
        <time>2021-02-06T12:48:26.000Z</time>
      </trkpt>
      <trkpt lat="47.27776" lon="-1.48406">
        <ele>70</ele>
        <time>2021-02-06T12:48:28.000Z</time>
      </trkpt>
      <trkpt lat="47.27787" lon="-1.48416">
        <ele>69</ele>
        <time>2021-02-06T12:48:30.000Z</time>
      </trkpt>
      <trkpt lat="47.27799" lon="-1.48426">
        <ele>69</ele>
        <time>2021-02-06T12:48:32.000Z</time>
      </trkpt>
      <trkpt lat="47.27809" lon="-1.48433">
        <ele>69</ele>
        <time>2021-02-06T12:48:34.000Z</time>
      </trkpt>
      <trkpt lat="47.27819" lon="-1.4844">
        <ele>68</ele>
        <time>2021-02-06T12:48:36.000Z</time>
      </trkpt>
      <trkpt lat="47.2783" lon="-1.48445">
        <ele>69</ele>
        <time>2021-02-06T12:48:38.000Z</time>
      </trkpt>
      <trkpt lat="47.27842" lon="-1.48451">
        <ele>70</ele>
        <time>2021-02-06T12:48:40.000Z</time>
      </trkpt>
      <trkpt lat="47.27854" lon="-1.48458">
        <ele>71</ele>
        <time>2021-02-06T12:48:42.000Z</time>
      </trkpt>
      <trkpt lat="47.27867" lon="-1.48464">
        <ele>72</ele>
        <time>2021-02-06T12:48:44.000Z</time>
      </trkpt>
      <trkpt lat="47.2788" lon="-1.48472">
        <ele>72</ele>
        <time>2021-02-06T12:48:46.000Z</time>
      </trkpt>
      <trkpt lat="47.27892" lon="-1.48477">
        <ele>70</ele>
        <time>2021-02-06T12:48:48.000Z</time>
      </trkpt>
      <trkpt lat="47.27904" lon="-1.48478">
        <ele>71</ele>
        <time>2021-02-06T12:48:50.000Z</time>
      </trkpt>
      <trkpt lat="47.27916" lon="-1.48486">
        <ele>71</ele>
        <time>2021-02-06T12:48:52.000Z</time>
      </trkpt>
      <trkpt lat="47.27928" lon="-1.48492">
        <ele>71</ele>
        <time>2021-02-06T12:48:54.000Z</time>
      </trkpt>
      <trkpt lat="47.27941" lon="-1.48498">
        <ele>71</ele>
        <time>2021-02-06T12:48:56.000Z</time>
      </trkpt>
      <trkpt lat="47.27954" lon="-1.48502">
        <ele>70</ele>
        <time>2021-02-06T12:48:58.000Z</time>
      </trkpt>
      <trkpt lat="47.27972" lon="-1.48512">
        <ele>70</ele>
        <time>2021-02-06T12:49:01.000Z</time>
      </trkpt>
      <trkpt lat="47.27984" lon="-1.48521">
        <ele>67</ele>
        <time>2021-02-06T12:49:03.000Z</time>
      </trkpt>
      <trkpt lat="47.27994" lon="-1.48528">
        <ele>69</ele>
        <time>2021-02-06T12:49:05.000Z</time>
      </trkpt>
      <trkpt lat="47.28004" lon="-1.48534">
        <ele>66</ele>
        <time>2021-02-06T12:49:07.000Z</time>
      </trkpt>
      <trkpt lat="47.28013" lon="-1.48535">
        <ele>65</ele>
        <time>2021-02-06T12:49:09.000Z</time>
      </trkpt>
      <trkpt lat="47.28025" lon="-1.48532">
        <ele>67</ele>
        <time>2021-02-06T12:49:11.000Z</time>
      </trkpt>
      <trkpt lat="47.28048" lon="-1.48536">
        <ele>67</ele>
        <time>2021-02-06T12:49:15.000Z</time>
      </trkpt>
      <trkpt lat="47.28062" lon="-1.48538">
        <ele>67</ele>
        <time>2021-02-06T12:49:17.000Z</time>
      </trkpt>
      <trkpt lat="47.28074" lon="-1.48539">
        <ele>67</ele>
        <time>2021-02-06T12:49:19.000Z</time>
      </trkpt>
      <trkpt lat="47.28087" lon="-1.48538">
        <ele>66</ele>
        <time>2021-02-06T12:49:21.000Z</time>
      </trkpt>
      <trkpt lat="47.28101" lon="-1.48537">
        <ele>65</ele>
        <time>2021-02-06T12:49:23.000Z</time>
      </trkpt>
      <trkpt lat="47.28112" lon="-1.4854">
        <ele>65</ele>
        <time>2021-02-06T12:49:25.000Z</time>
      </trkpt>
      <trkpt lat="47.28122" lon="-1.48538">
        <ele>67</ele>
        <time>2021-02-06T12:49:27.000Z</time>
      </trkpt>
      <trkpt lat="47.28135" lon="-1.48536">
        <ele>64</ele>
        <time>2021-02-06T12:49:29.000Z</time>
      </trkpt>
      <trkpt lat="47.28162" lon="-1.48535">
        <ele>66</ele>
        <time>2021-02-06T12:49:33.000Z</time>
      </trkpt>
      <trkpt lat="47.28172" lon="-1.48539">
        <ele>65</ele>
        <time>2021-02-06T12:49:35.000Z</time>
      </trkpt>
      <trkpt lat="47.28184" lon="-1.48536">
        <ele>64</ele>
        <time>2021-02-06T12:49:37.000Z</time>
      </trkpt>
      <trkpt lat="47.28198" lon="-1.48533">
        <ele>64</ele>
        <time>2021-02-06T12:49:39.000Z</time>
      </trkpt>
      <trkpt lat="47.28206" lon="-1.4852">
        <ele>63</ele>
        <time>2021-02-06T12:49:42.000Z</time>
      </trkpt>
      <trkpt lat="47.28205" lon="-1.48506">
        <ele>63</ele>
        <time>2021-02-06T12:49:44.000Z</time>
      </trkpt>
      <trkpt lat="47.28208" lon="-1.48493">
        <ele>64</ele>
        <time>2021-02-06T12:49:46.000Z</time>
      </trkpt>
      <trkpt lat="47.28226" lon="-1.48495">
        <ele>65</ele>
        <time>2021-02-06T12:49:50.000Z</time>
      </trkpt>
      <trkpt lat="47.28238" lon="-1.48514">
        <ele>64</ele>
        <time>2021-02-06T12:49:52.000Z</time>
      </trkpt>
      <trkpt lat="47.28249" lon="-1.48525">
        <ele>65</ele>
        <time>2021-02-06T12:49:54.000Z</time>
      </trkpt>
      <trkpt lat="47.28261" lon="-1.48533">
        <ele>65</ele>
        <time>2021-02-06T12:49:56.000Z</time>
      </trkpt>
      <trkpt lat="47.28271" lon="-1.48541">
        <ele>65</ele>
        <time>2021-02-06T12:49:58.000Z</time>
      </trkpt>
      <trkpt lat="47.28285" lon="-1.48552">
        <ele>63</ele>
        <time>2021-02-06T12:50:01.000Z</time>
      </trkpt>
      <trkpt lat="47.28293" lon="-1.48563">
        <ele>64</ele>
        <time>2021-02-06T12:50:03.000Z</time>
      </trkpt>
      <trkpt lat="47.283" lon="-1.48577">
        <ele>63</ele>
        <time>2021-02-06T12:50:05.000Z</time>
      </trkpt>
      <trkpt lat="47.28308" lon="-1.4859">
        <ele>62</ele>
        <time>2021-02-06T12:50:07.000Z</time>
      </trkpt>
      <trkpt lat="47.28318" lon="-1.486">
        <ele>61</ele>
        <time>2021-02-06T12:50:09.000Z</time>
      </trkpt>
      <trkpt lat="47.28327" lon="-1.48602">
        <ele>59</ele>
        <time>2021-02-06T12:50:11.000Z</time>
      </trkpt>
      <trkpt lat="47.28337" lon="-1.48607">
        <ele>59</ele>
        <time>2021-02-06T12:50:13.000Z</time>
      </trkpt>
      <trkpt lat="47.28348" lon="-1.48616">
        <ele>61</ele>
        <time>2021-02-06T12:50:15.000Z</time>
      </trkpt>
      <trkpt lat="47.28359" lon="-1.48628">
        <ele>60</ele>
        <time>2021-02-06T12:50:18.000Z</time>
      </trkpt>
      <trkpt lat="47.28376" lon="-1.4864">
        <ele>61</ele>
        <time>2021-02-06T12:50:22.000Z</time>
      </trkpt>
      <trkpt lat="47.28386" lon="-1.48645">
        <ele>62</ele>
        <time>2021-02-06T12:50:24.000Z</time>
      </trkpt>
      <trkpt lat="47.28396" lon="-1.48644">
        <ele>62</ele>
        <time>2021-02-06T12:50:26.000Z</time>
      </trkpt>
      <trkpt lat="47.28406" lon="-1.48638">
        <ele>62</ele>
        <time>2021-02-06T12:50:28.000Z</time>
      </trkpt>
      <trkpt lat="47.28416" lon="-1.48631">
        <ele>62</ele>
        <time>2021-02-06T12:50:30.000Z</time>
      </trkpt>
      <trkpt lat="47.28424" lon="-1.48626">
        <ele>64</ele>
        <time>2021-02-06T12:50:32.000Z</time>
      </trkpt>
      <trkpt lat="47.28432" lon="-1.48618">
        <ele>65</ele>
        <time>2021-02-06T12:50:34.000Z</time>
      </trkpt>
      <trkpt lat="47.28445" lon="-1.48605">
        <ele>64</ele>
        <time>2021-02-06T12:50:37.000Z</time>
      </trkpt>
      <trkpt lat="47.28456" lon="-1.48597">
        <ele>65</ele>
        <time>2021-02-06T12:50:40.000Z</time>
      </trkpt>
      <trkpt lat="47.28464" lon="-1.48588">
        <ele>64</ele>
        <time>2021-02-06T12:50:42.000Z</time>
      </trkpt>
      <trkpt lat="47.28475" lon="-1.48577">
        <ele>66</ele>
        <time>2021-02-06T12:50:45.000Z</time>
      </trkpt>
      <trkpt lat="47.28483" lon="-1.4857">
        <ele>66</ele>
        <time>2021-02-06T12:50:47.000Z</time>
      </trkpt>
      <trkpt lat="47.28491" lon="-1.48564">
        <ele>66</ele>
        <time>2021-02-06T12:50:49.000Z</time>
      </trkpt>
      <trkpt lat="47.28501" lon="-1.48554">
        <ele>67</ele>
        <time>2021-02-06T12:50:52.000Z</time>
      </trkpt>
      <trkpt lat="47.28511" lon="-1.48549">
        <ele>70</ele>
        <time>2021-02-06T12:50:54.000Z</time>
      </trkpt>
      <trkpt lat="47.28519" lon="-1.48542">
        <ele>71</ele>
        <time>2021-02-06T12:50:56.000Z</time>
      </trkpt>
      <trkpt lat="47.28528" lon="-1.48535">
        <ele>71</ele>
        <time>2021-02-06T12:50:58.000Z</time>
      </trkpt>
      <trkpt lat="47.28542" lon="-1.48524">
        <ele>69</ele>
        <time>2021-02-06T12:51:01.000Z</time>
      </trkpt>
      <trkpt lat="47.28554" lon="-1.48513">
        <ele>68</ele>
        <time>2021-02-06T12:51:03.000Z</time>
      </trkpt>
      <trkpt lat="47.28564" lon="-1.48507">
        <ele>67</ele>
        <time>2021-02-06T12:51:05.000Z</time>
      </trkpt>
      <trkpt lat="47.28574" lon="-1.485">
        <ele>67</ele>
        <time>2021-02-06T12:51:08.000Z</time>
      </trkpt>
      <trkpt lat="47.28583" lon="-1.48491">
        <ele>67</ele>
        <time>2021-02-06T12:51:10.000Z</time>
      </trkpt>
      <trkpt lat="47.28597" lon="-1.4848">
        <ele>68</ele>
        <time>2021-02-06T12:51:13.000Z</time>
      </trkpt>
      <trkpt lat="47.28607" lon="-1.48474">
        <ele>66</ele>
        <time>2021-02-06T12:51:15.000Z</time>
      </trkpt>
      <trkpt lat="47.28617" lon="-1.48467">
        <ele>65</ele>
        <time>2021-02-06T12:51:17.000Z</time>
      </trkpt>
      <trkpt lat="47.28627" lon="-1.48462">
        <ele>65</ele>
        <time>2021-02-06T12:51:19.000Z</time>
      </trkpt>
      <trkpt lat="47.28638" lon="-1.4846">
        <ele>65</ele>
        <time>2021-02-06T12:51:21.000Z</time>
      </trkpt>
      <trkpt lat="47.28647" lon="-1.48454">
        <ele>66</ele>
        <time>2021-02-06T12:51:23.000Z</time>
      </trkpt>
      <trkpt lat="47.28656" lon="-1.48449">
        <ele>66</ele>
        <time>2021-02-06T12:51:25.000Z</time>
      </trkpt>
      <trkpt lat="47.28665" lon="-1.48444">
        <ele>66</ele>
        <time>2021-02-06T12:51:27.000Z</time>
      </trkpt>
      <trkpt lat="47.28676" lon="-1.48437">
        <ele>64</ele>
        <time>2021-02-06T12:51:29.000Z</time>
      </trkpt>
      <trkpt lat="47.28687" lon="-1.48431">
        <ele>62</ele>
        <time>2021-02-06T12:51:32.000Z</time>
      </trkpt>
      <trkpt lat="47.28696" lon="-1.48427">
        <ele>63</ele>
        <time>2021-02-06T12:51:34.000Z</time>
      </trkpt>
      <trkpt lat="47.28705" lon="-1.48419">
        <ele>61</ele>
        <time>2021-02-06T12:51:36.000Z</time>
      </trkpt>
      <trkpt lat="47.28714" lon="-1.48415">
        <ele>63</ele>
        <time>2021-02-06T12:51:38.000Z</time>
      </trkpt>
      <trkpt lat="47.28724" lon="-1.4841">
        <ele>62</ele>
        <time>2021-02-06T12:51:40.000Z</time>
      </trkpt>
      <trkpt lat="47.28734" lon="-1.48408">
        <ele>61</ele>
        <time>2021-02-06T12:51:42.000Z</time>
      </trkpt>
      <trkpt lat="47.28751" lon="-1.48407">
        <ele>63</ele>
        <time>2021-02-06T12:51:46.000Z</time>
      </trkpt>
      <trkpt lat="47.28759" lon="-1.484">
        <ele>64</ele>
        <time>2021-02-06T12:51:48.000Z</time>
      </trkpt>
      <trkpt lat="47.28768" lon="-1.48389">
        <ele>64</ele>
        <time>2021-02-06T12:51:50.000Z</time>
      </trkpt>
      <trkpt lat="47.28775" lon="-1.48377">
        <ele>64</ele>
        <time>2021-02-06T12:51:52.982Z</time>
      </trkpt>
      <trkpt lat="47.28785" lon="-1.48374">
        <ele>65</ele>
        <time>2021-02-06T12:51:55.000Z</time>
      </trkpt>
      <trkpt lat="47.28799" lon="-1.48377">
        <ele>67</ele>
        <time>2021-02-06T12:51:58.000Z</time>
      </trkpt>
      <trkpt lat="47.28807" lon="-1.48385">
        <ele>71</ele>
        <time>2021-02-06T12:52:00.000Z</time>
      </trkpt>
      <trkpt lat="47.28815" lon="-1.48396">
        <ele>74</ele>
        <time>2021-02-06T12:52:02.000Z</time>
      </trkpt>
      <trkpt lat="47.28826" lon="-1.48404">
        <ele>75</ele>
        <time>2021-02-06T12:52:04.000Z</time>
      </trkpt>
      <trkpt lat="47.28836" lon="-1.48406">
        <ele>76</ele>
        <time>2021-02-06T12:52:06.000Z</time>
      </trkpt>
      <trkpt lat="47.28852" lon="-1.48408">
        <ele>79</ele>
        <time>2021-02-06T12:52:09.000Z</time>
      </trkpt>
      <trkpt lat="47.28863" lon="-1.48405">
        <ele>79</ele>
        <time>2021-02-06T12:52:11.000Z</time>
      </trkpt>
      <trkpt lat="47.28872" lon="-1.48413">
        <ele>78</ele>
        <time>2021-02-06T12:52:13.000Z</time>
      </trkpt>
      <trkpt lat="47.28885" lon="-1.48422">
        <ele>77</ele>
        <time>2021-02-06T12:52:15.000Z</time>
      </trkpt>
      <trkpt lat="47.28894" lon="-1.48431">
        <ele>79</ele>
        <time>2021-02-06T12:52:17.000Z</time>
      </trkpt>
      <trkpt lat="47.28905" lon="-1.48437">
        <ele>80</ele>
        <time>2021-02-06T12:52:19.000Z</time>
      </trkpt>
      <trkpt lat="47.28917" lon="-1.48443">
        <ele>81</ele>
        <time>2021-02-06T12:52:21.000Z</time>
      </trkpt>
      <trkpt lat="47.28927" lon="-1.4845">
        <ele>81</ele>
        <time>2021-02-06T12:52:23.000Z</time>
      </trkpt>
      <trkpt lat="47.28937" lon="-1.48455">
        <ele>81</ele>
        <time>2021-02-06T12:52:25.000Z</time>
      </trkpt>
      <trkpt lat="47.28948" lon="-1.48462">
        <ele>81</ele>
        <time>2021-02-06T12:52:27.000Z</time>
      </trkpt>
      <trkpt lat="47.28957" lon="-1.48468">
        <ele>77</ele>
        <time>2021-02-06T12:52:29.000Z</time>
      </trkpt>
      <trkpt lat="47.28969" lon="-1.4848">
        <ele>79</ele>
        <time>2021-02-06T12:52:31.000Z</time>
      </trkpt>
      <trkpt lat="47.28979" lon="-1.48487">
        <ele>80</ele>
        <time>2021-02-06T12:52:33.000Z</time>
      </trkpt>
      <trkpt lat="47.28991" lon="-1.48497">
        <ele>79</ele>
        <time>2021-02-06T12:52:35.000Z</time>
      </trkpt>
      <trkpt lat="47.29004" lon="-1.48501">
        <ele>78</ele>
        <time>2021-02-06T12:52:37.000Z</time>
      </trkpt>
      <trkpt lat="47.29015" lon="-1.48509">
        <ele>78</ele>
        <time>2021-02-06T12:52:39.000Z</time>
      </trkpt>
      <trkpt lat="47.29027" lon="-1.48523">
        <ele>79</ele>
        <time>2021-02-06T12:52:41.000Z</time>
      </trkpt>
      <trkpt lat="47.29038" lon="-1.4853">
        <ele>79</ele>
        <time>2021-02-06T12:52:43.000Z</time>
      </trkpt>
      <trkpt lat="47.29054" lon="-1.48534">
        <ele>80</ele>
        <time>2021-02-06T12:52:46.000Z</time>
      </trkpt>
      <trkpt lat="47.29065" lon="-1.48546">
        <ele>80</ele>
        <time>2021-02-06T12:52:48.000Z</time>
      </trkpt>
      <trkpt lat="47.29076" lon="-1.4856">
        <ele>80</ele>
        <time>2021-02-06T12:52:50.000Z</time>
      </trkpt>
      <trkpt lat="47.29087" lon="-1.48571">
        <ele>79</ele>
        <time>2021-02-06T12:52:52.000Z</time>
      </trkpt>
      <trkpt lat="47.29102" lon="-1.48582">
        <ele>77</ele>
        <time>2021-02-06T12:52:54.000Z</time>
      </trkpt>
      <trkpt lat="47.2911" lon="-1.48588">
        <ele>77</ele>
        <time>2021-02-06T12:52:56.000Z</time>
      </trkpt>
      <trkpt lat="47.2912" lon="-1.48596">
        <ele>77</ele>
        <time>2021-02-06T12:52:58.000Z</time>
      </trkpt>
      <trkpt lat="47.2913" lon="-1.48602">
        <ele>76</ele>
        <time>2021-02-06T12:53:00.000Z</time>
      </trkpt>
      <trkpt lat="47.29138" lon="-1.48607">
        <ele>76</ele>
        <time>2021-02-06T12:53:02.000Z</time>
      </trkpt>
      <trkpt lat="47.29149" lon="-1.48614">
        <ele>77</ele>
        <time>2021-02-06T12:53:04.000Z</time>
      </trkpt>
      <trkpt lat="47.29161" lon="-1.48624">
        <ele>79</ele>
        <time>2021-02-06T12:53:06.000Z</time>
      </trkpt>
      <trkpt lat="47.29172" lon="-1.48634">
        <ele>79</ele>
        <time>2021-02-06T12:53:08.000Z</time>
      </trkpt>
      <trkpt lat="47.2918" lon="-1.48641">
        <ele>78</ele>
        <time>2021-02-06T12:53:10.000Z</time>
      </trkpt>
      <trkpt lat="47.29196" lon="-1.48655">
        <ele>76</ele>
        <time>2021-02-06T12:53:13.000Z</time>
      </trkpt>
      <trkpt lat="47.29205" lon="-1.48664">
        <ele>76</ele>
        <time>2021-02-06T12:53:15.000Z</time>
      </trkpt>
      <trkpt lat="47.29215" lon="-1.48671">
        <ele>75</ele>
        <time>2021-02-06T12:53:17.000Z</time>
      </trkpt>
      <trkpt lat="47.29225" lon="-1.48677">
        <ele>74</ele>
        <time>2021-02-06T12:53:19.000Z</time>
      </trkpt>
      <trkpt lat="47.29235" lon="-1.48682">
        <ele>73</ele>
        <time>2021-02-06T12:53:21.000Z</time>
      </trkpt>
      <trkpt lat="47.29244" lon="-1.48685">
        <ele>70</ele>
        <time>2021-02-06T12:53:23.000Z</time>
      </trkpt>
      <trkpt lat="47.29256" lon="-1.48681">
        <ele>71</ele>
        <time>2021-02-06T12:53:26.000Z</time>
      </trkpt>
      <trkpt lat="47.29266" lon="-1.48682">
        <ele>72</ele>
        <time>2021-02-06T12:53:28.000Z</time>
      </trkpt>
      <trkpt lat="47.29277" lon="-1.48685">
        <ele>72</ele>
        <time>2021-02-06T12:53:31.000Z</time>
      </trkpt>
      <trkpt lat="47.2928" lon="-1.48702">
        <ele>73</ele>
        <time>2021-02-06T12:53:33.000Z</time>
      </trkpt>
      <trkpt lat="47.29283" lon="-1.48718">
        <ele>73</ele>
        <time>2021-02-06T12:53:35.000Z</time>
      </trkpt>
      <trkpt lat="47.29292" lon="-1.48727">
        <ele>73</ele>
        <time>2021-02-06T12:53:37.000Z</time>
      </trkpt>
      <trkpt lat="47.29301" lon="-1.48734">
        <ele>71</ele>
        <time>2021-02-06T12:53:39.000Z</time>
      </trkpt>
      <trkpt lat="47.29312" lon="-1.48746">
        <ele>71</ele>
        <time>2021-02-06T12:53:42.000Z</time>
      </trkpt>
      <trkpt lat="47.29321" lon="-1.48753">
        <ele>71</ele>
        <time>2021-02-06T12:53:44.000Z</time>
      </trkpt>
      <trkpt lat="47.29335" lon="-1.48761">
        <ele>70</ele>
        <time>2021-02-06T12:53:47.000Z</time>
      </trkpt>
      <trkpt lat="47.29346" lon="-1.48769">
        <ele>71</ele>
        <time>2021-02-06T12:53:49.000Z</time>
      </trkpt>
      <trkpt lat="47.29359" lon="-1.48778">
        <ele>72</ele>
        <time>2021-02-06T12:53:51.000Z</time>
      </trkpt>
      <trkpt lat="47.2937" lon="-1.48783">
        <ele>73</ele>
        <time>2021-02-06T12:53:53.000Z</time>
      </trkpt>
      <trkpt lat="47.29382" lon="-1.48786">
        <ele>73</ele>
        <time>2021-02-06T12:53:56.000Z</time>
      </trkpt>
      <trkpt lat="47.29393" lon="-1.48787">
        <ele>74</ele>
        <time>2021-02-06T12:53:58.000Z</time>
      </trkpt>
      <trkpt lat="47.29405" lon="-1.48785">
        <ele>73</ele>
        <time>2021-02-06T12:54:00.000Z</time>
      </trkpt>
      <trkpt lat="47.29414" lon="-1.48779">
        <ele>74</ele>
        <time>2021-02-06T12:54:02.000Z</time>
      </trkpt>
      <trkpt lat="47.29424" lon="-1.48772">
        <ele>75</ele>
        <time>2021-02-06T12:54:04.000Z</time>
      </trkpt>
      <trkpt lat="47.29434" lon="-1.48764">
        <ele>76</ele>
        <time>2021-02-06T12:54:06.000Z</time>
      </trkpt>
      <trkpt lat="47.29445" lon="-1.48757">
        <ele>76</ele>
        <time>2021-02-06T12:54:08.000Z</time>
      </trkpt>
      <trkpt lat="47.29454" lon="-1.48748">
        <ele>76</ele>
        <time>2021-02-06T12:54:10.000Z</time>
      </trkpt>
      <trkpt lat="47.29464" lon="-1.4874">
        <ele>76</ele>
        <time>2021-02-06T12:54:12.000Z</time>
      </trkpt>
      <trkpt lat="47.29473" lon="-1.48733">
        <ele>77</ele>
        <time>2021-02-06T12:54:14.000Z</time>
      </trkpt>
      <trkpt lat="47.29481" lon="-1.48725">
        <ele>78</ele>
        <time>2021-02-06T12:54:16.000Z</time>
      </trkpt>
      <trkpt lat="47.2949" lon="-1.48718">
        <ele>75</ele>
        <time>2021-02-06T12:54:18.000Z</time>
      </trkpt>
      <trkpt lat="47.29498" lon="-1.4871">
        <ele>76</ele>
        <time>2021-02-06T12:54:20.000Z</time>
      </trkpt>
      <trkpt lat="47.29506" lon="-1.48702">
        <ele>76</ele>
        <time>2021-02-06T12:54:22.000Z</time>
      </trkpt>
      <trkpt lat="47.29516" lon="-1.48695">
        <ele>77</ele>
        <time>2021-02-06T12:54:24.000Z</time>
      </trkpt>
      <trkpt lat="47.29526" lon="-1.48689">
        <ele>77</ele>
        <time>2021-02-06T12:54:26.000Z</time>
      </trkpt>
      <trkpt lat="47.2954" lon="-1.48681">
        <ele>76</ele>
        <time>2021-02-06T12:54:29.000Z</time>
      </trkpt>
      <trkpt lat="47.29551" lon="-1.48676">
        <ele>76</ele>
        <time>2021-02-06T12:54:31.000Z</time>
      </trkpt>
      <trkpt lat="47.29563" lon="-1.48672">
        <ele>77</ele>
        <time>2021-02-06T12:54:33.000Z</time>
      </trkpt>
      <trkpt lat="47.29574" lon="-1.48668">
        <ele>76</ele>
        <time>2021-02-06T12:54:35.000Z</time>
      </trkpt>
      <trkpt lat="47.29584" lon="-1.48664">
        <ele>76</ele>
        <time>2021-02-06T12:54:37.000Z</time>
      </trkpt>
      <trkpt lat="47.29595" lon="-1.4866">
        <ele>76</ele>
        <time>2021-02-06T12:54:39.000Z</time>
      </trkpt>
      <trkpt lat="47.2961" lon="-1.48652">
        <ele>76</ele>
        <time>2021-02-06T12:54:42.000Z</time>
      </trkpt>
      <trkpt lat="47.2962" lon="-1.48648">
        <ele>77</ele>
        <time>2021-02-06T12:54:44.000Z</time>
      </trkpt>
      <trkpt lat="47.2963" lon="-1.48641">
        <ele>74</ele>
        <time>2021-02-06T12:54:46.000Z</time>
      </trkpt>
      <trkpt lat="47.29636" lon="-1.48631">
        <ele>74</ele>
        <time>2021-02-06T12:54:48.000Z</time>
      </trkpt>
      <trkpt lat="47.29646" lon="-1.48623">
        <ele>73</ele>
        <time>2021-02-06T12:54:50.000Z</time>
      </trkpt>
      <trkpt lat="47.29658" lon="-1.48626">
        <ele>74</ele>
        <time>2021-02-06T12:54:52.000Z</time>
      </trkpt>
      <trkpt lat="47.29674" lon="-1.48638">
        <ele>73</ele>
        <time>2021-02-06T12:54:55.000Z</time>
      </trkpt>
      <trkpt lat="47.29684" lon="-1.48648">
        <ele>73</ele>
        <time>2021-02-06T12:54:57.000Z</time>
      </trkpt>
      <trkpt lat="47.29692" lon="-1.48657">
        <ele>73</ele>
        <time>2021-02-06T12:54:59.000Z</time>
      </trkpt>
      <trkpt lat="47.29699" lon="-1.4867">
        <ele>74</ele>
        <time>2021-02-06T12:55:01.000Z</time>
      </trkpt>
      <trkpt lat="47.29706" lon="-1.48684">
        <ele>75</ele>
        <time>2021-02-06T12:55:03.000Z</time>
      </trkpt>
      <trkpt lat="47.29714" lon="-1.48697">
        <ele>75</ele>
        <time>2021-02-06T12:55:05.000Z</time>
      </trkpt>
      <trkpt lat="47.29722" lon="-1.48707">
        <ele>75</ele>
        <time>2021-02-06T12:55:07.000Z</time>
      </trkpt>
      <trkpt lat="47.29738" lon="-1.4872">
        <ele>76</ele>
        <time>2021-02-06T12:55:10.000Z</time>
      </trkpt>
      <trkpt lat="47.29749" lon="-1.48724">
        <ele>77</ele>
        <time>2021-02-06T12:55:12.000Z</time>
      </trkpt>
      <trkpt lat="47.29765" lon="-1.4874">
        <ele>77</ele>
        <time>2021-02-06T12:55:16.000Z</time>
      </trkpt>
      <trkpt lat="47.29776" lon="-1.48748">
        <ele>78</ele>
        <time>2021-02-06T12:55:18.000Z</time>
      </trkpt>
      <trkpt lat="47.29786" lon="-1.48756">
        <ele>78</ele>
        <time>2021-02-06T12:55:20.000Z</time>
      </trkpt>
      <trkpt lat="47.29797" lon="-1.48765">
        <ele>78</ele>
        <time>2021-02-06T12:55:22.000Z</time>
      </trkpt>
      <trkpt lat="47.29807" lon="-1.48773">
        <ele>79</ele>
        <time>2021-02-06T12:55:24.000Z</time>
      </trkpt>
      <trkpt lat="47.29817" lon="-1.48781">
        <ele>80</ele>
        <time>2021-02-06T12:55:26.000Z</time>
      </trkpt>
      <trkpt lat="47.29828" lon="-1.48788">
        <ele>80</ele>
        <time>2021-02-06T12:55:28.000Z</time>
      </trkpt>
      <trkpt lat="47.29837" lon="-1.48795">
        <ele>79</ele>
        <time>2021-02-06T12:55:30.000Z</time>
      </trkpt>
      <trkpt lat="47.29851" lon="-1.48806">
        <ele>77</ele>
        <time>2021-02-06T12:55:33.000Z</time>
      </trkpt>
      <trkpt lat="47.29862" lon="-1.48814">
        <ele>78</ele>
        <time>2021-02-06T12:55:35.000Z</time>
      </trkpt>
      <trkpt lat="47.29872" lon="-1.48822">
        <ele>78</ele>
        <time>2021-02-06T12:55:37.000Z</time>
      </trkpt>
      <trkpt lat="47.29881" lon="-1.4883">
        <ele>76</ele>
        <time>2021-02-06T12:55:39.000Z</time>
      </trkpt>
      <trkpt lat="47.29899" lon="-1.48846">
        <ele>75</ele>
        <time>2021-02-06T12:55:43.000Z</time>
      </trkpt>
      <trkpt lat="47.2991" lon="-1.48853">
        <ele>75</ele>
        <time>2021-02-06T12:55:45.000Z</time>
      </trkpt>
      <trkpt lat="47.29921" lon="-1.48862">
        <ele>75</ele>
        <time>2021-02-06T12:55:47.000Z</time>
      </trkpt>
      <trkpt lat="47.29933" lon="-1.48871">
        <ele>74</ele>
        <time>2021-02-06T12:55:49.000Z</time>
      </trkpt>
      <trkpt lat="47.29949" lon="-1.48883">
        <ele>74</ele>
        <time>2021-02-06T12:55:52.000Z</time>
      </trkpt>
      <trkpt lat="47.29964" lon="-1.4889">
        <ele>73</ele>
        <time>2021-02-06T12:55:55.000Z</time>
      </trkpt>
      <trkpt lat="47.29974" lon="-1.48901">
        <ele>73</ele>
        <time>2021-02-06T12:55:57.000Z</time>
      </trkpt>
      <trkpt lat="47.29985" lon="-1.48912">
        <ele>72</ele>
        <time>2021-02-06T12:55:59.000Z</time>
      </trkpt>
      <trkpt lat="47.29999" lon="-1.48914">
        <ele>71</ele>
        <time>2021-02-06T12:56:01.000Z</time>
      </trkpt>
      <trkpt lat="47.30012" lon="-1.48905">
        <ele>72</ele>
        <time>2021-02-06T12:56:03.000Z</time>
      </trkpt>
      <trkpt lat="47.30024" lon="-1.48893">
        <ele>71</ele>
        <time>2021-02-06T12:56:05.000Z</time>
      </trkpt>
      <trkpt lat="47.30035" lon="-1.4888">
        <ele>70</ele>
        <time>2021-02-06T12:56:07.000Z</time>
      </trkpt>
      <trkpt lat="47.30054" lon="-1.48863">
        <ele>68</ele>
        <time>2021-02-06T12:56:10.000Z</time>
      </trkpt>
      <trkpt lat="47.30067" lon="-1.48851">
        <ele>68</ele>
        <time>2021-02-06T12:56:12.000Z</time>
      </trkpt>
      <trkpt lat="47.30084" lon="-1.48835">
        <ele>67</ele>
        <time>2021-02-06T12:56:15.000Z</time>
      </trkpt>
      <trkpt lat="47.30095" lon="-1.48823">
        <ele>66</ele>
        <time>2021-02-06T12:56:17.000Z</time>
      </trkpt>
      <trkpt lat="47.30104" lon="-1.48808">
        <ele>64</ele>
        <time>2021-02-06T12:56:19.000Z</time>
      </trkpt>
      <trkpt lat="47.30114" lon="-1.48795">
        <ele>63</ele>
        <time>2021-02-06T12:56:21.000Z</time>
      </trkpt>
      <trkpt lat="47.30126" lon="-1.48784">
        <ele>64</ele>
        <time>2021-02-06T12:56:23.000Z</time>
      </trkpt>
      <trkpt lat="47.30137" lon="-1.48771">
        <ele>62</ele>
        <time>2021-02-06T12:56:25.000Z</time>
      </trkpt>
      <trkpt lat="47.30148" lon="-1.48761">
        <ele>61</ele>
        <time>2021-02-06T12:56:27.000Z</time>
      </trkpt>
      <trkpt lat="47.3016" lon="-1.48751">
        <ele>61</ele>
        <time>2021-02-06T12:56:29.000Z</time>
      </trkpt>
      <trkpt lat="47.3017" lon="-1.48739">
        <ele>63</ele>
        <time>2021-02-06T12:56:31.000Z</time>
      </trkpt>
      <trkpt lat="47.30181" lon="-1.48728">
        <ele>63</ele>
        <time>2021-02-06T12:56:33.000Z</time>
      </trkpt>
      <trkpt lat="47.30191" lon="-1.48714">
        <ele>62</ele>
        <time>2021-02-06T12:56:35.000Z</time>
      </trkpt>
      <trkpt lat="47.30205" lon="-1.48698">
        <ele>62</ele>
        <time>2021-02-06T12:56:38.000Z</time>
      </trkpt>
      <trkpt lat="47.30216" lon="-1.48688">
        <ele>63</ele>
        <time>2021-02-06T12:56:40.000Z</time>
      </trkpt>
      <trkpt lat="47.30226" lon="-1.48677">
        <ele>63</ele>
        <time>2021-02-06T12:56:42.000Z</time>
      </trkpt>
      <trkpt lat="47.30237" lon="-1.48662">
        <ele>61</ele>
        <time>2021-02-06T12:56:44.000Z</time>
      </trkpt>
      <trkpt lat="47.30247" lon="-1.48654">
        <ele>62</ele>
        <time>2021-02-06T12:56:46.000Z</time>
      </trkpt>
      <trkpt lat="47.3026" lon="-1.48643">
        <ele>61</ele>
        <time>2021-02-06T12:56:48.000Z</time>
      </trkpt>
      <trkpt lat="47.30271" lon="-1.48633">
        <ele>63</ele>
        <time>2021-02-06T12:56:50.000Z</time>
      </trkpt>
      <trkpt lat="47.30281" lon="-1.48623">
        <ele>63</ele>
        <time>2021-02-06T12:56:52.000Z</time>
      </trkpt>
      <trkpt lat="47.30291" lon="-1.48616">
        <ele>64</ele>
        <time>2021-02-06T12:56:54.000Z</time>
      </trkpt>
      <trkpt lat="47.30301" lon="-1.48606">
        <ele>64</ele>
        <time>2021-02-06T12:56:56.000Z</time>
      </trkpt>
      <trkpt lat="47.30311" lon="-1.48596">
        <ele>65</ele>
        <time>2021-02-06T12:56:58.000Z</time>
      </trkpt>
      <trkpt lat="47.30327" lon="-1.48581">
        <ele>64</ele>
        <time>2021-02-06T12:57:01.000Z</time>
      </trkpt>
      <trkpt lat="47.30338" lon="-1.48571">
        <ele>64</ele>
        <time>2021-02-06T12:57:03.000Z</time>
      </trkpt>
      <trkpt lat="47.30349" lon="-1.48561">
        <ele>63</ele>
        <time>2021-02-06T12:57:05.000Z</time>
      </trkpt>
      <trkpt lat="47.30372" lon="-1.4854">
        <ele>66</ele>
        <time>2021-02-06T12:57:08.990Z</time>
      </trkpt>
      <trkpt lat="47.30386" lon="-1.4852">
        <ele>69</ele>
        <time>2021-02-06T12:57:12.000Z</time>
      </trkpt>
      <trkpt lat="47.30393" lon="-1.48506">
        <ele>66</ele>
        <time>2021-02-06T12:57:14.000Z</time>
      </trkpt>
      <trkpt lat="47.30403" lon="-1.48499">
        <ele>66</ele>
        <time>2021-02-06T12:57:16.000Z</time>
      </trkpt>
      <trkpt lat="47.3042" lon="-1.48493">
        <ele>65</ele>
        <time>2021-02-06T12:57:19.000Z</time>
      </trkpt>
      <trkpt lat="47.30431" lon="-1.48483">
        <ele>65</ele>
        <time>2021-02-06T12:57:21.000Z</time>
      </trkpt>
      <trkpt lat="47.30448" lon="-1.48462">
        <ele>60</ele>
        <time>2021-02-06T12:57:24.000Z</time>
      </trkpt>
      <trkpt lat="47.30458" lon="-1.48454">
        <ele>60</ele>
        <time>2021-02-06T12:57:26.000Z</time>
      </trkpt>
      <trkpt lat="47.3047" lon="-1.48444">
        <ele>62</ele>
        <time>2021-02-06T12:57:28.000Z</time>
      </trkpt>
      <trkpt lat="47.30481" lon="-1.48434">
        <ele>62</ele>
        <time>2021-02-06T12:57:30.000Z</time>
      </trkpt>
      <trkpt lat="47.30492" lon="-1.48423">
        <ele>62</ele>
        <time>2021-02-06T12:57:32.000Z</time>
      </trkpt>
      <trkpt lat="47.30503" lon="-1.48412">
        <ele>60</ele>
        <time>2021-02-06T12:57:34.000Z</time>
      </trkpt>
      <trkpt lat="47.30516" lon="-1.48402">
        <ele>60</ele>
        <time>2021-02-06T12:57:36.000Z</time>
      </trkpt>
      <trkpt lat="47.30529" lon="-1.48392">
        <ele>60</ele>
        <time>2021-02-06T12:57:38.000Z</time>
      </trkpt>
      <trkpt lat="47.3054" lon="-1.48382">
        <ele>60</ele>
        <time>2021-02-06T12:57:40.000Z</time>
      </trkpt>
      <trkpt lat="47.30552" lon="-1.48372">
        <ele>61</ele>
        <time>2021-02-06T12:57:42.000Z</time>
      </trkpt>
      <trkpt lat="47.30561" lon="-1.4836">
        <ele>61</ele>
        <time>2021-02-06T12:57:44.000Z</time>
      </trkpt>
      <trkpt lat="47.30581" lon="-1.48347">
        <ele>60</ele>
        <time>2021-02-06T12:57:47.000Z</time>
      </trkpt>
      <trkpt lat="47.30589" lon="-1.48337">
        <ele>61</ele>
        <time>2021-02-06T12:57:49.000Z</time>
      </trkpt>
      <trkpt lat="47.30596" lon="-1.4833">
        <ele>62</ele>
        <time>2021-02-06T12:57:51.000Z</time>
      </trkpt>
      <trkpt lat="47.30605" lon="-1.48322">
        <ele>63</ele>
        <time>2021-02-06T12:57:53.000Z</time>
      </trkpt>
      <trkpt lat="47.30613" lon="-1.48314">
        <ele>63</ele>
        <time>2021-02-06T12:57:55.000Z</time>
      </trkpt>
      <trkpt lat="47.30617" lon="-1.48299">
        <ele>62</ele>
        <time>2021-02-06T12:57:57.000Z</time>
      </trkpt>
      <trkpt lat="47.30625" lon="-1.48287">
        <ele>63</ele>
        <time>2021-02-06T12:58:00.000Z</time>
      </trkpt>
      <trkpt lat="47.3063" lon="-1.48272">
        <ele>64</ele>
        <time>2021-02-06T12:58:02.000Z</time>
      </trkpt>
      <trkpt lat="47.30637" lon="-1.48263">
        <ele>64</ele>
        <time>2021-02-06T12:58:04.000Z</time>
      </trkpt>
      <trkpt lat="47.30646" lon="-1.48262">
        <ele>66</ele>
        <time>2021-02-06T12:58:06.000Z</time>
      </trkpt>
      <trkpt lat="47.30656" lon="-1.48259">
        <ele>67</ele>
        <time>2021-02-06T12:58:08.000Z</time>
      </trkpt>
      <trkpt lat="47.3067" lon="-1.48253">
        <ele>66</ele>
        <time>2021-02-06T12:58:11.000Z</time>
      </trkpt>
      <trkpt lat="47.30679" lon="-1.48249">
        <ele>67</ele>
        <time>2021-02-06T12:58:13.000Z</time>
      </trkpt>
      <trkpt lat="47.30691" lon="-1.48245">
        <ele>68</ele>
        <time>2021-02-06T12:58:16.000Z</time>
      </trkpt>
      <trkpt lat="47.30706" lon="-1.48247">
        <ele>65</ele>
        <time>2021-02-06T12:58:19.000Z</time>
      </trkpt>
      <trkpt lat="47.3072" lon="-1.4825">
        <ele>67</ele>
        <time>2021-02-06T12:58:22.000Z</time>
      </trkpt>
      <trkpt lat="47.30729" lon="-1.48252">
        <ele>67</ele>
        <time>2021-02-06T12:58:24.000Z</time>
      </trkpt>
      <trkpt lat="47.30741" lon="-1.48251">
        <ele>68</ele>
        <time>2021-02-06T12:58:27.000Z</time>
      </trkpt>
      <trkpt lat="47.3075" lon="-1.48244">
        <ele>68</ele>
        <time>2021-02-06T12:58:29.000Z</time>
      </trkpt>
      <trkpt lat="47.30759" lon="-1.48235">
        <ele>68</ele>
        <time>2021-02-06T12:58:31.000Z</time>
      </trkpt>
      <trkpt lat="47.3077" lon="-1.48217">
        <ele>67</ele>
        <time>2021-02-06T12:58:34.000Z</time>
      </trkpt>
      <trkpt lat="47.30771" lon="-1.48201">
        <ele>67</ele>
        <time>2021-02-06T12:58:36.000Z</time>
      </trkpt>
      <trkpt lat="47.30773" lon="-1.48186">
        <ele>66</ele>
        <time>2021-02-06T12:58:38.000Z</time>
      </trkpt>
      <trkpt lat="47.30776" lon="-1.48172">
        <ele>66</ele>
        <time>2021-02-06T12:58:40.000Z</time>
      </trkpt>
      <trkpt lat="47.30779" lon="-1.48156">
        <ele>65</ele>
        <time>2021-02-06T12:58:42.000Z</time>
      </trkpt>
      <trkpt lat="47.30783" lon="-1.48141">
        <ele>65</ele>
        <time>2021-02-06T12:58:44.000Z</time>
      </trkpt>
      <trkpt lat="47.30787" lon="-1.48124">
        <ele>65</ele>
        <time>2021-02-06T12:58:46.000Z</time>
      </trkpt>
      <trkpt lat="47.30791" lon="-1.48108">
        <ele>64</ele>
        <time>2021-02-06T12:58:48.000Z</time>
      </trkpt>
      <trkpt lat="47.30795" lon="-1.4809">
        <ele>64</ele>
        <time>2021-02-06T12:58:50.000Z</time>
      </trkpt>
      <trkpt lat="47.30798" lon="-1.48072">
        <ele>63</ele>
        <time>2021-02-06T12:58:52.000Z</time>
      </trkpt>
      <trkpt lat="47.308" lon="-1.48057">
        <ele>62</ele>
        <time>2021-02-06T12:58:54.000Z</time>
      </trkpt>
      <trkpt lat="47.30799" lon="-1.48043">
        <ele>60</ele>
        <time>2021-02-06T12:58:56.000Z</time>
      </trkpt>
      <trkpt lat="47.308" lon="-1.48026">
        <ele>62</ele>
        <time>2021-02-06T12:58:58.000Z</time>
      </trkpt>
      <trkpt lat="47.30805" lon="-1.48012">
        <ele>62</ele>
        <time>2021-02-06T12:59:00.000Z</time>
      </trkpt>
      <trkpt lat="47.30815" lon="-1.48005">
        <ele>61</ele>
        <time>2021-02-06T12:59:02.000Z</time>
      </trkpt>
      <trkpt lat="47.30827" lon="-1.48008">
        <ele>61</ele>
        <time>2021-02-06T12:59:04.000Z</time>
      </trkpt>
      <trkpt lat="47.30836" lon="-1.48016">
        <ele>59</ele>
        <time>2021-02-06T12:59:06.000Z</time>
      </trkpt>
      <trkpt lat="47.30838" lon="-1.48031">
        <ele>59</ele>
        <time>2021-02-06T12:59:08.000Z</time>
      </trkpt>
      <trkpt lat="47.30844" lon="-1.48048">
        <ele>59</ele>
        <time>2021-02-06T12:59:11.000Z</time>
      </trkpt>
      <trkpt lat="47.30854" lon="-1.48062">
        <ele>60</ele>
        <time>2021-02-06T12:59:13.000Z</time>
      </trkpt>
      <trkpt lat="47.30866" lon="-1.48075">
        <ele>59</ele>
        <time>2021-02-06T12:59:15.000Z</time>
      </trkpt>
      <trkpt lat="47.30878" lon="-1.48086">
        <ele>60</ele>
        <time>2021-02-06T12:59:17.000Z</time>
      </trkpt>
      <trkpt lat="47.30891" lon="-1.48097">
        <ele>60</ele>
        <time>2021-02-06T12:59:19.000Z</time>
      </trkpt>
      <trkpt lat="47.3091" lon="-1.4811">
        <ele>59</ele>
        <time>2021-02-06T12:59:22.000Z</time>
      </trkpt>
      <trkpt lat="47.30924" lon="-1.48116">
        <ele>58</ele>
        <time>2021-02-06T12:59:24.000Z</time>
      </trkpt>
      <trkpt lat="47.30936" lon="-1.48119">
        <ele>60</ele>
        <time>2021-02-06T12:59:26.000Z</time>
      </trkpt>
      <trkpt lat="47.3095" lon="-1.48121">
        <ele>60</ele>
        <time>2021-02-06T12:59:28.000Z</time>
      </trkpt>
      <trkpt lat="47.30962" lon="-1.48123">
        <ele>60</ele>
        <time>2021-02-06T12:59:30.000Z</time>
      </trkpt>
      <trkpt lat="47.30974" lon="-1.48128">
        <ele>59</ele>
        <time>2021-02-06T12:59:32.000Z</time>
      </trkpt>
      <trkpt lat="47.30987" lon="-1.48131">
        <ele>60</ele>
        <time>2021-02-06T12:59:34.000Z</time>
      </trkpt>
      <trkpt lat="47.31" lon="-1.48131">
        <ele>60</ele>
        <time>2021-02-06T12:59:36.000Z</time>
      </trkpt>
      <trkpt lat="47.31012" lon="-1.48129">
        <ele>60</ele>
        <time>2021-02-06T12:59:38.000Z</time>
      </trkpt>
      <trkpt lat="47.31025" lon="-1.48124">
        <ele>60</ele>
        <time>2021-02-06T12:59:40.000Z</time>
      </trkpt>
      <trkpt lat="47.31038" lon="-1.48118">
        <ele>60</ele>
        <time>2021-02-06T12:59:42.000Z</time>
      </trkpt>
      <trkpt lat="47.3105" lon="-1.48113">
        <ele>60</ele>
        <time>2021-02-06T12:59:44.000Z</time>
      </trkpt>
      <trkpt lat="47.31062" lon="-1.48107">
        <ele>59</ele>
        <time>2021-02-06T12:59:46.000Z</time>
      </trkpt>
      <trkpt lat="47.31078" lon="-1.48099">
        <ele>59</ele>
        <time>2021-02-06T12:59:49.000Z</time>
      </trkpt>
      <trkpt lat="47.31091" lon="-1.48092">
        <ele>58</ele>
        <time>2021-02-06T12:59:51.000Z</time>
      </trkpt>
      <trkpt lat="47.31114" lon="-1.48079">
        <ele>58</ele>
        <time>2021-02-06T12:59:55.000Z</time>
      </trkpt>
      <trkpt lat="47.31129" lon="-1.4807">
        <ele>60</ele>
        <time>2021-02-06T12:59:58.000Z</time>
      </trkpt>
      <trkpt lat="47.3114" lon="-1.48063">
        <ele>60</ele>
        <time>2021-02-06T13:00:00.000Z</time>
      </trkpt>
      <trkpt lat="47.31151" lon="-1.48057">
        <ele>60</ele>
        <time>2021-02-06T13:00:02.000Z</time>
      </trkpt>
      <trkpt lat="47.3116" lon="-1.48051">
        <ele>60</ele>
        <time>2021-02-06T13:00:04.000Z</time>
      </trkpt>
      <trkpt lat="47.3117" lon="-1.48046">
        <ele>61</ele>
        <time>2021-02-06T13:00:06.000Z</time>
      </trkpt>
      <trkpt lat="47.3118" lon="-1.4804">
        <ele>61</ele>
        <time>2021-02-06T13:00:08.000Z</time>
      </trkpt>
      <trkpt lat="47.3119" lon="-1.48033">
        <ele>59</ele>
        <time>2021-02-06T13:00:10.000Z</time>
      </trkpt>
      <trkpt lat="47.312" lon="-1.48029">
        <ele>60</ele>
        <time>2021-02-06T13:00:12.000Z</time>
      </trkpt>
      <trkpt lat="47.3121" lon="-1.48025">
        <ele>60</ele>
        <time>2021-02-06T13:00:14.000Z</time>
      </trkpt>
      <trkpt lat="47.3122" lon="-1.48019">
        <ele>60</ele>
        <time>2021-02-06T13:00:16.000Z</time>
      </trkpt>
      <trkpt lat="47.3123" lon="-1.48013">
        <ele>59</ele>
        <time>2021-02-06T13:00:18.000Z</time>
      </trkpt>
      <trkpt lat="47.31246" lon="-1.48005">
        <ele>59</ele>
        <time>2021-02-06T13:00:21.000Z</time>
      </trkpt>
      <trkpt lat="47.31256" lon="-1.48">
        <ele>59</ele>
        <time>2021-02-06T13:00:23.000Z</time>
      </trkpt>
      <trkpt lat="47.31267" lon="-1.47994">
        <ele>59</ele>
        <time>2021-02-06T13:00:25.000Z</time>
      </trkpt>
      <trkpt lat="47.31276" lon="-1.47988">
        <ele>58</ele>
        <time>2021-02-06T13:00:27.000Z</time>
      </trkpt>
      <trkpt lat="47.31292" lon="-1.4798">
        <ele>58</ele>
        <time>2021-02-06T13:00:30.000Z</time>
      </trkpt>
      <trkpt lat="47.31303" lon="-1.47974">
        <ele>58</ele>
        <time>2021-02-06T13:00:32.000Z</time>
      </trkpt>
      <trkpt lat="47.31319" lon="-1.47962">
        <ele>58</ele>
        <time>2021-02-06T13:00:35.000Z</time>
      </trkpt>
      <trkpt lat="47.31333" lon="-1.47952">
        <ele>57</ele>
        <time>2021-02-06T13:00:38.000Z</time>
      </trkpt>
      <trkpt lat="47.31346" lon="-1.47947">
        <ele>58</ele>
        <time>2021-02-06T13:00:40.000Z</time>
      </trkpt>
      <trkpt lat="47.3136" lon="-1.47941">
        <ele>56</ele>
        <time>2021-02-06T13:00:42.000Z</time>
      </trkpt>
      <trkpt lat="47.31371" lon="-1.47935">
        <ele>57</ele>
        <time>2021-02-06T13:00:44.000Z</time>
      </trkpt>
      <trkpt lat="47.31382" lon="-1.47929">
        <ele>57</ele>
        <time>2021-02-06T13:00:46.000Z</time>
      </trkpt>
      <trkpt lat="47.31393" lon="-1.47922">
        <ele>58</ele>
        <time>2021-02-06T13:00:48.000Z</time>
      </trkpt>
      <trkpt lat="47.31402" lon="-1.47915">
        <ele>58</ele>
        <time>2021-02-06T13:00:50.000Z</time>
      </trkpt>
      <trkpt lat="47.31412" lon="-1.47907">
        <ele>60</ele>
        <time>2021-02-06T13:00:52.000Z</time>
      </trkpt>
      <trkpt lat="47.31423" lon="-1.479">
        <ele>59</ele>
        <time>2021-02-06T13:00:54.000Z</time>
      </trkpt>
      <trkpt lat="47.31432" lon="-1.47895">
        <ele>59</ele>
        <time>2021-02-06T13:00:56.000Z</time>
      </trkpt>
      <trkpt lat="47.31443" lon="-1.47888">
        <ele>58</ele>
        <time>2021-02-06T13:00:58.000Z</time>
      </trkpt>
      <trkpt lat="47.31451" lon="-1.47882">
        <ele>59</ele>
        <time>2021-02-06T13:01:00.000Z</time>
      </trkpt>
      <trkpt lat="47.31461" lon="-1.47879">
        <ele>59</ele>
        <time>2021-02-06T13:01:02.000Z</time>
      </trkpt>
      <trkpt lat="47.31471" lon="-1.47874">
        <ele>60</ele>
        <time>2021-02-06T13:01:04.000Z</time>
      </trkpt>
      <trkpt lat="47.31487" lon="-1.47863">
        <ele>58</ele>
        <time>2021-02-06T13:01:07.000Z</time>
      </trkpt>
      <trkpt lat="47.31502" lon="-1.47857">
        <ele>57</ele>
        <time>2021-02-06T13:01:10.000Z</time>
      </trkpt>
      <trkpt lat="47.31512" lon="-1.47855">
        <ele>58</ele>
        <time>2021-02-06T13:01:12.000Z</time>
      </trkpt>
      <trkpt lat="47.31522" lon="-1.47849">
        <ele>56</ele>
        <time>2021-02-06T13:01:14.000Z</time>
      </trkpt>
      <trkpt lat="47.31532" lon="-1.47846">
        <ele>56</ele>
        <time>2021-02-06T13:01:16.000Z</time>
      </trkpt>
      <trkpt lat="47.31543" lon="-1.47845">
        <ele>57</ele>
        <time>2021-02-06T13:01:18.000Z</time>
      </trkpt>
      <trkpt lat="47.31555" lon="-1.47842">
        <ele>58</ele>
        <time>2021-02-06T13:01:20.000Z</time>
      </trkpt>
      <trkpt lat="47.31566" lon="-1.47839">
        <ele>58</ele>
        <time>2021-02-06T13:01:22.000Z</time>
      </trkpt>
      <trkpt lat="47.31583" lon="-1.47837">
        <ele>58</ele>
        <time>2021-02-06T13:01:25.000Z</time>
      </trkpt>
      <trkpt lat="47.31595" lon="-1.47835">
        <ele>58</ele>
        <time>2021-02-06T13:01:27.000Z</time>
      </trkpt>
      <trkpt lat="47.31607" lon="-1.47835">
        <ele>59</ele>
        <time>2021-02-06T13:01:29.000Z</time>
      </trkpt>
      <trkpt lat="47.31619" lon="-1.47835">
        <ele>58</ele>
        <time>2021-02-06T13:01:31.000Z</time>
      </trkpt>
      <trkpt lat="47.31631" lon="-1.47833">
        <ele>58</ele>
        <time>2021-02-06T13:01:33.000Z</time>
      </trkpt>
      <trkpt lat="47.31643" lon="-1.47832">
        <ele>57</ele>
        <time>2021-02-06T13:01:35.000Z</time>
      </trkpt>
      <trkpt lat="47.31656" lon="-1.47827">
        <ele>57</ele>
        <time>2021-02-06T13:01:37.000Z</time>
      </trkpt>
      <trkpt lat="47.31667" lon="-1.47823">
        <ele>57</ele>
        <time>2021-02-06T13:01:39.000Z</time>
      </trkpt>
      <trkpt lat="47.31677" lon="-1.47832">
        <ele>57</ele>
        <time>2021-02-06T13:01:41.000Z</time>
      </trkpt>
      <trkpt lat="47.31677" lon="-1.47848">
        <ele>57</ele>
        <time>2021-02-06T13:01:43.000Z</time>
      </trkpt>
      <trkpt lat="47.3167" lon="-1.47863">
        <ele>56</ele>
        <time>2021-02-06T13:01:45.000Z</time>
      </trkpt>
      <trkpt lat="47.31662" lon="-1.47876">
        <ele>55</ele>
        <time>2021-02-06T13:01:47.000Z</time>
      </trkpt>
      <trkpt lat="47.31655" lon="-1.4789">
        <ele>54</ele>
        <time>2021-02-06T13:01:49.000Z</time>
      </trkpt>
      <trkpt lat="47.31646" lon="-1.47903">
        <ele>55</ele>
        <time>2021-02-06T13:01:51.000Z</time>
      </trkpt>
      <trkpt lat="47.31638" lon="-1.47915">
        <ele>56</ele>
        <time>2021-02-06T13:01:53.000Z</time>
      </trkpt>
      <trkpt lat="47.3163" lon="-1.47929">
        <ele>53</ele>
        <time>2021-02-06T13:01:55.000Z</time>
      </trkpt>
      <trkpt lat="47.31623" lon="-1.47939">
        <ele>54</ele>
        <time>2021-02-06T13:01:57.000Z</time>
      </trkpt>
      <trkpt lat="47.31614" lon="-1.47954">
        <ele>56</ele>
        <time>2021-02-06T13:02:00.000Z</time>
      </trkpt>
      <trkpt lat="47.31609" lon="-1.47965">
        <ele>57</ele>
        <time>2021-02-06T13:02:02.000Z</time>
      </trkpt>
      <trkpt lat="47.31605" lon="-1.4799">
        <ele>56</ele>
        <time>2021-02-06T13:02:06.000Z</time>
      </trkpt>
      <trkpt lat="47.31606" lon="-1.48005">
        <ele>57</ele>
        <time>2021-02-06T13:02:08.000Z</time>
      </trkpt>
      <trkpt lat="47.31608" lon="-1.48019">
        <ele>58</ele>
        <time>2021-02-06T13:02:10.000Z</time>
      </trkpt>
      <trkpt lat="47.31611" lon="-1.48039">
        <ele>59</ele>
        <time>2021-02-06T13:02:13.000Z</time>
      </trkpt>
      <trkpt lat="47.31611" lon="-1.48053">
        <ele>60</ele>
        <time>2021-02-06T13:02:15.000Z</time>
      </trkpt>
      <trkpt lat="47.31616" lon="-1.48072">
        <ele>60</ele>
        <time>2021-02-06T13:02:18.000Z</time>
      </trkpt>
      <trkpt lat="47.31621" lon="-1.48084">
        <ele>60</ele>
        <time>2021-02-06T13:02:20.000Z</time>
      </trkpt>
      <trkpt lat="47.31633" lon="-1.481">
        <ele>60</ele>
        <time>2021-02-06T13:02:23.000Z</time>
      </trkpt>
      <trkpt lat="47.31642" lon="-1.48105">
        <ele>61</ele>
        <time>2021-02-06T13:02:25.000Z</time>
      </trkpt>
      <trkpt lat="47.31653" lon="-1.48105">
        <ele>60</ele>
        <time>2021-02-06T13:02:27.000Z</time>
      </trkpt>
      <trkpt lat="47.31663" lon="-1.48101">
        <ele>62</ele>
        <time>2021-02-06T13:02:29.000Z</time>
      </trkpt>
      <trkpt lat="47.31672" lon="-1.48093">
        <ele>62</ele>
        <time>2021-02-06T13:02:31.000Z</time>
      </trkpt>
      <trkpt lat="47.31686" lon="-1.48077">
        <ele>62</ele>
        <time>2021-02-06T13:02:34.000Z</time>
      </trkpt>
      <trkpt lat="47.31705" lon="-1.4806">
        <ele>59</ele>
        <time>2021-02-06T13:02:37.000Z</time>
      </trkpt>
      <trkpt lat="47.31716" lon="-1.48049">
        <ele>57</ele>
        <time>2021-02-06T13:02:39.000Z</time>
      </trkpt>
      <trkpt lat="47.31729" lon="-1.48037">
        <ele>58</ele>
        <time>2021-02-06T13:02:41.000Z</time>
      </trkpt>
      <trkpt lat="47.31744" lon="-1.48026">
        <ele>57</ele>
        <time>2021-02-06T13:02:43.000Z</time>
      </trkpt>
      <trkpt lat="47.31758" lon="-1.48017">
        <ele>56</ele>
        <time>2021-02-06T13:02:45.000Z</time>
      </trkpt>
      <trkpt lat="47.31771" lon="-1.48009">
        <ele>56</ele>
        <time>2021-02-06T13:02:47.000Z</time>
      </trkpt>
      <trkpt lat="47.31792" lon="-1.48002">
        <ele>56</ele>
        <time>2021-02-06T13:02:50.000Z</time>
      </trkpt>
      <trkpt lat="47.31807" lon="-1.47998">
        <ele>57</ele>
        <time>2021-02-06T13:02:52.000Z</time>
      </trkpt>
      <trkpt lat="47.31818" lon="-1.47994">
        <ele>57</ele>
        <time>2021-02-06T13:02:54.000Z</time>
      </trkpt>
      <trkpt lat="47.31831" lon="-1.4799">
        <ele>57</ele>
        <time>2021-02-06T13:02:56.000Z</time>
      </trkpt>
      <trkpt lat="47.3185" lon="-1.47983">
        <ele>56</ele>
        <time>2021-02-06T13:02:59.000Z</time>
      </trkpt>
      <trkpt lat="47.31862" lon="-1.4798">
        <ele>56</ele>
        <time>2021-02-06T13:03:01.000Z</time>
      </trkpt>
      <trkpt lat="47.31874" lon="-1.47975">
        <ele>57</ele>
        <time>2021-02-06T13:03:03.000Z</time>
      </trkpt>
      <trkpt lat="47.31887" lon="-1.47971">
        <ele>57</ele>
        <time>2021-02-06T13:03:05.000Z</time>
      </trkpt>
      <trkpt lat="47.31905" lon="-1.47966">
        <ele>57</ele>
        <time>2021-02-06T13:03:08.000Z</time>
      </trkpt>
      <trkpt lat="47.31918" lon="-1.47962">
        <ele>57</ele>
        <time>2021-02-06T13:03:10.000Z</time>
      </trkpt>
      <trkpt lat="47.31936" lon="-1.47956">
        <ele>56</ele>
        <time>2021-02-06T13:03:13.000Z</time>
      </trkpt>
      <trkpt lat="47.31949" lon="-1.47952">
        <ele>56</ele>
        <time>2021-02-06T13:03:15.000Z</time>
      </trkpt>
      <trkpt lat="47.31967" lon="-1.47949">
        <ele>57</ele>
        <time>2021-02-06T13:03:18.000Z</time>
      </trkpt>
      <trkpt lat="47.3198" lon="-1.47945">
        <ele>57</ele>
        <time>2021-02-06T13:03:20.000Z</time>
      </trkpt>
      <trkpt lat="47.31993" lon="-1.47939">
        <ele>56</ele>
        <time>2021-02-06T13:03:22.000Z</time>
      </trkpt>
      <trkpt lat="47.32004" lon="-1.47939">
        <ele>56</ele>
        <time>2021-02-06T13:03:24.000Z</time>
      </trkpt>
      <trkpt lat="47.32018" lon="-1.47937">
        <ele>56</ele>
        <time>2021-02-06T13:03:26.000Z</time>
      </trkpt>
      <trkpt lat="47.32036" lon="-1.47933">
        <ele>59</ele>
        <time>2021-02-06T13:03:29.000Z</time>
      </trkpt>
      <trkpt lat="47.32047" lon="-1.4793">
        <ele>57</ele>
        <time>2021-02-06T13:03:31.000Z</time>
      </trkpt>
      <trkpt lat="47.32059" lon="-1.47927">
        <ele>57</ele>
        <time>2021-02-06T13:03:33.000Z</time>
      </trkpt>
      <trkpt lat="47.32071" lon="-1.47924">
        <ele>57</ele>
        <time>2021-02-06T13:03:35.000Z</time>
      </trkpt>
      <trkpt lat="47.3209" lon="-1.47921">
        <ele>55</ele>
        <time>2021-02-06T13:03:38.000Z</time>
      </trkpt>
      <trkpt lat="47.32101" lon="-1.47917">
        <ele>55</ele>
        <time>2021-02-06T13:03:40.000Z</time>
      </trkpt>
      <trkpt lat="47.32112" lon="-1.47913">
        <ele>55</ele>
        <time>2021-02-06T13:03:42.000Z</time>
      </trkpt>
      <trkpt lat="47.32124" lon="-1.4791">
        <ele>55</ele>
        <time>2021-02-06T13:03:44.000Z</time>
      </trkpt>
      <trkpt lat="47.32142" lon="-1.47906">
        <ele>55</ele>
        <time>2021-02-06T13:03:47.000Z</time>
      </trkpt>
      <trkpt lat="47.32155" lon="-1.47901">
        <ele>52</ele>
        <time>2021-02-06T13:03:49.000Z</time>
      </trkpt>
      <trkpt lat="47.32171" lon="-1.47899">
        <ele>53</ele>
        <time>2021-02-06T13:03:52.000Z</time>
      </trkpt>
      <trkpt lat="47.32184" lon="-1.47896">
        <ele>54</ele>
        <time>2021-02-06T13:03:54.000Z</time>
      </trkpt>
      <trkpt lat="47.32196" lon="-1.47893">
        <ele>54</ele>
        <time>2021-02-06T13:03:56.000Z</time>
      </trkpt>
      <trkpt lat="47.32207" lon="-1.4789">
        <ele>54</ele>
        <time>2021-02-06T13:03:58.000Z</time>
      </trkpt>
      <trkpt lat="47.32219" lon="-1.47887">
        <ele>55</ele>
        <time>2021-02-06T13:04:00.000Z</time>
      </trkpt>
      <trkpt lat="47.32231" lon="-1.47884">
        <ele>55</ele>
        <time>2021-02-06T13:04:02.000Z</time>
      </trkpt>
      <trkpt lat="47.32249" lon="-1.4788">
        <ele>56</ele>
        <time>2021-02-06T13:04:05.000Z</time>
      </trkpt>
      <trkpt lat="47.32259" lon="-1.47877">
        <ele>56</ele>
        <time>2021-02-06T13:04:07.000Z</time>
      </trkpt>
      <trkpt lat="47.32271" lon="-1.47875">
        <ele>56</ele>
        <time>2021-02-06T13:04:09.000Z</time>
      </trkpt>
      <trkpt lat="47.32282" lon="-1.47872">
        <ele>56</ele>
        <time>2021-02-06T13:04:11.000Z</time>
      </trkpt>
      <trkpt lat="47.32293" lon="-1.47869">
        <ele>56</ele>
        <time>2021-02-06T13:04:13.000Z</time>
      </trkpt>
      <trkpt lat="47.32306" lon="-1.47866">
        <ele>56</ele>
        <time>2021-02-06T13:04:15.000Z</time>
      </trkpt>
      <trkpt lat="47.32316" lon="-1.47863">
        <ele>56</ele>
        <time>2021-02-06T13:04:17.000Z</time>
      </trkpt>
      <trkpt lat="47.32328" lon="-1.4786">
        <ele>57</ele>
        <time>2021-02-06T13:04:19.000Z</time>
      </trkpt>
      <trkpt lat="47.32339" lon="-1.47857">
        <ele>57</ele>
        <time>2021-02-06T13:04:21.000Z</time>
      </trkpt>
      <trkpt lat="47.32351" lon="-1.47855">
        <ele>56</ele>
        <time>2021-02-06T13:04:23.000Z</time>
      </trkpt>
      <trkpt lat="47.32362" lon="-1.47853">
        <ele>57</ele>
        <time>2021-02-06T13:04:25.000Z</time>
      </trkpt>
      <trkpt lat="47.32374" lon="-1.4785">
        <ele>57</ele>
        <time>2021-02-06T13:04:27.000Z</time>
      </trkpt>
      <trkpt lat="47.32385" lon="-1.47847">
        <ele>57</ele>
        <time>2021-02-06T13:04:29.000Z</time>
      </trkpt>
      <trkpt lat="47.32396" lon="-1.47844">
        <ele>57</ele>
        <time>2021-02-06T13:04:31.000Z</time>
      </trkpt>
      <trkpt lat="47.32408" lon="-1.47841">
        <ele>57</ele>
        <time>2021-02-06T13:04:33.000Z</time>
      </trkpt>
      <trkpt lat="47.32417" lon="-1.47835">
        <ele>56</ele>
        <time>2021-02-06T13:04:35.000Z</time>
      </trkpt>
      <trkpt lat="47.32428" lon="-1.47832">
        <ele>56</ele>
        <time>2021-02-06T13:04:37.000Z</time>
      </trkpt>
      <trkpt lat="47.32441" lon="-1.47831">
        <ele>56</ele>
        <time>2021-02-06T13:04:39.000Z</time>
      </trkpt>
      <trkpt lat="47.32454" lon="-1.47829">
        <ele>56</ele>
        <time>2021-02-06T13:04:41.000Z</time>
      </trkpt>
      <trkpt lat="47.32467" lon="-1.47828">
        <ele>55</ele>
        <time>2021-02-06T13:04:43.000Z</time>
      </trkpt>
      <trkpt lat="47.3248" lon="-1.47825">
        <ele>55</ele>
        <time>2021-02-06T13:04:45.000Z</time>
      </trkpt>
      <trkpt lat="47.32491" lon="-1.47822">
        <ele>55</ele>
        <time>2021-02-06T13:04:47.000Z</time>
      </trkpt>
      <trkpt lat="47.32502" lon="-1.47819">
        <ele>55</ele>
        <time>2021-02-06T13:04:49.000Z</time>
      </trkpt>
      <trkpt lat="47.32521" lon="-1.47812">
        <ele>54</ele>
        <time>2021-02-06T13:04:52.000Z</time>
      </trkpt>
      <trkpt lat="47.32532" lon="-1.47811">
        <ele>54</ele>
        <time>2021-02-06T13:04:54.000Z</time>
      </trkpt>
      <trkpt lat="47.32545" lon="-1.47808">
        <ele>55</ele>
        <time>2021-02-06T13:04:56.000Z</time>
      </trkpt>
      <trkpt lat="47.32557" lon="-1.47806">
        <ele>55</ele>
        <time>2021-02-06T13:04:58.000Z</time>
      </trkpt>
      <trkpt lat="47.32571" lon="-1.47803">
        <ele>54</ele>
        <time>2021-02-06T13:05:00.000Z</time>
      </trkpt>
      <trkpt lat="47.32581" lon="-1.478">
        <ele>54</ele>
        <time>2021-02-06T13:05:02.000Z</time>
      </trkpt>
      <trkpt lat="47.32593" lon="-1.47797">
        <ele>52</ele>
        <time>2021-02-06T13:05:04.000Z</time>
      </trkpt>
      <trkpt lat="47.32603" lon="-1.47792">
        <ele>51</ele>
        <time>2021-02-06T13:05:06.000Z</time>
      </trkpt>
      <trkpt lat="47.32616" lon="-1.4779">
        <ele>52</ele>
        <time>2021-02-06T13:05:08.000Z</time>
      </trkpt>
      <trkpt lat="47.32628" lon="-1.47788">
        <ele>53</ele>
        <time>2021-02-06T13:05:10.000Z</time>
      </trkpt>
      <trkpt lat="47.32639" lon="-1.47785">
        <ele>54</ele>
        <time>2021-02-06T13:05:12.000Z</time>
      </trkpt>
      <trkpt lat="47.3265" lon="-1.47783">
        <ele>54</ele>
        <time>2021-02-06T13:05:14.000Z</time>
      </trkpt>
      <trkpt lat="47.32661" lon="-1.4778">
        <ele>55</ele>
        <time>2021-02-06T13:05:16.000Z</time>
      </trkpt>
      <trkpt lat="47.32672" lon="-1.47778">
        <ele>55</ele>
        <time>2021-02-06T13:05:18.000Z</time>
      </trkpt>
      <trkpt lat="47.32688" lon="-1.47774">
        <ele>55</ele>
        <time>2021-02-06T13:05:21.000Z</time>
      </trkpt>
      <trkpt lat="47.32699" lon="-1.47772">
        <ele>55</ele>
        <time>2021-02-06T13:05:23.000Z</time>
      </trkpt>
      <trkpt lat="47.32709" lon="-1.47769">
        <ele>55</ele>
        <time>2021-02-06T13:05:25.000Z</time>
      </trkpt>
      <trkpt lat="47.3272" lon="-1.47766">
        <ele>55</ele>
        <time>2021-02-06T13:05:27.000Z</time>
      </trkpt>
      <trkpt lat="47.32731" lon="-1.47762">
        <ele>55</ele>
        <time>2021-02-06T13:05:29.000Z</time>
      </trkpt>
      <trkpt lat="47.32741" lon="-1.47759">
        <ele>55</ele>
        <time>2021-02-06T13:05:31.000Z</time>
      </trkpt>
      <trkpt lat="47.32751" lon="-1.47757">
        <ele>56</ele>
        <time>2021-02-06T13:05:33.000Z</time>
      </trkpt>
      <trkpt lat="47.32762" lon="-1.47754">
        <ele>57</ele>
        <time>2021-02-06T13:05:35.000Z</time>
      </trkpt>
      <trkpt lat="47.32772" lon="-1.47752">
        <ele>57</ele>
        <time>2021-02-06T13:05:37.000Z</time>
      </trkpt>
      <trkpt lat="47.32789" lon="-1.47747">
        <ele>54</ele>
        <time>2021-02-06T13:05:40.000Z</time>
      </trkpt>
      <trkpt lat="47.32801" lon="-1.47747">
        <ele>55</ele>
        <time>2021-02-06T13:05:42.000Z</time>
      </trkpt>
      <trkpt lat="47.3281" lon="-1.47745">
        <ele>55</ele>
        <time>2021-02-06T13:05:44.000Z</time>
      </trkpt>
      <trkpt lat="47.32821" lon="-1.47743">
        <ele>55</ele>
        <time>2021-02-06T13:05:46.000Z</time>
      </trkpt>
      <trkpt lat="47.32837" lon="-1.4774">
        <ele>56</ele>
        <time>2021-02-06T13:05:49.000Z</time>
      </trkpt>
      <trkpt lat="47.32848" lon="-1.47739">
        <ele>57</ele>
        <time>2021-02-06T13:05:51.000Z</time>
      </trkpt>
      <trkpt lat="47.32864" lon="-1.47737">
        <ele>57</ele>
        <time>2021-02-06T13:05:54.000Z</time>
      </trkpt>
      <trkpt lat="47.32875" lon="-1.47736">
        <ele>57</ele>
        <time>2021-02-06T13:05:56.000Z</time>
      </trkpt>
      <trkpt lat="47.32886" lon="-1.47735">
        <ele>57</ele>
        <time>2021-02-06T13:05:58.000Z</time>
      </trkpt>
      <trkpt lat="47.32897" lon="-1.47735">
        <ele>57</ele>
        <time>2021-02-06T13:06:00.000Z</time>
      </trkpt>
      <trkpt lat="47.32908" lon="-1.47735">
        <ele>57</ele>
        <time>2021-02-06T13:06:02.000Z</time>
      </trkpt>
      <trkpt lat="47.3292" lon="-1.47735">
        <ele>57</ele>
        <time>2021-02-06T13:06:04.000Z</time>
      </trkpt>
      <trkpt lat="47.32932" lon="-1.47733">
        <ele>54</ele>
        <time>2021-02-06T13:06:06.000Z</time>
      </trkpt>
      <trkpt lat="47.32942" lon="-1.47735">
        <ele>55</ele>
        <time>2021-02-06T13:06:08.000Z</time>
      </trkpt>
      <trkpt lat="47.32953" lon="-1.47737">
        <ele>56</ele>
        <time>2021-02-06T13:06:10.000Z</time>
      </trkpt>
      <trkpt lat="47.32964" lon="-1.47739">
        <ele>56</ele>
        <time>2021-02-06T13:06:12.000Z</time>
      </trkpt>
      <trkpt lat="47.32975" lon="-1.47741">
        <ele>56</ele>
        <time>2021-02-06T13:06:14.000Z</time>
      </trkpt>
      <trkpt lat="47.32987" lon="-1.47744">
        <ele>57</ele>
        <time>2021-02-06T13:06:16.000Z</time>
      </trkpt>
      <trkpt lat="47.32997" lon="-1.47746">
        <ele>54</ele>
        <time>2021-02-06T13:06:18.000Z</time>
      </trkpt>
      <trkpt lat="47.33007" lon="-1.47748">
        <ele>52</ele>
        <time>2021-02-06T13:06:20.000Z</time>
      </trkpt>
      <trkpt lat="47.33019" lon="-1.47752">
        <ele>53</ele>
        <time>2021-02-06T13:06:22.000Z</time>
      </trkpt>
      <trkpt lat="47.33032" lon="-1.47756">
        <ele>53</ele>
        <time>2021-02-06T13:06:24.000Z</time>
      </trkpt>
      <trkpt lat="47.33047" lon="-1.47761">
        <ele>55</ele>
        <time>2021-02-06T13:06:27.000Z</time>
      </trkpt>
      <trkpt lat="47.33057" lon="-1.47764">
        <ele>53</ele>
        <time>2021-02-06T13:06:29.000Z</time>
      </trkpt>
      <trkpt lat="47.33066" lon="-1.47772">
        <ele>55</ele>
        <time>2021-02-06T13:06:31.000Z</time>
      </trkpt>
      <trkpt lat="47.33077" lon="-1.4778">
        <ele>55</ele>
        <time>2021-02-06T13:06:33.000Z</time>
      </trkpt>
      <trkpt lat="47.33091" lon="-1.47783">
        <ele>56</ele>
        <time>2021-02-06T13:06:36.000Z</time>
      </trkpt>
      <trkpt lat="47.331" lon="-1.47783">
        <ele>56</ele>
        <time>2021-02-06T13:06:39.000Z</time>
      </trkpt>
      <trkpt lat="47.33106" lon="-1.47798">
        <ele>56</ele>
        <time>2021-02-06T13:06:42.000Z</time>
      </trkpt>
      <trkpt lat="47.33108" lon="-1.4782">
        <ele>58</ele>
        <time>2021-02-06T13:06:45.000Z</time>
      </trkpt>
      <trkpt lat="47.33109" lon="-1.47835">
        <ele>59</ele>
        <time>2021-02-06T13:06:47.000Z</time>
      </trkpt>
      <trkpt lat="47.33111" lon="-1.47852">
        <ele>57</ele>
        <time>2021-02-06T13:06:49.000Z</time>
      </trkpt>
      <trkpt lat="47.33113" lon="-1.4788">
        <ele>55</ele>
        <time>2021-02-06T13:06:52.000Z</time>
      </trkpt>
      <trkpt lat="47.33116" lon="-1.47907">
        <ele>56</ele>
        <time>2021-02-06T13:06:55.000Z</time>
      </trkpt>
      <trkpt lat="47.33118" lon="-1.47926">
        <ele>56</ele>
        <time>2021-02-06T13:06:57.000Z</time>
      </trkpt>
      <trkpt lat="47.33121" lon="-1.47952">
        <ele>56</ele>
        <time>2021-02-06T13:07:00.000Z</time>
      </trkpt>
      <trkpt lat="47.33123" lon="-1.47969">
        <ele>56</ele>
        <time>2021-02-06T13:07:02.000Z</time>
      </trkpt>
      <trkpt lat="47.33126" lon="-1.47987">
        <ele>56</ele>
        <time>2021-02-06T13:07:04.000Z</time>
      </trkpt>
      <trkpt lat="47.33129" lon="-1.48006">
        <ele>55</ele>
        <time>2021-02-06T13:07:06.000Z</time>
      </trkpt>
      <trkpt lat="47.33132" lon="-1.48024">
        <ele>55</ele>
        <time>2021-02-06T13:07:08.000Z</time>
      </trkpt>
      <trkpt lat="47.33136" lon="-1.48043">
        <ele>54</ele>
        <time>2021-02-06T13:07:10.000Z</time>
      </trkpt>
      <trkpt lat="47.3314" lon="-1.48059">
        <ele>54</ele>
        <time>2021-02-06T13:07:12.000Z</time>
      </trkpt>
      <trkpt lat="47.33143" lon="-1.48074">
        <ele>54</ele>
        <time>2021-02-06T13:07:14.000Z</time>
      </trkpt>
      <trkpt lat="47.3315" lon="-1.48087">
        <ele>55</ele>
        <time>2021-02-06T13:07:16.000Z</time>
      </trkpt>
      <trkpt lat="47.33159" lon="-1.4809">
        <ele>55</ele>
        <time>2021-02-06T13:07:18.000Z</time>
      </trkpt>
      <trkpt lat="47.33169" lon="-1.48089">
        <ele>54</ele>
        <time>2021-02-06T13:07:20.000Z</time>
      </trkpt>
      <trkpt lat="47.3318" lon="-1.48087">
        <ele>53</ele>
        <time>2021-02-06T13:07:22.000Z</time>
      </trkpt>
      <trkpt lat="47.33191" lon="-1.48087">
        <ele>55</ele>
        <time>2021-02-06T13:07:24.000Z</time>
      </trkpt>
      <trkpt lat="47.33202" lon="-1.48086">
        <ele>55</ele>
        <time>2021-02-06T13:07:26.000Z</time>
      </trkpt>
      <trkpt lat="47.33213" lon="-1.48085">
        <ele>56</ele>
        <time>2021-02-06T13:07:28.000Z</time>
      </trkpt>
      <trkpt lat="47.33225" lon="-1.48084">
        <ele>55</ele>
        <time>2021-02-06T13:07:30.000Z</time>
      </trkpt>
      <trkpt lat="47.33238" lon="-1.48083">
        <ele>53</ele>
        <time>2021-02-06T13:07:32.000Z</time>
      </trkpt>
      <trkpt lat="47.33248" lon="-1.48084">
        <ele>53</ele>
        <time>2021-02-06T13:07:34.000Z</time>
      </trkpt>
      <trkpt lat="47.33271" lon="-1.48085">
        <ele>54</ele>
        <time>2021-02-06T13:07:38.000Z</time>
      </trkpt>
      <trkpt lat="47.33283" lon="-1.48088">
        <ele>54</ele>
        <time>2021-02-06T13:07:40.000Z</time>
      </trkpt>
      <trkpt lat="47.33294" lon="-1.48088">
        <ele>55</ele>
        <time>2021-02-06T13:07:42.000Z</time>
      </trkpt>
      <trkpt lat="47.33306" lon="-1.4809">
        <ele>54</ele>
        <time>2021-02-06T13:07:44.000Z</time>
      </trkpt>
      <trkpt lat="47.33318" lon="-1.48089">
        <ele>54</ele>
        <time>2021-02-06T13:07:46.000Z</time>
      </trkpt>
      <trkpt lat="47.33336" lon="-1.48092">
        <ele>54</ele>
        <time>2021-02-06T13:07:49.000Z</time>
      </trkpt>
      <trkpt lat="47.33346" lon="-1.48094">
        <ele>55</ele>
        <time>2021-02-06T13:07:51.000Z</time>
      </trkpt>
      <trkpt lat="47.33358" lon="-1.48096">
        <ele>55</ele>
        <time>2021-02-06T13:07:53.000Z</time>
      </trkpt>
      <trkpt lat="47.33369" lon="-1.48096">
        <ele>55</ele>
        <time>2021-02-06T13:07:55.000Z</time>
      </trkpt>
      <trkpt lat="47.33381" lon="-1.48098">
        <ele>55</ele>
        <time>2021-02-06T13:07:57.000Z</time>
      </trkpt>
      <trkpt lat="47.33399" lon="-1.48101">
        <ele>56</ele>
        <time>2021-02-06T13:08:00.000Z</time>
      </trkpt>
      <trkpt lat="47.3341" lon="-1.48103">
        <ele>56</ele>
        <time>2021-02-06T13:08:02.000Z</time>
      </trkpt>
      <trkpt lat="47.33421" lon="-1.48104">
        <ele>57</ele>
        <time>2021-02-06T13:08:04.000Z</time>
      </trkpt>
      <trkpt lat="47.33432" lon="-1.48105">
        <ele>56</ele>
        <time>2021-02-06T13:08:06.000Z</time>
      </trkpt>
      <trkpt lat="47.33443" lon="-1.48106">
        <ele>56</ele>
        <time>2021-02-06T13:08:08.000Z</time>
      </trkpt>
      <trkpt lat="47.33453" lon="-1.48107">
        <ele>56</ele>
        <time>2021-02-06T13:08:10.000Z</time>
      </trkpt>
      <trkpt lat="47.33462" lon="-1.48107">
        <ele>55</ele>
        <time>2021-02-06T13:08:12.000Z</time>
      </trkpt>
      <trkpt lat="47.33474" lon="-1.48112">
        <ele>55</ele>
        <time>2021-02-06T13:08:14.000Z</time>
      </trkpt>
      <trkpt lat="47.33483" lon="-1.48116">
        <ele>56</ele>
        <time>2021-02-06T13:08:16.000Z</time>
      </trkpt>
      <trkpt lat="47.33499" lon="-1.48124">
        <ele>57</ele>
        <time>2021-02-06T13:08:19.000Z</time>
      </trkpt>
      <trkpt lat="47.33509" lon="-1.48134">
        <ele>57</ele>
        <time>2021-02-06T13:08:21.000Z</time>
      </trkpt>
      <trkpt lat="47.33518" lon="-1.48143">
        <ele>56</ele>
        <time>2021-02-06T13:08:23.000Z</time>
      </trkpt>
      <trkpt lat="47.33529" lon="-1.48153">
        <ele>56</ele>
        <time>2021-02-06T13:08:26.000Z</time>
      </trkpt>
      <trkpt lat="47.33539" lon="-1.48159">
        <ele>55</ele>
        <time>2021-02-06T13:08:28.000Z</time>
      </trkpt>
      <trkpt lat="47.33547" lon="-1.48168">
        <ele>56</ele>
        <time>2021-02-06T13:08:30.000Z</time>
      </trkpt>
      <trkpt lat="47.33556" lon="-1.48175">
        <ele>57</ele>
        <time>2021-02-06T13:08:32.000Z</time>
      </trkpt>
      <trkpt lat="47.33565" lon="-1.48182">
        <ele>57</ele>
        <time>2021-02-06T13:08:34.000Z</time>
      </trkpt>
      <trkpt lat="47.33581" lon="-1.48191">
        <ele>58</ele>
        <time>2021-02-06T13:08:37.000Z</time>
      </trkpt>
      <trkpt lat="47.3359" lon="-1.48197">
        <ele>58</ele>
        <time>2021-02-06T13:08:40.000Z</time>
      </trkpt>
      <trkpt lat="47.33599" lon="-1.48201">
        <ele>58</ele>
        <time>2021-02-06T13:08:43.000Z</time>
      </trkpt>
      <trkpt lat="47.33609" lon="-1.48203">
        <ele>59</ele>
        <time>2021-02-06T13:08:47.000Z</time>
      </trkpt>
      <trkpt lat="47.33618" lon="-1.48206">
        <ele>60</ele>
        <time>2021-02-06T13:08:50.000Z</time>
      </trkpt>
      <trkpt lat="47.33632" lon="-1.48213">
        <ele>60</ele>
        <time>2021-02-06T13:08:55.000Z</time>
      </trkpt>
      <trkpt lat="47.33643" lon="-1.4822">
        <ele>60</ele>
        <time>2021-02-06T13:08:58.000Z</time>
      </trkpt>
      <trkpt lat="47.33659" lon="-1.48225">
        <ele>59</ele>
        <time>2021-02-06T13:09:03.000Z</time>
      </trkpt>
      <trkpt lat="47.3367" lon="-1.4823">
        <ele>59</ele>
        <time>2021-02-06T13:09:06.000Z</time>
      </trkpt>
      <trkpt lat="47.33679" lon="-1.48235">
        <ele>59</ele>
        <time>2021-02-06T13:09:09.000Z</time>
      </trkpt>
      <trkpt lat="47.33682" lon="-1.48249">
        <ele>58</ele>
        <time>2021-02-06T13:09:12.000Z</time>
      </trkpt>
      <trkpt lat="47.33687" lon="-1.48262">
        <ele>58</ele>
        <time>2021-02-06T13:09:14.000Z</time>
      </trkpt>
      <trkpt lat="47.33689" lon="-1.48277">
        <ele>59</ele>
        <time>2021-02-06T13:09:16.000Z</time>
      </trkpt>
      <trkpt lat="47.33689" lon="-1.48292">
        <ele>60</ele>
        <time>2021-02-06T13:09:19.000Z</time>
      </trkpt>
      <trkpt lat="47.33688" lon="-1.48307">
        <ele>58</ele>
        <time>2021-02-06T13:09:22.000Z</time>
      </trkpt>
      <trkpt lat="47.33686" lon="-1.48332">
        <ele>56</ele>
        <time>2021-02-06T13:09:26.000Z</time>
      </trkpt>
      <trkpt lat="47.33686" lon="-1.48348">
        <ele>55</ele>
        <time>2021-02-06T13:09:29.000Z</time>
      </trkpt>
      <trkpt lat="47.33686" lon="-1.48362">
        <ele>53</ele>
        <time>2021-02-06T13:09:32.000Z</time>
      </trkpt>
      <trkpt lat="47.33688" lon="-1.48385">
        <ele>54</ele>
        <time>2021-02-06T13:09:36.000Z</time>
      </trkpt>
      <trkpt lat="47.33687" lon="-1.48406">
        <ele>53</ele>
        <time>2021-02-06T13:09:40.000Z</time>
      </trkpt>
      <trkpt lat="47.33694" lon="-1.48422">
        <ele>54</ele>
        <time>2021-02-06T13:09:44.000Z</time>
      </trkpt>
      <trkpt lat="47.33705" lon="-1.4843">
        <ele>56</ele>
        <time>2021-02-06T13:09:47.000Z</time>
      </trkpt>
      <trkpt lat="47.33714" lon="-1.48436">
        <ele>56</ele>
        <time>2021-02-06T13:09:49.000Z</time>
      </trkpt>
      <trkpt lat="47.33723" lon="-1.48442">
        <ele>56</ele>
        <time>2021-02-06T13:09:51.000Z</time>
      </trkpt>
      <trkpt lat="47.33732" lon="-1.48448">
        <ele>56</ele>
        <time>2021-02-06T13:09:53.000Z</time>
      </trkpt>
      <trkpt lat="47.33742" lon="-1.48455">
        <ele>57</ele>
        <time>2021-02-06T13:09:55.000Z</time>
      </trkpt>
      <trkpt lat="47.33751" lon="-1.4846">
        <ele>57</ele>
        <time>2021-02-06T13:09:57.000Z</time>
      </trkpt>
      <trkpt lat="47.33765" lon="-1.48466">
        <ele>55</ele>
        <time>2021-02-06T13:10:00.000Z</time>
      </trkpt>
      <trkpt lat="47.33776" lon="-1.48473">
        <ele>53</ele>
        <time>2021-02-06T13:10:03.000Z</time>
      </trkpt>
      <trkpt lat="47.33787" lon="-1.4848">
        <ele>54</ele>
        <time>2021-02-06T13:10:05.000Z</time>
      </trkpt>
      <trkpt lat="47.33797" lon="-1.48487">
        <ele>55</ele>
        <time>2021-02-06T13:10:07.000Z</time>
      </trkpt>
      <trkpt lat="47.33806" lon="-1.48494">
        <ele>55</ele>
        <time>2021-02-06T13:10:09.000Z</time>
      </trkpt>
      <trkpt lat="47.33817" lon="-1.48497">
        <ele>53</ele>
        <time>2021-02-06T13:10:12.000Z</time>
      </trkpt>
      <trkpt lat="47.3383" lon="-1.48506">
        <ele>54</ele>
        <time>2021-02-06T13:10:15.000Z</time>
      </trkpt>
      <trkpt lat="47.3384" lon="-1.48512">
        <ele>54</ele>
        <time>2021-02-06T13:10:17.000Z</time>
      </trkpt>
      <trkpt lat="47.33849" lon="-1.48517">
        <ele>51</ele>
        <time>2021-02-06T13:10:19.000Z</time>
      </trkpt>
      <trkpt lat="47.33861" lon="-1.4852">
        <ele>52</ele>
        <time>2021-02-06T13:10:23.000Z</time>
      </trkpt>
      <trkpt lat="47.3387" lon="-1.48524">
        <ele>54</ele>
        <time>2021-02-06T13:10:25.000Z</time>
      </trkpt>
      <trkpt lat="47.3388" lon="-1.48529">
        <ele>55</ele>
        <time>2021-02-06T13:10:27.000Z</time>
      </trkpt>
      <trkpt lat="47.33891" lon="-1.48536">
        <ele>55</ele>
        <time>2021-02-06T13:10:30.000Z</time>
      </trkpt>
      <trkpt lat="47.33903" lon="-1.48545">
        <ele>56</ele>
        <time>2021-02-06T13:10:32.000Z</time>
      </trkpt>
      <trkpt lat="47.33915" lon="-1.48552">
        <ele>56</ele>
        <time>2021-02-06T13:10:34.000Z</time>
      </trkpt>
      <trkpt lat="47.33926" lon="-1.48556">
        <ele>55</ele>
        <time>2021-02-06T13:10:36.000Z</time>
      </trkpt>
      <trkpt lat="47.33936" lon="-1.48562">
        <ele>54</ele>
        <time>2021-02-06T13:10:38.000Z</time>
      </trkpt>
      <trkpt lat="47.33948" lon="-1.48569">
        <ele>56</ele>
        <time>2021-02-06T13:10:40.000Z</time>
      </trkpt>
      <trkpt lat="47.33958" lon="-1.48574">
        <ele>54</ele>
        <time>2021-02-06T13:10:42.000Z</time>
      </trkpt>
      <trkpt lat="47.33968" lon="-1.4858">
        <ele>54</ele>
        <time>2021-02-06T13:10:44.000Z</time>
      </trkpt>
      <trkpt lat="47.33977" lon="-1.48589">
        <ele>55</ele>
        <time>2021-02-06T13:10:46.000Z</time>
      </trkpt>
      <trkpt lat="47.33987" lon="-1.48594">
        <ele>56</ele>
        <time>2021-02-06T13:10:48.000Z</time>
      </trkpt>
      <trkpt lat="47.33996" lon="-1.48599">
        <ele>55</ele>
        <time>2021-02-06T13:10:50.000Z</time>
      </trkpt>
      <trkpt lat="47.34007" lon="-1.48603">
        <ele>55</ele>
        <time>2021-02-06T13:10:53.000Z</time>
      </trkpt>
      <trkpt lat="47.34017" lon="-1.48608">
        <ele>55</ele>
        <time>2021-02-06T13:10:56.000Z</time>
      </trkpt>
      <trkpt lat="47.3403" lon="-1.48593">
        <ele>52</ele>
        <time>2021-02-06T13:11:00.000Z</time>
      </trkpt>
      <trkpt lat="47.34036" lon="-1.48581">
        <ele>53</ele>
        <time>2021-02-06T13:11:02.000Z</time>
      </trkpt>
      <trkpt lat="47.34043" lon="-1.48567">
        <ele>53</ele>
        <time>2021-02-06T13:11:04.000Z</time>
      </trkpt>
      <trkpt lat="47.34055" lon="-1.48543">
        <ele>54</ele>
        <time>2021-02-06T13:11:07.000Z</time>
      </trkpt>
      <trkpt lat="47.34063" lon="-1.48528">
        <ele>54</ele>
        <time>2021-02-06T13:11:09.000Z</time>
      </trkpt>
      <trkpt lat="47.34071" lon="-1.48512">
        <ele>54</ele>
        <time>2021-02-06T13:11:11.000Z</time>
      </trkpt>
      <trkpt lat="47.34078" lon="-1.48494">
        <ele>54</ele>
        <time>2021-02-06T13:11:13.000Z</time>
      </trkpt>
      <trkpt lat="47.3409" lon="-1.4847">
        <ele>53</ele>
        <time>2021-02-06T13:11:16.000Z</time>
      </trkpt>
      <trkpt lat="47.34098" lon="-1.48453">
        <ele>53</ele>
        <time>2021-02-06T13:11:18.000Z</time>
      </trkpt>
      <trkpt lat="47.34107" lon="-1.48435">
        <ele>53</ele>
        <time>2021-02-06T13:11:20.000Z</time>
      </trkpt>
      <trkpt lat="47.34115" lon="-1.48421">
        <ele>52</ele>
        <time>2021-02-06T13:11:22.000Z</time>
      </trkpt>
      <trkpt lat="47.34122" lon="-1.48406">
        <ele>52</ele>
        <time>2021-02-06T13:11:24.000Z</time>
      </trkpt>
      <trkpt lat="47.34129" lon="-1.48388">
        <ele>53</ele>
        <time>2021-02-06T13:11:26.000Z</time>
      </trkpt>
      <trkpt lat="47.34137" lon="-1.48372">
        <ele>53</ele>
        <time>2021-02-06T13:11:28.000Z</time>
      </trkpt>
      <trkpt lat="47.34143" lon="-1.48355">
        <ele>53</ele>
        <time>2021-02-06T13:11:30.000Z</time>
      </trkpt>
      <trkpt lat="47.3415" lon="-1.48337">
        <ele>55</ele>
        <time>2021-02-06T13:11:32.000Z</time>
      </trkpt>
      <trkpt lat="47.34159" lon="-1.48322">
        <ele>54</ele>
        <time>2021-02-06T13:11:34.000Z</time>
      </trkpt>
      <trkpt lat="47.34168" lon="-1.48307">
        <ele>54</ele>
        <time>2021-02-06T13:11:36.000Z</time>
      </trkpt>
      <trkpt lat="47.34175" lon="-1.4829">
        <ele>54</ele>
        <time>2021-02-06T13:11:38.000Z</time>
      </trkpt>
      <trkpt lat="47.34183" lon="-1.48274">
        <ele>54</ele>
        <time>2021-02-06T13:11:40.000Z</time>
      </trkpt>
      <trkpt lat="47.34196" lon="-1.48251">
        <ele>54</ele>
        <time>2021-02-06T13:11:43.000Z</time>
      </trkpt>
      <trkpt lat="47.34206" lon="-1.48236">
        <ele>54</ele>
        <time>2021-02-06T13:11:45.000Z</time>
      </trkpt>
      <trkpt lat="47.34216" lon="-1.48221">
        <ele>54</ele>
        <time>2021-02-06T13:11:47.000Z</time>
      </trkpt>
      <trkpt lat="47.34224" lon="-1.48206">
        <ele>53</ele>
        <time>2021-02-06T13:11:49.000Z</time>
      </trkpt>
      <trkpt lat="47.34238" lon="-1.48186">
        <ele>53</ele>
        <time>2021-02-06T13:11:52.000Z</time>
      </trkpt>
      <trkpt lat="47.34246" lon="-1.4817">
        <ele>51</ele>
        <time>2021-02-06T13:11:54.000Z</time>
      </trkpt>
      <trkpt lat="47.34254" lon="-1.48155">
        <ele>52</ele>
        <time>2021-02-06T13:11:56.000Z</time>
      </trkpt>
      <trkpt lat="47.34264" lon="-1.48141">
        <ele>53</ele>
        <time>2021-02-06T13:11:58.000Z</time>
      </trkpt>
      <trkpt lat="47.34273" lon="-1.48127">
        <ele>53</ele>
        <time>2021-02-06T13:12:00.000Z</time>
      </trkpt>
      <trkpt lat="47.34285" lon="-1.48107">
        <ele>51</ele>
        <time>2021-02-06T13:12:03.000Z</time>
      </trkpt>
      <trkpt lat="47.34294" lon="-1.48093">
        <ele>51</ele>
        <time>2021-02-06T13:12:05.000Z</time>
      </trkpt>
      <trkpt lat="47.34309" lon="-1.4807">
        <ele>53</ele>
        <time>2021-02-06T13:12:08.000Z</time>
      </trkpt>
      <trkpt lat="47.34316" lon="-1.48056">
        <ele>52</ele>
        <time>2021-02-06T13:12:10.000Z</time>
      </trkpt>
      <trkpt lat="47.34325" lon="-1.48043">
        <ele>51</ele>
        <time>2021-02-06T13:12:12.000Z</time>
      </trkpt>
      <trkpt lat="47.34334" lon="-1.48029">
        <ele>52</ele>
        <time>2021-02-06T13:12:14.000Z</time>
      </trkpt>
      <trkpt lat="47.34342" lon="-1.48016">
        <ele>51</ele>
        <time>2021-02-06T13:12:16.000Z</time>
      </trkpt>
      <trkpt lat="47.34351" lon="-1.48003">
        <ele>52</ele>
        <time>2021-02-06T13:12:18.000Z</time>
      </trkpt>
      <trkpt lat="47.34361" lon="-1.47987">
        <ele>52</ele>
        <time>2021-02-06T13:12:20.000Z</time>
      </trkpt>
      <trkpt lat="47.3437" lon="-1.47972">
        <ele>52</ele>
        <time>2021-02-06T13:12:22.000Z</time>
      </trkpt>
      <trkpt lat="47.34379" lon="-1.47959">
        <ele>53</ele>
        <time>2021-02-06T13:12:24.000Z</time>
      </trkpt>
      <trkpt lat="47.34387" lon="-1.47945">
        <ele>52</ele>
        <time>2021-02-06T13:12:26.000Z</time>
      </trkpt>
      <trkpt lat="47.34397" lon="-1.47931">
        <ele>52</ele>
        <time>2021-02-06T13:12:28.000Z</time>
      </trkpt>
      <trkpt lat="47.34406" lon="-1.47918">
        <ele>53</ele>
        <time>2021-02-06T13:12:30.000Z</time>
      </trkpt>
      <trkpt lat="47.34415" lon="-1.47905">
        <ele>53</ele>
        <time>2021-02-06T13:12:32.000Z</time>
      </trkpt>
      <trkpt lat="47.34427" lon="-1.47886">
        <ele>51</ele>
        <time>2021-02-06T13:12:35.000Z</time>
      </trkpt>
      <trkpt lat="47.34434" lon="-1.47875">
        <ele>51</ele>
        <time>2021-02-06T13:12:37.000Z</time>
      </trkpt>
      <trkpt lat="47.34451" lon="-1.47859">
        <ele>54</ele>
        <time>2021-02-06T13:12:40.000Z</time>
      </trkpt>
      <trkpt lat="47.34462" lon="-1.47848">
        <ele>54</ele>
        <time>2021-02-06T13:12:42.000Z</time>
      </trkpt>
      <trkpt lat="47.34473" lon="-1.47836">
        <ele>52</ele>
        <time>2021-02-06T13:12:44.000Z</time>
      </trkpt>
      <trkpt lat="47.34483" lon="-1.47826">
        <ele>51</ele>
        <time>2021-02-06T13:12:46.000Z</time>
      </trkpt>
      <trkpt lat="47.34498" lon="-1.47807">
        <ele>51</ele>
        <time>2021-02-06T13:12:49.000Z</time>
      </trkpt>
      <trkpt lat="47.34509" lon="-1.47798">
        <ele>52</ele>
        <time>2021-02-06T13:12:51.000Z</time>
      </trkpt>
      <trkpt lat="47.34519" lon="-1.47787">
        <ele>51</ele>
        <time>2021-02-06T13:12:53.000Z</time>
      </trkpt>
      <trkpt lat="47.34528" lon="-1.47776">
        <ele>51</ele>
        <time>2021-02-06T13:12:55.000Z</time>
      </trkpt>
      <trkpt lat="47.34537" lon="-1.47765">
        <ele>51</ele>
        <time>2021-02-06T13:12:57.000Z</time>
      </trkpt>
      <trkpt lat="47.34552" lon="-1.47748">
        <ele>49</ele>
        <time>2021-02-06T13:13:00.000Z</time>
      </trkpt>
      <trkpt lat="47.34562" lon="-1.47739">
        <ele>49</ele>
        <time>2021-02-06T13:13:02.000Z</time>
      </trkpt>
      <trkpt lat="47.34572" lon="-1.47728">
        <ele>50</ele>
        <time>2021-02-06T13:13:04.000Z</time>
      </trkpt>
      <trkpt lat="47.34581" lon="-1.47717">
        <ele>50</ele>
        <time>2021-02-06T13:13:06.000Z</time>
      </trkpt>
      <trkpt lat="47.34592" lon="-1.47704">
        <ele>50</ele>
        <time>2021-02-06T13:13:08.000Z</time>
      </trkpt>
      <trkpt lat="47.34602" lon="-1.47695">
        <ele>50</ele>
        <time>2021-02-06T13:13:10.000Z</time>
      </trkpt>
      <trkpt lat="47.3461" lon="-1.47684">
        <ele>52</ele>
        <time>2021-02-06T13:13:12.000Z</time>
      </trkpt>
      <trkpt lat="47.34621" lon="-1.47673">
        <ele>51</ele>
        <time>2021-02-06T13:13:14.000Z</time>
      </trkpt>
      <trkpt lat="47.34635" lon="-1.47657">
        <ele>50</ele>
        <time>2021-02-06T13:13:17.000Z</time>
      </trkpt>
      <trkpt lat="47.34644" lon="-1.47647">
        <ele>51</ele>
        <time>2021-02-06T13:13:19.000Z</time>
      </trkpt>
      <trkpt lat="47.34653" lon="-1.47636">
        <ele>51</ele>
        <time>2021-02-06T13:13:21.000Z</time>
      </trkpt>
      <trkpt lat="47.34662" lon="-1.47625">
        <ele>51</ele>
        <time>2021-02-06T13:13:23.000Z</time>
      </trkpt>
      <trkpt lat="47.34672" lon="-1.47615">
        <ele>51</ele>
        <time>2021-02-06T13:13:25.000Z</time>
      </trkpt>
      <trkpt lat="47.34681" lon="-1.47604">
        <ele>52</ele>
        <time>2021-02-06T13:13:27.000Z</time>
      </trkpt>
      <trkpt lat="47.34691" lon="-1.47594">
        <ele>52</ele>
        <time>2021-02-06T13:13:29.000Z</time>
      </trkpt>
      <trkpt lat="47.347" lon="-1.47583">
        <ele>53</ele>
        <time>2021-02-06T13:13:31.000Z</time>
      </trkpt>
      <trkpt lat="47.3471" lon="-1.47572">
        <ele>53</ele>
        <time>2021-02-06T13:13:33.000Z</time>
      </trkpt>
      <trkpt lat="47.34719" lon="-1.47562">
        <ele>53</ele>
        <time>2021-02-06T13:13:35.000Z</time>
      </trkpt>
      <trkpt lat="47.34728" lon="-1.47552">
        <ele>52</ele>
        <time>2021-02-06T13:13:37.000Z</time>
      </trkpt>
      <trkpt lat="47.34738" lon="-1.47542">
        <ele>53</ele>
        <time>2021-02-06T13:13:39.000Z</time>
      </trkpt>
      <trkpt lat="47.34748" lon="-1.4753">
        <ele>53</ele>
        <time>2021-02-06T13:13:41.000Z</time>
      </trkpt>
      <trkpt lat="47.34757" lon="-1.47517">
        <ele>52</ele>
        <time>2021-02-06T13:13:43.000Z</time>
      </trkpt>
      <trkpt lat="47.34765" lon="-1.47504">
        <ele>53</ele>
        <time>2021-02-06T13:13:45.000Z</time>
      </trkpt>
      <trkpt lat="47.34774" lon="-1.4749">
        <ele>53</ele>
        <time>2021-02-06T13:13:47.000Z</time>
      </trkpt>
      <trkpt lat="47.34782" lon="-1.47477">
        <ele>52</ele>
        <time>2021-02-06T13:13:49.000Z</time>
      </trkpt>
      <trkpt lat="47.34791" lon="-1.47455">
        <ele>51</ele>
        <time>2021-02-06T13:13:52.000Z</time>
      </trkpt>
      <trkpt lat="47.34797" lon="-1.47438">
        <ele>51</ele>
        <time>2021-02-06T13:13:54.000Z</time>
      </trkpt>
      <trkpt lat="47.34802" lon="-1.47421">
        <ele>51</ele>
        <time>2021-02-06T13:13:56.000Z</time>
      </trkpt>
      <trkpt lat="47.34809" lon="-1.47405">
        <ele>51</ele>
        <time>2021-02-06T13:13:58.000Z</time>
      </trkpt>
      <trkpt lat="47.34816" lon="-1.47389">
        <ele>51</ele>
        <time>2021-02-06T13:14:00.000Z</time>
      </trkpt>
      <trkpt lat="47.34823" lon="-1.47376">
        <ele>50</ele>
        <time>2021-02-06T13:14:02.000Z</time>
      </trkpt>
      <trkpt lat="47.34833" lon="-1.47358">
        <ele>50</ele>
        <time>2021-02-06T13:14:05.000Z</time>
      </trkpt>
      <trkpt lat="47.3484" lon="-1.47344">
        <ele>50</ele>
        <time>2021-02-06T13:14:07.000Z</time>
      </trkpt>
      <trkpt lat="47.3485" lon="-1.47332">
        <ele>51</ele>
        <time>2021-02-06T13:14:09.000Z</time>
      </trkpt>
      <trkpt lat="47.34861" lon="-1.47322">
        <ele>51</ele>
        <time>2021-02-06T13:14:11.000Z</time>
      </trkpt>
      <trkpt lat="47.34872" lon="-1.47313">
        <ele>52</ele>
        <time>2021-02-06T13:14:13.000Z</time>
      </trkpt>
      <trkpt lat="47.34889" lon="-1.47301">
        <ele>53</ele>
        <time>2021-02-06T13:14:16.000Z</time>
      </trkpt>
      <trkpt lat="47.34899" lon="-1.47293">
        <ele>53</ele>
        <time>2021-02-06T13:14:18.000Z</time>
      </trkpt>
      <trkpt lat="47.34908" lon="-1.47286">
        <ele>54</ele>
        <time>2021-02-06T13:14:20.000Z</time>
      </trkpt>
      <trkpt lat="47.34917" lon="-1.47279">
        <ele>54</ele>
        <time>2021-02-06T13:14:22.000Z</time>
      </trkpt>
      <trkpt lat="47.34926" lon="-1.47272">
        <ele>54</ele>
        <time>2021-02-06T13:14:24.000Z</time>
      </trkpt>
      <trkpt lat="47.34936" lon="-1.47267">
        <ele>54</ele>
        <time>2021-02-06T13:14:26.000Z</time>
      </trkpt>
      <trkpt lat="47.34944" lon="-1.47262">
        <ele>55</ele>
        <time>2021-02-06T13:14:28.000Z</time>
      </trkpt>
      <trkpt lat="47.34957" lon="-1.47256">
        <ele>56</ele>
        <time>2021-02-06T13:14:31.000Z</time>
      </trkpt>
      <trkpt lat="47.34966" lon="-1.47253">
        <ele>57</ele>
        <time>2021-02-06T13:14:33.000Z</time>
      </trkpt>
      <trkpt lat="47.34975" lon="-1.47248">
        <ele>56</ele>
        <time>2021-02-06T13:14:35.000Z</time>
      </trkpt>
      <trkpt lat="47.34987" lon="-1.4724">
        <ele>57</ele>
        <time>2021-02-06T13:14:38.000Z</time>
      </trkpt>
      <trkpt lat="47.34998" lon="-1.47227">
        <ele>56</ele>
        <time>2021-02-06T13:14:41.000Z</time>
      </trkpt>
      <trkpt lat="47.35005" lon="-1.47218">
        <ele>56</ele>
        <time>2021-02-06T13:14:43.000Z</time>
      </trkpt>
      <trkpt lat="47.35014" lon="-1.47213">
        <ele>57</ele>
        <time>2021-02-06T13:14:45.000Z</time>
      </trkpt>
      <trkpt lat="47.35027" lon="-1.47209">
        <ele>58</ele>
        <time>2021-02-06T13:14:48.000Z</time>
      </trkpt>
      <trkpt lat="47.35037" lon="-1.47212">
        <ele>57</ele>
        <time>2021-02-06T13:14:50.000Z</time>
      </trkpt>
      <trkpt lat="47.35047" lon="-1.47217">
        <ele>58</ele>
        <time>2021-02-06T13:14:52.000Z</time>
      </trkpt>
      <trkpt lat="47.35056" lon="-1.47222">
        <ele>58</ele>
        <time>2021-02-06T13:14:54.000Z</time>
      </trkpt>
      <trkpt lat="47.35066" lon="-1.47225">
        <ele>58</ele>
        <time>2021-02-06T13:14:56.000Z</time>
      </trkpt>
      <trkpt lat="47.35077" lon="-1.47228">
        <ele>58</ele>
        <time>2021-02-06T13:14:58.000Z</time>
      </trkpt>
      <trkpt lat="47.35093" lon="-1.4723">
        <ele>59</ele>
        <time>2021-02-06T13:15:01.000Z</time>
      </trkpt>
      <trkpt lat="47.35104" lon="-1.47234">
        <ele>59</ele>
        <time>2021-02-06T13:15:03.000Z</time>
      </trkpt>
      <trkpt lat="47.35113" lon="-1.47236">
        <ele>59</ele>
        <time>2021-02-06T13:15:05.000Z</time>
      </trkpt>
      <trkpt lat="47.35127" lon="-1.47238">
        <ele>58</ele>
        <time>2021-02-06T13:15:08.000Z</time>
      </trkpt>
      <trkpt lat="47.3514" lon="-1.4724">
        <ele>57</ele>
        <time>2021-02-06T13:15:10.000Z</time>
      </trkpt>
      <trkpt lat="47.35152" lon="-1.47242">
        <ele>57</ele>
        <time>2021-02-06T13:15:12.000Z</time>
      </trkpt>
      <trkpt lat="47.35163" lon="-1.4724">
        <ele>57</ele>
        <time>2021-02-06T13:15:14.000Z</time>
      </trkpt>
      <trkpt lat="47.35173" lon="-1.47237">
        <ele>57</ele>
        <time>2021-02-06T13:15:16.000Z</time>
      </trkpt>
      <trkpt lat="47.35183" lon="-1.47234">
        <ele>58</ele>
        <time>2021-02-06T13:15:18.000Z</time>
      </trkpt>
      <trkpt lat="47.35193" lon="-1.4723">
        <ele>58</ele>
        <time>2021-02-06T13:15:20.000Z</time>
      </trkpt>
      <trkpt lat="47.35204" lon="-1.4723">
        <ele>58</ele>
        <time>2021-02-06T13:15:22.000Z</time>
      </trkpt>
      <trkpt lat="47.35214" lon="-1.47236">
        <ele>58</ele>
        <time>2021-02-06T13:15:24.000Z</time>
      </trkpt>
      <trkpt lat="47.35223" lon="-1.47247">
        <ele>59</ele>
        <time>2021-02-06T13:15:26.000Z</time>
      </trkpt>
      <trkpt lat="47.3523" lon="-1.4726">
        <ele>59</ele>
        <time>2021-02-06T13:15:28.000Z</time>
      </trkpt>
      <trkpt lat="47.3524" lon="-1.4728">
        <ele>59</ele>
        <time>2021-02-06T13:15:31.000Z</time>
      </trkpt>
      <trkpt lat="47.35247" lon="-1.47294">
        <ele>59</ele>
        <time>2021-02-06T13:15:33.000Z</time>
      </trkpt>
      <trkpt lat="47.35262" lon="-1.47296">
        <ele>59</ele>
        <time>2021-02-06T13:15:36.000Z</time>
      </trkpt>
      <trkpt lat="47.35269" lon="-1.47286">
        <ele>58</ele>
        <time>2021-02-06T13:15:38.000Z</time>
      </trkpt>
      <trkpt lat="47.35283" lon="-1.4728">
        <ele>58</ele>
        <time>2021-02-06T13:15:41.000Z</time>
      </trkpt>
      <trkpt lat="47.35295" lon="-1.4728">
        <ele>58</ele>
        <time>2021-02-06T13:15:43.000Z</time>
      </trkpt>
      <trkpt lat="47.35305" lon="-1.47278">
        <ele>57</ele>
        <time>2021-02-06T13:15:45.000Z</time>
      </trkpt>
      <trkpt lat="47.3532" lon="-1.47277">
        <ele>57</ele>
        <time>2021-02-06T13:15:48.000Z</time>
      </trkpt>
      <trkpt lat="47.35329" lon="-1.47276">
        <ele>56</ele>
        <time>2021-02-06T13:15:50.000Z</time>
      </trkpt>
      <trkpt lat="47.3534" lon="-1.47276">
        <ele>57</ele>
        <time>2021-02-06T13:15:52.000Z</time>
      </trkpt>
      <trkpt lat="47.35349" lon="-1.47273">
        <ele>56</ele>
        <time>2021-02-06T13:15:55.000Z</time>
      </trkpt>
      <trkpt lat="47.35364" lon="-1.47272">
        <ele>58</ele>
        <time>2021-02-06T13:15:58.000Z</time>
      </trkpt>
      <trkpt lat="47.35373" lon="-1.47266">
        <ele>60</ele>
        <time>2021-02-06T13:16:00.000Z</time>
      </trkpt>
      <trkpt lat="47.35381" lon="-1.47256">
        <ele>60</ele>
        <time>2021-02-06T13:16:02.000Z</time>
      </trkpt>
      <trkpt lat="47.35392" lon="-1.47247">
        <ele>62</ele>
        <time>2021-02-06T13:16:05.000Z</time>
      </trkpt>
      <trkpt lat="47.354" lon="-1.47242">
        <ele>63</ele>
        <time>2021-02-06T13:16:07.000Z</time>
      </trkpt>
      <trkpt lat="47.35412" lon="-1.47234">
        <ele>64</ele>
        <time>2021-02-06T13:16:10.000Z</time>
      </trkpt>
      <trkpt lat="47.35423" lon="-1.47224">
        <ele>64</ele>
        <time>2021-02-06T13:16:13.000Z</time>
      </trkpt>
      <trkpt lat="47.35432" lon="-1.47217">
        <ele>64</ele>
        <time>2021-02-06T13:16:15.000Z</time>
      </trkpt>
      <trkpt lat="47.35441" lon="-1.4721">
        <ele>65</ele>
        <time>2021-02-06T13:16:17.000Z</time>
      </trkpt>
      <trkpt lat="47.35448" lon="-1.47203">
        <ele>65</ele>
        <time>2021-02-06T13:16:19.000Z</time>
      </trkpt>
      <trkpt lat="47.3546" lon="-1.47194">
        <ele>66</ele>
        <time>2021-02-06T13:16:22.000Z</time>
      </trkpt>
      <trkpt lat="47.35468" lon="-1.47186">
        <ele>66</ele>
        <time>2021-02-06T13:16:24.000Z</time>
      </trkpt>
      <trkpt lat="47.35476" lon="-1.47179">
        <ele>67</ele>
        <time>2021-02-06T13:16:26.000Z</time>
      </trkpt>
      <trkpt lat="47.35487" lon="-1.47169">
        <ele>67</ele>
        <time>2021-02-06T13:16:29.000Z</time>
      </trkpt>
      <trkpt lat="47.35495" lon="-1.47162">
        <ele>68</ele>
        <time>2021-02-06T13:16:31.000Z</time>
      </trkpt>
      <trkpt lat="47.35503" lon="-1.47155">
        <ele>68</ele>
        <time>2021-02-06T13:16:33.000Z</time>
      </trkpt>
      <trkpt lat="47.35517" lon="-1.47144">
        <ele>66</ele>
        <time>2021-02-06T13:16:36.000Z</time>
      </trkpt>
      <trkpt lat="47.35529" lon="-1.47132">
        <ele>67</ele>
        <time>2021-02-06T13:16:39.000Z</time>
      </trkpt>
      <trkpt lat="47.35538" lon="-1.47124">
        <ele>67</ele>
        <time>2021-02-06T13:16:41.000Z</time>
      </trkpt>
      <trkpt lat="47.35547" lon="-1.47114">
        <ele>66</ele>
        <time>2021-02-06T13:16:43.000Z</time>
      </trkpt>
      <trkpt lat="47.35561" lon="-1.47103">
        <ele>63</ele>
        <time>2021-02-06T13:16:46.000Z</time>
      </trkpt>
      <trkpt lat="47.35574" lon="-1.47093">
        <ele>64</ele>
        <time>2021-02-06T13:16:49.000Z</time>
      </trkpt>
      <trkpt lat="47.35586" lon="-1.47082">
        <ele>63</ele>
        <time>2021-02-06T13:16:52.000Z</time>
      </trkpt>
      <trkpt lat="47.35598" lon="-1.47074">
        <ele>66</ele>
        <time>2021-02-06T13:16:55.000Z</time>
      </trkpt>
      <trkpt lat="47.35607" lon="-1.47067">
        <ele>66</ele>
        <time>2021-02-06T13:16:57.000Z</time>
      </trkpt>
      <trkpt lat="47.35617" lon="-1.47059">
        <ele>66</ele>
        <time>2021-02-06T13:16:59.000Z</time>
      </trkpt>
      <trkpt lat="47.35627" lon="-1.47051">
        <ele>65</ele>
        <time>2021-02-06T13:17:01.000Z</time>
      </trkpt>
      <trkpt lat="47.3564" lon="-1.4704">
        <ele>65</ele>
        <time>2021-02-06T13:17:03.000Z</time>
      </trkpt>
      <trkpt lat="47.35651" lon="-1.4703">
        <ele>63</ele>
        <time>2021-02-06T13:17:05.000Z</time>
      </trkpt>
      <trkpt lat="47.35663" lon="-1.47018">
        <ele>61</ele>
        <time>2021-02-06T13:17:07.000Z</time>
      </trkpt>
      <trkpt lat="47.3569" lon="-1.46996">
        <ele>56</ele>
        <time>2021-02-06T13:17:11.000Z</time>
      </trkpt>
      <trkpt lat="47.35703" lon="-1.46983">
        <ele>54</ele>
        <time>2021-02-06T13:17:13.000Z</time>
      </trkpt>
      <trkpt lat="47.35717" lon="-1.4697">
        <ele>53</ele>
        <time>2021-02-06T13:17:15.000Z</time>
      </trkpt>
      <trkpt lat="47.35729" lon="-1.46959">
        <ele>54</ele>
        <time>2021-02-06T13:17:17.000Z</time>
      </trkpt>
      <trkpt lat="47.35738" lon="-1.46949">
        <ele>52</ele>
        <time>2021-02-06T13:17:19.000Z</time>
      </trkpt>
      <trkpt lat="47.35742" lon="-1.46919">
        <ele>53</ele>
        <time>2021-02-06T13:17:23.000Z</time>
      </trkpt>
      <trkpt lat="47.35742" lon="-1.46902">
        <ele>59</ele>
        <time>2021-02-06T13:17:25.000Z</time>
      </trkpt>
      <trkpt lat="47.35738" lon="-1.46875">
        <ele>53</ele>
        <time>2021-02-06T13:17:28.000Z</time>
      </trkpt>
      <trkpt lat="47.35735" lon="-1.46848">
        <ele>52</ele>
        <time>2021-02-06T13:17:31.000Z</time>
      </trkpt>
      <trkpt lat="47.35732" lon="-1.46831">
        <ele>53</ele>
        <time>2021-02-06T13:17:33.000Z</time>
      </trkpt>
      <trkpt lat="47.35731" lon="-1.46814">
        <ele>52</ele>
        <time>2021-02-06T13:17:35.000Z</time>
      </trkpt>
      <trkpt lat="47.35732" lon="-1.46796">
        <ele>52</ele>
        <time>2021-02-06T13:17:37.000Z</time>
      </trkpt>
      <trkpt lat="47.35734" lon="-1.46779">
        <ele>52</ele>
        <time>2021-02-06T13:17:39.000Z</time>
      </trkpt>
      <trkpt lat="47.35737" lon="-1.46762">
        <ele>53</ele>
        <time>2021-02-06T13:17:41.000Z</time>
      </trkpt>
      <trkpt lat="47.3574" lon="-1.46745">
        <ele>53</ele>
        <time>2021-02-06T13:17:43.000Z</time>
      </trkpt>
      <trkpt lat="47.35742" lon="-1.46728">
        <ele>52</ele>
        <time>2021-02-06T13:17:45.000Z</time>
      </trkpt>
      <trkpt lat="47.35744" lon="-1.467">
        <ele>52</ele>
        <time>2021-02-06T13:17:48.000Z</time>
      </trkpt>
      <trkpt lat="47.35746" lon="-1.46682">
        <ele>50</ele>
        <time>2021-02-06T13:17:50.000Z</time>
      </trkpt>
      <trkpt lat="47.3575" lon="-1.46667">
        <ele>50</ele>
        <time>2021-02-06T13:17:52.000Z</time>
      </trkpt>
      <trkpt lat="47.35754" lon="-1.46651">
        <ele>48</ele>
        <time>2021-02-06T13:17:54.000Z</time>
      </trkpt>
      <trkpt lat="47.35765" lon="-1.46638">
        <ele>48</ele>
        <time>2021-02-06T13:17:56.000Z</time>
      </trkpt>
      <trkpt lat="47.35777" lon="-1.46628">
        <ele>50</ele>
        <time>2021-02-06T13:17:58.000Z</time>
      </trkpt>
      <trkpt lat="47.35789" lon="-1.46618">
        <ele>50</ele>
        <time>2021-02-06T13:18:00.000Z</time>
      </trkpt>
      <trkpt lat="47.358" lon="-1.46608">
        <ele>51</ele>
        <time>2021-02-06T13:18:02.000Z</time>
      </trkpt>
      <trkpt lat="47.35812" lon="-1.466">
        <ele>51</ele>
        <time>2021-02-06T13:18:04.000Z</time>
      </trkpt>
      <trkpt lat="47.35823" lon="-1.46591">
        <ele>51</ele>
        <time>2021-02-06T13:18:06.000Z</time>
      </trkpt>
      <trkpt lat="47.35834" lon="-1.46582">
        <ele>51</ele>
        <time>2021-02-06T13:18:08.000Z</time>
      </trkpt>
      <trkpt lat="47.35846" lon="-1.46573">
        <ele>50</ele>
        <time>2021-02-06T13:18:10.000Z</time>
      </trkpt>
      <trkpt lat="47.35857" lon="-1.46563">
        <ele>50</ele>
        <time>2021-02-06T13:18:12.000Z</time>
      </trkpt>
      <trkpt lat="47.35868" lon="-1.46554">
        <ele>51</ele>
        <time>2021-02-06T13:18:14.000Z</time>
      </trkpt>
      <trkpt lat="47.35879" lon="-1.46544">
        <ele>51</ele>
        <time>2021-02-06T13:18:16.000Z</time>
      </trkpt>
      <trkpt lat="47.35886" lon="-1.46529">
        <ele>51</ele>
        <time>2021-02-06T13:18:18.000Z</time>
      </trkpt>
      <trkpt lat="47.35891" lon="-1.46511">
        <ele>52</ele>
        <time>2021-02-06T13:18:20.000Z</time>
      </trkpt>
      <trkpt lat="47.35894" lon="-1.46492">
        <ele>52</ele>
        <time>2021-02-06T13:18:22.000Z</time>
      </trkpt>
      <trkpt lat="47.35897" lon="-1.46473">
        <ele>52</ele>
        <time>2021-02-06T13:18:24.000Z</time>
      </trkpt>
      <trkpt lat="47.35898" lon="-1.46456">
        <ele>50</ele>
        <time>2021-02-06T13:18:26.000Z</time>
      </trkpt>
      <trkpt lat="47.35902" lon="-1.46438">
        <ele>50</ele>
        <time>2021-02-06T13:18:28.000Z</time>
      </trkpt>
      <trkpt lat="47.35905" lon="-1.46419">
        <ele>51</ele>
        <time>2021-02-06T13:18:30.000Z</time>
      </trkpt>
      <trkpt lat="47.35909" lon="-1.46396">
        <ele>52</ele>
        <time>2021-02-06T13:18:33.000Z</time>
      </trkpt>
      <trkpt lat="47.35904" lon="-1.46382">
        <ele>50</ele>
        <time>2021-02-06T13:18:35.000Z</time>
      </trkpt>
      <trkpt lat="47.35899" lon="-1.46367">
        <ele>51</ele>
        <time>2021-02-06T13:18:37.000Z</time>
      </trkpt>
      <trkpt lat="47.3589" lon="-1.46353">
        <ele>52</ele>
        <time>2021-02-06T13:18:39.000Z</time>
      </trkpt>
      <trkpt lat="47.3588" lon="-1.4634">
        <ele>53</ele>
        <time>2021-02-06T13:18:41.000Z</time>
      </trkpt>
      <trkpt lat="47.35871" lon="-1.46328">
        <ele>52</ele>
        <time>2021-02-06T13:18:43.000Z</time>
      </trkpt>
      <trkpt lat="47.35861" lon="-1.46317">
        <ele>53</ele>
        <time>2021-02-06T13:18:45.000Z</time>
      </trkpt>
      <trkpt lat="47.35852" lon="-1.46303">
        <ele>52</ele>
        <time>2021-02-06T13:18:47.000Z</time>
      </trkpt>
      <trkpt lat="47.35845" lon="-1.46289">
        <ele>53</ele>
        <time>2021-02-06T13:18:49.000Z</time>
      </trkpt>
      <trkpt lat="47.35838" lon="-1.46272">
        <ele>54</ele>
        <time>2021-02-06T13:18:51.000Z</time>
      </trkpt>
      <trkpt lat="47.35832" lon="-1.46255">
        <ele>52</ele>
        <time>2021-02-06T13:18:53.000Z</time>
      </trkpt>
      <trkpt lat="47.35831" lon="-1.46235">
        <ele>52</ele>
        <time>2021-02-06T13:18:55.000Z</time>
      </trkpt>
      <trkpt lat="47.35835" lon="-1.46216">
        <ele>52</ele>
        <time>2021-02-06T13:18:57.000Z</time>
      </trkpt>
      <trkpt lat="47.3584" lon="-1.46198">
        <ele>53</ele>
        <time>2021-02-06T13:18:59.000Z</time>
      </trkpt>
      <trkpt lat="47.35843" lon="-1.46181">
        <ele>52</ele>
        <time>2021-02-06T13:19:01.000Z</time>
      </trkpt>
      <trkpt lat="47.35842" lon="-1.46163">
        <ele>52</ele>
        <time>2021-02-06T13:19:03.000Z</time>
      </trkpt>
      <trkpt lat="47.35839" lon="-1.46144">
        <ele>52</ele>
        <time>2021-02-06T13:19:05.000Z</time>
      </trkpt>
      <trkpt lat="47.35835" lon="-1.46126">
        <ele>51</ele>
        <time>2021-02-06T13:19:07.000Z</time>
      </trkpt>
      <trkpt lat="47.35831" lon="-1.4611">
        <ele>52</ele>
        <time>2021-02-06T13:19:09.000Z</time>
      </trkpt>
      <trkpt lat="47.35827" lon="-1.46095">
        <ele>52</ele>
        <time>2021-02-06T13:19:11.000Z</time>
      </trkpt>
      <trkpt lat="47.35819" lon="-1.46071">
        <ele>52</ele>
        <time>2021-02-06T13:19:14.000Z</time>
      </trkpt>
      <trkpt lat="47.35812" lon="-1.46047">
        <ele>53</ele>
        <time>2021-02-06T13:19:17.000Z</time>
      </trkpt>
      <trkpt lat="47.35806" lon="-1.4603">
        <ele>54</ele>
        <time>2021-02-06T13:19:19.000Z</time>
      </trkpt>
      <trkpt lat="47.35802" lon="-1.46006">
        <ele>56</ele>
        <time>2021-02-06T13:19:22.000Z</time>
      </trkpt>
      <trkpt lat="47.35798" lon="-1.45989">
        <ele>56</ele>
        <time>2021-02-06T13:19:24.000Z</time>
      </trkpt>
      <trkpt lat="47.35799" lon="-1.45972">
        <ele>56</ele>
        <time>2021-02-06T13:19:26.000Z</time>
      </trkpt>
      <trkpt lat="47.35799" lon="-1.45955">
        <ele>56</ele>
        <time>2021-02-06T13:19:28.000Z</time>
      </trkpt>
      <trkpt lat="47.35796" lon="-1.45928">
        <ele>55</ele>
        <time>2021-02-06T13:19:31.000Z</time>
      </trkpt>
      <trkpt lat="47.35798" lon="-1.45913">
        <ele>57</ele>
        <time>2021-02-06T13:19:33.000Z</time>
      </trkpt>
      <trkpt lat="47.35798" lon="-1.45897">
        <ele>58</ele>
        <time>2021-02-06T13:19:35.000Z</time>
      </trkpt>
      <trkpt lat="47.35798" lon="-1.4588">
        <ele>59</ele>
        <time>2021-02-06T13:19:37.000Z</time>
      </trkpt>
      <trkpt lat="47.35796" lon="-1.45863">
        <ele>57</ele>
        <time>2021-02-06T13:19:39.000Z</time>
      </trkpt>
      <trkpt lat="47.35796" lon="-1.45847">
        <ele>54</ele>
        <time>2021-02-06T13:19:41.000Z</time>
      </trkpt>
      <trkpt lat="47.35795" lon="-1.4583">
        <ele>55</ele>
        <time>2021-02-06T13:19:43.000Z</time>
      </trkpt>
      <trkpt lat="47.35795" lon="-1.45812">
        <ele>55</ele>
        <time>2021-02-06T13:19:45.000Z</time>
      </trkpt>
      <trkpt lat="47.35795" lon="-1.45793">
        <ele>56</ele>
        <time>2021-02-06T13:19:47.000Z</time>
      </trkpt>
      <trkpt lat="47.35796" lon="-1.45776">
        <ele>56</ele>
        <time>2021-02-06T13:19:49.000Z</time>
      </trkpt>
      <trkpt lat="47.35795" lon="-1.45759">
        <ele>56</ele>
        <time>2021-02-06T13:19:51.000Z</time>
      </trkpt>
      <trkpt lat="47.35794" lon="-1.45743">
        <ele>57</ele>
        <time>2021-02-06T13:19:53.000Z</time>
      </trkpt>
      <trkpt lat="47.35792" lon="-1.45726">
        <ele>58</ele>
        <time>2021-02-06T13:19:57.000Z</time>
      </trkpt>
      <trkpt lat="47.35786" lon="-1.45714">
        <ele>56</ele>
        <time>2021-02-06T13:20:08.000Z</time>
      </trkpt>
      <trkpt lat="47.35781" lon="-1.457">
        <ele>54</ele>
        <time>2021-02-06T13:20:10.000Z</time>
      </trkpt>
      <trkpt lat="47.35774" lon="-1.45684">
        <ele>56</ele>
        <time>2021-02-06T13:20:13.000Z</time>
      </trkpt>
      <trkpt lat="47.35771" lon="-1.45664">
        <ele>59</ele>
        <time>2021-02-06T13:20:16.000Z</time>
      </trkpt>
      <trkpt lat="47.35768" lon="-1.45649">
        <ele>59</ele>
        <time>2021-02-06T13:20:18.000Z</time>
      </trkpt>
      <trkpt lat="47.35766" lon="-1.45633">
        <ele>59</ele>
        <time>2021-02-06T13:20:20.000Z</time>
      </trkpt>
      <trkpt lat="47.35764" lon="-1.45617">
        <ele>60</ele>
        <time>2021-02-06T13:20:22.000Z</time>
      </trkpt>
      <trkpt lat="47.35762" lon="-1.45602">
        <ele>60</ele>
        <time>2021-02-06T13:20:24.000Z</time>
      </trkpt>
      <trkpt lat="47.35761" lon="-1.45586">
        <ele>60</ele>
        <time>2021-02-06T13:20:26.000Z</time>
      </trkpt>
      <trkpt lat="47.35762" lon="-1.45571">
        <ele>61</ele>
        <time>2021-02-06T13:20:28.000Z</time>
      </trkpt>
      <trkpt lat="47.35764" lon="-1.45555">
        <ele>61</ele>
        <time>2021-02-06T13:20:30.000Z</time>
      </trkpt>
      <trkpt lat="47.35767" lon="-1.45539">
        <ele>61</ele>
        <time>2021-02-06T13:20:32.000Z</time>
      </trkpt>
      <trkpt lat="47.35771" lon="-1.45523">
        <ele>61</ele>
        <time>2021-02-06T13:20:34.000Z</time>
      </trkpt>
      <trkpt lat="47.35779" lon="-1.45499">
        <ele>61</ele>
        <time>2021-02-06T13:20:37.000Z</time>
      </trkpt>
      <trkpt lat="47.35788" lon="-1.45476">
        <ele>60</ele>
        <time>2021-02-06T13:20:40.000Z</time>
      </trkpt>
      <trkpt lat="47.35793" lon="-1.4546">
        <ele>60</ele>
        <time>2021-02-06T13:20:42.000Z</time>
      </trkpt>
      <trkpt lat="47.35797" lon="-1.45443">
        <ele>61</ele>
        <time>2021-02-06T13:20:44.000Z</time>
      </trkpt>
      <trkpt lat="47.358" lon="-1.45428">
        <ele>58</ele>
        <time>2021-02-06T13:20:46.000Z</time>
      </trkpt>
      <trkpt lat="47.35799" lon="-1.45403">
        <ele>56</ele>
        <time>2021-02-06T13:20:49.000Z</time>
      </trkpt>
      <trkpt lat="47.35798" lon="-1.45384">
        <ele>56</ele>
        <time>2021-02-06T13:20:51.000Z</time>
      </trkpt>
      <trkpt lat="47.35795" lon="-1.45364">
        <ele>59</ele>
        <time>2021-02-06T13:20:53.000Z</time>
      </trkpt>
      <trkpt lat="47.35793" lon="-1.45345">
        <ele>60</ele>
        <time>2021-02-06T13:20:55.000Z</time>
      </trkpt>
      <trkpt lat="47.3579" lon="-1.45328">
        <ele>61</ele>
        <time>2021-02-06T13:20:57.000Z</time>
      </trkpt>
      <trkpt lat="47.35787" lon="-1.45311">
        <ele>62</ele>
        <time>2021-02-06T13:20:59.000Z</time>
      </trkpt>
      <trkpt lat="47.35784" lon="-1.45294">
        <ele>62</ele>
        <time>2021-02-06T13:21:01.000Z</time>
      </trkpt>
      <trkpt lat="47.3578" lon="-1.45278">
        <ele>65</ele>
        <time>2021-02-06T13:21:03.000Z</time>
      </trkpt>
      <trkpt lat="47.35778" lon="-1.45262">
        <ele>66</ele>
        <time>2021-02-06T13:21:05.000Z</time>
      </trkpt>
      <trkpt lat="47.35776" lon="-1.45247">
        <ele>66</ele>
        <time>2021-02-06T13:21:07.000Z</time>
      </trkpt>
      <trkpt lat="47.35774" lon="-1.45232">
        <ele>66</ele>
        <time>2021-02-06T13:21:09.000Z</time>
      </trkpt>
      <trkpt lat="47.35771" lon="-1.45218">
        <ele>62</ele>
        <time>2021-02-06T13:21:11.000Z</time>
      </trkpt>
      <trkpt lat="47.35768" lon="-1.45203">
        <ele>63</ele>
        <time>2021-02-06T13:21:13.000Z</time>
      </trkpt>
      <trkpt lat="47.35765" lon="-1.45187">
        <ele>63</ele>
        <time>2021-02-06T13:21:15.000Z</time>
      </trkpt>
      <trkpt lat="47.35764" lon="-1.45171">
        <ele>64</ele>
        <time>2021-02-06T13:21:17.000Z</time>
      </trkpt>
      <trkpt lat="47.35763" lon="-1.45148">
        <ele>65</ele>
        <time>2021-02-06T13:21:20.000Z</time>
      </trkpt>
      <trkpt lat="47.35761" lon="-1.45131">
        <ele>65</ele>
        <time>2021-02-06T13:21:22.000Z</time>
      </trkpt>
      <trkpt lat="47.35762" lon="-1.45116">
        <ele>66</ele>
        <time>2021-02-06T13:21:24.000Z</time>
      </trkpt>
      <trkpt lat="47.35765" lon="-1.45101">
        <ele>65</ele>
        <time>2021-02-06T13:21:26.000Z</time>
      </trkpt>
      <trkpt lat="47.35769" lon="-1.45079">
        <ele>67</ele>
        <time>2021-02-06T13:21:29.000Z</time>
      </trkpt>
      <trkpt lat="47.35771" lon="-1.45065">
        <ele>67</ele>
        <time>2021-02-06T13:21:31.000Z</time>
      </trkpt>
      <trkpt lat="47.35774" lon="-1.4505">
        <ele>67</ele>
        <time>2021-02-06T13:21:33.000Z</time>
      </trkpt>
      <trkpt lat="47.35776" lon="-1.45036">
        <ele>67</ele>
        <time>2021-02-06T13:21:35.000Z</time>
      </trkpt>
      <trkpt lat="47.35777" lon="-1.45021">
        <ele>67</ele>
        <time>2021-02-06T13:21:37.000Z</time>
      </trkpt>
      <trkpt lat="47.35777" lon="-1.45003">
        <ele>66</ele>
        <time>2021-02-06T13:21:39.000Z</time>
      </trkpt>
      <trkpt lat="47.35777" lon="-1.44987">
        <ele>65</ele>
        <time>2021-02-06T13:21:41.000Z</time>
      </trkpt>
      <trkpt lat="47.35779" lon="-1.44972">
        <ele>66</ele>
        <time>2021-02-06T13:21:43.000Z</time>
      </trkpt>
      <trkpt lat="47.35779" lon="-1.44957">
        <ele>67</ele>
        <time>2021-02-06T13:21:45.000Z</time>
      </trkpt>
      <trkpt lat="47.3578" lon="-1.44942">
        <ele>67</ele>
        <time>2021-02-06T13:21:47.000Z</time>
      </trkpt>
      <trkpt lat="47.3578" lon="-1.44927">
        <ele>69</ele>
        <time>2021-02-06T13:21:49.000Z</time>
      </trkpt>
      <trkpt lat="47.35781" lon="-1.44905">
        <ele>69</ele>
        <time>2021-02-06T13:21:52.000Z</time>
      </trkpt>
      <trkpt lat="47.35781" lon="-1.44889">
        <ele>69</ele>
        <time>2021-02-06T13:21:54.000Z</time>
      </trkpt>
      <trkpt lat="47.35782" lon="-1.44867">
        <ele>69</ele>
        <time>2021-02-06T13:21:57.000Z</time>
      </trkpt>
      <trkpt lat="47.35782" lon="-1.44853">
        <ele>69</ele>
        <time>2021-02-06T13:21:59.000Z</time>
      </trkpt>
      <trkpt lat="47.35782" lon="-1.44838">
        <ele>68</ele>
        <time>2021-02-06T13:22:01.000Z</time>
      </trkpt>
      <trkpt lat="47.35779" lon="-1.44814">
        <ele>68</ele>
        <time>2021-02-06T13:22:04.000Z</time>
      </trkpt>
      <trkpt lat="47.35777" lon="-1.44799">
        <ele>71</ele>
        <time>2021-02-06T13:22:06.000Z</time>
      </trkpt>
      <trkpt lat="47.35781" lon="-1.44787">
        <ele>72</ele>
        <time>2021-02-06T13:22:08.000Z</time>
      </trkpt>
      <trkpt lat="47.35784" lon="-1.44768">
        <ele>71</ele>
        <time>2021-02-06T13:22:11.000Z</time>
      </trkpt>
      <trkpt lat="47.35785" lon="-1.44748">
        <ele>72</ele>
        <time>2021-02-06T13:22:14.000Z</time>
      </trkpt>
      <trkpt lat="47.35785" lon="-1.44734">
        <ele>72</ele>
        <time>2021-02-06T13:22:16.000Z</time>
      </trkpt>
      <trkpt lat="47.35785" lon="-1.44719">
        <ele>71</ele>
        <time>2021-02-06T13:22:18.000Z</time>
      </trkpt>
      <trkpt lat="47.35786" lon="-1.44699">
        <ele>72</ele>
        <time>2021-02-06T13:22:21.000Z</time>
      </trkpt>
      <trkpt lat="47.35787" lon="-1.44686">
        <ele>73</ele>
        <time>2021-02-06T13:22:23.000Z</time>
      </trkpt>
      <trkpt lat="47.35786" lon="-1.44666">
        <ele>74</ele>
        <time>2021-02-06T13:22:26.000Z</time>
      </trkpt>
      <trkpt lat="47.35787" lon="-1.44641">
        <ele>75</ele>
        <time>2021-02-06T13:22:30.000Z</time>
      </trkpt>
      <trkpt lat="47.35788" lon="-1.44627">
        <ele>75</ele>
        <time>2021-02-06T13:22:32.000Z</time>
      </trkpt>
      <trkpt lat="47.35788" lon="-1.44614">
        <ele>76</ele>
        <time>2021-02-06T13:22:34.000Z</time>
      </trkpt>
      <trkpt lat="47.3579" lon="-1.44595">
        <ele>77</ele>
        <time>2021-02-06T13:22:37.000Z</time>
      </trkpt>
      <trkpt lat="47.35791" lon="-1.44576">
        <ele>77</ele>
        <time>2021-02-06T13:22:40.000Z</time>
      </trkpt>
      <trkpt lat="47.35792" lon="-1.44551">
        <ele>76</ele>
        <time>2021-02-06T13:22:44.000Z</time>
      </trkpt>
      <trkpt lat="47.35793" lon="-1.44531">
        <ele>77</ele>
        <time>2021-02-06T13:22:47.000Z</time>
      </trkpt>
      <trkpt lat="47.35796" lon="-1.44518">
        <ele>78</ele>
        <time>2021-02-06T13:22:49.000Z</time>
      </trkpt>
      <trkpt lat="47.35799" lon="-1.44498">
        <ele>78</ele>
        <time>2021-02-06T13:22:52.000Z</time>
      </trkpt>
      <trkpt lat="47.35801" lon="-1.44479">
        <ele>80</ele>
        <time>2021-02-06T13:22:55.000Z</time>
      </trkpt>
      <trkpt lat="47.35802" lon="-1.44465">
        <ele>79</ele>
        <time>2021-02-06T13:22:57.000Z</time>
      </trkpt>
      <trkpt lat="47.35803" lon="-1.44451">
        <ele>80</ele>
        <time>2021-02-06T13:22:59.000Z</time>
      </trkpt>
      <trkpt lat="47.35804" lon="-1.44437">
        <ele>80</ele>
        <time>2021-02-06T13:23:01.000Z</time>
      </trkpt>
      <trkpt lat="47.35805" lon="-1.44422">
        <ele>80</ele>
        <time>2021-02-06T13:23:03.000Z</time>
      </trkpt>
      <trkpt lat="47.35805" lon="-1.444">
        <ele>80</ele>
        <time>2021-02-06T13:23:06.000Z</time>
      </trkpt>
      <trkpt lat="47.35804" lon="-1.44384">
        <ele>80</ele>
        <time>2021-02-06T13:23:08.000Z</time>
      </trkpt>
      <trkpt lat="47.35803" lon="-1.44368">
        <ele>80</ele>
        <time>2021-02-06T13:23:10.000Z</time>
      </trkpt>
      <trkpt lat="47.35805" lon="-1.44352">
        <ele>80</ele>
        <time>2021-02-06T13:23:12.000Z</time>
      </trkpt>
      <trkpt lat="47.35805" lon="-1.44336">
        <ele>79</ele>
        <time>2021-02-06T13:23:14.000Z</time>
      </trkpt>
      <trkpt lat="47.35806" lon="-1.44321">
        <ele>80</ele>
        <time>2021-02-06T13:23:16.000Z</time>
      </trkpt>
      <trkpt lat="47.35809" lon="-1.44296">
        <ele>80</ele>
        <time>2021-02-06T13:23:19.000Z</time>
      </trkpt>
      <trkpt lat="47.35812" lon="-1.44271">
        <ele>80</ele>
        <time>2021-02-06T13:23:22.000Z</time>
      </trkpt>
      <trkpt lat="47.35823" lon="-1.4425">
        <ele>79</ele>
        <time>2021-02-06T13:23:25.000Z</time>
      </trkpt>
      <trkpt lat="47.35831" lon="-1.44238">
        <ele>79</ele>
        <time>2021-02-06T13:23:27.000Z</time>
      </trkpt>
      <trkpt lat="47.3584" lon="-1.44226">
        <ele>79</ele>
        <time>2021-02-06T13:23:29.000Z</time>
      </trkpt>
      <trkpt lat="47.35849" lon="-1.44215">
        <ele>79</ele>
        <time>2021-02-06T13:23:31.000Z</time>
      </trkpt>
      <trkpt lat="47.35861" lon="-1.44198">
        <ele>79</ele>
        <time>2021-02-06T13:23:34.000Z</time>
      </trkpt>
      <trkpt lat="47.35868" lon="-1.44187">
        <ele>79</ele>
        <time>2021-02-06T13:23:36.000Z</time>
      </trkpt>
      <trkpt lat="47.35876" lon="-1.44176">
        <ele>79</ele>
        <time>2021-02-06T13:23:38.000Z</time>
      </trkpt>
      <trkpt lat="47.35883" lon="-1.44165">
        <ele>79</ele>
        <time>2021-02-06T13:23:40.000Z</time>
      </trkpt>
      <trkpt lat="47.35895" lon="-1.44148">
        <ele>79</ele>
        <time>2021-02-06T13:23:43.000Z</time>
      </trkpt>
      <trkpt lat="47.35906" lon="-1.44131">
        <ele>80</ele>
        <time>2021-02-06T13:23:46.000Z</time>
      </trkpt>
      <trkpt lat="47.35914" lon="-1.4412">
        <ele>80</ele>
        <time>2021-02-06T13:23:48.000Z</time>
      </trkpt>
      <trkpt lat="47.35923" lon="-1.44109">
        <ele>80</ele>
        <time>2021-02-06T13:23:50.000Z</time>
      </trkpt>
      <trkpt lat="47.35931" lon="-1.44099">
        <ele>80</ele>
        <time>2021-02-06T13:23:52.000Z</time>
      </trkpt>
      <trkpt lat="47.35943" lon="-1.44082">
        <ele>80</ele>
        <time>2021-02-06T13:23:55.000Z</time>
      </trkpt>
      <trkpt lat="47.35952" lon="-1.44067">
        <ele>82</ele>
        <time>2021-02-06T13:23:58.000Z</time>
      </trkpt>
      <trkpt lat="47.3596" lon="-1.44057">
        <ele>81</ele>
        <time>2021-02-06T13:24:00.000Z</time>
      </trkpt>
      <trkpt lat="47.35969" lon="-1.44047">
        <ele>81</ele>
        <time>2021-02-06T13:24:02.000Z</time>
      </trkpt>
      <trkpt lat="47.35978" lon="-1.44036">
        <ele>82</ele>
        <time>2021-02-06T13:24:04.000Z</time>
      </trkpt>
      <trkpt lat="47.35986" lon="-1.44025">
        <ele>82</ele>
        <time>2021-02-06T13:24:06.000Z</time>
      </trkpt>
      <trkpt lat="47.35999" lon="-1.44011">
        <ele>82</ele>
        <time>2021-02-06T13:24:09.000Z</time>
      </trkpt>
      <trkpt lat="47.36007" lon="-1.43998">
        <ele>82</ele>
        <time>2021-02-06T13:24:11.000Z</time>
      </trkpt>
      <trkpt lat="47.36017" lon="-1.43986">
        <ele>81</ele>
        <time>2021-02-06T13:24:13.000Z</time>
      </trkpt>
      <trkpt lat="47.36025" lon="-1.43975">
        <ele>79</ele>
        <time>2021-02-06T13:24:15.000Z</time>
      </trkpt>
      <trkpt lat="47.36033" lon="-1.43962">
        <ele>79</ele>
        <time>2021-02-06T13:24:17.000Z</time>
      </trkpt>
      <trkpt lat="47.3604" lon="-1.43948">
        <ele>79</ele>
        <time>2021-02-06T13:24:19.000Z</time>
      </trkpt>
      <trkpt lat="47.36049" lon="-1.43923">
        <ele>77</ele>
        <time>2021-02-06T13:24:22.000Z</time>
      </trkpt>
      <trkpt lat="47.36053" lon="-1.43906">
        <ele>77</ele>
        <time>2021-02-06T13:24:24.000Z</time>
      </trkpt>
      <trkpt lat="47.36055" lon="-1.43886">
        <ele>76</ele>
        <time>2021-02-06T13:24:26.000Z</time>
      </trkpt>
      <trkpt lat="47.36062" lon="-1.43858">
        <ele>76</ele>
        <time>2021-02-06T13:24:29.000Z</time>
      </trkpt>
      <trkpt lat="47.36066" lon="-1.43836">
        <ele>75</ele>
        <time>2021-02-06T13:24:31.000Z</time>
      </trkpt>
      <trkpt lat="47.36065" lon="-1.43812">
        <ele>72</ele>
        <time>2021-02-06T13:24:33.000Z</time>
      </trkpt>
      <trkpt lat="47.36066" lon="-1.4379">
        <ele>72</ele>
        <time>2021-02-06T13:24:35.000Z</time>
      </trkpt>
      <trkpt lat="47.36072" lon="-1.43767">
        <ele>73</ele>
        <time>2021-02-06T13:24:37.000Z</time>
      </trkpt>
      <trkpt lat="47.36077" lon="-1.43755">
        <ele>73</ele>
        <time>2021-02-06T13:24:38.000Z</time>
      </trkpt>
      <trkpt lat="47.36088" lon="-1.43731">
        <ele>73</ele>
        <time>2021-02-06T13:24:40.000Z</time>
      </trkpt>
      <trkpt lat="47.36093" lon="-1.43719">
        <ele>72</ele>
        <time>2021-02-06T13:24:41.000Z</time>
      </trkpt>
      <trkpt lat="47.36098" lon="-1.43707">
        <ele>72</ele>
        <time>2021-02-06T13:24:42.000Z</time>
      </trkpt>
      <trkpt lat="47.36103" lon="-1.43697">
        <ele>72</ele>
        <time>2021-02-06T13:24:43.000Z</time>
      </trkpt>
      <trkpt lat="47.36109" lon="-1.43686">
        <ele>71</ele>
        <time>2021-02-06T13:24:44.000Z</time>
      </trkpt>
      <trkpt lat="47.36122" lon="-1.43654">
        <ele>70</ele>
        <time>2021-02-06T13:24:47.000Z</time>
      </trkpt>
      <trkpt lat="47.36131" lon="-1.43638">
        <ele>71</ele>
        <time>2021-02-06T13:24:49.000Z</time>
      </trkpt>
      <trkpt lat="47.3614" lon="-1.4362">
        <ele>71</ele>
        <time>2021-02-06T13:24:51.000Z</time>
      </trkpt>
      <trkpt lat="47.36149" lon="-1.43604">
        <ele>72</ele>
        <time>2021-02-06T13:24:53.000Z</time>
      </trkpt>
      <trkpt lat="47.36157" lon="-1.43589">
        <ele>72</ele>
        <time>2021-02-06T13:24:55.000Z</time>
      </trkpt>
      <trkpt lat="47.36169" lon="-1.43568">
        <ele>71</ele>
        <time>2021-02-06T13:24:58.000Z</time>
      </trkpt>
      <trkpt lat="47.36174" lon="-1.43555">
        <ele>69</ele>
        <time>2021-02-06T13:25:00.000Z</time>
      </trkpt>
      <trkpt lat="47.36179" lon="-1.43541">
        <ele>69</ele>
        <time>2021-02-06T13:25:02.000Z</time>
      </trkpt>
      <trkpt lat="47.36186" lon="-1.43528">
        <ele>70</ele>
        <time>2021-02-06T13:25:04.000Z</time>
      </trkpt>
      <trkpt lat="47.36194" lon="-1.43517">
        <ele>70</ele>
        <time>2021-02-06T13:25:06.000Z</time>
      </trkpt>
      <trkpt lat="47.36204" lon="-1.43502">
        <ele>70</ele>
        <time>2021-02-06T13:25:09.000Z</time>
      </trkpt>
      <trkpt lat="47.36213" lon="-1.4349">
        <ele>70</ele>
        <time>2021-02-06T13:25:12.000Z</time>
      </trkpt>
      <trkpt lat="47.36224" lon="-1.43478">
        <ele>72</ele>
        <time>2021-02-06T13:25:15.000Z</time>
      </trkpt>
      <trkpt lat="47.36234" lon="-1.43468">
        <ele>73</ele>
        <time>2021-02-06T13:25:18.000Z</time>
      </trkpt>
      <trkpt lat="47.36245" lon="-1.43457">
        <ele>74</ele>
        <time>2021-02-06T13:25:21.000Z</time>
      </trkpt>
      <trkpt lat="47.36258" lon="-1.43442">
        <ele>74</ele>
        <time>2021-02-06T13:25:25.000Z</time>
      </trkpt>
      <trkpt lat="47.36265" lon="-1.43433">
        <ele>74</ele>
        <time>2021-02-06T13:25:27.000Z</time>
      </trkpt>
      <trkpt lat="47.36274" lon="-1.43425">
        <ele>76</ele>
        <time>2021-02-06T13:25:30.000Z</time>
      </trkpt>
      <trkpt lat="47.36284" lon="-1.43417">
        <ele>77</ele>
        <time>2021-02-06T13:25:33.000Z</time>
      </trkpt>
      <trkpt lat="47.36296" lon="-1.43405">
        <ele>78</ele>
        <time>2021-02-06T13:25:37.000Z</time>
      </trkpt>
      <trkpt lat="47.36305" lon="-1.43396">
        <ele>79</ele>
        <time>2021-02-06T13:25:40.000Z</time>
      </trkpt>
      <trkpt lat="47.36314" lon="-1.43387">
        <ele>80</ele>
        <time>2021-02-06T13:25:43.000Z</time>
      </trkpt>
      <trkpt lat="47.36324" lon="-1.43373">
        <ele>79</ele>
        <time>2021-02-06T13:25:47.000Z</time>
      </trkpt>
      <trkpt lat="47.36333" lon="-1.43364">
        <ele>79</ele>
        <time>2021-02-06T13:25:50.000Z</time>
      </trkpt>
      <trkpt lat="47.36343" lon="-1.43355">
        <ele>78</ele>
        <time>2021-02-06T13:25:53.000Z</time>
      </trkpt>
      <trkpt lat="47.36352" lon="-1.43348">
        <ele>80</ele>
        <time>2021-02-06T13:25:56.000Z</time>
      </trkpt>
      <trkpt lat="47.3636" lon="-1.4334">
        <ele>81</ele>
        <time>2021-02-06T13:25:59.000Z</time>
      </trkpt>
      <trkpt lat="47.36368" lon="-1.43331">
        <ele>82</ele>
        <time>2021-02-06T13:26:02.000Z</time>
      </trkpt>
      <trkpt lat="47.36375" lon="-1.43321">
        <ele>82</ele>
        <time>2021-02-06T13:26:05.000Z</time>
      </trkpt>
      <trkpt lat="47.36384" lon="-1.43313">
        <ele>83</ele>
        <time>2021-02-06T13:26:08.000Z</time>
      </trkpt>
      <trkpt lat="47.36394" lon="-1.43305">
        <ele>83</ele>
        <time>2021-02-06T13:26:11.000Z</time>
      </trkpt>
      <trkpt lat="47.36402" lon="-1.43297">
        <ele>84</ele>
        <time>2021-02-06T13:26:14.000Z</time>
      </trkpt>
      <trkpt lat="47.36412" lon="-1.43283">
        <ele>84</ele>
        <time>2021-02-06T13:26:18.000Z</time>
      </trkpt>
      <trkpt lat="47.3642" lon="-1.43271">
        <ele>85</ele>
        <time>2021-02-06T13:26:22.000Z</time>
      </trkpt>
      <trkpt lat="47.36429" lon="-1.43263">
        <ele>87</ele>
        <time>2021-02-06T13:26:25.000Z</time>
      </trkpt>
      <trkpt lat="47.36434" lon="-1.4325">
        <ele>86</ele>
        <time>2021-02-06T13:26:28.000Z</time>
      </trkpt>
      <trkpt lat="47.36439" lon="-1.43236">
        <ele>88</ele>
        <time>2021-02-06T13:26:31.000Z</time>
      </trkpt>
      <trkpt lat="47.36447" lon="-1.43227">
        <ele>90</ele>
        <time>2021-02-06T13:26:34.000Z</time>
      </trkpt>
      <trkpt lat="47.36455" lon="-1.43215">
        <ele>91</ele>
        <time>2021-02-06T13:26:37.000Z</time>
      </trkpt>
      <trkpt lat="47.36463" lon="-1.43199">
        <ele>91</ele>
        <time>2021-02-06T13:26:40.000Z</time>
      </trkpt>
      <trkpt lat="47.36469" lon="-1.43185">
        <ele>90</ele>
        <time>2021-02-06T13:26:43.000Z</time>
      </trkpt>
      <trkpt lat="47.36477" lon="-1.4317">
        <ele>91</ele>
        <time>2021-02-06T13:26:46.000Z</time>
      </trkpt>
      <trkpt lat="47.36484" lon="-1.43155">
        <ele>92</ele>
        <time>2021-02-06T13:26:49.000Z</time>
      </trkpt>
      <trkpt lat="47.36491" lon="-1.43139">
        <ele>93</ele>
        <time>2021-02-06T13:26:52.000Z</time>
      </trkpt>
      <trkpt lat="47.36496" lon="-1.43127">
        <ele>93</ele>
        <time>2021-02-06T13:26:54.000Z</time>
      </trkpt>
      <trkpt lat="47.36503" lon="-1.43111">
        <ele>93</ele>
        <time>2021-02-06T13:26:57.000Z</time>
      </trkpt>
      <trkpt lat="47.36508" lon="-1.43093">
        <ele>92</ele>
        <time>2021-02-06T13:27:00.000Z</time>
      </trkpt>
      <trkpt lat="47.36511" lon="-1.4308">
        <ele>93</ele>
        <time>2021-02-06T13:27:02.000Z</time>
      </trkpt>
      <trkpt lat="47.36513" lon="-1.43067">
        <ele>93</ele>
        <time>2021-02-06T13:27:04.000Z</time>
      </trkpt>
      <trkpt lat="47.36515" lon="-1.43053">
        <ele>93</ele>
        <time>2021-02-06T13:27:06.000Z</time>
      </trkpt>
      <trkpt lat="47.36515" lon="-1.43039">
        <ele>91</ele>
        <time>2021-02-06T13:27:08.000Z</time>
      </trkpt>
      <trkpt lat="47.36518" lon="-1.4302">
        <ele>92</ele>
        <time>2021-02-06T13:27:11.000Z</time>
      </trkpt>
      <trkpt lat="47.36522" lon="-1.43001">
        <ele>93</ele>
        <time>2021-02-06T13:27:14.000Z</time>
      </trkpt>
      <trkpt lat="47.36535" lon="-1.42983">
        <ele>94</ele>
        <time>2021-02-06T13:27:18.000Z</time>
      </trkpt>
      <trkpt lat="47.36547" lon="-1.42979">
        <ele>95</ele>
        <time>2021-02-06T13:27:21.000Z</time>
      </trkpt>
      <trkpt lat="47.36557" lon="-1.42979">
        <ele>94</ele>
        <time>2021-02-06T13:27:23.000Z</time>
      </trkpt>
      <trkpt lat="47.36567" lon="-1.42978">
        <ele>94</ele>
        <time>2021-02-06T13:27:25.000Z</time>
      </trkpt>
      <trkpt lat="47.3658" lon="-1.42972">
        <ele>92</ele>
        <time>2021-02-06T13:27:28.000Z</time>
      </trkpt>
      <trkpt lat="47.3659" lon="-1.4297">
        <ele>94</ele>
        <time>2021-02-06T13:27:30.000Z</time>
      </trkpt>
      <trkpt lat="47.366" lon="-1.42971">
        <ele>94</ele>
        <time>2021-02-06T13:27:32.000Z</time>
      </trkpt>
      <trkpt lat="47.3661" lon="-1.42971">
        <ele>94</ele>
        <time>2021-02-06T13:27:34.000Z</time>
      </trkpt>
      <trkpt lat="47.3662" lon="-1.42971">
        <ele>94</ele>
        <time>2021-02-06T13:27:36.000Z</time>
      </trkpt>
      <trkpt lat="47.36637" lon="-1.42972">
        <ele>95</ele>
        <time>2021-02-06T13:27:39.000Z</time>
      </trkpt>
      <trkpt lat="47.36647" lon="-1.42973">
        <ele>96</ele>
        <time>2021-02-06T13:27:41.000Z</time>
      </trkpt>
      <trkpt lat="47.36658" lon="-1.42972">
        <ele>96</ele>
        <time>2021-02-06T13:27:43.000Z</time>
      </trkpt>
      <trkpt lat="47.36672" lon="-1.42973">
        <ele>95</ele>
        <time>2021-02-06T13:27:46.000Z</time>
      </trkpt>
      <trkpt lat="47.36684" lon="-1.4297">
        <ele>95</ele>
        <time>2021-02-06T13:27:49.000Z</time>
      </trkpt>
      <trkpt lat="47.36693" lon="-1.42947">
        <ele>95</ele>
        <time>2021-02-06T13:27:53.000Z</time>
      </trkpt>
      <trkpt lat="47.36697" lon="-1.42934">
        <ele>95</ele>
        <time>2021-02-06T13:27:55.000Z</time>
      </trkpt>
      <trkpt lat="47.36701" lon="-1.42921">
        <ele>95</ele>
        <time>2021-02-06T13:27:57.000Z</time>
      </trkpt>
      <trkpt lat="47.36705" lon="-1.42907">
        <ele>96</ele>
        <time>2021-02-06T13:27:59.000Z</time>
      </trkpt>
      <trkpt lat="47.3671" lon="-1.42892">
        <ele>96</ele>
        <time>2021-02-06T13:28:01.000Z</time>
      </trkpt>
      <trkpt lat="47.36712" lon="-1.4287">
        <ele>97</ele>
        <time>2021-02-06T13:28:04.000Z</time>
      </trkpt>
      <trkpt lat="47.36717" lon="-1.42857">
        <ele>98</ele>
        <time>2021-02-06T13:28:06.000Z</time>
      </trkpt>
      <trkpt lat="47.36722" lon="-1.42843">
        <ele>98</ele>
        <time>2021-02-06T13:28:08.000Z</time>
      </trkpt>
      <trkpt lat="47.36725" lon="-1.42829">
        <ele>99</ele>
        <time>2021-02-06T13:28:10.000Z</time>
      </trkpt>
      <trkpt lat="47.36728" lon="-1.42814">
        <ele>99</ele>
        <time>2021-02-06T13:28:12.000Z</time>
      </trkpt>
      <trkpt lat="47.3673" lon="-1.42799">
        <ele>97</ele>
        <time>2021-02-06T13:28:14.000Z</time>
      </trkpt>
      <trkpt lat="47.36733" lon="-1.42781">
        <ele>96</ele>
        <time>2021-02-06T13:28:16.000Z</time>
      </trkpt>
      <trkpt lat="47.36736" lon="-1.42768">
        <ele>96</ele>
        <time>2021-02-06T13:28:18.000Z</time>
      </trkpt>
      <trkpt lat="47.36738" lon="-1.42746">
        <ele>96</ele>
        <time>2021-02-06T13:28:21.000Z</time>
      </trkpt>
      <trkpt lat="47.36739" lon="-1.42731">
        <ele>94</ele>
        <time>2021-02-06T13:28:23.000Z</time>
      </trkpt>
      <trkpt lat="47.36737" lon="-1.42707">
        <ele>94</ele>
        <time>2021-02-06T13:28:26.000Z</time>
      </trkpt>
      <trkpt lat="47.36736" lon="-1.4269">
        <ele>95</ele>
        <time>2021-02-06T13:28:28.000Z</time>
      </trkpt>
      <trkpt lat="47.36735" lon="-1.42674">
        <ele>97</ele>
        <time>2021-02-06T13:28:30.000Z</time>
      </trkpt>
      <trkpt lat="47.36732" lon="-1.42658">
        <ele>96</ele>
        <time>2021-02-06T13:28:32.000Z</time>
      </trkpt>
      <trkpt lat="47.36728" lon="-1.4264">
        <ele>96</ele>
        <time>2021-02-06T13:28:34.000Z</time>
      </trkpt>
      <trkpt lat="47.36727" lon="-1.42624">
        <ele>97</ele>
        <time>2021-02-06T13:28:36.000Z</time>
      </trkpt>
      <trkpt lat="47.36726" lon="-1.42606">
        <ele>98</ele>
        <time>2021-02-06T13:28:38.000Z</time>
      </trkpt>
      <trkpt lat="47.36722" lon="-1.42587">
        <ele>95</ele>
        <time>2021-02-06T13:28:40.000Z</time>
      </trkpt>
      <trkpt lat="47.36719" lon="-1.4257">
        <ele>95</ele>
        <time>2021-02-06T13:28:42.000Z</time>
      </trkpt>
      <trkpt lat="47.36717" lon="-1.42552">
        <ele>97</ele>
        <time>2021-02-06T13:28:44.000Z</time>
      </trkpt>
      <trkpt lat="47.36713" lon="-1.42528">
        <ele>96</ele>
        <time>2021-02-06T13:28:47.000Z</time>
      </trkpt>
      <trkpt lat="47.36711" lon="-1.42508">
        <ele>98</ele>
        <time>2021-02-06T13:28:49.000Z</time>
      </trkpt>
      <trkpt lat="47.36708" lon="-1.42489">
        <ele>98</ele>
        <time>2021-02-06T13:28:51.000Z</time>
      </trkpt>
      <trkpt lat="47.36705" lon="-1.42471">
        <ele>99</ele>
        <time>2021-02-06T13:28:53.000Z</time>
      </trkpt>
      <trkpt lat="47.36699" lon="-1.42442">
        <ele>96</ele>
        <time>2021-02-06T13:28:56.000Z</time>
      </trkpt>
      <trkpt lat="47.36696" lon="-1.42426">
        <ele>97</ele>
        <time>2021-02-06T13:28:58.000Z</time>
      </trkpt>
      <trkpt lat="47.36693" lon="-1.42401">
        <ele>98</ele>
        <time>2021-02-06T13:29:01.000Z</time>
      </trkpt>
      <trkpt lat="47.36691" lon="-1.42384">
        <ele>99</ele>
        <time>2021-02-06T13:29:03.000Z</time>
      </trkpt>
      <trkpt lat="47.36687" lon="-1.42358">
        <ele>99</ele>
        <time>2021-02-06T13:29:06.000Z</time>
      </trkpt>
      <trkpt lat="47.36682" lon="-1.42323">
        <ele>100</ele>
        <time>2021-02-06T13:29:10.000Z</time>
      </trkpt>
      <trkpt lat="47.3668" lon="-1.42306">
        <ele>100</ele>
        <time>2021-02-06T13:29:12.000Z</time>
      </trkpt>
      <trkpt lat="47.36678" lon="-1.42288">
        <ele>101</ele>
        <time>2021-02-06T13:29:14.000Z</time>
      </trkpt>
      <trkpt lat="47.36673" lon="-1.42253">
        <ele>102</ele>
        <time>2021-02-06T13:29:18.000Z</time>
      </trkpt>
      <trkpt lat="47.36672" lon="-1.42236">
        <ele>102</ele>
        <time>2021-02-06T13:29:20.000Z</time>
      </trkpt>
      <trkpt lat="47.36671" lon="-1.42218">
        <ele>102</ele>
        <time>2021-02-06T13:29:22.000Z</time>
      </trkpt>
      <trkpt lat="47.36668" lon="-1.42193">
        <ele>102</ele>
        <time>2021-02-06T13:29:25.000Z</time>
      </trkpt>
      <trkpt lat="47.36666" lon="-1.42168">
        <ele>102</ele>
        <time>2021-02-06T13:29:28.000Z</time>
      </trkpt>
      <trkpt lat="47.36664" lon="-1.42153">
        <ele>101</ele>
        <time>2021-02-06T13:29:30.000Z</time>
      </trkpt>
      <trkpt lat="47.36662" lon="-1.42127">
        <ele>102</ele>
        <time>2021-02-06T13:29:33.000Z</time>
      </trkpt>
      <trkpt lat="47.36661" lon="-1.42109">
        <ele>102</ele>
        <time>2021-02-06T13:29:35.000Z</time>
      </trkpt>
      <trkpt lat="47.3666" lon="-1.42092">
        <ele>102</ele>
        <time>2021-02-06T13:29:37.000Z</time>
      </trkpt>
      <trkpt lat="47.36657" lon="-1.42077">
        <ele>101</ele>
        <time>2021-02-06T13:29:39.000Z</time>
      </trkpt>
      <trkpt lat="47.36654" lon="-1.42061">
        <ele>101</ele>
        <time>2021-02-06T13:29:41.000Z</time>
      </trkpt>
      <trkpt lat="47.36653" lon="-1.42043">
        <ele>101</ele>
        <time>2021-02-06T13:29:43.000Z</time>
      </trkpt>
      <trkpt lat="47.36654" lon="-1.42026">
        <ele>103</ele>
        <time>2021-02-06T13:29:45.000Z</time>
      </trkpt>
      <trkpt lat="47.36652" lon="-1.4201">
        <ele>103</ele>
        <time>2021-02-06T13:29:47.000Z</time>
      </trkpt>
      <trkpt lat="47.36651" lon="-1.41995">
        <ele>104</ele>
        <time>2021-02-06T13:29:49.000Z</time>
      </trkpt>
      <trkpt lat="47.36649" lon="-1.41981">
        <ele>104</ele>
        <time>2021-02-06T13:29:51.000Z</time>
      </trkpt>
      <trkpt lat="47.36648" lon="-1.41965">
        <ele>105</ele>
        <time>2021-02-06T13:29:53.000Z</time>
      </trkpt>
      <trkpt lat="47.36647" lon="-1.4195">
        <ele>106</ele>
        <time>2021-02-06T13:29:55.000Z</time>
      </trkpt>
      <trkpt lat="47.36646" lon="-1.41936">
        <ele>106</ele>
        <time>2021-02-06T13:29:57.000Z</time>
      </trkpt>
      <trkpt lat="47.36645" lon="-1.41921">
        <ele>106</ele>
        <time>2021-02-06T13:29:59.000Z</time>
      </trkpt>
      <trkpt lat="47.36643" lon="-1.41907">
        <ele>107</ele>
        <time>2021-02-06T13:30:01.000Z</time>
      </trkpt>
      <trkpt lat="47.36642" lon="-1.41892">
        <ele>107</ele>
        <time>2021-02-06T13:30:03.000Z</time>
      </trkpt>
      <trkpt lat="47.3664" lon="-1.41877">
        <ele>107</ele>
        <time>2021-02-06T13:30:05.000Z</time>
      </trkpt>
      <trkpt lat="47.36636" lon="-1.41859">
        <ele>106</ele>
        <time>2021-02-06T13:30:07.000Z</time>
      </trkpt>
      <trkpt lat="47.36632" lon="-1.4184">
        <ele>103</ele>
        <time>2021-02-06T13:30:10.000Z</time>
      </trkpt>
      <trkpt lat="47.36629" lon="-1.41824">
        <ele>103</ele>
        <time>2021-02-06T13:30:12.000Z</time>
      </trkpt>
      <trkpt lat="47.3663" lon="-1.41809">
        <ele>104</ele>
        <time>2021-02-06T13:30:14.000Z</time>
      </trkpt>
      <trkpt lat="47.3663" lon="-1.41795">
        <ele>101</ele>
        <time>2021-02-06T13:30:16.000Z</time>
      </trkpt>
      <trkpt lat="47.36629" lon="-1.4178">
        <ele>103</ele>
        <time>2021-02-06T13:30:18.000Z</time>
      </trkpt>
      <trkpt lat="47.36629" lon="-1.41766">
        <ele>105</ele>
        <time>2021-02-06T13:30:20.000Z</time>
      </trkpt>
      <trkpt lat="47.36626" lon="-1.41736">
        <ele>106</ele>
        <time>2021-02-06T13:30:24.000Z</time>
      </trkpt>
      <trkpt lat="47.36624" lon="-1.4172">
        <ele>105</ele>
        <time>2021-02-06T13:30:26.000Z</time>
      </trkpt>
      <trkpt lat="47.36624" lon="-1.41705">
        <ele>108</ele>
        <time>2021-02-06T13:30:28.000Z</time>
      </trkpt>
      <trkpt lat="47.36624" lon="-1.41691">
        <ele>109</ele>
        <time>2021-02-06T13:30:30.000Z</time>
      </trkpt>
      <trkpt lat="47.36623" lon="-1.41668">
        <ele>108</ele>
        <time>2021-02-06T13:30:33.000Z</time>
      </trkpt>
      <trkpt lat="47.36622" lon="-1.41654">
        <ele>109</ele>
        <time>2021-02-06T13:30:35.000Z</time>
      </trkpt>
      <trkpt lat="47.36623" lon="-1.41639">
        <ele>110</ele>
        <time>2021-02-06T13:30:37.000Z</time>
      </trkpt>
      <trkpt lat="47.36624" lon="-1.41624">
        <ele>111</ele>
        <time>2021-02-06T13:30:39.000Z</time>
      </trkpt>
      <trkpt lat="47.36625" lon="-1.41609">
        <ele>111</ele>
        <time>2021-02-06T13:30:41.000Z</time>
      </trkpt>
      <trkpt lat="47.36626" lon="-1.41593">
        <ele>111</ele>
        <time>2021-02-06T13:30:43.000Z</time>
      </trkpt>
      <trkpt lat="47.36627" lon="-1.41578">
        <ele>111</ele>
        <time>2021-02-06T13:30:45.000Z</time>
      </trkpt>
      <trkpt lat="47.36629" lon="-1.41563">
        <ele>110</ele>
        <time>2021-02-06T13:30:47.000Z</time>
      </trkpt>
      <trkpt lat="47.3663" lon="-1.41547">
        <ele>109</ele>
        <time>2021-02-06T13:30:49.000Z</time>
      </trkpt>
      <trkpt lat="47.36631" lon="-1.41533">
        <ele>109</ele>
        <time>2021-02-06T13:30:51.000Z</time>
      </trkpt>
      <trkpt lat="47.36633" lon="-1.41518">
        <ele>110</ele>
        <time>2021-02-06T13:30:53.000Z</time>
      </trkpt>
      <trkpt lat="47.36636" lon="-1.41496">
        <ele>109</ele>
        <time>2021-02-06T13:30:56.000Z</time>
      </trkpt>
      <trkpt lat="47.36643" lon="-1.41482">
        <ele>109</ele>
        <time>2021-02-06T13:30:58.000Z</time>
      </trkpt>
      <trkpt lat="47.36648" lon="-1.41467">
        <ele>109</ele>
        <time>2021-02-06T13:31:00.000Z</time>
      </trkpt>
      <trkpt lat="47.36651" lon="-1.41453">
        <ele>109</ele>
        <time>2021-02-06T13:31:02.000Z</time>
      </trkpt>
      <trkpt lat="47.36656" lon="-1.41438">
        <ele>109</ele>
        <time>2021-02-06T13:31:04.000Z</time>
      </trkpt>
      <trkpt lat="47.36662" lon="-1.41424">
        <ele>109</ele>
        <time>2021-02-06T13:31:06.000Z</time>
      </trkpt>
      <trkpt lat="47.3667" lon="-1.41401">
        <ele>109</ele>
        <time>2021-02-06T13:31:09.000Z</time>
      </trkpt>
      <trkpt lat="47.36675" lon="-1.41388">
        <ele>109</ele>
        <time>2021-02-06T13:31:11.000Z</time>
      </trkpt>
      <trkpt lat="47.36681" lon="-1.41371">
        <ele>108</ele>
        <time>2021-02-06T13:31:13.000Z</time>
      </trkpt>
      <trkpt lat="47.36687" lon="-1.41356">
        <ele>108</ele>
        <time>2021-02-06T13:31:15.000Z</time>
      </trkpt>
      <trkpt lat="47.36692" lon="-1.4134">
        <ele>107</ele>
        <time>2021-02-06T13:31:17.000Z</time>
      </trkpt>
      <trkpt lat="47.36697" lon="-1.41325">
        <ele>107</ele>
        <time>2021-02-06T13:31:19.000Z</time>
      </trkpt>
      <trkpt lat="47.36705" lon="-1.413">
        <ele>107</ele>
        <time>2021-02-06T13:31:22.000Z</time>
      </trkpt>
      <trkpt lat="47.36712" lon="-1.41285">
        <ele>106</ele>
        <time>2021-02-06T13:31:24.000Z</time>
      </trkpt>
      <trkpt lat="47.36723" lon="-1.41264">
        <ele>105</ele>
        <time>2021-02-06T13:31:27.000Z</time>
      </trkpt>
      <trkpt lat="47.36728" lon="-1.41241">
        <ele>104</ele>
        <time>2021-02-06T13:31:30.000Z</time>
      </trkpt>
      <trkpt lat="47.36734" lon="-1.41225">
        <ele>103</ele>
        <time>2021-02-06T13:31:32.000Z</time>
      </trkpt>
      <trkpt lat="47.36738" lon="-1.41208">
        <ele>103</ele>
        <time>2021-02-06T13:31:34.000Z</time>
      </trkpt>
      <trkpt lat="47.36739" lon="-1.41191">
        <ele>102</ele>
        <time>2021-02-06T13:31:36.000Z</time>
      </trkpt>
      <trkpt lat="47.3674" lon="-1.41174">
        <ele>102</ele>
        <time>2021-02-06T13:31:38.000Z</time>
      </trkpt>
      <trkpt lat="47.36738" lon="-1.41157">
        <ele>103</ele>
        <time>2021-02-06T13:31:40.000Z</time>
      </trkpt>
      <trkpt lat="47.36736" lon="-1.4114">
        <ele>104</ele>
        <time>2021-02-06T13:31:42.000Z</time>
      </trkpt>
      <trkpt lat="47.36732" lon="-1.41123">
        <ele>104</ele>
        <time>2021-02-06T13:31:44.000Z</time>
      </trkpt>
      <trkpt lat="47.36728" lon="-1.41107">
        <ele>104</ele>
        <time>2021-02-06T13:31:46.000Z</time>
      </trkpt>
      <trkpt lat="47.36724" lon="-1.4109">
        <ele>104</ele>
        <time>2021-02-06T13:31:48.000Z</time>
      </trkpt>
      <trkpt lat="47.36719" lon="-1.41073">
        <ele>104</ele>
        <time>2021-02-06T13:31:50.000Z</time>
      </trkpt>
      <trkpt lat="47.36715" lon="-1.41056">
        <ele>105</ele>
        <time>2021-02-06T13:31:52.000Z</time>
      </trkpt>
      <trkpt lat="47.3671" lon="-1.41039">
        <ele>104</ele>
        <time>2021-02-06T13:31:54.000Z</time>
      </trkpt>
      <trkpt lat="47.36705" lon="-1.41021">
        <ele>105</ele>
        <time>2021-02-06T13:31:56.000Z</time>
      </trkpt>
      <trkpt lat="47.367" lon="-1.41004">
        <ele>105</ele>
        <time>2021-02-06T13:31:58.000Z</time>
      </trkpt>
      <trkpt lat="47.36696" lon="-1.40987">
        <ele>106</ele>
        <time>2021-02-06T13:32:00.000Z</time>
      </trkpt>
      <trkpt lat="47.36692" lon="-1.40962">
        <ele>106</ele>
        <time>2021-02-06T13:32:03.000Z</time>
      </trkpt>
      <trkpt lat="47.36688" lon="-1.40945">
        <ele>106</ele>
        <time>2021-02-06T13:32:05.000Z</time>
      </trkpt>
      <trkpt lat="47.36685" lon="-1.4093">
        <ele>105</ele>
        <time>2021-02-06T13:32:07.000Z</time>
      </trkpt>
      <trkpt lat="47.36685" lon="-1.40914">
        <ele>105</ele>
        <time>2021-02-06T13:32:09.000Z</time>
      </trkpt>
      <trkpt lat="47.36687" lon="-1.40897">
        <ele>105</ele>
        <time>2021-02-06T13:32:11.000Z</time>
      </trkpt>
      <trkpt lat="47.36688" lon="-1.4088">
        <ele>106</ele>
        <time>2021-02-06T13:32:13.000Z</time>
      </trkpt>
      <trkpt lat="47.36687" lon="-1.40864">
        <ele>105</ele>
        <time>2021-02-06T13:32:15.000Z</time>
      </trkpt>
      <trkpt lat="47.36688" lon="-1.40847">
        <ele>105</ele>
        <time>2021-02-06T13:32:17.000Z</time>
      </trkpt>
      <trkpt lat="47.36688" lon="-1.40829">
        <ele>105</ele>
        <time>2021-02-06T13:32:19.000Z</time>
      </trkpt>
      <trkpt lat="47.36688" lon="-1.40813">
        <ele>105</ele>
        <time>2021-02-06T13:32:21.000Z</time>
      </trkpt>
      <trkpt lat="47.36689" lon="-1.40796">
        <ele>104</ele>
        <time>2021-02-06T13:32:23.000Z</time>
      </trkpt>
      <trkpt lat="47.3669" lon="-1.40779">
        <ele>104</ele>
        <time>2021-02-06T13:32:25.000Z</time>
      </trkpt>
      <trkpt lat="47.36692" lon="-1.40765">
        <ele>104</ele>
        <time>2021-02-06T13:32:27.000Z</time>
      </trkpt>
      <trkpt lat="47.36693" lon="-1.4075">
        <ele>105</ele>
        <time>2021-02-06T13:32:29.000Z</time>
      </trkpt>
      <trkpt lat="47.36693" lon="-1.40733">
        <ele>105</ele>
        <time>2021-02-06T13:32:31.000Z</time>
      </trkpt>
      <trkpt lat="47.36693" lon="-1.40718">
        <ele>106</ele>
        <time>2021-02-06T13:32:33.000Z</time>
      </trkpt>
      <trkpt lat="47.36693" lon="-1.40702">
        <ele>106</ele>
        <time>2021-02-06T13:32:35.000Z</time>
      </trkpt>
      <trkpt lat="47.36693" lon="-1.40686">
        <ele>106</ele>
        <time>2021-02-06T13:32:37.000Z</time>
      </trkpt>
      <trkpt lat="47.36694" lon="-1.40668">
        <ele>106</ele>
        <time>2021-02-06T13:32:39.000Z</time>
      </trkpt>
      <trkpt lat="47.36693" lon="-1.4065">
        <ele>106</ele>
        <time>2021-02-06T13:32:41.000Z</time>
      </trkpt>
      <trkpt lat="47.36694" lon="-1.40634">
        <ele>106</ele>
        <time>2021-02-06T13:32:43.000Z</time>
      </trkpt>
      <trkpt lat="47.36695" lon="-1.40617">
        <ele>105</ele>
        <time>2021-02-06T13:32:45.000Z</time>
      </trkpt>
      <trkpt lat="47.36693" lon="-1.40599">
        <ele>104</ele>
        <time>2021-02-06T13:32:47.000Z</time>
      </trkpt>
      <trkpt lat="47.36694" lon="-1.40581">
        <ele>103</ele>
        <time>2021-02-06T13:32:49.000Z</time>
      </trkpt>
      <trkpt lat="47.36696" lon="-1.40561">
        <ele>102</ele>
        <time>2021-02-06T13:32:51.000Z</time>
      </trkpt>
      <trkpt lat="47.36696" lon="-1.40545">
        <ele>102</ele>
        <time>2021-02-06T13:32:53.000Z</time>
      </trkpt>
      <trkpt lat="47.36693" lon="-1.40532">
        <ele>102</ele>
        <time>2021-02-06T13:32:55.000Z</time>
      </trkpt>
      <trkpt lat="47.36688" lon="-1.40521">
        <ele>103</ele>
        <time>2021-02-06T13:33:03.000Z</time>
      </trkpt>
      <trkpt lat="47.36699" lon="-1.40508">
        <ele>103</ele>
        <time>2021-02-06T13:33:10.000Z</time>
      </trkpt>
      <trkpt lat="47.36709" lon="-1.40508">
        <ele>101</ele>
        <time>2021-02-06T13:33:12.000Z</time>
      </trkpt>
      <trkpt lat="47.36722" lon="-1.40505">
        <ele>101</ele>
        <time>2021-02-06T13:33:14.000Z</time>
      </trkpt>
      <trkpt lat="47.36726" lon="-1.40491">
        <ele>100</ele>
        <time>2021-02-06T13:33:16.000Z</time>
      </trkpt>
      <trkpt lat="47.36723" lon="-1.40475">
        <ele>99</ele>
        <time>2021-02-06T13:33:18.000Z</time>
      </trkpt>
      <trkpt lat="47.36722" lon="-1.40456">
        <ele>99</ele>
        <time>2021-02-06T13:33:20.000Z</time>
      </trkpt>
      <trkpt lat="47.36721" lon="-1.40438">
        <ele>99</ele>
        <time>2021-02-06T13:33:22.000Z</time>
      </trkpt>
      <trkpt lat="47.36724" lon="-1.40421">
        <ele>98</ele>
        <time>2021-02-06T13:33:24.000Z</time>
      </trkpt>
      <trkpt lat="47.36726" lon="-1.40396">
        <ele>96</ele>
        <time>2021-02-06T13:33:27.000Z</time>
      </trkpt>
      <trkpt lat="47.36733" lon="-1.4038">
        <ele>97</ele>
        <time>2021-02-06T13:33:29.000Z</time>
      </trkpt>
      <trkpt lat="47.36738" lon="-1.40364">
        <ele>98</ele>
        <time>2021-02-06T13:33:31.000Z</time>
      </trkpt>
      <trkpt lat="47.36741" lon="-1.40346">
        <ele>98</ele>
        <time>2021-02-06T13:33:33.000Z</time>
      </trkpt>
      <trkpt lat="47.36744" lon="-1.40321">
        <ele>97</ele>
        <time>2021-02-06T13:33:36.000Z</time>
      </trkpt>
      <trkpt lat="47.36746" lon="-1.40304">
        <ele>98</ele>
        <time>2021-02-06T13:33:38.000Z</time>
      </trkpt>
      <trkpt lat="47.3675" lon="-1.40287">
        <ele>97</ele>
        <time>2021-02-06T13:33:40.000Z</time>
      </trkpt>
      <trkpt lat="47.36753" lon="-1.40269">
        <ele>97</ele>
        <time>2021-02-06T13:33:42.000Z</time>
      </trkpt>
      <trkpt lat="47.36753" lon="-1.40251">
        <ele>95</ele>
        <time>2021-02-06T13:33:44.000Z</time>
      </trkpt>
      <trkpt lat="47.36756" lon="-1.40223">
        <ele>95</ele>
        <time>2021-02-06T13:33:47.000Z</time>
      </trkpt>
      <trkpt lat="47.36758" lon="-1.40205">
        <ele>96</ele>
        <time>2021-02-06T13:33:49.000Z</time>
      </trkpt>
      <trkpt lat="47.36759" lon="-1.40186">
        <ele>96</ele>
        <time>2021-02-06T13:33:51.000Z</time>
      </trkpt>
      <trkpt lat="47.3676" lon="-1.40168">
        <ele>96</ele>
        <time>2021-02-06T13:33:53.000Z</time>
      </trkpt>
      <trkpt lat="47.36759" lon="-1.4015">
        <ele>95</ele>
        <time>2021-02-06T13:33:55.000Z</time>
      </trkpt>
      <trkpt lat="47.36759" lon="-1.40124">
        <ele>95</ele>
        <time>2021-02-06T13:33:58.000Z</time>
      </trkpt>
      <trkpt lat="47.36759" lon="-1.40106">
        <ele>95</ele>
        <time>2021-02-06T13:34:00.000Z</time>
      </trkpt>
      <trkpt lat="47.36759" lon="-1.40089">
        <ele>96</ele>
        <time>2021-02-06T13:34:02.000Z</time>
      </trkpt>
      <trkpt lat="47.36758" lon="-1.40073">
        <ele>96</ele>
        <time>2021-02-06T13:34:04.000Z</time>
      </trkpt>
      <trkpt lat="47.36758" lon="-1.40058">
        <ele>98</ele>
        <time>2021-02-06T13:34:06.000Z</time>
      </trkpt>
      <trkpt lat="47.36758" lon="-1.40043">
        <ele>99</ele>
        <time>2021-02-06T13:34:08.000Z</time>
      </trkpt>
      <trkpt lat="47.3676" lon="-1.4003">
        <ele>100</ele>
        <time>2021-02-06T13:34:10.000Z</time>
      </trkpt>
      <trkpt lat="47.36759" lon="-1.40014">
        <ele>101</ele>
        <time>2021-02-06T13:34:12.000Z</time>
      </trkpt>
      <trkpt lat="47.3676" lon="-1.39998">
        <ele>99</ele>
        <time>2021-02-06T13:34:14.000Z</time>
      </trkpt>
      <trkpt lat="47.3676" lon="-1.39983">
        <ele>101</ele>
        <time>2021-02-06T13:34:16.000Z</time>
      </trkpt>
      <trkpt lat="47.3676" lon="-1.39963">
        <ele>103</ele>
        <time>2021-02-06T13:34:19.000Z</time>
      </trkpt>
      <trkpt lat="47.36761" lon="-1.39947">
        <ele>102</ele>
        <time>2021-02-06T13:34:21.000Z</time>
      </trkpt>
      <trkpt lat="47.36759" lon="-1.39932">
        <ele>102</ele>
        <time>2021-02-06T13:34:23.000Z</time>
      </trkpt>
      <trkpt lat="47.36758" lon="-1.39917">
        <ele>102</ele>
        <time>2021-02-06T13:34:25.000Z</time>
      </trkpt>
      <trkpt lat="47.36758" lon="-1.39899">
        <ele>101</ele>
        <time>2021-02-06T13:34:27.000Z</time>
      </trkpt>
      <trkpt lat="47.36758" lon="-1.39883">
        <ele>101</ele>
        <time>2021-02-06T13:34:29.000Z</time>
      </trkpt>
      <trkpt lat="47.3676" lon="-1.39868">
        <ele>102</ele>
        <time>2021-02-06T13:34:31.000Z</time>
      </trkpt>
      <trkpt lat="47.3676" lon="-1.39844">
        <ele>104</ele>
        <time>2021-02-06T13:34:34.000Z</time>
      </trkpt>
      <trkpt lat="47.36761" lon="-1.39829">
        <ele>105</ele>
        <time>2021-02-06T13:34:36.000Z</time>
      </trkpt>
      <trkpt lat="47.36762" lon="-1.39813">
        <ele>105</ele>
        <time>2021-02-06T13:34:38.000Z</time>
      </trkpt>
      <trkpt lat="47.36762" lon="-1.39798">
        <ele>106</ele>
        <time>2021-02-06T13:34:40.000Z</time>
      </trkpt>
      <trkpt lat="47.36762" lon="-1.39782">
        <ele>106</ele>
        <time>2021-02-06T13:34:42.000Z</time>
      </trkpt>
      <trkpt lat="47.36762" lon="-1.39766">
        <ele>107</ele>
        <time>2021-02-06T13:34:44.000Z</time>
      </trkpt>
      <trkpt lat="47.36762" lon="-1.3975">
        <ele>108</ele>
        <time>2021-02-06T13:34:46.000Z</time>
      </trkpt>
      <trkpt lat="47.36763" lon="-1.39734">
        <ele>108</ele>
        <time>2021-02-06T13:34:48.000Z</time>
      </trkpt>
      <trkpt lat="47.36761" lon="-1.39718">
        <ele>108</ele>
        <time>2021-02-06T13:34:50.000Z</time>
      </trkpt>
      <trkpt lat="47.36762" lon="-1.39703">
        <ele>107</ele>
        <time>2021-02-06T13:34:52.000Z</time>
      </trkpt>
      <trkpt lat="47.36762" lon="-1.39688">
        <ele>107</ele>
        <time>2021-02-06T13:34:54.000Z</time>
      </trkpt>
      <trkpt lat="47.36761" lon="-1.39673">
        <ele>106</ele>
        <time>2021-02-06T13:34:56.000Z</time>
      </trkpt>
      <trkpt lat="47.3676" lon="-1.39658">
        <ele>106</ele>
        <time>2021-02-06T13:34:58.000Z</time>
      </trkpt>
      <trkpt lat="47.36759" lon="-1.39642">
        <ele>105</ele>
        <time>2021-02-06T13:35:00.000Z</time>
      </trkpt>
      <trkpt lat="47.3676" lon="-1.39626">
        <ele>106</ele>
        <time>2021-02-06T13:35:02.000Z</time>
      </trkpt>
      <trkpt lat="47.3676" lon="-1.39612">
        <ele>106</ele>
        <time>2021-02-06T13:35:04.000Z</time>
      </trkpt>
      <trkpt lat="47.3676" lon="-1.39596">
        <ele>106</ele>
        <time>2021-02-06T13:35:06.000Z</time>
      </trkpt>
      <trkpt lat="47.36763" lon="-1.39571">
        <ele>103</ele>
        <time>2021-02-06T13:35:09.000Z</time>
      </trkpt>
      <trkpt lat="47.36762" lon="-1.39556">
        <ele>102</ele>
        <time>2021-02-06T13:35:11.000Z</time>
      </trkpt>
      <trkpt lat="47.3676" lon="-1.39538">
        <ele>101</ele>
        <time>2021-02-06T13:35:13.000Z</time>
      </trkpt>
      <trkpt lat="47.3676" lon="-1.39522">
        <ele>102</ele>
        <time>2021-02-06T13:35:15.000Z</time>
      </trkpt>
      <trkpt lat="47.36762" lon="-1.39505">
        <ele>103</ele>
        <time>2021-02-06T13:35:17.000Z</time>
      </trkpt>
      <trkpt lat="47.36763" lon="-1.3948">
        <ele>103</ele>
        <time>2021-02-06T13:35:20.000Z</time>
      </trkpt>
      <trkpt lat="47.36764" lon="-1.39464">
        <ele>105</ele>
        <time>2021-02-06T13:35:22.000Z</time>
      </trkpt>
      <trkpt lat="47.36764" lon="-1.39449">
        <ele>106</ele>
        <time>2021-02-06T13:35:24.000Z</time>
      </trkpt>
      <trkpt lat="47.36765" lon="-1.39433">
        <ele>107</ele>
        <time>2021-02-06T13:35:26.000Z</time>
      </trkpt>
      <trkpt lat="47.36765" lon="-1.39415">
        <ele>107</ele>
        <time>2021-02-06T13:35:28.000Z</time>
      </trkpt>
      <trkpt lat="47.36764" lon="-1.39393">
        <ele>109</ele>
        <time>2021-02-06T13:35:31.000Z</time>
      </trkpt>
      <trkpt lat="47.36764" lon="-1.39369">
        <ele>108</ele>
        <time>2021-02-06T13:35:34.000Z</time>
      </trkpt>
      <trkpt lat="47.36763" lon="-1.39342">
        <ele>106</ele>
        <time>2021-02-06T13:35:37.000Z</time>
      </trkpt>
      <trkpt lat="47.36762" lon="-1.39316">
        <ele>108</ele>
        <time>2021-02-06T13:35:40.000Z</time>
      </trkpt>
      <trkpt lat="47.36759" lon="-1.39302">
        <ele>110</ele>
        <time>2021-02-06T13:35:42.000Z</time>
      </trkpt>
      <trkpt lat="47.36755" lon="-1.39287">
        <ele>110</ele>
        <time>2021-02-06T13:35:44.000Z</time>
      </trkpt>
      <trkpt lat="47.3675" lon="-1.39272">
        <ele>110</ele>
        <time>2021-02-06T13:35:46.000Z</time>
      </trkpt>
      <trkpt lat="47.36744" lon="-1.39258">
        <ele>111</ele>
        <time>2021-02-06T13:35:48.000Z</time>
      </trkpt>
      <trkpt lat="47.36738" lon="-1.39245">
        <ele>112</ele>
        <time>2021-02-06T13:35:50.000Z</time>
      </trkpt>
      <trkpt lat="47.36732" lon="-1.39232">
        <ele>112</ele>
        <time>2021-02-06T13:35:52.000Z</time>
      </trkpt>
      <trkpt lat="47.36726" lon="-1.39219">
        <ele>112</ele>
        <time>2021-02-06T13:35:54.000Z</time>
      </trkpt>
      <trkpt lat="47.36719" lon="-1.39205">
        <ele>112</ele>
        <time>2021-02-06T13:35:56.000Z</time>
      </trkpt>
      <trkpt lat="47.36712" lon="-1.39192">
        <ele>112</ele>
        <time>2021-02-06T13:35:58.000Z</time>
      </trkpt>
      <trkpt lat="47.36706" lon="-1.39179">
        <ele>112</ele>
        <time>2021-02-06T13:36:00.000Z</time>
      </trkpt>
      <trkpt lat="47.367" lon="-1.39165">
        <ele>112</ele>
        <time>2021-02-06T13:36:02.000Z</time>
      </trkpt>
      <trkpt lat="47.36693" lon="-1.39151">
        <ele>113</ele>
        <time>2021-02-06T13:36:04.000Z</time>
      </trkpt>
      <trkpt lat="47.36682" lon="-1.3913">
        <ele>113</ele>
        <time>2021-02-06T13:36:07.000Z</time>
      </trkpt>
      <trkpt lat="47.36674" lon="-1.39115">
        <ele>112</ele>
        <time>2021-02-06T13:36:09.000Z</time>
      </trkpt>
      <trkpt lat="47.36669" lon="-1.39102">
        <ele>113</ele>
        <time>2021-02-06T13:36:11.000Z</time>
      </trkpt>
      <trkpt lat="47.36663" lon="-1.39088">
        <ele>113</ele>
        <time>2021-02-06T13:36:13.000Z</time>
      </trkpt>
      <trkpt lat="47.36655" lon="-1.39074">
        <ele>112</ele>
        <time>2021-02-06T13:36:15.000Z</time>
      </trkpt>
      <trkpt lat="47.36647" lon="-1.39062">
        <ele>113</ele>
        <time>2021-02-06T13:36:17.000Z</time>
      </trkpt>
      <trkpt lat="47.36643" lon="-1.39049">
        <ele>113</ele>
        <time>2021-02-06T13:36:19.000Z</time>
      </trkpt>
      <trkpt lat="47.36637" lon="-1.39036">
        <ele>113</ele>
        <time>2021-02-06T13:36:21.000Z</time>
      </trkpt>
      <trkpt lat="47.3663" lon="-1.3902">
        <ele>112</ele>
        <time>2021-02-06T13:36:23.000Z</time>
      </trkpt>
      <trkpt lat="47.36619" lon="-1.38998">
        <ele>113</ele>
        <time>2021-02-06T13:36:26.000Z</time>
      </trkpt>
      <trkpt lat="47.36612" lon="-1.38985">
        <ele>113</ele>
        <time>2021-02-06T13:36:28.000Z</time>
      </trkpt>
      <trkpt lat="47.36605" lon="-1.38971">
        <ele>114</ele>
        <time>2021-02-06T13:36:30.000Z</time>
      </trkpt>
      <trkpt lat="47.36599" lon="-1.38958">
        <ele>114</ele>
        <time>2021-02-06T13:36:32.000Z</time>
      </trkpt>
      <trkpt lat="47.36592" lon="-1.38944">
        <ele>115</ele>
        <time>2021-02-06T13:36:34.000Z</time>
      </trkpt>
      <trkpt lat="47.36586" lon="-1.3893">
        <ele>115</ele>
        <time>2021-02-06T13:36:36.000Z</time>
      </trkpt>
      <trkpt lat="47.3658" lon="-1.38916">
        <ele>115</ele>
        <time>2021-02-06T13:36:38.000Z</time>
      </trkpt>
      <trkpt lat="47.36573" lon="-1.38902">
        <ele>115</ele>
        <time>2021-02-06T13:36:40.000Z</time>
      </trkpt>
      <trkpt lat="47.36562" lon="-1.38879">
        <ele>115</ele>
        <time>2021-02-06T13:36:43.000Z</time>
      </trkpt>
      <trkpt lat="47.36556" lon="-1.38867">
        <ele>115</ele>
        <time>2021-02-06T13:36:45.000Z</time>
      </trkpt>
      <trkpt lat="47.36549" lon="-1.38854">
        <ele>112</ele>
        <time>2021-02-06T13:36:47.000Z</time>
      </trkpt>
      <trkpt lat="47.36541" lon="-1.3884">
        <ele>113</ele>
        <time>2021-02-06T13:36:49.000Z</time>
      </trkpt>
      <trkpt lat="47.36535" lon="-1.38828">
        <ele>114</ele>
        <time>2021-02-06T13:36:51.000Z</time>
      </trkpt>
      <trkpt lat="47.36529" lon="-1.38813">
        <ele>114</ele>
        <time>2021-02-06T13:36:53.000Z</time>
      </trkpt>
      <trkpt lat="47.36524" lon="-1.38799">
        <ele>115</ele>
        <time>2021-02-06T13:36:55.000Z</time>
      </trkpt>
      <trkpt lat="47.36517" lon="-1.38785">
        <ele>116</ele>
        <time>2021-02-06T13:36:57.000Z</time>
      </trkpt>
      <trkpt lat="47.36511" lon="-1.38771">
        <ele>116</ele>
        <time>2021-02-06T13:36:59.000Z</time>
      </trkpt>
      <trkpt lat="47.36504" lon="-1.38756">
        <ele>117</ele>
        <time>2021-02-06T13:37:01.000Z</time>
      </trkpt>
      <trkpt lat="47.36493" lon="-1.38736">
        <ele>117</ele>
        <time>2021-02-06T13:37:04.000Z</time>
      </trkpt>
      <trkpt lat="47.36486" lon="-1.38722">
        <ele>117</ele>
        <time>2021-02-06T13:37:06.000Z</time>
      </trkpt>
      <trkpt lat="47.3648" lon="-1.38708">
        <ele>116</ele>
        <time>2021-02-06T13:37:08.000Z</time>
      </trkpt>
      <trkpt lat="47.36474" lon="-1.38695">
        <ele>116</ele>
        <time>2021-02-06T13:37:10.000Z</time>
      </trkpt>
      <trkpt lat="47.36468" lon="-1.38681">
        <ele>115</ele>
        <time>2021-02-06T13:37:12.000Z</time>
      </trkpt>
      <trkpt lat="47.36462" lon="-1.38666">
        <ele>115</ele>
        <time>2021-02-06T13:37:14.000Z</time>
      </trkpt>
      <trkpt lat="47.36456" lon="-1.38653">
        <ele>116</ele>
        <time>2021-02-06T13:37:16.000Z</time>
      </trkpt>
      <trkpt lat="47.36449" lon="-1.38639">
        <ele>117</ele>
        <time>2021-02-06T13:37:18.000Z</time>
      </trkpt>
      <trkpt lat="47.36442" lon="-1.38625">
        <ele>116</ele>
        <time>2021-02-06T13:37:20.000Z</time>
      </trkpt>
      <trkpt lat="47.36432" lon="-1.38603">
        <ele>116</ele>
        <time>2021-02-06T13:37:23.000Z</time>
      </trkpt>
      <trkpt lat="47.3642" lon="-1.3858">
        <ele>117</ele>
        <time>2021-02-06T13:37:26.000Z</time>
      </trkpt>
      <trkpt lat="47.3641" lon="-1.3856">
        <ele>117</ele>
        <time>2021-02-06T13:37:29.000Z</time>
      </trkpt>
      <trkpt lat="47.36402" lon="-1.38546">
        <ele>117</ele>
        <time>2021-02-06T13:37:31.000Z</time>
      </trkpt>
      <trkpt lat="47.36394" lon="-1.38534">
        <ele>117</ele>
        <time>2021-02-06T13:37:33.000Z</time>
      </trkpt>
      <trkpt lat="47.36384" lon="-1.38525">
        <ele>116</ele>
        <time>2021-02-06T13:37:35.000Z</time>
      </trkpt>
      <trkpt lat="47.36377" lon="-1.3851">
        <ele>116</ele>
        <time>2021-02-06T13:37:37.000Z</time>
      </trkpt>
      <trkpt lat="47.36368" lon="-1.38495">
        <ele>116</ele>
        <time>2021-02-06T13:37:39.000Z</time>
      </trkpt>
      <trkpt lat="47.36355" lon="-1.38475">
        <ele>116</ele>
        <time>2021-02-06T13:37:42.000Z</time>
      </trkpt>
      <trkpt lat="47.36346" lon="-1.38463">
        <ele>116</ele>
        <time>2021-02-06T13:37:44.000Z</time>
      </trkpt>
      <trkpt lat="47.36338" lon="-1.3845">
        <ele>116</ele>
        <time>2021-02-06T13:37:46.000Z</time>
      </trkpt>
      <trkpt lat="47.36329" lon="-1.38437">
        <ele>116</ele>
        <time>2021-02-06T13:37:48.000Z</time>
      </trkpt>
      <trkpt lat="47.36315" lon="-1.38418">
        <ele>116</ele>
        <time>2021-02-06T13:37:51.000Z</time>
      </trkpt>
      <trkpt lat="47.36306" lon="-1.38404">
        <ele>117</ele>
        <time>2021-02-06T13:37:53.000Z</time>
      </trkpt>
      <trkpt lat="47.36298" lon="-1.38391">
        <ele>116</ele>
        <time>2021-02-06T13:37:55.000Z</time>
      </trkpt>
      <trkpt lat="47.3629" lon="-1.38378">
        <ele>116</ele>
        <time>2021-02-06T13:37:57.000Z</time>
      </trkpt>
      <trkpt lat="47.36274" lon="-1.38358">
        <ele>114</ele>
        <time>2021-02-06T13:38:00.000Z</time>
      </trkpt>
      <trkpt lat="47.36267" lon="-1.38346">
        <ele>114</ele>
        <time>2021-02-06T13:38:02.000Z</time>
      </trkpt>
      <trkpt lat="47.36251" lon="-1.3832">
        <ele>115</ele>
        <time>2021-02-06T13:38:06.000Z</time>
      </trkpt>
      <trkpt lat="47.36242" lon="-1.38307">
        <ele>116</ele>
        <time>2021-02-06T13:38:08.000Z</time>
      </trkpt>
      <trkpt lat="47.36233" lon="-1.38295">
        <ele>115</ele>
        <time>2021-02-06T13:38:10.000Z</time>
      </trkpt>
      <trkpt lat="47.36225" lon="-1.38282">
        <ele>115</ele>
        <time>2021-02-06T13:38:12.000Z</time>
      </trkpt>
      <trkpt lat="47.36216" lon="-1.38268">
        <ele>115</ele>
        <time>2021-02-06T13:38:14.000Z</time>
      </trkpt>
      <trkpt lat="47.36204" lon="-1.38255">
        <ele>113</ele>
        <time>2021-02-06T13:38:16.000Z</time>
      </trkpt>
      <trkpt lat="47.36193" lon="-1.38235">
        <ele>115</ele>
        <time>2021-02-06T13:38:19.000Z</time>
      </trkpt>
      <trkpt lat="47.36186" lon="-1.38222">
        <ele>115</ele>
        <time>2021-02-06T13:38:21.000Z</time>
      </trkpt>
      <trkpt lat="47.36177" lon="-1.3821">
        <ele>115</ele>
        <time>2021-02-06T13:38:23.000Z</time>
      </trkpt>
      <trkpt lat="47.36169" lon="-1.38196">
        <ele>115</ele>
        <time>2021-02-06T13:38:25.000Z</time>
      </trkpt>
      <trkpt lat="47.3616" lon="-1.38185">
        <ele>116</ele>
        <time>2021-02-06T13:38:27.000Z</time>
      </trkpt>
      <trkpt lat="47.36153" lon="-1.38173">
        <ele>116</ele>
        <time>2021-02-06T13:38:29.000Z</time>
      </trkpt>
      <trkpt lat="47.36145" lon="-1.38161">
        <ele>116</ele>
        <time>2021-02-06T13:38:31.000Z</time>
      </trkpt>
      <trkpt lat="47.36137" lon="-1.3815">
        <ele>116</ele>
        <time>2021-02-06T13:38:33.000Z</time>
      </trkpt>
      <trkpt lat="47.36129" lon="-1.38138">
        <ele>117</ele>
        <time>2021-02-06T13:38:35.000Z</time>
      </trkpt>
      <trkpt lat="47.36122" lon="-1.38127">
        <ele>117</ele>
        <time>2021-02-06T13:38:37.000Z</time>
      </trkpt>
      <trkpt lat="47.36113" lon="-1.3812">
        <ele>117</ele>
        <time>2021-02-06T13:38:39.000Z</time>
      </trkpt>
      <trkpt lat="47.36103" lon="-1.38126">
        <ele>117</ele>
        <time>2021-02-06T13:38:41.000Z</time>
      </trkpt>
      <trkpt lat="47.36093" lon="-1.38136">
        <ele>116</ele>
        <time>2021-02-06T13:38:43.000Z</time>
      </trkpt>
      <trkpt lat="47.36083" lon="-1.38143">
        <ele>116</ele>
        <time>2021-02-06T13:38:45.000Z</time>
      </trkpt>
      <trkpt lat="47.36072" lon="-1.38146">
        <ele>113</ele>
        <time>2021-02-06T13:38:47.000Z</time>
      </trkpt>
      <trkpt lat="47.36049" lon="-1.38162">
        <ele>112</ele>
        <time>2021-02-06T13:38:51.000Z</time>
      </trkpt>
      <trkpt lat="47.36038" lon="-1.38172">
        <ele>112</ele>
        <time>2021-02-06T13:38:53.000Z</time>
      </trkpt>
      <trkpt lat="47.36031" lon="-1.38183">
        <ele>110</ele>
        <time>2021-02-06T13:38:55.000Z</time>
      </trkpt>
      <trkpt lat="47.36024" lon="-1.38195">
        <ele>110</ele>
        <time>2021-02-06T13:38:57.000Z</time>
      </trkpt>
      <trkpt lat="47.36013" lon="-1.38205">
        <ele>112</ele>
        <time>2021-02-06T13:38:59.000Z</time>
      </trkpt>
      <trkpt lat="47.36003" lon="-1.38215">
        <ele>112</ele>
        <time>2021-02-06T13:39:01.000Z</time>
      </trkpt>
      <trkpt lat="47.35992" lon="-1.38225">
        <ele>112</ele>
        <time>2021-02-06T13:39:03.000Z</time>
      </trkpt>
      <trkpt lat="47.35983" lon="-1.38235">
        <ele>113</ele>
        <time>2021-02-06T13:39:05.000Z</time>
      </trkpt>
      <trkpt lat="47.35974" lon="-1.3824">
        <ele>115</ele>
        <time>2021-02-06T13:39:17.000Z</time>
      </trkpt>
      <trkpt lat="47.35968" lon="-1.38251">
        <ele>113</ele>
        <time>2021-02-06T13:39:21.000Z</time>
      </trkpt>
      <trkpt lat="47.3596" lon="-1.38257">
        <ele>115</ele>
        <time>2021-02-06T13:39:23.000Z</time>
      </trkpt>
      <trkpt lat="47.35951" lon="-1.38265">
        <ele>115</ele>
        <time>2021-02-06T13:39:25.000Z</time>
      </trkpt>
      <trkpt lat="47.35942" lon="-1.38274">
        <ele>116</ele>
        <time>2021-02-06T13:39:27.000Z</time>
      </trkpt>
      <trkpt lat="47.35933" lon="-1.38283">
        <ele>116</ele>
        <time>2021-02-06T13:39:29.000Z</time>
      </trkpt>
      <trkpt lat="47.35918" lon="-1.38298">
        <ele>117</ele>
        <time>2021-02-06T13:39:32.000Z</time>
      </trkpt>
      <trkpt lat="47.35903" lon="-1.38313">
        <ele>117</ele>
        <time>2021-02-06T13:39:35.000Z</time>
      </trkpt>
      <trkpt lat="47.35894" lon="-1.38323">
        <ele>118</ele>
        <time>2021-02-06T13:39:37.000Z</time>
      </trkpt>
      <trkpt lat="47.35878" lon="-1.38338">
        <ele>117</ele>
        <time>2021-02-06T13:39:40.000Z</time>
      </trkpt>
      <trkpt lat="47.35868" lon="-1.38347">
        <ele>115</ele>
        <time>2021-02-06T13:39:42.000Z</time>
      </trkpt>
      <trkpt lat="47.35852" lon="-1.38362">
        <ele>115</ele>
        <time>2021-02-06T13:39:45.000Z</time>
      </trkpt>
      <trkpt lat="47.35842" lon="-1.38371">
        <ele>116</ele>
        <time>2021-02-06T13:39:47.000Z</time>
      </trkpt>
      <trkpt lat="47.35823" lon="-1.38394">
        <ele>115</ele>
        <time>2021-02-06T13:39:51.000Z</time>
      </trkpt>
      <trkpt lat="47.35813" lon="-1.38404">
        <ele>114</ele>
        <time>2021-02-06T13:39:53.000Z</time>
      </trkpt>
      <trkpt lat="47.35803" lon="-1.38413">
        <ele>114</ele>
        <time>2021-02-06T13:39:55.000Z</time>
      </trkpt>
      <trkpt lat="47.35793" lon="-1.38422">
        <ele>115</ele>
        <time>2021-02-06T13:39:57.000Z</time>
      </trkpt>
      <trkpt lat="47.35781" lon="-1.38437">
        <ele>117</ele>
        <time>2021-02-06T13:40:00.000Z</time>
      </trkpt>
      <trkpt lat="47.35773" lon="-1.38446">
        <ele>119</ele>
        <time>2021-02-06T13:40:02.000Z</time>
      </trkpt>
      <trkpt lat="47.35763" lon="-1.38457">
        <ele>120</ele>
        <time>2021-02-06T13:40:04.000Z</time>
      </trkpt>
      <trkpt lat="47.35753" lon="-1.38467">
        <ele>120</ele>
        <time>2021-02-06T13:40:06.000Z</time>
      </trkpt>
      <trkpt lat="47.35737" lon="-1.38481">
        <ele>119</ele>
        <time>2021-02-06T13:40:09.000Z</time>
      </trkpt>
      <trkpt lat="47.35726" lon="-1.3849">
        <ele>118</ele>
        <time>2021-02-06T13:40:11.000Z</time>
      </trkpt>
      <trkpt lat="47.35716" lon="-1.38499">
        <ele>118</ele>
        <time>2021-02-06T13:40:13.000Z</time>
      </trkpt>
      <trkpt lat="47.35708" lon="-1.38511">
        <ele>116</ele>
        <time>2021-02-06T13:40:15.000Z</time>
      </trkpt>
      <trkpt lat="47.35701" lon="-1.38522">
        <ele>117</ele>
        <time>2021-02-06T13:40:17.000Z</time>
      </trkpt>
      <trkpt lat="47.35693" lon="-1.38531">
        <ele>117</ele>
        <time>2021-02-06T13:40:19.000Z</time>
      </trkpt>
      <trkpt lat="47.35676" lon="-1.38544">
        <ele>117</ele>
        <time>2021-02-06T13:40:22.000Z</time>
      </trkpt>
      <trkpt lat="47.35668" lon="-1.38555">
        <ele>117</ele>
        <time>2021-02-06T13:40:24.000Z</time>
      </trkpt>
      <trkpt lat="47.3565" lon="-1.38566">
        <ele>118</ele>
        <time>2021-02-06T13:40:27.000Z</time>
      </trkpt>
      <trkpt lat="47.35639" lon="-1.38576">
        <ele>118</ele>
        <time>2021-02-06T13:40:29.000Z</time>
      </trkpt>
      <trkpt lat="47.35629" lon="-1.38586">
        <ele>118</ele>
        <time>2021-02-06T13:40:31.000Z</time>
      </trkpt>
      <trkpt lat="47.35619" lon="-1.38595">
        <ele>118</ele>
        <time>2021-02-06T13:40:33.000Z</time>
      </trkpt>
      <trkpt lat="47.3561" lon="-1.38606">
        <ele>118</ele>
        <time>2021-02-06T13:40:35.000Z</time>
      </trkpt>
      <trkpt lat="47.35602" lon="-1.38614">
        <ele>118</ele>
        <time>2021-02-06T13:40:37.000Z</time>
      </trkpt>
      <trkpt lat="47.35592" lon="-1.38622">
        <ele>119</ele>
        <time>2021-02-06T13:40:39.000Z</time>
      </trkpt>
      <trkpt lat="47.35581" lon="-1.38631">
        <ele>120</ele>
        <time>2021-02-06T13:40:41.000Z</time>
      </trkpt>
      <trkpt lat="47.35572" lon="-1.38642">
        <ele>120</ele>
        <time>2021-02-06T13:40:43.000Z</time>
      </trkpt>
      <trkpt lat="47.35564" lon="-1.38653">
        <ele>121</ele>
        <time>2021-02-06T13:40:45.000Z</time>
      </trkpt>
      <trkpt lat="47.35555" lon="-1.3866">
        <ele>120</ele>
        <time>2021-02-06T13:40:47.000Z</time>
      </trkpt>
      <trkpt lat="47.35545" lon="-1.38669">
        <ele>119</ele>
        <time>2021-02-06T13:40:49.000Z</time>
      </trkpt>
      <trkpt lat="47.35535" lon="-1.38677">
        <ele>119</ele>
        <time>2021-02-06T13:40:51.000Z</time>
      </trkpt>
      <trkpt lat="47.35526" lon="-1.38685">
        <ele>120</ele>
        <time>2021-02-06T13:40:53.000Z</time>
      </trkpt>
      <trkpt lat="47.35517" lon="-1.38696">
        <ele>120</ele>
        <time>2021-02-06T13:40:55.000Z</time>
      </trkpt>
      <trkpt lat="47.35507" lon="-1.38707">
        <ele>121</ele>
        <time>2021-02-06T13:40:57.000Z</time>
      </trkpt>
      <trkpt lat="47.35496" lon="-1.38716">
        <ele>122</ele>
        <time>2021-02-06T13:40:59.000Z</time>
      </trkpt>
      <trkpt lat="47.35487" lon="-1.38725">
        <ele>122</ele>
        <time>2021-02-06T13:41:01.000Z</time>
      </trkpt>
      <trkpt lat="47.35477" lon="-1.38734">
        <ele>120</ele>
        <time>2021-02-06T13:41:03.000Z</time>
      </trkpt>
      <trkpt lat="47.35471" lon="-1.38746">
        <ele>121</ele>
        <time>2021-02-06T13:41:05.000Z</time>
      </trkpt>
      <trkpt lat="47.35463" lon="-1.38754">
        <ele>122</ele>
        <time>2021-02-06T13:41:07.000Z</time>
      </trkpt>
      <trkpt lat="47.35454" lon="-1.38763">
        <ele>122</ele>
        <time>2021-02-06T13:41:09.000Z</time>
      </trkpt>
      <trkpt lat="47.35447" lon="-1.38772">
        <ele>123</ele>
        <time>2021-02-06T13:41:11.000Z</time>
      </trkpt>
      <trkpt lat="47.35438" lon="-1.38782">
        <ele>122</ele>
        <time>2021-02-06T13:41:13.000Z</time>
      </trkpt>
      <trkpt lat="47.35427" lon="-1.38791">
        <ele>122</ele>
        <time>2021-02-06T13:41:15.000Z</time>
      </trkpt>
      <trkpt lat="47.35417" lon="-1.38799">
        <ele>122</ele>
        <time>2021-02-06T13:41:17.000Z</time>
      </trkpt>
      <trkpt lat="47.35408" lon="-1.38808">
        <ele>122</ele>
        <time>2021-02-06T13:41:19.000Z</time>
      </trkpt>
      <trkpt lat="47.35398" lon="-1.38817">
        <ele>119</ele>
        <time>2021-02-06T13:41:21.000Z</time>
      </trkpt>
      <trkpt lat="47.35389" lon="-1.38827">
        <ele>120</ele>
        <time>2021-02-06T13:41:23.000Z</time>
      </trkpt>
      <trkpt lat="47.3538" lon="-1.38837">
        <ele>120</ele>
        <time>2021-02-06T13:41:25.000Z</time>
      </trkpt>
      <trkpt lat="47.35371" lon="-1.3885">
        <ele>120</ele>
        <time>2021-02-06T13:41:27.000Z</time>
      </trkpt>
      <trkpt lat="47.35357" lon="-1.38868">
        <ele>120</ele>
        <time>2021-02-06T13:41:30.000Z</time>
      </trkpt>
      <trkpt lat="47.35348" lon="-1.3888">
        <ele>120</ele>
        <time>2021-02-06T13:41:32.000Z</time>
      </trkpt>
      <trkpt lat="47.35333" lon="-1.38896">
        <ele>121</ele>
        <time>2021-02-06T13:41:35.000Z</time>
      </trkpt>
      <trkpt lat="47.35321" lon="-1.38905">
        <ele>118</ele>
        <time>2021-02-06T13:41:37.000Z</time>
      </trkpt>
      <trkpt lat="47.35307" lon="-1.38916">
        <ele>118</ele>
        <time>2021-02-06T13:41:39.000Z</time>
      </trkpt>
      <trkpt lat="47.35294" lon="-1.38924">
        <ele>119</ele>
        <time>2021-02-06T13:41:41.000Z</time>
      </trkpt>
      <trkpt lat="47.35282" lon="-1.38934">
        <ele>118</ele>
        <time>2021-02-06T13:41:43.000Z</time>
      </trkpt>
      <trkpt lat="47.35269" lon="-1.38945">
        <ele>120</ele>
        <time>2021-02-06T13:41:45.000Z</time>
      </trkpt>
      <trkpt lat="47.35257" lon="-1.38957">
        <ele>119</ele>
        <time>2021-02-06T13:41:47.000Z</time>
      </trkpt>
      <trkpt lat="47.35245" lon="-1.38968">
        <ele>118</ele>
        <time>2021-02-06T13:41:49.000Z</time>
      </trkpt>
      <trkpt lat="47.35232" lon="-1.38978">
        <ele>118</ele>
        <time>2021-02-06T13:41:51.000Z</time>
      </trkpt>
      <trkpt lat="47.3522" lon="-1.3899">
        <ele>118</ele>
        <time>2021-02-06T13:41:53.000Z</time>
      </trkpt>
      <trkpt lat="47.35208" lon="-1.39001">
        <ele>117</ele>
        <time>2021-02-06T13:41:55.000Z</time>
      </trkpt>
      <trkpt lat="47.35198" lon="-1.39011">
        <ele>118</ele>
        <time>2021-02-06T13:41:57.000Z</time>
      </trkpt>
      <trkpt lat="47.35188" lon="-1.39023">
        <ele>118</ele>
        <time>2021-02-06T13:41:59.000Z</time>
      </trkpt>
      <trkpt lat="47.35178" lon="-1.39033">
        <ele>118</ele>
        <time>2021-02-06T13:42:01.000Z</time>
      </trkpt>
      <trkpt lat="47.35167" lon="-1.39043">
        <ele>118</ele>
        <time>2021-02-06T13:42:03.000Z</time>
      </trkpt>
      <trkpt lat="47.35157" lon="-1.39053">
        <ele>118</ele>
        <time>2021-02-06T13:42:05.000Z</time>
      </trkpt>
      <trkpt lat="47.35147" lon="-1.39069">
        <ele>118</ele>
        <time>2021-02-06T13:42:07.000Z</time>
      </trkpt>
      <trkpt lat="47.35135" lon="-1.39076">
        <ele>118</ele>
        <time>2021-02-06T13:42:09.000Z</time>
      </trkpt>
      <trkpt lat="47.35121" lon="-1.39088">
        <ele>119</ele>
        <time>2021-02-06T13:42:12.000Z</time>
      </trkpt>
      <trkpt lat="47.35111" lon="-1.39098">
        <ele>119</ele>
        <time>2021-02-06T13:42:14.000Z</time>
      </trkpt>
      <trkpt lat="47.351" lon="-1.39107">
        <ele>119</ele>
        <time>2021-02-06T13:42:16.000Z</time>
      </trkpt>
      <trkpt lat="47.35085" lon="-1.39123">
        <ele>119</ele>
        <time>2021-02-06T13:42:19.000Z</time>
      </trkpt>
      <trkpt lat="47.35075" lon="-1.39134">
        <ele>120</ele>
        <time>2021-02-06T13:42:21.000Z</time>
      </trkpt>
      <trkpt lat="47.35065" lon="-1.39144">
        <ele>120</ele>
        <time>2021-02-06T13:42:23.000Z</time>
      </trkpt>
      <trkpt lat="47.35054" lon="-1.39154">
        <ele>120</ele>
        <time>2021-02-06T13:42:25.000Z</time>
      </trkpt>
      <trkpt lat="47.35045" lon="-1.39165">
        <ele>120</ele>
        <time>2021-02-06T13:42:27.000Z</time>
      </trkpt>
      <trkpt lat="47.35028" lon="-1.39177">
        <ele>121</ele>
        <time>2021-02-06T13:42:30.000Z</time>
      </trkpt>
      <trkpt lat="47.35018" lon="-1.39187">
        <ele>121</ele>
        <time>2021-02-06T13:42:32.000Z</time>
      </trkpt>
      <trkpt lat="47.35008" lon="-1.39199">
        <ele>121</ele>
        <time>2021-02-06T13:42:34.000Z</time>
      </trkpt>
      <trkpt lat="47.34999" lon="-1.39209">
        <ele>122</ele>
        <time>2021-02-06T13:42:36.000Z</time>
      </trkpt>
      <trkpt lat="47.3499" lon="-1.3922">
        <ele>122</ele>
        <time>2021-02-06T13:42:38.000Z</time>
      </trkpt>
      <trkpt lat="47.34979" lon="-1.39231">
        <ele>122</ele>
        <time>2021-02-06T13:42:40.000Z</time>
      </trkpt>
      <trkpt lat="47.34964" lon="-1.39246">
        <ele>122</ele>
        <time>2021-02-06T13:42:43.000Z</time>
      </trkpt>
      <trkpt lat="47.34954" lon="-1.39256">
        <ele>121</ele>
        <time>2021-02-06T13:42:45.000Z</time>
      </trkpt>
      <trkpt lat="47.34938" lon="-1.39271">
        <ele>122</ele>
        <time>2021-02-06T13:42:48.000Z</time>
      </trkpt>
      <trkpt lat="47.34928" lon="-1.39281">
        <ele>122</ele>
        <time>2021-02-06T13:42:50.000Z</time>
      </trkpt>
      <trkpt lat="47.34912" lon="-1.39297">
        <ele>122</ele>
        <time>2021-02-06T13:42:53.000Z</time>
      </trkpt>
      <trkpt lat="47.34901" lon="-1.39308">
        <ele>121</ele>
        <time>2021-02-06T13:42:55.000Z</time>
      </trkpt>
      <trkpt lat="47.3489" lon="-1.39316">
        <ele>122</ele>
        <time>2021-02-06T13:42:57.000Z</time>
      </trkpt>
      <trkpt lat="47.34881" lon="-1.39327">
        <ele>123</ele>
        <time>2021-02-06T13:42:59.000Z</time>
      </trkpt>
      <trkpt lat="47.34871" lon="-1.39337">
        <ele>122</ele>
        <time>2021-02-06T13:43:01.000Z</time>
      </trkpt>
      <trkpt lat="47.3486" lon="-1.39349">
        <ele>120</ele>
        <time>2021-02-06T13:43:03.000Z</time>
      </trkpt>
      <trkpt lat="47.3485" lon="-1.39361">
        <ele>120</ele>
        <time>2021-02-06T13:43:05.000Z</time>
      </trkpt>
      <trkpt lat="47.34839" lon="-1.3937">
        <ele>120</ele>
        <time>2021-02-06T13:43:07.000Z</time>
      </trkpt>
      <trkpt lat="47.34829" lon="-1.3938">
        <ele>121</ele>
        <time>2021-02-06T13:43:09.000Z</time>
      </trkpt>
      <trkpt lat="47.34818" lon="-1.39391">
        <ele>121</ele>
        <time>2021-02-06T13:43:11.000Z</time>
      </trkpt>
      <trkpt lat="47.34802" lon="-1.39406">
        <ele>121</ele>
        <time>2021-02-06T13:43:14.000Z</time>
      </trkpt>
      <trkpt lat="47.34792" lon="-1.39419">
        <ele>122</ele>
        <time>2021-02-06T13:43:16.000Z</time>
      </trkpt>
      <trkpt lat="47.34783" lon="-1.39429">
        <ele>123</ele>
        <time>2021-02-06T13:43:18.000Z</time>
      </trkpt>
      <trkpt lat="47.34771" lon="-1.39439">
        <ele>122</ele>
        <time>2021-02-06T13:43:20.000Z</time>
      </trkpt>
      <trkpt lat="47.3476" lon="-1.39451">
        <ele>123</ele>
        <time>2021-02-06T13:43:22.000Z</time>
      </trkpt>
      <trkpt lat="47.34749" lon="-1.39462">
        <ele>123</ele>
        <time>2021-02-06T13:43:24.000Z</time>
      </trkpt>
      <trkpt lat="47.34737" lon="-1.39475">
        <ele>122</ele>
        <time>2021-02-06T13:43:26.000Z</time>
      </trkpt>
      <trkpt lat="47.34723" lon="-1.39485">
        <ele>121</ele>
        <time>2021-02-06T13:43:28.000Z</time>
      </trkpt>
      <trkpt lat="47.34706" lon="-1.395">
        <ele>120</ele>
        <time>2021-02-06T13:43:31.000Z</time>
      </trkpt>
      <trkpt lat="47.34687" lon="-1.39514">
        <ele>117</ele>
        <time>2021-02-06T13:43:34.000Z</time>
      </trkpt>
      <trkpt lat="47.34675" lon="-1.39523">
        <ele>116</ele>
        <time>2021-02-06T13:43:36.000Z</time>
      </trkpt>
      <trkpt lat="47.34667" lon="-1.39536">
        <ele>118</ele>
        <time>2021-02-06T13:43:38.000Z</time>
      </trkpt>
      <trkpt lat="47.34653" lon="-1.39553">
        <ele>119</ele>
        <time>2021-02-06T13:43:41.000Z</time>
      </trkpt>
      <trkpt lat="47.34644" lon="-1.39564">
        <ele>120</ele>
        <time>2021-02-06T13:43:43.000Z</time>
      </trkpt>
      <trkpt lat="47.34633" lon="-1.39574">
        <ele>121</ele>
        <time>2021-02-06T13:43:45.000Z</time>
      </trkpt>
      <trkpt lat="47.34622" lon="-1.39584">
        <ele>121</ele>
        <time>2021-02-06T13:43:47.000Z</time>
      </trkpt>
      <trkpt lat="47.34612" lon="-1.39594">
        <ele>121</ele>
        <time>2021-02-06T13:43:49.000Z</time>
      </trkpt>
      <trkpt lat="47.34597" lon="-1.3961">
        <ele>120</ele>
        <time>2021-02-06T13:43:52.000Z</time>
      </trkpt>
      <trkpt lat="47.34587" lon="-1.39619">
        <ele>120</ele>
        <time>2021-02-06T13:43:54.000Z</time>
      </trkpt>
      <trkpt lat="47.34577" lon="-1.3963">
        <ele>121</ele>
        <time>2021-02-06T13:43:56.000Z</time>
      </trkpt>
      <trkpt lat="47.34566" lon="-1.39642">
        <ele>121</ele>
        <time>2021-02-06T13:43:58.000Z</time>
      </trkpt>
      <trkpt lat="47.3455" lon="-1.39658">
        <ele>122</ele>
        <time>2021-02-06T13:44:01.000Z</time>
      </trkpt>
      <trkpt lat="47.34537" lon="-1.39673">
        <ele>119</ele>
        <time>2021-02-06T13:44:04.000Z</time>
      </trkpt>
      <trkpt lat="47.34521" lon="-1.39687">
        <ele>114</ele>
        <time>2021-02-06T13:44:07.000Z</time>
      </trkpt>
      <trkpt lat="47.34505" lon="-1.39697">
        <ele>115</ele>
        <time>2021-02-06T13:44:09.000Z</time>
      </trkpt>
      <trkpt lat="47.34495" lon="-1.39711">
        <ele>117</ele>
        <time>2021-02-06T13:44:11.000Z</time>
      </trkpt>
      <trkpt lat="47.34485" lon="-1.39722">
        <ele>119</ele>
        <time>2021-02-06T13:44:13.000Z</time>
      </trkpt>
      <trkpt lat="47.34474" lon="-1.39734">
        <ele>118</ele>
        <time>2021-02-06T13:44:15.000Z</time>
      </trkpt>
      <trkpt lat="47.34462" lon="-1.39745">
        <ele>119</ele>
        <time>2021-02-06T13:44:17.000Z</time>
      </trkpt>
      <trkpt lat="47.34451" lon="-1.39756">
        <ele>119</ele>
        <time>2021-02-06T13:44:19.000Z</time>
      </trkpt>
      <trkpt lat="47.3444" lon="-1.39769">
        <ele>119</ele>
        <time>2021-02-06T13:44:21.000Z</time>
      </trkpt>
      <trkpt lat="47.34428" lon="-1.39779">
        <ele>119</ele>
        <time>2021-02-06T13:44:23.000Z</time>
      </trkpt>
      <trkpt lat="47.34416" lon="-1.39789">
        <ele>119</ele>
        <time>2021-02-06T13:44:25.000Z</time>
      </trkpt>
      <trkpt lat="47.34399" lon="-1.39806">
        <ele>119</ele>
        <time>2021-02-06T13:44:28.000Z</time>
      </trkpt>
      <trkpt lat="47.34387" lon="-1.39818">
        <ele>119</ele>
        <time>2021-02-06T13:44:30.000Z</time>
      </trkpt>
      <trkpt lat="47.34377" lon="-1.3983">
        <ele>119</ele>
        <time>2021-02-06T13:44:32.000Z</time>
      </trkpt>
      <trkpt lat="47.34366" lon="-1.39841">
        <ele>120</ele>
        <time>2021-02-06T13:44:34.000Z</time>
      </trkpt>
      <trkpt lat="47.34355" lon="-1.39852">
        <ele>120</ele>
        <time>2021-02-06T13:44:36.000Z</time>
      </trkpt>
      <trkpt lat="47.34344" lon="-1.39864">
        <ele>119</ele>
        <time>2021-02-06T13:44:38.000Z</time>
      </trkpt>
      <trkpt lat="47.34334" lon="-1.39877">
        <ele>118</ele>
        <time>2021-02-06T13:44:40.000Z</time>
      </trkpt>
      <trkpt lat="47.34315" lon="-1.39892">
        <ele>120</ele>
        <time>2021-02-06T13:44:43.000Z</time>
      </trkpt>
      <trkpt lat="47.34304" lon="-1.39903">
        <ele>120</ele>
        <time>2021-02-06T13:44:45.000Z</time>
      </trkpt>
      <trkpt lat="47.34294" lon="-1.39914">
        <ele>120</ele>
        <time>2021-02-06T13:44:47.000Z</time>
      </trkpt>
      <trkpt lat="47.34277" lon="-1.39928">
        <ele>121</ele>
        <time>2021-02-06T13:44:50.000Z</time>
      </trkpt>
      <trkpt lat="47.34266" lon="-1.39941">
        <ele>121</ele>
        <time>2021-02-06T13:44:52.000Z</time>
      </trkpt>
      <trkpt lat="47.34255" lon="-1.39954">
        <ele>119</ele>
        <time>2021-02-06T13:44:54.000Z</time>
      </trkpt>
      <trkpt lat="47.34243" lon="-1.39962">
        <ele>120</ele>
        <time>2021-02-06T13:44:56.000Z</time>
      </trkpt>
      <trkpt lat="47.34233" lon="-1.39973">
        <ele>120</ele>
        <time>2021-02-06T13:44:58.000Z</time>
      </trkpt>
      <trkpt lat="47.34218" lon="-1.39989">
        <ele>121</ele>
        <time>2021-02-06T13:45:01.000Z</time>
      </trkpt>
      <trkpt lat="47.34206" lon="-1.39999">
        <ele>121</ele>
        <time>2021-02-06T13:45:03.000Z</time>
      </trkpt>
      <trkpt lat="47.34195" lon="-1.4001">
        <ele>121</ele>
        <time>2021-02-06T13:45:05.000Z</time>
      </trkpt>
      <trkpt lat="47.34185" lon="-1.40021">
        <ele>121</ele>
        <time>2021-02-06T13:45:07.000Z</time>
      </trkpt>
      <trkpt lat="47.34174" lon="-1.40032">
        <ele>123</ele>
        <time>2021-02-06T13:45:09.000Z</time>
      </trkpt>
      <trkpt lat="47.34163" lon="-1.40043">
        <ele>123</ele>
        <time>2021-02-06T13:45:11.000Z</time>
      </trkpt>
      <trkpt lat="47.34152" lon="-1.40054">
        <ele>123</ele>
        <time>2021-02-06T13:45:13.000Z</time>
      </trkpt>
      <trkpt lat="47.34141" lon="-1.40064">
        <ele>122</ele>
        <time>2021-02-06T13:45:15.000Z</time>
      </trkpt>
      <trkpt lat="47.3413" lon="-1.40075">
        <ele>122</ele>
        <time>2021-02-06T13:45:17.000Z</time>
      </trkpt>
      <trkpt lat="47.34119" lon="-1.40085">
        <ele>122</ele>
        <time>2021-02-06T13:45:19.000Z</time>
      </trkpt>
      <trkpt lat="47.34108" lon="-1.40095">
        <ele>121</ele>
        <time>2021-02-06T13:45:21.000Z</time>
      </trkpt>
      <trkpt lat="47.34092" lon="-1.40112">
        <ele>122</ele>
        <time>2021-02-06T13:45:24.000Z</time>
      </trkpt>
      <trkpt lat="47.34081" lon="-1.40123">
        <ele>122</ele>
        <time>2021-02-06T13:45:26.000Z</time>
      </trkpt>
      <trkpt lat="47.3407" lon="-1.40134">
        <ele>122</ele>
        <time>2021-02-06T13:45:28.000Z</time>
      </trkpt>
      <trkpt lat="47.34054" lon="-1.4015">
        <ele>121</ele>
        <time>2021-02-06T13:45:31.000Z</time>
      </trkpt>
      <trkpt lat="47.34044" lon="-1.4016">
        <ele>121</ele>
        <time>2021-02-06T13:45:33.000Z</time>
      </trkpt>
      <trkpt lat="47.34033" lon="-1.40173">
        <ele>119</ele>
        <time>2021-02-06T13:45:35.000Z</time>
      </trkpt>
      <trkpt lat="47.34016" lon="-1.40188">
        <ele>117</ele>
        <time>2021-02-06T13:45:38.000Z</time>
      </trkpt>
      <trkpt lat="47.34005" lon="-1.40198">
        <ele>118</ele>
        <time>2021-02-06T13:45:40.000Z</time>
      </trkpt>
      <trkpt lat="47.33994" lon="-1.40209">
        <ele>120</ele>
        <time>2021-02-06T13:45:42.000Z</time>
      </trkpt>
      <trkpt lat="47.33984" lon="-1.40219">
        <ele>120</ele>
        <time>2021-02-06T13:45:44.000Z</time>
      </trkpt>
      <trkpt lat="47.33974" lon="-1.4023">
        <ele>121</ele>
        <time>2021-02-06T13:45:46.000Z</time>
      </trkpt>
      <trkpt lat="47.33964" lon="-1.40239">
        <ele>122</ele>
        <time>2021-02-06T13:45:48.000Z</time>
      </trkpt>
      <trkpt lat="47.33955" lon="-1.40248">
        <ele>122</ele>
        <time>2021-02-06T13:45:50.000Z</time>
      </trkpt>
      <trkpt lat="47.33947" lon="-1.40258">
        <ele>122</ele>
        <time>2021-02-06T13:45:54.000Z</time>
      </trkpt>
      <trkpt lat="47.33937" lon="-1.40254">
        <ele>122</ele>
        <time>2021-02-06T13:45:57.000Z</time>
      </trkpt>
      <trkpt lat="47.33929" lon="-1.40246">
        <ele>122</ele>
        <time>2021-02-06T13:45:59.000Z</time>
      </trkpt>
      <trkpt lat="47.3392" lon="-1.40236">
        <ele>122</ele>
        <time>2021-02-06T13:46:01.000Z</time>
      </trkpt>
      <trkpt lat="47.33911" lon="-1.40226">
        <ele>122</ele>
        <time>2021-02-06T13:46:03.000Z</time>
      </trkpt>
      <trkpt lat="47.33902" lon="-1.40215">
        <ele>122</ele>
        <time>2021-02-06T13:46:05.000Z</time>
      </trkpt>
      <trkpt lat="47.33892" lon="-1.40202">
        <ele>120</ele>
        <time>2021-02-06T13:46:07.000Z</time>
      </trkpt>
      <trkpt lat="47.33872" lon="-1.40183">
        <ele>118</ele>
        <time>2021-02-06T13:46:10.000Z</time>
      </trkpt>
      <trkpt lat="47.33863" lon="-1.40173">
        <ele>119</ele>
        <time>2021-02-06T13:46:12.000Z</time>
      </trkpt>
      <trkpt lat="47.33854" lon="-1.40159">
        <ele>120</ele>
        <time>2021-02-06T13:46:14.000Z</time>
      </trkpt>
      <trkpt lat="47.33845" lon="-1.40148">
        <ele>118</ele>
        <time>2021-02-06T13:46:16.000Z</time>
      </trkpt>
      <trkpt lat="47.33835" lon="-1.40137">
        <ele>119</ele>
        <time>2021-02-06T13:46:18.000Z</time>
      </trkpt>
      <trkpt lat="47.3382" lon="-1.40118">
        <ele>121</ele>
        <time>2021-02-06T13:46:21.000Z</time>
      </trkpt>
      <trkpt lat="47.33809" lon="-1.40107">
        <ele>120</ele>
        <time>2021-02-06T13:46:23.000Z</time>
      </trkpt>
      <trkpt lat="47.33799" lon="-1.40094">
        <ele>120</ele>
        <time>2021-02-06T13:46:25.000Z</time>
      </trkpt>
      <trkpt lat="47.33789" lon="-1.40081">
        <ele>121</ele>
        <time>2021-02-06T13:46:27.000Z</time>
      </trkpt>
      <trkpt lat="47.33779" lon="-1.40068">
        <ele>121</ele>
        <time>2021-02-06T13:46:29.000Z</time>
      </trkpt>
      <trkpt lat="47.33768" lon="-1.40055">
        <ele>120</ele>
        <time>2021-02-06T13:46:31.000Z</time>
      </trkpt>
      <trkpt lat="47.33757" lon="-1.40042">
        <ele>120</ele>
        <time>2021-02-06T13:46:33.000Z</time>
      </trkpt>
      <trkpt lat="47.33748" lon="-1.4003">
        <ele>121</ele>
        <time>2021-02-06T13:46:35.000Z</time>
      </trkpt>
      <trkpt lat="47.33734" lon="-1.40009">
        <ele>119</ele>
        <time>2021-02-06T13:46:38.000Z</time>
      </trkpt>
      <trkpt lat="47.33724" lon="-1.39994">
        <ele>118</ele>
        <time>2021-02-06T13:46:40.000Z</time>
      </trkpt>
      <trkpt lat="47.33706" lon="-1.39973">
        <ele>117</ele>
        <time>2021-02-06T13:46:43.000Z</time>
      </trkpt>
      <trkpt lat="47.33698" lon="-1.3996">
        <ele>116</ele>
        <time>2021-02-06T13:46:45.000Z</time>
      </trkpt>
      <trkpt lat="47.33689" lon="-1.39945">
        <ele>118</ele>
        <time>2021-02-06T13:46:47.000Z</time>
      </trkpt>
      <trkpt lat="47.33679" lon="-1.39932">
        <ele>116</ele>
        <time>2021-02-06T13:46:49.000Z</time>
      </trkpt>
      <trkpt lat="47.33668" lon="-1.39918">
        <ele>114</ele>
        <time>2021-02-06T13:46:51.000Z</time>
      </trkpt>
      <trkpt lat="47.33647" lon="-1.39888">
        <ele>116</ele>
        <time>2021-02-06T13:46:55.000Z</time>
      </trkpt>
      <trkpt lat="47.33638" lon="-1.39875">
        <ele>116</ele>
        <time>2021-02-06T13:46:57.000Z</time>
      </trkpt>
      <trkpt lat="47.33624" lon="-1.39854">
        <ele>116</ele>
        <time>2021-02-06T13:47:00.000Z</time>
      </trkpt>
      <trkpt lat="47.33615" lon="-1.39839">
        <ele>117</ele>
        <time>2021-02-06T13:47:02.000Z</time>
      </trkpt>
      <trkpt lat="47.33605" lon="-1.39824">
        <ele>118</ele>
        <time>2021-02-06T13:47:04.000Z</time>
      </trkpt>
      <trkpt lat="47.33595" lon="-1.39809">
        <ele>118</ele>
        <time>2021-02-06T13:47:06.000Z</time>
      </trkpt>
      <trkpt lat="47.33584" lon="-1.39794">
        <ele>118</ele>
        <time>2021-02-06T13:47:08.000Z</time>
      </trkpt>
      <trkpt lat="47.33576" lon="-1.39785">
        <ele>118</ele>
        <time>2021-02-06T13:47:09.000Z</time>
      </trkpt>
      <trkpt lat="47.33566" lon="-1.3977">
        <ele>118</ele>
        <time>2021-02-06T13:47:11.000Z</time>
      </trkpt>
      <trkpt lat="47.33556" lon="-1.39755">
        <ele>118</ele>
        <time>2021-02-06T13:47:13.000Z</time>
      </trkpt>
      <trkpt lat="47.33541" lon="-1.39733">
        <ele>117</ele>
        <time>2021-02-06T13:47:16.000Z</time>
      </trkpt>
      <trkpt lat="47.33531" lon="-1.39718">
        <ele>118</ele>
        <time>2021-02-06T13:47:18.000Z</time>
      </trkpt>
      <trkpt lat="47.33521" lon="-1.39705">
        <ele>118</ele>
        <time>2021-02-06T13:47:20.000Z</time>
      </trkpt>
      <trkpt lat="47.33513" lon="-1.39693">
        <ele>119</ele>
        <time>2021-02-06T13:47:22.000Z</time>
      </trkpt>
      <trkpt lat="47.33505" lon="-1.39682">
        <ele>119</ele>
        <time>2021-02-06T13:47:24.000Z</time>
      </trkpt>
      <trkpt lat="47.33498" lon="-1.39671">
        <ele>120</ele>
        <time>2021-02-06T13:47:26.000Z</time>
      </trkpt>
      <trkpt lat="47.33491" lon="-1.39662">
        <ele>120</ele>
        <time>2021-02-06T13:47:28.000Z</time>
      </trkpt>
      <trkpt lat="47.33482" lon="-1.39652">
        <ele>117</ele>
        <time>2021-02-06T13:47:30.000Z</time>
      </trkpt>
      <trkpt lat="47.33472" lon="-1.39639">
        <ele>119</ele>
        <time>2021-02-06T13:47:33.000Z</time>
      </trkpt>
      <trkpt lat="47.33462" lon="-1.39628">
        <ele>120</ele>
        <time>2021-02-06T13:47:36.000Z</time>
      </trkpt>
      <trkpt lat="47.33452" lon="-1.39618">
        <ele>117</ele>
        <time>2021-02-06T13:47:39.000Z</time>
      </trkpt>
      <trkpt lat="47.33443" lon="-1.39607">
        <ele>119</ele>
        <time>2021-02-06T13:47:41.000Z</time>
      </trkpt>
      <trkpt lat="47.33432" lon="-1.39596">
        <ele>121</ele>
        <time>2021-02-06T13:47:44.000Z</time>
      </trkpt>
      <trkpt lat="47.3342" lon="-1.3959">
        <ele>118</ele>
        <time>2021-02-06T13:47:46.000Z</time>
      </trkpt>
      <trkpt lat="47.33409" lon="-1.39579">
        <ele>121</ele>
        <time>2021-02-06T13:47:49.000Z</time>
      </trkpt>
      <trkpt lat="47.33401" lon="-1.39572">
        <ele>122</ele>
        <time>2021-02-06T13:47:51.000Z</time>
      </trkpt>
      <trkpt lat="47.33392" lon="-1.39565">
        <ele>122</ele>
        <time>2021-02-06T13:47:53.000Z</time>
      </trkpt>
      <trkpt lat="47.33382" lon="-1.39557">
        <ele>121</ele>
        <time>2021-02-06T13:47:55.000Z</time>
      </trkpt>
      <trkpt lat="47.33373" lon="-1.39552">
        <ele>121</ele>
        <time>2021-02-06T13:47:57.000Z</time>
      </trkpt>
      <trkpt lat="47.3336" lon="-1.39544">
        <ele>122</ele>
        <time>2021-02-06T13:48:00.000Z</time>
      </trkpt>
      <trkpt lat="47.3335" lon="-1.39538">
        <ele>121</ele>
        <time>2021-02-06T13:48:02.000Z</time>
      </trkpt>
      <trkpt lat="47.33341" lon="-1.39532">
        <ele>120</ele>
        <time>2021-02-06T13:48:04.000Z</time>
      </trkpt>
      <trkpt lat="47.33332" lon="-1.39526">
        <ele>121</ele>
        <time>2021-02-06T13:48:06.000Z</time>
      </trkpt>
      <trkpt lat="47.33322" lon="-1.39521">
        <ele>122</ele>
        <time>2021-02-06T13:48:08.000Z</time>
      </trkpt>
      <trkpt lat="47.33311" lon="-1.39515">
        <ele>122</ele>
        <time>2021-02-06T13:48:10.000Z</time>
      </trkpt>
      <trkpt lat="47.33301" lon="-1.39509">
        <ele>121</ele>
        <time>2021-02-06T13:48:12.000Z</time>
      </trkpt>
      <trkpt lat="47.33282" lon="-1.39502">
        <ele>120</ele>
        <time>2021-02-06T13:48:15.000Z</time>
      </trkpt>
      <trkpt lat="47.33268" lon="-1.39496">
        <ele>120</ele>
        <time>2021-02-06T13:48:17.000Z</time>
      </trkpt>
      <trkpt lat="47.33253" lon="-1.39492">
        <ele>117</ele>
        <time>2021-02-06T13:48:19.000Z</time>
      </trkpt>
      <trkpt lat="47.33234" lon="-1.39484">
        <ele>116</ele>
        <time>2021-02-06T13:48:21.000Z</time>
      </trkpt>
      <trkpt lat="47.33222" lon="-1.39484">
        <ele>114</ele>
        <time>2021-02-06T13:48:23.000Z</time>
      </trkpt>
      <trkpt lat="47.33207" lon="-1.39481">
        <ele>115</ele>
        <time>2021-02-06T13:48:25.000Z</time>
      </trkpt>
      <trkpt lat="47.33191" lon="-1.3948">
        <ele>114</ele>
        <time>2021-02-06T13:48:27.000Z</time>
      </trkpt>
      <trkpt lat="47.33174" lon="-1.39477">
        <ele>114</ele>
        <time>2021-02-06T13:48:29.000Z</time>
      </trkpt>
      <trkpt lat="47.33148" lon="-1.39473">
        <ele>114</ele>
        <time>2021-02-06T13:48:32.000Z</time>
      </trkpt>
      <trkpt lat="47.33131" lon="-1.39467">
        <ele>113</ele>
        <time>2021-02-06T13:48:34.000Z</time>
      </trkpt>
      <trkpt lat="47.33122" lon="-1.39464">
        <ele>113</ele>
        <time>2021-02-06T13:48:35.000Z</time>
      </trkpt>
      <trkpt lat="47.33106" lon="-1.39458">
        <ele>113</ele>
        <time>2021-02-06T13:48:37.000Z</time>
      </trkpt>
      <trkpt lat="47.3309" lon="-1.3945">
        <ele>113</ele>
        <time>2021-02-06T13:48:39.000Z</time>
      </trkpt>
      <trkpt lat="47.33075" lon="-1.39444">
        <ele>114</ele>
        <time>2021-02-06T13:48:41.000Z</time>
      </trkpt>
      <trkpt lat="47.33043" lon="-1.39435">
        <ele>113</ele>
        <time>2021-02-06T13:48:45.000Z</time>
      </trkpt>
      <trkpt lat="47.33032" lon="-1.39433">
        <ele>112</ele>
        <time>2021-02-06T13:48:47.000Z</time>
      </trkpt>
      <trkpt lat="47.33021" lon="-1.3943">
        <ele>113</ele>
        <time>2021-02-06T13:48:49.000Z</time>
      </trkpt>
      <trkpt lat="47.33003" lon="-1.39427">
        <ele>113</ele>
        <time>2021-02-06T13:48:52.000Z</time>
      </trkpt>
      <trkpt lat="47.32989" lon="-1.39424">
        <ele>114</ele>
        <time>2021-02-06T13:48:54.000Z</time>
      </trkpt>
      <trkpt lat="47.32977" lon="-1.39422">
        <ele>115</ele>
        <time>2021-02-06T13:48:56.000Z</time>
      </trkpt>
      <trkpt lat="47.32965" lon="-1.3942">
        <ele>115</ele>
        <time>2021-02-06T13:48:58.000Z</time>
      </trkpt>
      <trkpt lat="47.32946" lon="-1.39419">
        <ele>115</ele>
        <time>2021-02-06T13:49:01.000Z</time>
      </trkpt>
      <trkpt lat="47.32933" lon="-1.39417">
        <ele>115</ele>
        <time>2021-02-06T13:49:04.000Z</time>
      </trkpt>
      <trkpt lat="47.32921" lon="-1.39415">
        <ele>116</ele>
        <time>2021-02-06T13:49:07.000Z</time>
      </trkpt>
      <trkpt lat="47.32908" lon="-1.39412">
        <ele>116</ele>
        <time>2021-02-06T13:49:10.000Z</time>
      </trkpt>
      <trkpt lat="47.32897" lon="-1.39411">
        <ele>117</ele>
        <time>2021-02-06T13:49:12.000Z</time>
      </trkpt>
      <trkpt lat="47.32885" lon="-1.39409">
        <ele>118</ele>
        <time>2021-02-06T13:49:14.000Z</time>
      </trkpt>
      <trkpt lat="47.32873" lon="-1.39407">
        <ele>118</ele>
        <time>2021-02-06T13:49:16.000Z</time>
      </trkpt>
      <trkpt lat="47.32861" lon="-1.39406">
        <ele>118</ele>
        <time>2021-02-06T13:49:18.000Z</time>
      </trkpt>
      <trkpt lat="47.32848" lon="-1.39405">
        <ele>118</ele>
        <time>2021-02-06T13:49:20.000Z</time>
      </trkpt>
      <trkpt lat="47.32834" lon="-1.39402">
        <ele>117</ele>
        <time>2021-02-06T13:49:22.000Z</time>
      </trkpt>
      <trkpt lat="47.32815" lon="-1.39398">
        <ele>117</ele>
        <time>2021-02-06T13:49:25.000Z</time>
      </trkpt>
      <trkpt lat="47.32802" lon="-1.39396">
        <ele>118</ele>
        <time>2021-02-06T13:49:27.000Z</time>
      </trkpt>
      <trkpt lat="47.32784" lon="-1.39393">
        <ele>118</ele>
        <time>2021-02-06T13:49:30.000Z</time>
      </trkpt>
      <trkpt lat="47.32773" lon="-1.39392">
        <ele>118</ele>
        <time>2021-02-06T13:49:32.000Z</time>
      </trkpt>
      <trkpt lat="47.3276" lon="-1.39389">
        <ele>119</ele>
        <time>2021-02-06T13:49:34.000Z</time>
      </trkpt>
      <trkpt lat="47.32747" lon="-1.39386">
        <ele>119</ele>
        <time>2021-02-06T13:49:36.000Z</time>
      </trkpt>
      <trkpt lat="47.32735" lon="-1.39383">
        <ele>117</ele>
        <time>2021-02-06T13:49:38.000Z</time>
      </trkpt>
      <trkpt lat="47.32721" lon="-1.39379">
        <ele>116</ele>
        <time>2021-02-06T13:49:40.000Z</time>
      </trkpt>
      <trkpt lat="47.32708" lon="-1.39377">
        <ele>117</ele>
        <time>2021-02-06T13:49:42.000Z</time>
      </trkpt>
      <trkpt lat="47.32695" lon="-1.39375">
        <ele>118</ele>
        <time>2021-02-06T13:49:44.000Z</time>
      </trkpt>
      <trkpt lat="47.32683" lon="-1.39373">
        <ele>117</ele>
        <time>2021-02-06T13:49:46.000Z</time>
      </trkpt>
      <trkpt lat="47.32669" lon="-1.39369">
        <ele>117</ele>
        <time>2021-02-06T13:49:48.000Z</time>
      </trkpt>
      <trkpt lat="47.32657" lon="-1.39365">
        <ele>117</ele>
        <time>2021-02-06T13:49:50.000Z</time>
      </trkpt>
      <trkpt lat="47.32638" lon="-1.39357">
        <ele>116</ele>
        <time>2021-02-06T13:49:53.000Z</time>
      </trkpt>
      <trkpt lat="47.32616" lon="-1.39347">
        <ele>115</ele>
        <time>2021-02-06T13:49:56.000Z</time>
      </trkpt>
      <trkpt lat="47.32601" lon="-1.39342">
        <ele>115</ele>
        <time>2021-02-06T13:49:58.000Z</time>
      </trkpt>
      <trkpt lat="47.3258" lon="-1.39338">
        <ele>113</ele>
        <time>2021-02-06T13:50:01.000Z</time>
      </trkpt>
      <trkpt lat="47.32565" lon="-1.39333">
        <ele>113</ele>
        <time>2021-02-06T13:50:03.000Z</time>
      </trkpt>
      <trkpt lat="47.32549" lon="-1.3933">
        <ele>113</ele>
        <time>2021-02-06T13:50:05.000Z</time>
      </trkpt>
      <trkpt lat="47.32533" lon="-1.39332">
        <ele>113</ele>
        <time>2021-02-06T13:50:07.000Z</time>
      </trkpt>
      <trkpt lat="47.32518" lon="-1.39337">
        <ele>112</ele>
        <time>2021-02-06T13:50:09.000Z</time>
      </trkpt>
      <trkpt lat="47.32506" lon="-1.39346">
        <ele>112</ele>
        <time>2021-02-06T13:50:11.000Z</time>
      </trkpt>
      <trkpt lat="47.32484" lon="-1.39361">
        <ele>112</ele>
        <time>2021-02-06T13:50:14.000Z</time>
      </trkpt>
      <trkpt lat="47.32467" lon="-1.3937">
        <ele>111</ele>
        <time>2021-02-06T13:50:16.000Z</time>
      </trkpt>
      <trkpt lat="47.32458" lon="-1.39376">
        <ele>109</ele>
        <time>2021-02-06T13:50:17.000Z</time>
      </trkpt>
      <trkpt lat="47.32443" lon="-1.39379">
        <ele>109</ele>
        <time>2021-02-06T13:50:19.000Z</time>
      </trkpt>
      <trkpt lat="47.32429" lon="-1.39376">
        <ele>111</ele>
        <time>2021-02-06T13:50:21.000Z</time>
      </trkpt>
      <trkpt lat="47.32415" lon="-1.39369">
        <ele>112</ele>
        <time>2021-02-06T13:50:23.000Z</time>
      </trkpt>
      <trkpt lat="47.32403" lon="-1.39363">
        <ele>113</ele>
        <time>2021-02-06T13:50:25.000Z</time>
      </trkpt>
      <trkpt lat="47.32392" lon="-1.39357">
        <ele>112</ele>
        <time>2021-02-06T13:50:27.000Z</time>
      </trkpt>
      <trkpt lat="47.32379" lon="-1.39349">
        <ele>113</ele>
        <time>2021-02-06T13:50:29.000Z</time>
      </trkpt>
      <trkpt lat="47.32363" lon="-1.39341">
        <ele>112</ele>
        <time>2021-02-06T13:50:32.000Z</time>
      </trkpt>
      <trkpt lat="47.32351" lon="-1.3934">
        <ele>112</ele>
        <time>2021-02-06T13:50:34.000Z</time>
      </trkpt>
      <trkpt lat="47.32337" lon="-1.39337">
        <ele>112</ele>
        <time>2021-02-06T13:50:36.000Z</time>
      </trkpt>
      <trkpt lat="47.32322" lon="-1.3933">
        <ele>113</ele>
        <time>2021-02-06T13:50:38.000Z</time>
      </trkpt>
      <trkpt lat="47.32309" lon="-1.39323">
        <ele>115</ele>
        <time>2021-02-06T13:50:40.000Z</time>
      </trkpt>
      <trkpt lat="47.32296" lon="-1.39315">
        <ele>116</ele>
        <time>2021-02-06T13:50:42.000Z</time>
      </trkpt>
      <trkpt lat="47.32283" lon="-1.39307">
        <ele>116</ele>
        <time>2021-02-06T13:50:44.000Z</time>
      </trkpt>
      <trkpt lat="47.32264" lon="-1.39294">
        <ele>117</ele>
        <time>2021-02-06T13:50:47.000Z</time>
      </trkpt>
      <trkpt lat="47.32251" lon="-1.39282">
        <ele>113</ele>
        <time>2021-02-06T13:50:49.000Z</time>
      </trkpt>
      <trkpt lat="47.32241" lon="-1.39271">
        <ele>114</ele>
        <time>2021-02-06T13:50:51.000Z</time>
      </trkpt>
      <trkpt lat="47.32232" lon="-1.39258">
        <ele>114</ele>
        <time>2021-02-06T13:50:53.000Z</time>
      </trkpt>
      <trkpt lat="47.32223" lon="-1.39246">
        <ele>115</ele>
        <time>2021-02-06T13:50:55.000Z</time>
      </trkpt>
      <trkpt lat="47.32214" lon="-1.39234">
        <ele>116</ele>
        <time>2021-02-06T13:50:57.000Z</time>
      </trkpt>
      <trkpt lat="47.32205" lon="-1.39223">
        <ele>117</ele>
        <time>2021-02-06T13:50:59.000Z</time>
      </trkpt>
      <trkpt lat="47.32192" lon="-1.39205">
        <ele>115</ele>
        <time>2021-02-06T13:51:02.000Z</time>
      </trkpt>
      <trkpt lat="47.32183" lon="-1.39195">
        <ele>116</ele>
        <time>2021-02-06T13:51:04.000Z</time>
      </trkpt>
      <trkpt lat="47.32172" lon="-1.39185">
        <ele>116</ele>
        <time>2021-02-06T13:51:06.000Z</time>
      </trkpt>
      <trkpt lat="47.32162" lon="-1.39174">
        <ele>117</ele>
        <time>2021-02-06T13:51:08.000Z</time>
      </trkpt>
      <trkpt lat="47.32151" lon="-1.39164">
        <ele>118</ele>
        <time>2021-02-06T13:51:10.000Z</time>
      </trkpt>
      <trkpt lat="47.3214" lon="-1.39155">
        <ele>118</ele>
        <time>2021-02-06T13:51:12.000Z</time>
      </trkpt>
      <trkpt lat="47.32129" lon="-1.39146">
        <ele>119</ele>
        <time>2021-02-06T13:51:14.000Z</time>
      </trkpt>
      <trkpt lat="47.32118" lon="-1.39138">
        <ele>119</ele>
        <time>2021-02-06T13:51:16.000Z</time>
      </trkpt>
      <trkpt lat="47.32099" lon="-1.39127">
        <ele>120</ele>
        <time>2021-02-06T13:51:19.000Z</time>
      </trkpt>
      <trkpt lat="47.32088" lon="-1.39121">
        <ele>120</ele>
        <time>2021-02-06T13:51:21.000Z</time>
      </trkpt>
      <trkpt lat="47.32073" lon="-1.39117">
        <ele>117</ele>
        <time>2021-02-06T13:51:23.000Z</time>
      </trkpt>
      <trkpt lat="47.3206" lon="-1.39109">
        <ele>118</ele>
        <time>2021-02-06T13:51:25.000Z</time>
      </trkpt>
      <trkpt lat="47.32036" lon="-1.39099">
        <ele>117</ele>
        <time>2021-02-06T13:51:29.000Z</time>
      </trkpt>
      <trkpt lat="47.32024" lon="-1.39095">
        <ele>117</ele>
        <time>2021-02-06T13:51:31.000Z</time>
      </trkpt>
      <trkpt lat="47.32013" lon="-1.39089">
        <ele>118</ele>
        <time>2021-02-06T13:51:33.000Z</time>
      </trkpt>
      <trkpt lat="47.32" lon="-1.39083">
        <ele>119</ele>
        <time>2021-02-06T13:51:35.000Z</time>
      </trkpt>
      <trkpt lat="47.31989" lon="-1.39076">
        <ele>117</ele>
        <time>2021-02-06T13:51:37.000Z</time>
      </trkpt>
      <trkpt lat="47.31977" lon="-1.39071">
        <ele>115</ele>
        <time>2021-02-06T13:51:39.000Z</time>
      </trkpt>
      <trkpt lat="47.31963" lon="-1.39064">
        <ele>117</ele>
        <time>2021-02-06T13:51:41.000Z</time>
      </trkpt>
      <trkpt lat="47.31951" lon="-1.3906">
        <ele>119</ele>
        <time>2021-02-06T13:51:43.000Z</time>
      </trkpt>
      <trkpt lat="47.3194" lon="-1.39055">
        <ele>120</ele>
        <time>2021-02-06T13:51:45.000Z</time>
      </trkpt>
      <trkpt lat="47.31924" lon="-1.39046">
        <ele>121</ele>
        <time>2021-02-06T13:51:48.000Z</time>
      </trkpt>
      <trkpt lat="47.31911" lon="-1.3904">
        <ele>123</ele>
        <time>2021-02-06T13:51:50.000Z</time>
      </trkpt>
      <trkpt lat="47.31899" lon="-1.39034">
        <ele>123</ele>
        <time>2021-02-06T13:51:52.000Z</time>
      </trkpt>
      <trkpt lat="47.31887" lon="-1.39028">
        <ele>120</ele>
        <time>2021-02-06T13:51:54.000Z</time>
      </trkpt>
      <trkpt lat="47.31874" lon="-1.39021">
        <ele>119</ele>
        <time>2021-02-06T13:51:56.000Z</time>
      </trkpt>
      <trkpt lat="47.31862" lon="-1.39015">
        <ele>121</ele>
        <time>2021-02-06T13:51:58.000Z</time>
      </trkpt>
      <trkpt lat="47.31851" lon="-1.39009">
        <ele>122</ele>
        <time>2021-02-06T13:52:00.000Z</time>
      </trkpt>
      <trkpt lat="47.31839" lon="-1.39004">
        <ele>118</ele>
        <time>2021-02-06T13:52:02.000Z</time>
      </trkpt>
      <trkpt lat="47.31828" lon="-1.38995">
        <ele>119</ele>
        <time>2021-02-06T13:52:04.000Z</time>
      </trkpt>
      <trkpt lat="47.31818" lon="-1.38987">
        <ele>119</ele>
        <time>2021-02-06T13:52:06.000Z</time>
      </trkpt>
      <trkpt lat="47.31807" lon="-1.38981">
        <ele>117</ele>
        <time>2021-02-06T13:52:08.000Z</time>
      </trkpt>
      <trkpt lat="47.31795" lon="-1.38974">
        <ele>116</ele>
        <time>2021-02-06T13:52:10.000Z</time>
      </trkpt>
      <trkpt lat="47.31784" lon="-1.38964">
        <ele>118</ele>
        <time>2021-02-06T13:52:12.000Z</time>
      </trkpt>
      <trkpt lat="47.31772" lon="-1.38953">
        <ele>119</ele>
        <time>2021-02-06T13:52:14.000Z</time>
      </trkpt>
      <trkpt lat="47.31762" lon="-1.38943">
        <ele>121</ele>
        <time>2021-02-06T13:52:16.000Z</time>
      </trkpt>
      <trkpt lat="47.31752" lon="-1.38932">
        <ele>118</ele>
        <time>2021-02-06T13:52:18.000Z</time>
      </trkpt>
      <trkpt lat="47.3174" lon="-1.38921">
        <ele>118</ele>
        <time>2021-02-06T13:52:20.000Z</time>
      </trkpt>
      <trkpt lat="47.31728" lon="-1.38912">
        <ele>119</ele>
        <time>2021-02-06T13:52:22.000Z</time>
      </trkpt>
      <trkpt lat="47.31716" lon="-1.38902">
        <ele>119</ele>
        <time>2021-02-06T13:52:24.000Z</time>
      </trkpt>
      <trkpt lat="47.31704" lon="-1.38894">
        <ele>119</ele>
        <time>2021-02-06T13:52:26.000Z</time>
      </trkpt>
      <trkpt lat="47.31691" lon="-1.38886">
        <ele>120</ele>
        <time>2021-02-06T13:52:28.000Z</time>
      </trkpt>
      <trkpt lat="47.31679" lon="-1.38878">
        <ele>120</ele>
        <time>2021-02-06T13:52:30.000Z</time>
      </trkpt>
      <trkpt lat="47.31665" lon="-1.38868">
        <ele>120</ele>
        <time>2021-02-06T13:52:32.000Z</time>
      </trkpt>
      <trkpt lat="47.31652" lon="-1.38861">
        <ele>118</ele>
        <time>2021-02-06T13:52:34.000Z</time>
      </trkpt>
      <trkpt lat="47.31636" lon="-1.38845">
        <ele>118</ele>
        <time>2021-02-06T13:52:37.000Z</time>
      </trkpt>
      <trkpt lat="47.31622" lon="-1.38832">
        <ele>119</ele>
        <time>2021-02-06T13:52:39.000Z</time>
      </trkpt>
      <trkpt lat="47.31608" lon="-1.3882">
        <ele>119</ele>
        <time>2021-02-06T13:52:41.000Z</time>
      </trkpt>
      <trkpt lat="47.31599" lon="-1.38811">
        <ele>118</ele>
        <time>2021-02-06T13:52:43.000Z</time>
      </trkpt>
      <trkpt lat="47.31582" lon="-1.38797">
        <ele>120</ele>
        <time>2021-02-06T13:52:46.000Z</time>
      </trkpt>
      <trkpt lat="47.3157" lon="-1.38789">
        <ele>120</ele>
        <time>2021-02-06T13:52:48.000Z</time>
      </trkpt>
      <trkpt lat="47.31553" lon="-1.38778">
        <ele>117</ele>
        <time>2021-02-06T13:52:51.000Z</time>
      </trkpt>
      <trkpt lat="47.31534" lon="-1.38767">
        <ele>119</ele>
        <time>2021-02-06T13:52:54.000Z</time>
      </trkpt>
      <trkpt lat="47.31521" lon="-1.3876">
        <ele>120</ele>
        <time>2021-02-06T13:52:56.000Z</time>
      </trkpt>
      <trkpt lat="47.31509" lon="-1.38753">
        <ele>121</ele>
        <time>2021-02-06T13:52:58.000Z</time>
      </trkpt>
      <trkpt lat="47.31495" lon="-1.38748">
        <ele>121</ele>
        <time>2021-02-06T13:53:00.000Z</time>
      </trkpt>
      <trkpt lat="47.31482" lon="-1.38742">
        <ele>122</ele>
        <time>2021-02-06T13:53:02.000Z</time>
      </trkpt>
      <trkpt lat="47.31469" lon="-1.38736">
        <ele>122</ele>
        <time>2021-02-06T13:53:04.000Z</time>
      </trkpt>
      <trkpt lat="47.31456" lon="-1.3873">
        <ele>122</ele>
        <time>2021-02-06T13:53:06.000Z</time>
      </trkpt>
      <trkpt lat="47.31444" lon="-1.38724">
        <ele>123</ele>
        <time>2021-02-06T13:53:08.000Z</time>
      </trkpt>
      <trkpt lat="47.31431" lon="-1.38717">
        <ele>123</ele>
        <time>2021-02-06T13:53:10.000Z</time>
      </trkpt>
      <trkpt lat="47.31418" lon="-1.38711">
        <ele>123</ele>
        <time>2021-02-06T13:53:12.000Z</time>
      </trkpt>
      <trkpt lat="47.31405" lon="-1.38704">
        <ele>123</ele>
        <time>2021-02-06T13:53:14.000Z</time>
      </trkpt>
      <trkpt lat="47.31387" lon="-1.38696">
        <ele>124</ele>
        <time>2021-02-06T13:53:17.000Z</time>
      </trkpt>
      <trkpt lat="47.31375" lon="-1.38691">
        <ele>124</ele>
        <time>2021-02-06T13:53:19.000Z</time>
      </trkpt>
      <trkpt lat="47.31356" lon="-1.38684">
        <ele>122</ele>
        <time>2021-02-06T13:53:22.000Z</time>
      </trkpt>
      <trkpt lat="47.31345" lon="-1.38679">
        <ele>122</ele>
        <time>2021-02-06T13:53:24.000Z</time>
      </trkpt>
      <trkpt lat="47.3133" lon="-1.38669">
        <ele>124</ele>
        <time>2021-02-06T13:53:27.000Z</time>
      </trkpt>
      <trkpt lat="47.31317" lon="-1.38666">
        <ele>124</ele>
        <time>2021-02-06T13:53:29.000Z</time>
      </trkpt>
      <trkpt lat="47.31304" lon="-1.3866">
        <ele>125</ele>
        <time>2021-02-06T13:53:32.000Z</time>
      </trkpt>
      <trkpt lat="47.31295" lon="-1.38656">
        <ele>126</ele>
        <time>2021-02-06T13:53:34.000Z</time>
      </trkpt>
      <trkpt lat="47.31284" lon="-1.38652">
        <ele>127</ele>
        <time>2021-02-06T13:53:37.000Z</time>
      </trkpt>
      <trkpt lat="47.31274" lon="-1.38646">
        <ele>128</ele>
        <time>2021-02-06T13:53:43.000Z</time>
      </trkpt>
      <trkpt lat="47.31264" lon="-1.38642">
        <ele>127</ele>
        <time>2021-02-06T13:53:46.000Z</time>
      </trkpt>
      <trkpt lat="47.31255" lon="-1.38633">
        <ele>127</ele>
        <time>2021-02-06T13:53:48.000Z</time>
      </trkpt>
      <trkpt lat="47.31245" lon="-1.38624">
        <ele>127</ele>
        <time>2021-02-06T13:53:50.000Z</time>
      </trkpt>
      <trkpt lat="47.31234" lon="-1.38615">
        <ele>127</ele>
        <time>2021-02-06T13:53:52.000Z</time>
      </trkpt>
      <trkpt lat="47.31218" lon="-1.38599">
        <ele>125</ele>
        <time>2021-02-06T13:53:55.000Z</time>
      </trkpt>
      <trkpt lat="47.31209" lon="-1.38591">
        <ele>125</ele>
        <time>2021-02-06T13:53:57.000Z</time>
      </trkpt>
      <trkpt lat="47.31197" lon="-1.38582">
        <ele>126</ele>
        <time>2021-02-06T13:53:59.000Z</time>
      </trkpt>
      <trkpt lat="47.31187" lon="-1.38575">
        <ele>124</ele>
        <time>2021-02-06T13:54:01.000Z</time>
      </trkpt>
      <trkpt lat="47.31172" lon="-1.38561">
        <ele>124</ele>
        <time>2021-02-06T13:54:04.000Z</time>
      </trkpt>
      <trkpt lat="47.31162" lon="-1.38551">
        <ele>125</ele>
        <time>2021-02-06T13:54:06.000Z</time>
      </trkpt>
      <trkpt lat="47.31152" lon="-1.38541">
        <ele>125</ele>
        <time>2021-02-06T13:54:08.000Z</time>
      </trkpt>
      <trkpt lat="47.31142" lon="-1.38531">
        <ele>124</ele>
        <time>2021-02-06T13:54:10.000Z</time>
      </trkpt>
      <trkpt lat="47.31132" lon="-1.38523">
        <ele>124</ele>
        <time>2021-02-06T13:54:12.000Z</time>
      </trkpt>
      <trkpt lat="47.3112" lon="-1.38513">
        <ele>125</ele>
        <time>2021-02-06T13:54:14.000Z</time>
      </trkpt>
      <trkpt lat="47.31102" lon="-1.385">
        <ele>124</ele>
        <time>2021-02-06T13:54:17.000Z</time>
      </trkpt>
      <trkpt lat="47.31091" lon="-1.38488">
        <ele>125</ele>
        <time>2021-02-06T13:54:19.000Z</time>
      </trkpt>
      <trkpt lat="47.3108" lon="-1.38478">
        <ele>125</ele>
        <time>2021-02-06T13:54:21.000Z</time>
      </trkpt>
      <trkpt lat="47.31069" lon="-1.38469">
        <ele>126</ele>
        <time>2021-02-06T13:54:23.000Z</time>
      </trkpt>
      <trkpt lat="47.31058" lon="-1.38461">
        <ele>125</ele>
        <time>2021-02-06T13:54:25.000Z</time>
      </trkpt>
      <trkpt lat="47.31048" lon="-1.38452">
        <ele>124</ele>
        <time>2021-02-06T13:54:27.000Z</time>
      </trkpt>
      <trkpt lat="47.31039" lon="-1.38443">
        <ele>125</ele>
        <time>2021-02-06T13:54:29.000Z</time>
      </trkpt>
      <trkpt lat="47.31029" lon="-1.38432">
        <ele>126</ele>
        <time>2021-02-06T13:54:31.000Z</time>
      </trkpt>
      <trkpt lat="47.31019" lon="-1.38424">
        <ele>124</ele>
        <time>2021-02-06T13:54:33.000Z</time>
      </trkpt>
      <trkpt lat="47.31002" lon="-1.38406">
        <ele>125</ele>
        <time>2021-02-06T13:54:36.000Z</time>
      </trkpt>
      <trkpt lat="47.30993" lon="-1.38394">
        <ele>126</ele>
        <time>2021-02-06T13:54:38.000Z</time>
      </trkpt>
      <trkpt lat="47.30982" lon="-1.38383">
        <ele>127</ele>
        <time>2021-02-06T13:54:40.000Z</time>
      </trkpt>
      <trkpt lat="47.30971" lon="-1.38372">
        <ele>126</ele>
        <time>2021-02-06T13:54:42.000Z</time>
      </trkpt>
      <trkpt lat="47.30962" lon="-1.38361">
        <ele>126</ele>
        <time>2021-02-06T13:54:44.000Z</time>
      </trkpt>
      <trkpt lat="47.30953" lon="-1.3835">
        <ele>127</ele>
        <time>2021-02-06T13:54:46.000Z</time>
      </trkpt>
      <trkpt lat="47.30942" lon="-1.38337">
        <ele>127</ele>
        <time>2021-02-06T13:54:48.000Z</time>
      </trkpt>
      <trkpt lat="47.30933" lon="-1.38326">
        <ele>127</ele>
        <time>2021-02-06T13:54:50.000Z</time>
      </trkpt>
      <trkpt lat="47.30923" lon="-1.38314">
        <ele>127</ele>
        <time>2021-02-06T13:54:52.000Z</time>
      </trkpt>
      <trkpt lat="47.30914" lon="-1.38303">
        <ele>128</ele>
        <time>2021-02-06T13:54:54.000Z</time>
      </trkpt>
      <trkpt lat="47.30904" lon="-1.3829">
        <ele>128</ele>
        <time>2021-02-06T13:54:56.000Z</time>
      </trkpt>
      <trkpt lat="47.30895" lon="-1.38279">
        <ele>128</ele>
        <time>2021-02-06T13:54:58.000Z</time>
      </trkpt>
      <trkpt lat="47.30885" lon="-1.3827">
        <ele>127</ele>
        <time>2021-02-06T13:55:00.000Z</time>
      </trkpt>
      <trkpt lat="47.30875" lon="-1.38266">
        <ele>124</ele>
        <time>2021-02-06T13:55:02.000Z</time>
      </trkpt>
      <trkpt lat="47.30864" lon="-1.38275">
        <ele>124</ele>
        <time>2021-02-06T13:55:04.000Z</time>
      </trkpt>
      <trkpt lat="47.30853" lon="-1.38285">
        <ele>124</ele>
        <time>2021-02-06T13:55:06.000Z</time>
      </trkpt>
      <trkpt lat="47.30843" lon="-1.38298">
        <ele>124</ele>
        <time>2021-02-06T13:55:08.000Z</time>
      </trkpt>
      <trkpt lat="47.30832" lon="-1.38311">
        <ele>124</ele>
        <time>2021-02-06T13:55:10.000Z</time>
      </trkpt>
      <trkpt lat="47.30823" lon="-1.38325">
        <ele>124</ele>
        <time>2021-02-06T13:55:12.000Z</time>
      </trkpt>
      <trkpt lat="47.30814" lon="-1.38342">
        <ele>122</ele>
        <time>2021-02-06T13:55:14.000Z</time>
      </trkpt>
      <trkpt lat="47.30804" lon="-1.38358">
        <ele>122</ele>
        <time>2021-02-06T13:55:16.000Z</time>
      </trkpt>
      <trkpt lat="47.30793" lon="-1.38373">
        <ele>122</ele>
        <time>2021-02-06T13:55:18.000Z</time>
      </trkpt>
      <trkpt lat="47.30777" lon="-1.38394">
        <ele>122</ele>
        <time>2021-02-06T13:55:21.000Z</time>
      </trkpt>
      <trkpt lat="47.30766" lon="-1.38409">
        <ele>123</ele>
        <time>2021-02-06T13:55:23.000Z</time>
      </trkpt>
      <trkpt lat="47.30756" lon="-1.38424">
        <ele>123</ele>
        <time>2021-02-06T13:55:25.000Z</time>
      </trkpt>
      <trkpt lat="47.30747" lon="-1.38438">
        <ele>123</ele>
        <time>2021-02-06T13:55:27.000Z</time>
      </trkpt>
      <trkpt lat="47.30731" lon="-1.38457">
        <ele>123</ele>
        <time>2021-02-06T13:55:30.000Z</time>
      </trkpt>
      <trkpt lat="47.30719" lon="-1.3847">
        <ele>122</ele>
        <time>2021-02-06T13:55:32.000Z</time>
      </trkpt>
      <trkpt lat="47.30703" lon="-1.38481">
        <ele>122</ele>
        <time>2021-02-06T13:55:34.000Z</time>
      </trkpt>
      <trkpt lat="47.3069" lon="-1.38492">
        <ele>123</ele>
        <time>2021-02-06T13:55:36.000Z</time>
      </trkpt>
      <trkpt lat="47.30676" lon="-1.38502">
        <ele>123</ele>
        <time>2021-02-06T13:55:38.000Z</time>
      </trkpt>
      <trkpt lat="47.30657" lon="-1.38516">
        <ele>121</ele>
        <time>2021-02-06T13:55:41.000Z</time>
      </trkpt>
      <trkpt lat="47.30644" lon="-1.38526">
        <ele>121</ele>
        <time>2021-02-06T13:55:43.000Z</time>
      </trkpt>
      <trkpt lat="47.30631" lon="-1.38534">
        <ele>121</ele>
        <time>2021-02-06T13:55:45.000Z</time>
      </trkpt>
      <trkpt lat="47.30619" lon="-1.38542">
        <ele>121</ele>
        <time>2021-02-06T13:55:47.000Z</time>
      </trkpt>
      <trkpt lat="47.30606" lon="-1.3855">
        <ele>121</ele>
        <time>2021-02-06T13:55:49.000Z</time>
      </trkpt>
      <trkpt lat="47.30593" lon="-1.38557">
        <ele>121</ele>
        <time>2021-02-06T13:55:51.000Z</time>
      </trkpt>
      <trkpt lat="47.3058" lon="-1.38566">
        <ele>122</ele>
        <time>2021-02-06T13:55:53.000Z</time>
      </trkpt>
      <trkpt lat="47.30567" lon="-1.38574">
        <ele>122</ele>
        <time>2021-02-06T13:55:55.000Z</time>
      </trkpt>
      <trkpt lat="47.30549" lon="-1.38586">
        <ele>123</ele>
        <time>2021-02-06T13:55:58.000Z</time>
      </trkpt>
      <trkpt lat="47.30537" lon="-1.38593">
        <ele>122</ele>
        <time>2021-02-06T13:56:00.000Z</time>
      </trkpt>
      <trkpt lat="47.30524" lon="-1.386">
        <ele>120</ele>
        <time>2021-02-06T13:56:02.000Z</time>
      </trkpt>
      <trkpt lat="47.30513" lon="-1.38609">
        <ele>119</ele>
        <time>2021-02-06T13:56:04.000Z</time>
      </trkpt>
      <trkpt lat="47.305" lon="-1.38616">
        <ele>120</ele>
        <time>2021-02-06T13:56:06.000Z</time>
      </trkpt>
      <trkpt lat="47.30487" lon="-1.38621">
        <ele>121</ele>
        <time>2021-02-06T13:56:08.000Z</time>
      </trkpt>
      <trkpt lat="47.30476" lon="-1.38626">
        <ele>121</ele>
        <time>2021-02-06T13:56:10.000Z</time>
      </trkpt>
      <trkpt lat="47.30464" lon="-1.38627">
        <ele>121</ele>
        <time>2021-02-06T13:56:12.000Z</time>
      </trkpt>
      <trkpt lat="47.3045" lon="-1.38625">
        <ele>122</ele>
        <time>2021-02-06T13:56:14.000Z</time>
      </trkpt>
      <trkpt lat="47.30436" lon="-1.38625">
        <ele>122</ele>
        <time>2021-02-06T13:56:16.000Z</time>
      </trkpt>
      <trkpt lat="47.30422" lon="-1.38623">
        <ele>120</ele>
        <time>2021-02-06T13:56:18.000Z</time>
      </trkpt>
      <trkpt lat="47.30409" lon="-1.38619">
        <ele>119</ele>
        <time>2021-02-06T13:56:20.000Z</time>
      </trkpt>
      <trkpt lat="47.30396" lon="-1.38615">
        <ele>119</ele>
        <time>2021-02-06T13:56:22.000Z</time>
      </trkpt>
      <trkpt lat="47.30378" lon="-1.38607">
        <ele>120</ele>
        <time>2021-02-06T13:56:25.000Z</time>
      </trkpt>
      <trkpt lat="47.30367" lon="-1.386">
        <ele>119</ele>
        <time>2021-02-06T13:56:27.000Z</time>
      </trkpt>
      <trkpt lat="47.30352" lon="-1.38594">
        <ele>115</ele>
        <time>2021-02-06T13:56:29.000Z</time>
      </trkpt>
      <trkpt lat="47.30339" lon="-1.38585">
        <ele>117</ele>
        <time>2021-02-06T13:56:31.000Z</time>
      </trkpt>
      <trkpt lat="47.30324" lon="-1.38582">
        <ele>117</ele>
        <time>2021-02-06T13:56:33.000Z</time>
      </trkpt>
      <trkpt lat="47.30308" lon="-1.38582">
        <ele>117</ele>
        <time>2021-02-06T13:56:35.000Z</time>
      </trkpt>
      <trkpt lat="47.30293" lon="-1.38585">
        <ele>117</ele>
        <time>2021-02-06T13:56:37.000Z</time>
      </trkpt>
      <trkpt lat="47.30284" lon="-1.38588">
        <ele>119</ele>
        <time>2021-02-06T13:56:39.000Z</time>
      </trkpt>
      <trkpt lat="47.3027" lon="-1.38591">
        <ele>120</ele>
        <time>2021-02-06T13:56:42.000Z</time>
      </trkpt>
      <trkpt lat="47.3025" lon="-1.38594">
        <ele>117</ele>
        <time>2021-02-06T13:56:45.000Z</time>
      </trkpt>
      <trkpt lat="47.30238" lon="-1.38598">
        <ele>118</ele>
        <time>2021-02-06T13:56:47.000Z</time>
      </trkpt>
      <trkpt lat="47.30225" lon="-1.386">
        <ele>118</ele>
        <time>2021-02-06T13:56:49.000Z</time>
      </trkpt>
      <trkpt lat="47.30212" lon="-1.38605">
        <ele>116</ele>
        <time>2021-02-06T13:56:51.000Z</time>
      </trkpt>
      <trkpt lat="47.30198" lon="-1.38607">
        <ele>116</ele>
        <time>2021-02-06T13:56:53.000Z</time>
      </trkpt>
      <trkpt lat="47.30184" lon="-1.38616">
        <ele>117</ele>
        <time>2021-02-06T13:56:55.000Z</time>
      </trkpt>
      <trkpt lat="47.30172" lon="-1.38628">
        <ele>118</ele>
        <time>2021-02-06T13:56:57.000Z</time>
      </trkpt>
      <trkpt lat="47.30159" lon="-1.38637">
        <ele>117</ele>
        <time>2021-02-06T13:56:59.000Z</time>
      </trkpt>
      <trkpt lat="47.30144" lon="-1.38647">
        <ele>117</ele>
        <time>2021-02-06T13:57:01.000Z</time>
      </trkpt>
      <trkpt lat="47.30122" lon="-1.38661">
        <ele>117</ele>
        <time>2021-02-06T13:57:04.000Z</time>
      </trkpt>
      <trkpt lat="47.30108" lon="-1.38671">
        <ele>117</ele>
        <time>2021-02-06T13:57:06.000Z</time>
      </trkpt>
      <trkpt lat="47.30093" lon="-1.38681">
        <ele>116</ele>
        <time>2021-02-06T13:57:08.000Z</time>
      </trkpt>
      <trkpt lat="47.30079" lon="-1.38691">
        <ele>116</ele>
        <time>2021-02-06T13:57:10.000Z</time>
      </trkpt>
      <trkpt lat="47.30064" lon="-1.38701">
        <ele>115</ele>
        <time>2021-02-06T13:57:12.000Z</time>
      </trkpt>
      <trkpt lat="47.30049" lon="-1.38711">
        <ele>115</ele>
        <time>2021-02-06T13:57:14.000Z</time>
      </trkpt>
      <trkpt lat="47.30035" lon="-1.38723">
        <ele>110</ele>
        <time>2021-02-06T13:57:16.000Z</time>
      </trkpt>
      <trkpt lat="47.30019" lon="-1.38735">
        <ele>109</ele>
        <time>2021-02-06T13:57:18.000Z</time>
      </trkpt>
      <trkpt lat="47.29996" lon="-1.38752">
        <ele>110</ele>
        <time>2021-02-06T13:57:21.000Z</time>
      </trkpt>
      <trkpt lat="47.29973" lon="-1.38772">
        <ele>110</ele>
        <time>2021-02-06T13:57:24.000Z</time>
      </trkpt>
      <trkpt lat="47.29965" lon="-1.3878">
        <ele>110</ele>
        <time>2021-02-06T13:57:25.000Z</time>
      </trkpt>
      <trkpt lat="47.29951" lon="-1.38795">
        <ele>108</ele>
        <time>2021-02-06T13:57:27.000Z</time>
      </trkpt>
      <trkpt lat="47.2993" lon="-1.38814">
        <ele>108</ele>
        <time>2021-02-06T13:57:30.000Z</time>
      </trkpt>
      <trkpt lat="47.29918" lon="-1.38826">
        <ele>107</ele>
        <time>2021-02-06T13:57:32.000Z</time>
      </trkpt>
      <trkpt lat="47.29906" lon="-1.38835">
        <ele>106</ele>
        <time>2021-02-06T13:57:34.000Z</time>
      </trkpt>
      <trkpt lat="47.29893" lon="-1.38839">
        <ele>106</ele>
        <time>2021-02-06T13:57:36.000Z</time>
      </trkpt>
      <trkpt lat="47.29878" lon="-1.38837">
        <ele>106</ele>
        <time>2021-02-06T13:57:38.000Z</time>
      </trkpt>
      <trkpt lat="47.29861" lon="-1.38839">
        <ele>105</ele>
        <time>2021-02-06T13:57:40.000Z</time>
      </trkpt>
      <trkpt lat="47.29852" lon="-1.3884">
        <ele>105</ele>
        <time>2021-02-06T13:57:41.000Z</time>
      </trkpt>
      <trkpt lat="47.29831" lon="-1.38843">
        <ele>102</ele>
        <time>2021-02-06T13:57:43.000Z</time>
      </trkpt>
      <trkpt lat="47.29821" lon="-1.38843">
        <ele>102</ele>
        <time>2021-02-06T13:57:44.000Z</time>
      </trkpt>
      <trkpt lat="47.29803" lon="-1.38845">
        <ele>101</ele>
        <time>2021-02-06T13:57:46.000Z</time>
      </trkpt>
      <trkpt lat="47.29794" lon="-1.3885">
        <ele>101</ele>
        <time>2021-02-06T13:57:47.000Z</time>
      </trkpt>
      <trkpt lat="47.29785" lon="-1.38854">
        <ele>101</ele>
        <time>2021-02-06T13:57:48.000Z</time>
      </trkpt>
      <trkpt lat="47.29774" lon="-1.38861">
        <ele>99</ele>
        <time>2021-02-06T13:57:49.000Z</time>
      </trkpt>
      <trkpt lat="47.29765" lon="-1.38868">
        <ele>98</ele>
        <time>2021-02-06T13:57:50.000Z</time>
      </trkpt>
      <trkpt lat="47.29753" lon="-1.38878">
        <ele>98</ele>
        <time>2021-02-06T13:57:51.000Z</time>
      </trkpt>
      <trkpt lat="47.29742" lon="-1.38887">
        <ele>97</ele>
        <time>2021-02-06T13:57:52.000Z</time>
      </trkpt>
      <trkpt lat="47.29731" lon="-1.38895">
        <ele>96</ele>
        <time>2021-02-06T13:57:53.000Z</time>
      </trkpt>
      <trkpt lat="47.29721" lon="-1.389">
        <ele>95</ele>
        <time>2021-02-06T13:57:54.000Z</time>
      </trkpt>
      <trkpt lat="47.29711" lon="-1.38905">
        <ele>93</ele>
        <time>2021-02-06T13:57:55.000Z</time>
      </trkpt>
      <trkpt lat="47.29692" lon="-1.38912">
        <ele>92</ele>
        <time>2021-02-06T13:57:57.000Z</time>
      </trkpt>
      <trkpt lat="47.29681" lon="-1.38915">
        <ele>91</ele>
        <time>2021-02-06T13:57:58.000Z</time>
      </trkpt>
      <trkpt lat="47.2967" lon="-1.38918">
        <ele>90</ele>
        <time>2021-02-06T13:57:59.000Z</time>
      </trkpt>
      <trkpt lat="47.29658" lon="-1.38921">
        <ele>89</ele>
        <time>2021-02-06T13:58:00.000Z</time>
      </trkpt>
      <trkpt lat="47.29646" lon="-1.38924">
        <ele>87</ele>
        <time>2021-02-06T13:58:01.000Z</time>
      </trkpt>
      <trkpt lat="47.29635" lon="-1.38924">
        <ele>84</ele>
        <time>2021-02-06T13:58:02.000Z</time>
      </trkpt>
      <trkpt lat="47.29625" lon="-1.38923">
        <ele>83</ele>
        <time>2021-02-06T13:58:03.000Z</time>
      </trkpt>
      <trkpt lat="47.29615" lon="-1.38922">
        <ele>82</ele>
        <time>2021-02-06T13:58:04.000Z</time>
      </trkpt>
      <trkpt lat="47.29597" lon="-1.38919">
        <ele>76</ele>
        <time>2021-02-06T13:58:06.000Z</time>
      </trkpt>
      <trkpt lat="47.29587" lon="-1.38915">
        <ele>75</ele>
        <time>2021-02-06T13:58:07.000Z</time>
      </trkpt>
      <trkpt lat="47.29575" lon="-1.38909">
        <ele>73</ele>
        <time>2021-02-06T13:58:08.000Z</time>
      </trkpt>
      <trkpt lat="47.29562" lon="-1.38904">
        <ele>73</ele>
        <time>2021-02-06T13:58:09.000Z</time>
      </trkpt>
      <trkpt lat="47.2955" lon="-1.38898">
        <ele>71</ele>
        <time>2021-02-06T13:58:10.000Z</time>
      </trkpt>
      <trkpt lat="47.29538" lon="-1.38893">
        <ele>70</ele>
        <time>2021-02-06T13:58:11.000Z</time>
      </trkpt>
      <trkpt lat="47.29526" lon="-1.38887">
        <ele>69</ele>
        <time>2021-02-06T13:58:12.000Z</time>
      </trkpt>
      <trkpt lat="47.29515" lon="-1.38882">
        <ele>68</ele>
        <time>2021-02-06T13:58:13.000Z</time>
      </trkpt>
      <trkpt lat="47.29504" lon="-1.38878">
        <ele>67</ele>
        <time>2021-02-06T13:58:14.000Z</time>
      </trkpt>
      <trkpt lat="47.29492" lon="-1.38873">
        <ele>66</ele>
        <time>2021-02-06T13:58:15.000Z</time>
      </trkpt>
      <trkpt lat="47.29477" lon="-1.38868">
        <ele>64</ele>
        <time>2021-02-06T13:58:17.000Z</time>
      </trkpt>
      <trkpt lat="47.29458" lon="-1.38864">
        <ele>62</ele>
        <time>2021-02-06T13:58:20.000Z</time>
      </trkpt>
      <trkpt lat="47.29447" lon="-1.38863">
        <ele>59</ele>
        <time>2021-02-06T13:58:23.000Z</time>
      </trkpt>
      <trkpt lat="47.2944" lon="-1.38874">
        <ele>57</ele>
        <time>2021-02-06T13:58:29.000Z</time>
      </trkpt>
      <trkpt lat="47.29441" lon="-1.38887">
        <ele>57</ele>
        <time>2021-02-06T13:58:32.000Z</time>
      </trkpt>
      <trkpt lat="47.29444" lon="-1.38905">
        <ele>57</ele>
        <time>2021-02-06T13:58:35.000Z</time>
      </trkpt>
      <trkpt lat="47.29443" lon="-1.38923">
        <ele>56</ele>
        <time>2021-02-06T13:58:37.000Z</time>
      </trkpt>
      <trkpt lat="47.29443" lon="-1.38942">
        <ele>54</ele>
        <time>2021-02-06T13:58:39.000Z</time>
      </trkpt>
      <trkpt lat="47.29444" lon="-1.38958">
        <ele>55</ele>
        <time>2021-02-06T13:58:41.000Z</time>
      </trkpt>
      <trkpt lat="47.29442" lon="-1.38974">
        <ele>55</ele>
        <time>2021-02-06T13:58:43.000Z</time>
      </trkpt>
      <trkpt lat="47.2944" lon="-1.38989">
        <ele>55</ele>
        <time>2021-02-06T13:58:45.000Z</time>
      </trkpt>
      <trkpt lat="47.29439" lon="-1.3901">
        <ele>55</ele>
        <time>2021-02-06T13:58:48.000Z</time>
      </trkpt>
      <trkpt lat="47.29435" lon="-1.39028">
        <ele>54</ele>
        <time>2021-02-06T13:58:50.000Z</time>
      </trkpt>
      <trkpt lat="47.29433" lon="-1.39047">
        <ele>55</ele>
        <time>2021-02-06T13:58:52.000Z</time>
      </trkpt>
      <trkpt lat="47.29431" lon="-1.39067">
        <ele>55</ele>
        <time>2021-02-06T13:58:54.000Z</time>
      </trkpt>
      <trkpt lat="47.29426" lon="-1.39083">
        <ele>55</ele>
        <time>2021-02-06T13:58:56.000Z</time>
      </trkpt>
      <trkpt lat="47.29424" lon="-1.39102">
        <ele>55</ele>
        <time>2021-02-06T13:58:58.000Z</time>
      </trkpt>
      <trkpt lat="47.29421" lon="-1.39118">
        <ele>57</ele>
        <time>2021-02-06T13:59:00.000Z</time>
      </trkpt>
      <trkpt lat="47.29417" lon="-1.39134">
        <ele>57</ele>
        <time>2021-02-06T13:59:02.000Z</time>
      </trkpt>
      <trkpt lat="47.29414" lon="-1.3915">
        <ele>58</ele>
        <time>2021-02-06T13:59:04.000Z</time>
      </trkpt>
      <trkpt lat="47.29405" lon="-1.39159">
        <ele>58</ele>
        <time>2021-02-06T13:59:06.000Z</time>
      </trkpt>
      <trkpt lat="47.29393" lon="-1.39163">
        <ele>57</ele>
        <time>2021-02-06T13:59:08.000Z</time>
      </trkpt>
      <trkpt lat="47.29387" lon="-1.39175">
        <ele>57</ele>
        <time>2021-02-06T13:59:10.000Z</time>
      </trkpt>
      <trkpt lat="47.29386" lon="-1.39193">
        <ele>56</ele>
        <time>2021-02-06T13:59:12.000Z</time>
      </trkpt>
      <trkpt lat="47.29386" lon="-1.39212">
        <ele>56</ele>
        <time>2021-02-06T13:59:14.000Z</time>
      </trkpt>
      <trkpt lat="47.29386" lon="-1.3923">
        <ele>56</ele>
        <time>2021-02-06T13:59:16.000Z</time>
      </trkpt>
      <trkpt lat="47.29384" lon="-1.39249">
        <ele>56</ele>
        <time>2021-02-06T13:59:18.000Z</time>
      </trkpt>
      <trkpt lat="47.29383" lon="-1.39268">
        <ele>56</ele>
        <time>2021-02-06T13:59:20.000Z</time>
      </trkpt>
      <trkpt lat="47.2938" lon="-1.39288">
        <ele>55</ele>
        <time>2021-02-06T13:59:22.000Z</time>
      </trkpt>
      <trkpt lat="47.29377" lon="-1.39308">
        <ele>56</ele>
        <time>2021-02-06T13:59:24.000Z</time>
      </trkpt>
      <trkpt lat="47.29373" lon="-1.39326">
        <ele>56</ele>
        <time>2021-02-06T13:59:26.000Z</time>
      </trkpt>
      <trkpt lat="47.29368" lon="-1.39348">
        <ele>55</ele>
        <time>2021-02-06T13:59:28.000Z</time>
      </trkpt>
      <trkpt lat="47.29362" lon="-1.39367">
        <ele>55</ele>
        <time>2021-02-06T13:59:30.000Z</time>
      </trkpt>
      <trkpt lat="47.29359" lon="-1.39389">
        <ele>55</ele>
        <time>2021-02-06T13:59:32.000Z</time>
      </trkpt>
      <trkpt lat="47.29347" lon="-1.39418">
        <ele>55</ele>
        <time>2021-02-06T13:59:35.000Z</time>
      </trkpt>
      <trkpt lat="47.29339" lon="-1.39438">
        <ele>55</ele>
        <time>2021-02-06T13:59:37.000Z</time>
      </trkpt>
      <trkpt lat="47.29332" lon="-1.39458">
        <ele>55</ele>
        <time>2021-02-06T13:59:39.000Z</time>
      </trkpt>
      <trkpt lat="47.29326" lon="-1.39477">
        <ele>56</ele>
        <time>2021-02-06T13:59:41.000Z</time>
      </trkpt>
      <trkpt lat="47.29319" lon="-1.39496">
        <ele>55</ele>
        <time>2021-02-06T13:59:43.000Z</time>
      </trkpt>
      <trkpt lat="47.29311" lon="-1.39523">
        <ele>56</ele>
        <time>2021-02-06T13:59:46.000Z</time>
      </trkpt>
      <trkpt lat="47.29304" lon="-1.39543">
        <ele>56</ele>
        <time>2021-02-06T13:59:48.000Z</time>
      </trkpt>
      <trkpt lat="47.29298" lon="-1.39563">
        <ele>56</ele>
        <time>2021-02-06T13:59:50.000Z</time>
      </trkpt>
      <trkpt lat="47.29292" lon="-1.39582">
        <ele>56</ele>
        <time>2021-02-06T13:59:52.000Z</time>
      </trkpt>
      <trkpt lat="47.29282" lon="-1.3961">
        <ele>55</ele>
        <time>2021-02-06T13:59:55.000Z</time>
      </trkpt>
      <trkpt lat="47.29276" lon="-1.39629">
        <ele>54</ele>
        <time>2021-02-06T13:59:57.000Z</time>
      </trkpt>
      <trkpt lat="47.2927" lon="-1.39643">
        <ele>54</ele>
        <time>2021-02-06T13:59:59.000Z</time>
      </trkpt>
      <trkpt lat="47.29263" lon="-1.39655">
        <ele>54</ele>
        <time>2021-02-06T14:00:01.000Z</time>
      </trkpt>
      <trkpt lat="47.29256" lon="-1.39668">
        <ele>55</ele>
        <time>2021-02-06T14:00:03.000Z</time>
      </trkpt>
      <trkpt lat="47.29243" lon="-1.39672">
        <ele>56</ele>
        <time>2021-02-06T14:00:05.000Z</time>
      </trkpt>
      <trkpt lat="47.2923" lon="-1.39665">
        <ele>54</ele>
        <time>2021-02-06T14:00:07.000Z</time>
      </trkpt>
      <trkpt lat="47.29221" lon="-1.39648">
        <ele>55</ele>
        <time>2021-02-06T14:00:09.000Z</time>
      </trkpt>
      <trkpt lat="47.29211" lon="-1.39633">
        <ele>55</ele>
        <time>2021-02-06T14:00:11.000Z</time>
      </trkpt>
      <trkpt lat="47.29189" lon="-1.39612">
        <ele>53</ele>
        <time>2021-02-06T14:00:15.000Z</time>
      </trkpt>
      <trkpt lat="47.29181" lon="-1.396">
        <ele>55</ele>
        <time>2021-02-06T14:00:17.000Z</time>
      </trkpt>
      <trkpt lat="47.29173" lon="-1.39587">
        <ele>57</ele>
        <time>2021-02-06T14:00:19.000Z</time>
      </trkpt>
      <trkpt lat="47.29165" lon="-1.39578">
        <ele>56</ele>
        <time>2021-02-06T14:00:21.000Z</time>
      </trkpt>
      <trkpt lat="47.29154" lon="-1.39561">
        <ele>58</ele>
        <time>2021-02-06T14:00:24.000Z</time>
      </trkpt>
      <trkpt lat="47.29147" lon="-1.39549">
        <ele>60</ele>
        <time>2021-02-06T14:00:26.000Z</time>
      </trkpt>
      <trkpt lat="47.29141" lon="-1.39539">
        <ele>61</ele>
        <time>2021-02-06T14:00:28.000Z</time>
      </trkpt>
      <trkpt lat="47.29135" lon="-1.39527">
        <ele>61</ele>
        <time>2021-02-06T14:00:30.000Z</time>
      </trkpt>
      <trkpt lat="47.29128" lon="-1.39516">
        <ele>62</ele>
        <time>2021-02-06T14:00:32.000Z</time>
      </trkpt>
      <trkpt lat="47.29118" lon="-1.39499">
        <ele>63</ele>
        <time>2021-02-06T14:00:35.000Z</time>
      </trkpt>
      <trkpt lat="47.29111" lon="-1.39487">
        <ele>62</ele>
        <time>2021-02-06T14:00:37.000Z</time>
      </trkpt>
      <trkpt lat="47.29103" lon="-1.39473">
        <ele>61</ele>
        <time>2021-02-06T14:00:39.000Z</time>
      </trkpt>
      <trkpt lat="47.29091" lon="-1.39447">
        <ele>59</ele>
        <time>2021-02-06T14:00:42.000Z</time>
      </trkpt>
      <trkpt lat="47.29086" lon="-1.39431">
        <ele>60</ele>
        <time>2021-02-06T14:00:44.000Z</time>
      </trkpt>
      <trkpt lat="47.29082" lon="-1.39415">
        <ele>60</ele>
        <time>2021-02-06T14:00:46.000Z</time>
      </trkpt>
      <trkpt lat="47.29078" lon="-1.39395">
        <ele>60</ele>
        <time>2021-02-06T14:00:48.000Z</time>
      </trkpt>
      <trkpt lat="47.29077" lon="-1.39374">
        <ele>59</ele>
        <time>2021-02-06T14:00:50.000Z</time>
      </trkpt>
      <trkpt lat="47.29078" lon="-1.39352">
        <ele>58</ele>
        <time>2021-02-06T14:00:52.000Z</time>
      </trkpt>
      <trkpt lat="47.29081" lon="-1.39329">
        <ele>57</ele>
        <time>2021-02-06T14:00:54.000Z</time>
      </trkpt>
      <trkpt lat="47.29086" lon="-1.39306">
        <ele>57</ele>
        <time>2021-02-06T14:00:56.000Z</time>
      </trkpt>
      <trkpt lat="47.29094" lon="-1.39285">
        <ele>57</ele>
        <time>2021-02-06T14:00:58.000Z</time>
      </trkpt>
      <trkpt lat="47.29103" lon="-1.39265">
        <ele>56</ele>
        <time>2021-02-06T14:01:00.000Z</time>
      </trkpt>
      <trkpt lat="47.29113" lon="-1.39249">
        <ele>55</ele>
        <time>2021-02-06T14:01:02.000Z</time>
      </trkpt>
      <trkpt lat="47.29124" lon="-1.39234">
        <ele>55</ele>
        <time>2021-02-06T14:01:04.000Z</time>
      </trkpt>
      <trkpt lat="47.29141" lon="-1.39215">
        <ele>55</ele>
        <time>2021-02-06T14:01:07.000Z</time>
      </trkpt>
      <trkpt lat="47.29156" lon="-1.39197">
        <ele>55</ele>
        <time>2021-02-06T14:01:10.000Z</time>
      </trkpt>
      <trkpt lat="47.29166" lon="-1.39185">
        <ele>55</ele>
        <time>2021-02-06T14:01:12.000Z</time>
      </trkpt>
      <trkpt lat="47.29176" lon="-1.39172">
        <ele>55</ele>
        <time>2021-02-06T14:01:14.000Z</time>
      </trkpt>
      <trkpt lat="47.29186" lon="-1.3916">
        <ele>55</ele>
        <time>2021-02-06T14:01:16.000Z</time>
      </trkpt>
      <trkpt lat="47.292" lon="-1.39141">
        <ele>56</ele>
        <time>2021-02-06T14:01:19.000Z</time>
      </trkpt>
      <trkpt lat="47.29214" lon="-1.39123">
        <ele>56</ele>
        <time>2021-02-06T14:01:22.000Z</time>
      </trkpt>
      <trkpt lat="47.29222" lon="-1.39109">
        <ele>56</ele>
        <time>2021-02-06T14:01:24.000Z</time>
      </trkpt>
      <trkpt lat="47.29232" lon="-1.39085">
        <ele>56</ele>
        <time>2021-02-06T14:01:27.000Z</time>
      </trkpt>
      <trkpt lat="47.29239" lon="-1.39067">
        <ele>51</ele>
        <time>2021-02-06T14:01:29.000Z</time>
      </trkpt>
      <trkpt lat="47.29244" lon="-1.39049">
        <ele>50</ele>
        <time>2021-02-06T14:01:31.000Z</time>
      </trkpt>
      <trkpt lat="47.29249" lon="-1.39022">
        <ele>49</ele>
        <time>2021-02-06T14:01:34.000Z</time>
      </trkpt>
      <trkpt lat="47.29257" lon="-1.38998">
        <ele>53</ele>
        <time>2021-02-06T14:01:37.000Z</time>
      </trkpt>
      <trkpt lat="47.29262" lon="-1.38981">
        <ele>53</ele>
        <time>2021-02-06T14:01:39.000Z</time>
      </trkpt>
      <trkpt lat="47.29267" lon="-1.38963">
        <ele>53</ele>
        <time>2021-02-06T14:01:41.000Z</time>
      </trkpt>
      <trkpt lat="47.29274" lon="-1.38935">
        <ele>52</ele>
        <time>2021-02-06T14:01:44.000Z</time>
      </trkpt>
      <trkpt lat="47.29278" lon="-1.38914">
        <ele>50</ele>
        <time>2021-02-06T14:01:46.000Z</time>
      </trkpt>
      <trkpt lat="47.29283" lon="-1.38896">
        <ele>53</ele>
        <time>2021-02-06T14:01:48.000Z</time>
      </trkpt>
      <trkpt lat="47.29289" lon="-1.38879">
        <ele>54</ele>
        <time>2021-02-06T14:01:50.000Z</time>
      </trkpt>
      <trkpt lat="47.29294" lon="-1.38861">
        <ele>55</ele>
        <time>2021-02-06T14:01:52.000Z</time>
      </trkpt>
      <trkpt lat="47.29301" lon="-1.38835">
        <ele>54</ele>
        <time>2021-02-06T14:01:55.000Z</time>
      </trkpt>
      <trkpt lat="47.29306" lon="-1.38817">
        <ele>55</ele>
        <time>2021-02-06T14:01:57.000Z</time>
      </trkpt>
      <trkpt lat="47.29311" lon="-1.38799">
        <ele>54</ele>
        <time>2021-02-06T14:01:59.000Z</time>
      </trkpt>
      <trkpt lat="47.29315" lon="-1.38784">
        <ele>54</ele>
        <time>2021-02-06T14:02:01.000Z</time>
      </trkpt>
      <trkpt lat="47.29317" lon="-1.38771">
        <ele>55</ele>
        <time>2021-02-06T14:02:04.000Z</time>
      </trkpt>
      <trkpt lat="47.29324" lon="-1.3876">
        <ele>53</ele>
        <time>2021-02-06T14:04:01.000Z</time>
      </trkpt>
      <trkpt lat="47.29327" lon="-1.38748">
        <ele>53</ele>
        <time>2021-02-06T14:04:04.000Z</time>
      </trkpt>
      <trkpt lat="47.29331" lon="-1.38735">
        <ele>54</ele>
        <time>2021-02-06T14:04:07.000Z</time>
      </trkpt>
      <trkpt lat="47.29334" lon="-1.38718">
        <ele>53</ele>
        <time>2021-02-06T14:04:10.000Z</time>
      </trkpt>
      <trkpt lat="47.29339" lon="-1.38699">
        <ele>53</ele>
        <time>2021-02-06T14:04:13.000Z</time>
      </trkpt>
      <trkpt lat="47.29342" lon="-1.38685">
        <ele>53</ele>
        <time>2021-02-06T14:04:15.000Z</time>
      </trkpt>
      <trkpt lat="47.29347" lon="-1.38671">
        <ele>53</ele>
        <time>2021-02-06T14:04:17.000Z</time>
      </trkpt>
      <trkpt lat="47.29352" lon="-1.38655">
        <ele>53</ele>
        <time>2021-02-06T14:04:19.000Z</time>
      </trkpt>
      <trkpt lat="47.29359" lon="-1.3864">
        <ele>50</ele>
        <time>2021-02-06T14:04:21.000Z</time>
      </trkpt>
      <trkpt lat="47.29365" lon="-1.38622">
        <ele>51</ele>
        <time>2021-02-06T14:04:23.000Z</time>
      </trkpt>
      <trkpt lat="47.29368" lon="-1.38603">
        <ele>52</ele>
        <time>2021-02-06T14:04:25.000Z</time>
      </trkpt>
      <trkpt lat="47.29371" lon="-1.38588">
        <ele>53</ele>
        <time>2021-02-06T14:04:27.000Z</time>
      </trkpt>
      <trkpt lat="47.29375" lon="-1.38572">
        <ele>52</ele>
        <time>2021-02-06T14:04:29.000Z</time>
      </trkpt>
      <trkpt lat="47.29378" lon="-1.38556">
        <ele>52</ele>
        <time>2021-02-06T14:04:31.000Z</time>
      </trkpt>
      <trkpt lat="47.29383" lon="-1.38541">
        <ele>52</ele>
        <time>2021-02-06T14:04:33.000Z</time>
      </trkpt>
      <trkpt lat="47.29387" lon="-1.38527">
        <ele>53</ele>
        <time>2021-02-06T14:04:35.000Z</time>
      </trkpt>
      <trkpt lat="47.2939" lon="-1.38514">
        <ele>53</ele>
        <time>2021-02-06T14:04:37.000Z</time>
      </trkpt>
      <trkpt lat="47.29392" lon="-1.38499">
        <ele>53</ele>
        <time>2021-02-06T14:04:41.000Z</time>
      </trkpt>
      <trkpt lat="47.29399" lon="-1.38486">
        <ele>55</ele>
        <time>2021-02-06T14:05:40.000Z</time>
      </trkpt>
      <trkpt lat="47.29402" lon="-1.38474">
        <ele>55</ele>
        <time>2021-02-06T14:05:42.000Z</time>
      </trkpt>
      <trkpt lat="47.29406" lon="-1.3846">
        <ele>54</ele>
        <time>2021-02-06T14:05:44.000Z</time>
      </trkpt>
      <trkpt lat="47.2941" lon="-1.38445">
        <ele>54</ele>
        <time>2021-02-06T14:05:46.000Z</time>
      </trkpt>
      <trkpt lat="47.29414" lon="-1.38432">
        <ele>53</ele>
        <time>2021-02-06T14:05:48.000Z</time>
      </trkpt>
      <trkpt lat="47.29418" lon="-1.38417">
        <ele>53</ele>
        <time>2021-02-06T14:05:50.000Z</time>
      </trkpt>
      <trkpt lat="47.29422" lon="-1.384">
        <ele>54</ele>
        <time>2021-02-06T14:05:52.000Z</time>
      </trkpt>
      <trkpt lat="47.29426" lon="-1.38384">
        <ele>54</ele>
        <time>2021-02-06T14:05:54.000Z</time>
      </trkpt>
      <trkpt lat="47.2943" lon="-1.38367">
        <ele>52</ele>
        <time>2021-02-06T14:05:56.000Z</time>
      </trkpt>
      <trkpt lat="47.29432" lon="-1.38351">
        <ele>52</ele>
        <time>2021-02-06T14:05:58.000Z</time>
      </trkpt>
      <trkpt lat="47.29432" lon="-1.38337">
        <ele>50</ele>
        <time>2021-02-06T14:06:00.000Z</time>
      </trkpt>
      <trkpt lat="47.2943" lon="-1.38323">
        <ele>50</ele>
        <time>2021-02-06T14:06:02.000Z</time>
      </trkpt>
      <trkpt lat="47.29418" lon="-1.38307">
        <ele>49</ele>
        <time>2021-02-06T14:06:05.000Z</time>
      </trkpt>
      <trkpt lat="47.29409" lon="-1.38299">
        <ele>47</ele>
        <time>2021-02-06T14:06:07.000Z</time>
      </trkpt>
      <trkpt lat="47.29401" lon="-1.38289">
        <ele>47</ele>
        <time>2021-02-06T14:06:09.000Z</time>
      </trkpt>
      <trkpt lat="47.2939" lon="-1.38276">
        <ele>47</ele>
        <time>2021-02-06T14:06:12.000Z</time>
      </trkpt>
      <trkpt lat="47.29381" lon="-1.38265">
        <ele>48</ele>
        <time>2021-02-06T14:06:14.000Z</time>
      </trkpt>
      <trkpt lat="47.29372" lon="-1.38255">
        <ele>49</ele>
        <time>2021-02-06T14:06:16.000Z</time>
      </trkpt>
      <trkpt lat="47.29364" lon="-1.38245">
        <ele>50</ele>
        <time>2021-02-06T14:06:18.000Z</time>
      </trkpt>
      <trkpt lat="47.29356" lon="-1.38234">
        <ele>50</ele>
        <time>2021-02-06T14:06:20.000Z</time>
      </trkpt>
      <trkpt lat="47.29349" lon="-1.38223">
        <ele>49</ele>
        <time>2021-02-06T14:06:22.000Z</time>
      </trkpt>
      <trkpt lat="47.29336" lon="-1.38207">
        <ele>51</ele>
        <time>2021-02-06T14:06:25.000Z</time>
      </trkpt>
      <trkpt lat="47.29327" lon="-1.38195">
        <ele>51</ele>
        <time>2021-02-06T14:06:27.000Z</time>
      </trkpt>
      <trkpt lat="47.29314" lon="-1.3818">
        <ele>51</ele>
        <time>2021-02-06T14:06:30.000Z</time>
      </trkpt>
      <trkpt lat="47.29307" lon="-1.3817">
        <ele>49</ele>
        <time>2021-02-06T14:06:32.000Z</time>
      </trkpt>
      <trkpt lat="47.29293" lon="-1.38153">
        <ele>51</ele>
        <time>2021-02-06T14:06:35.000Z</time>
      </trkpt>
      <trkpt lat="47.29283" lon="-1.38141">
        <ele>50</ele>
        <time>2021-02-06T14:06:37.000Z</time>
      </trkpt>
      <trkpt lat="47.29274" lon="-1.38127">
        <ele>51</ele>
        <time>2021-02-06T14:06:39.000Z</time>
      </trkpt>
      <trkpt lat="47.29265" lon="-1.38116">
        <ele>53</ele>
        <time>2021-02-06T14:06:41.000Z</time>
      </trkpt>
      <trkpt lat="47.29255" lon="-1.38106">
        <ele>54</ele>
        <time>2021-02-06T14:06:43.000Z</time>
      </trkpt>
      <trkpt lat="47.29246" lon="-1.38097">
        <ele>53</ele>
        <time>2021-02-06T14:06:45.000Z</time>
      </trkpt>
      <trkpt lat="47.29236" lon="-1.38086">
        <ele>53</ele>
        <time>2021-02-06T14:06:47.000Z</time>
      </trkpt>
      <trkpt lat="47.29227" lon="-1.38076">
        <ele>53</ele>
        <time>2021-02-06T14:06:49.000Z</time>
      </trkpt>
      <trkpt lat="47.29218" lon="-1.38065">
        <ele>53</ele>
        <time>2021-02-06T14:06:51.000Z</time>
      </trkpt>
      <trkpt lat="47.29209" lon="-1.38054">
        <ele>53</ele>
        <time>2021-02-06T14:06:53.000Z</time>
      </trkpt>
      <trkpt lat="47.29198" lon="-1.38041">
        <ele>53</ele>
        <time>2021-02-06T14:06:55.000Z</time>
      </trkpt>
      <trkpt lat="47.29188" lon="-1.38031">
        <ele>52</ele>
        <time>2021-02-06T14:06:57.000Z</time>
      </trkpt>
      <trkpt lat="47.29179" lon="-1.38019">
        <ele>52</ele>
        <time>2021-02-06T14:06:59.000Z</time>
      </trkpt>
      <trkpt lat="47.2917" lon="-1.38006">
        <ele>53</ele>
        <time>2021-02-06T14:07:01.000Z</time>
      </trkpt>
      <trkpt lat="47.29161" lon="-1.37995">
        <ele>55</ele>
        <time>2021-02-06T14:07:03.000Z</time>
      </trkpt>
      <trkpt lat="47.29148" lon="-1.37978">
        <ele>54</ele>
        <time>2021-02-06T14:07:06.000Z</time>
      </trkpt>
      <trkpt lat="47.29139" lon="-1.37968">
        <ele>53</ele>
        <time>2021-02-06T14:07:08.000Z</time>
      </trkpt>
      <trkpt lat="47.29129" lon="-1.37956">
        <ele>54</ele>
        <time>2021-02-06T14:07:10.000Z</time>
      </trkpt>
      <trkpt lat="47.29122" lon="-1.37944">
        <ele>52</ele>
        <time>2021-02-06T14:07:12.000Z</time>
      </trkpt>
      <trkpt lat="47.29111" lon="-1.37933">
        <ele>52</ele>
        <time>2021-02-06T14:07:14.000Z</time>
      </trkpt>
      <trkpt lat="47.291" lon="-1.37922">
        <ele>53</ele>
        <time>2021-02-06T14:07:16.000Z</time>
      </trkpt>
      <trkpt lat="47.29091" lon="-1.37911">
        <ele>52</ele>
        <time>2021-02-06T14:07:18.000Z</time>
      </trkpt>
      <trkpt lat="47.29082" lon="-1.379">
        <ele>52</ele>
        <time>2021-02-06T14:07:20.000Z</time>
      </trkpt>
      <trkpt lat="47.29076" lon="-1.37887">
        <ele>53</ele>
        <time>2021-02-06T14:07:22.000Z</time>
      </trkpt>
      <trkpt lat="47.29066" lon="-1.37874">
        <ele>54</ele>
        <time>2021-02-06T14:07:24.000Z</time>
      </trkpt>
      <trkpt lat="47.29055" lon="-1.37859">
        <ele>52</ele>
        <time>2021-02-06T14:07:26.000Z</time>
      </trkpt>
      <trkpt lat="47.29045" lon="-1.37843">
        <ele>52</ele>
        <time>2021-02-06T14:07:28.000Z</time>
      </trkpt>
      <trkpt lat="47.29032" lon="-1.37829">
        <ele>53</ele>
        <time>2021-02-06T14:07:30.000Z</time>
      </trkpt>
      <trkpt lat="47.2902" lon="-1.37816">
        <ele>53</ele>
        <time>2021-02-06T14:07:32.000Z</time>
      </trkpt>
      <trkpt lat="47.29009" lon="-1.37803">
        <ele>54</ele>
        <time>2021-02-06T14:07:34.000Z</time>
      </trkpt>
      <trkpt lat="47.28997" lon="-1.3779">
        <ele>52</ele>
        <time>2021-02-06T14:07:36.000Z</time>
      </trkpt>
      <trkpt lat="47.28986" lon="-1.37776">
        <ele>52</ele>
        <time>2021-02-06T14:07:38.000Z</time>
      </trkpt>
      <trkpt lat="47.28967" lon="-1.37754">
        <ele>51</ele>
        <time>2021-02-06T14:07:41.000Z</time>
      </trkpt>
      <trkpt lat="47.2896" lon="-1.37745">
        <ele>50</ele>
        <time>2021-02-06T14:07:42.000Z</time>
      </trkpt>
      <trkpt lat="47.28946" lon="-1.37729">
        <ele>51</ele>
        <time>2021-02-06T14:07:44.000Z</time>
      </trkpt>
      <trkpt lat="47.28931" lon="-1.37709">
        <ele>52</ele>
        <time>2021-02-06T14:07:47.000Z</time>
      </trkpt>
      <trkpt lat="47.28924" lon="-1.37698">
        <ele>53</ele>
        <time>2021-02-06T14:07:49.000Z</time>
      </trkpt>
      <trkpt lat="47.28915" lon="-1.37689">
        <ele>51</ele>
        <time>2021-02-06T14:07:51.000Z</time>
      </trkpt>
      <trkpt lat="47.28906" lon="-1.37676">
        <ele>53</ele>
        <time>2021-02-06T14:07:55.000Z</time>
      </trkpt>
      <trkpt lat="47.28916" lon="-1.37679">
        <ele>52</ele>
        <time>2021-02-06T14:08:33.001Z</time>
      </trkpt>
      <trkpt lat="47.28905" lon="-1.37676">
        <ele>55</ele>
        <time>2021-02-06T14:08:34.000Z</time>
      </trkpt>
      <trkpt lat="47.28894" lon="-1.37661">
        <ele>62</ele>
        <time>2021-02-06T14:08:51.000Z</time>
      </trkpt>
      <trkpt lat="47.28882" lon="-1.37651">
        <ele>59</ele>
        <time>2021-02-06T14:08:53.000Z</time>
      </trkpt>
      <trkpt lat="47.28871" lon="-1.37644">
        <ele>54</ele>
        <time>2021-02-06T14:08:56.000Z</time>
      </trkpt>
      <trkpt lat="47.28862" lon="-1.3763">
        <ele>55</ele>
        <time>2021-02-06T14:08:58.000Z</time>
      </trkpt>
      <trkpt lat="47.28851" lon="-1.37614">
        <ele>56</ele>
        <time>2021-02-06T14:09:01.000Z</time>
      </trkpt>
      <trkpt lat="47.28843" lon="-1.37607">
        <ele>56</ele>
        <time>2021-02-06T14:09:03.000Z</time>
      </trkpt>
      <trkpt lat="47.28833" lon="-1.37597">
        <ele>57</ele>
        <time>2021-02-06T14:09:06.000Z</time>
      </trkpt>
      <trkpt lat="47.28818" lon="-1.37601">
        <ele>56</ele>
        <time>2021-02-06T14:09:09.000Z</time>
      </trkpt>
      <trkpt lat="47.2881" lon="-1.3761">
        <ele>57</ele>
        <time>2021-02-06T14:09:11.000Z</time>
      </trkpt>
      <trkpt lat="47.288" lon="-1.37619">
        <ele>60</ele>
        <time>2021-02-06T14:09:13.000Z</time>
      </trkpt>
      <trkpt lat="47.28785" lon="-1.37643">
        <ele>60</ele>
        <time>2021-02-06T14:09:16.000Z</time>
      </trkpt>
      <trkpt lat="47.2877" lon="-1.37664">
        <ele>58</ele>
        <time>2021-02-06T14:09:19.000Z</time>
      </trkpt>
      <trkpt lat="47.28751" lon="-1.37681">
        <ele>56</ele>
        <time>2021-02-06T14:09:22.000Z</time>
      </trkpt>
      <trkpt lat="47.28741" lon="-1.37693">
        <ele>56</ele>
        <time>2021-02-06T14:09:24.000Z</time>
      </trkpt>
      <trkpt lat="47.28731" lon="-1.37705">
        <ele>55</ele>
        <time>2021-02-06T14:09:26.000Z</time>
      </trkpt>
      <trkpt lat="47.2872" lon="-1.37717">
        <ele>55</ele>
        <time>2021-02-06T14:09:28.000Z</time>
      </trkpt>
      <trkpt lat="47.28709" lon="-1.3773">
        <ele>55</ele>
        <time>2021-02-06T14:09:30.000Z</time>
      </trkpt>
      <trkpt lat="47.28698" lon="-1.37742">
        <ele>56</ele>
        <time>2021-02-06T14:09:32.000Z</time>
      </trkpt>
      <trkpt lat="47.28688" lon="-1.37754">
        <ele>55</ele>
        <time>2021-02-06T14:09:34.000Z</time>
      </trkpt>
      <trkpt lat="47.28677" lon="-1.37766">
        <ele>55</ele>
        <time>2021-02-06T14:09:36.000Z</time>
      </trkpt>
      <trkpt lat="47.28667" lon="-1.37779">
        <ele>55</ele>
        <time>2021-02-06T14:09:38.000Z</time>
      </trkpt>
      <trkpt lat="47.28651" lon="-1.37798">
        <ele>55</ele>
        <time>2021-02-06T14:09:41.000Z</time>
      </trkpt>
      <trkpt lat="47.28642" lon="-1.37812">
        <ele>52</ele>
        <time>2021-02-06T14:09:43.000Z</time>
      </trkpt>
      <trkpt lat="47.28625" lon="-1.37829">
        <ele>53</ele>
        <time>2021-02-06T14:09:46.000Z</time>
      </trkpt>
      <trkpt lat="47.28614" lon="-1.37841">
        <ele>53</ele>
        <time>2021-02-06T14:09:48.000Z</time>
      </trkpt>
      <trkpt lat="47.28604" lon="-1.37857">
        <ele>54</ele>
        <time>2021-02-06T14:09:50.000Z</time>
      </trkpt>
      <trkpt lat="47.28591" lon="-1.37868">
        <ele>52</ele>
        <time>2021-02-06T14:09:52.000Z</time>
      </trkpt>
      <trkpt lat="47.28575" lon="-1.37886">
        <ele>52</ele>
        <time>2021-02-06T14:09:55.000Z</time>
      </trkpt>
      <trkpt lat="47.28565" lon="-1.37898">
        <ele>52</ele>
        <time>2021-02-06T14:09:57.000Z</time>
      </trkpt>
      <trkpt lat="47.28552" lon="-1.37911">
        <ele>50</ele>
        <time>2021-02-06T14:09:59.000Z</time>
      </trkpt>
      <trkpt lat="47.28538" lon="-1.37924">
        <ele>50</ele>
        <time>2021-02-06T14:10:01.000Z</time>
      </trkpt>
      <trkpt lat="47.2853" lon="-1.37936">
        <ele>51</ele>
        <time>2021-02-06T14:10:03.000Z</time>
      </trkpt>
      <trkpt lat="47.2852" lon="-1.37949">
        <ele>53</ele>
        <time>2021-02-06T14:10:05.000Z</time>
      </trkpt>
      <trkpt lat="47.28505" lon="-1.37966">
        <ele>53</ele>
        <time>2021-02-06T14:10:08.000Z</time>
      </trkpt>
      <trkpt lat="47.28494" lon="-1.37978">
        <ele>53</ele>
        <time>2021-02-06T14:10:10.000Z</time>
      </trkpt>
      <trkpt lat="47.28484" lon="-1.37992">
        <ele>54</ele>
        <time>2021-02-06T14:10:12.000Z</time>
      </trkpt>
      <trkpt lat="47.28473" lon="-1.38005">
        <ele>54</ele>
        <time>2021-02-06T14:10:14.000Z</time>
      </trkpt>
      <trkpt lat="47.28462" lon="-1.38017">
        <ele>54</ele>
        <time>2021-02-06T14:10:16.000Z</time>
      </trkpt>
      <trkpt lat="47.28452" lon="-1.38029">
        <ele>54</ele>
        <time>2021-02-06T14:10:18.000Z</time>
      </trkpt>
      <trkpt lat="47.28441" lon="-1.38042">
        <ele>54</ele>
        <time>2021-02-06T14:10:20.000Z</time>
      </trkpt>
      <trkpt lat="47.28431" lon="-1.38053">
        <ele>55</ele>
        <time>2021-02-06T14:10:22.000Z</time>
      </trkpt>
      <trkpt lat="47.28414" lon="-1.38073">
        <ele>55</ele>
        <time>2021-02-06T14:10:25.000Z</time>
      </trkpt>
      <trkpt lat="47.28398" lon="-1.38091">
        <ele>57</ele>
        <time>2021-02-06T14:10:28.000Z</time>
      </trkpt>
      <trkpt lat="47.28388" lon="-1.38104">
        <ele>56</ele>
        <time>2021-02-06T14:10:30.000Z</time>
      </trkpt>
      <trkpt lat="47.28378" lon="-1.38118">
        <ele>56</ele>
        <time>2021-02-06T14:10:32.000Z</time>
      </trkpt>
      <trkpt lat="47.28371" lon="-1.38134">
        <ele>55</ele>
        <time>2021-02-06T14:10:34.000Z</time>
      </trkpt>
      <trkpt lat="47.28363" lon="-1.3815">
        <ele>54</ele>
        <time>2021-02-06T14:10:36.000Z</time>
      </trkpt>
      <trkpt lat="47.28354" lon="-1.38169">
        <ele>54</ele>
        <time>2021-02-06T14:10:38.000Z</time>
      </trkpt>
      <trkpt lat="47.2835" lon="-1.38186">
        <ele>55</ele>
        <time>2021-02-06T14:10:40.000Z</time>
      </trkpt>
      <trkpt lat="47.28345" lon="-1.38204">
        <ele>55</ele>
        <time>2021-02-06T14:10:42.000Z</time>
      </trkpt>
      <trkpt lat="47.2834" lon="-1.3822">
        <ele>55</ele>
        <time>2021-02-06T14:10:44.000Z</time>
      </trkpt>
      <trkpt lat="47.28333" lon="-1.38238">
        <ele>54</ele>
        <time>2021-02-06T14:10:46.000Z</time>
      </trkpt>
      <trkpt lat="47.28326" lon="-1.38253">
        <ele>55</ele>
        <time>2021-02-06T14:10:48.000Z</time>
      </trkpt>
      <trkpt lat="47.28316" lon="-1.38267">
        <ele>55</ele>
        <time>2021-02-06T14:10:50.000Z</time>
      </trkpt>
      <trkpt lat="47.28306" lon="-1.3828">
        <ele>55</ele>
        <time>2021-02-06T14:10:52.000Z</time>
      </trkpt>
      <trkpt lat="47.28296" lon="-1.38295">
        <ele>55</ele>
        <time>2021-02-06T14:10:54.000Z</time>
      </trkpt>
      <trkpt lat="47.28286" lon="-1.3831">
        <ele>54</ele>
        <time>2021-02-06T14:10:56.000Z</time>
      </trkpt>
      <trkpt lat="47.28276" lon="-1.38332">
        <ele>53</ele>
        <time>2021-02-06T14:10:59.000Z</time>
      </trkpt>
      <trkpt lat="47.28269" lon="-1.38349">
        <ele>54</ele>
        <time>2021-02-06T14:11:01.000Z</time>
      </trkpt>
      <trkpt lat="47.28263" lon="-1.38366">
        <ele>53</ele>
        <time>2021-02-06T14:11:03.000Z</time>
      </trkpt>
      <trkpt lat="47.28255" lon="-1.38384">
        <ele>53</ele>
        <time>2021-02-06T14:11:05.000Z</time>
      </trkpt>
      <trkpt lat="47.28248" lon="-1.38399">
        <ele>54</ele>
        <time>2021-02-06T14:11:07.000Z</time>
      </trkpt>
      <trkpt lat="47.2824" lon="-1.38416">
        <ele>52</ele>
        <time>2021-02-06T14:11:09.000Z</time>
      </trkpt>
      <trkpt lat="47.28233" lon="-1.38435">
        <ele>51</ele>
        <time>2021-02-06T14:11:11.000Z</time>
      </trkpt>
      <trkpt lat="47.28228" lon="-1.38448">
        <ele>53</ele>
        <time>2021-02-06T14:11:13.000Z</time>
      </trkpt>
      <trkpt lat="47.2822" lon="-1.38463">
        <ele>53</ele>
        <time>2021-02-06T14:11:15.000Z</time>
      </trkpt>
      <trkpt lat="47.28213" lon="-1.38478">
        <ele>54</ele>
        <time>2021-02-06T14:11:17.000Z</time>
      </trkpt>
      <trkpt lat="47.28205" lon="-1.38493">
        <ele>54</ele>
        <time>2021-02-06T14:11:19.000Z</time>
      </trkpt>
      <trkpt lat="47.28199" lon="-1.3851">
        <ele>55</ele>
        <time>2021-02-06T14:11:21.000Z</time>
      </trkpt>
      <trkpt lat="47.28193" lon="-1.38529">
        <ele>55</ele>
        <time>2021-02-06T14:11:23.000Z</time>
      </trkpt>
      <trkpt lat="47.28189" lon="-1.38547">
        <ele>55</ele>
        <time>2021-02-06T14:11:25.000Z</time>
      </trkpt>
      <trkpt lat="47.28187" lon="-1.38566">
        <ele>54</ele>
        <time>2021-02-06T14:11:27.000Z</time>
      </trkpt>
      <trkpt lat="47.28184" lon="-1.38584">
        <ele>55</ele>
        <time>2021-02-06T14:11:29.000Z</time>
      </trkpt>
      <trkpt lat="47.28182" lon="-1.38602">
        <ele>54</ele>
        <time>2021-02-06T14:11:31.000Z</time>
      </trkpt>
      <trkpt lat="47.2818" lon="-1.3862">
        <ele>56</ele>
        <time>2021-02-06T14:11:33.000Z</time>
      </trkpt>
      <trkpt lat="47.28177" lon="-1.38637">
        <ele>55</ele>
        <time>2021-02-06T14:11:35.000Z</time>
      </trkpt>
      <trkpt lat="47.28176" lon="-1.38654">
        <ele>54</ele>
        <time>2021-02-06T14:11:37.000Z</time>
      </trkpt>
      <trkpt lat="47.28168" lon="-1.38672">
        <ele>55</ele>
        <time>2021-02-06T14:11:39.000Z</time>
      </trkpt>
      <trkpt lat="47.28158" lon="-1.38685">
        <ele>55</ele>
        <time>2021-02-06T14:11:41.000Z</time>
      </trkpt>
      <trkpt lat="47.28147" lon="-1.38697">
        <ele>54</ele>
        <time>2021-02-06T14:11:43.000Z</time>
      </trkpt>
      <trkpt lat="47.28136" lon="-1.38708">
        <ele>53</ele>
        <time>2021-02-06T14:11:45.000Z</time>
      </trkpt>
      <trkpt lat="47.28126" lon="-1.38719">
        <ele>53</ele>
        <time>2021-02-06T14:11:47.000Z</time>
      </trkpt>
      <trkpt lat="47.28109" lon="-1.38737">
        <ele>53</ele>
        <time>2021-02-06T14:11:50.000Z</time>
      </trkpt>
      <trkpt lat="47.28097" lon="-1.38749">
        <ele>54</ele>
        <time>2021-02-06T14:11:52.000Z</time>
      </trkpt>
      <trkpt lat="47.28086" lon="-1.38756">
        <ele>53</ele>
        <time>2021-02-06T14:11:54.000Z</time>
      </trkpt>
      <trkpt lat="47.28076" lon="-1.38767">
        <ele>55</ele>
        <time>2021-02-06T14:11:56.000Z</time>
      </trkpt>
      <trkpt lat="47.28065" lon="-1.38778">
        <ele>55</ele>
        <time>2021-02-06T14:11:58.000Z</time>
      </trkpt>
      <trkpt lat="47.28056" lon="-1.38788">
        <ele>55</ele>
        <time>2021-02-06T14:12:00.000Z</time>
      </trkpt>
      <trkpt lat="47.28045" lon="-1.38798">
        <ele>56</ele>
        <time>2021-02-06T14:12:02.000Z</time>
      </trkpt>
      <trkpt lat="47.28034" lon="-1.38808">
        <ele>55</ele>
        <time>2021-02-06T14:12:04.000Z</time>
      </trkpt>
      <trkpt lat="47.28018" lon="-1.38825">
        <ele>55</ele>
        <time>2021-02-06T14:12:07.000Z</time>
      </trkpt>
      <trkpt lat="47.28" lon="-1.38842">
        <ele>56</ele>
        <time>2021-02-06T14:12:10.000Z</time>
      </trkpt>
      <trkpt lat="47.2799" lon="-1.38853">
        <ele>56</ele>
        <time>2021-02-06T14:12:12.000Z</time>
      </trkpt>
      <trkpt lat="47.27979" lon="-1.38866">
        <ele>56</ele>
        <time>2021-02-06T14:12:14.000Z</time>
      </trkpt>
      <trkpt lat="47.27964" lon="-1.38885">
        <ele>54</ele>
        <time>2021-02-06T14:12:17.000Z</time>
      </trkpt>
      <trkpt lat="47.27956" lon="-1.38898">
        <ele>54</ele>
        <time>2021-02-06T14:12:19.000Z</time>
      </trkpt>
      <trkpt lat="47.27946" lon="-1.38913">
        <ele>54</ele>
        <time>2021-02-06T14:12:21.000Z</time>
      </trkpt>
      <trkpt lat="47.27937" lon="-1.38927">
        <ele>54</ele>
        <time>2021-02-06T14:12:23.000Z</time>
      </trkpt>
      <trkpt lat="47.27928" lon="-1.38941">
        <ele>53</ele>
        <time>2021-02-06T14:12:25.000Z</time>
      </trkpt>
      <trkpt lat="47.27913" lon="-1.38964">
        <ele>53</ele>
        <time>2021-02-06T14:12:28.000Z</time>
      </trkpt>
      <trkpt lat="47.27904" lon="-1.38983">
        <ele>50</ele>
        <time>2021-02-06T14:12:30.000Z</time>
      </trkpt>
      <trkpt lat="47.27895" lon="-1.38997">
        <ele>52</ele>
        <time>2021-02-06T14:12:32.000Z</time>
      </trkpt>
      <trkpt lat="47.27884" lon="-1.39012">
        <ele>52</ele>
        <time>2021-02-06T14:12:34.000Z</time>
      </trkpt>
      <trkpt lat="47.27875" lon="-1.39027">
        <ele>53</ele>
        <time>2021-02-06T14:12:36.000Z</time>
      </trkpt>
      <trkpt lat="47.27865" lon="-1.39042">
        <ele>52</ele>
        <time>2021-02-06T14:12:38.000Z</time>
      </trkpt>
      <trkpt lat="47.27856" lon="-1.39059">
        <ele>53</ele>
        <time>2021-02-06T14:12:40.000Z</time>
      </trkpt>
      <trkpt lat="47.27846" lon="-1.39073">
        <ele>54</ele>
        <time>2021-02-06T14:12:42.000Z</time>
      </trkpt>
      <trkpt lat="47.27836" lon="-1.39088">
        <ele>53</ele>
        <time>2021-02-06T14:12:44.000Z</time>
      </trkpt>
      <trkpt lat="47.27827" lon="-1.39105">
        <ele>53</ele>
        <time>2021-02-06T14:12:46.000Z</time>
      </trkpt>
      <trkpt lat="47.27817" lon="-1.39119">
        <ele>52</ele>
        <time>2021-02-06T14:12:48.000Z</time>
      </trkpt>
      <trkpt lat="47.27808" lon="-1.39135">
        <ele>53</ele>
        <time>2021-02-06T14:12:50.000Z</time>
      </trkpt>
      <trkpt lat="47.27795" lon="-1.39158">
        <ele>54</ele>
        <time>2021-02-06T14:12:53.000Z</time>
      </trkpt>
      <trkpt lat="47.27787" lon="-1.39177">
        <ele>50</ele>
        <time>2021-02-06T14:12:55.000Z</time>
      </trkpt>
      <trkpt lat="47.27779" lon="-1.39191">
        <ele>50</ele>
        <time>2021-02-06T14:12:57.000Z</time>
      </trkpt>
      <trkpt lat="47.27767" lon="-1.39214">
        <ele>51</ele>
        <time>2021-02-06T14:13:00.000Z</time>
      </trkpt>
      <trkpt lat="47.27759" lon="-1.39229">
        <ele>51</ele>
        <time>2021-02-06T14:13:02.000Z</time>
      </trkpt>
      <trkpt lat="47.27752" lon="-1.39243">
        <ele>51</ele>
        <time>2021-02-06T14:13:04.000Z</time>
      </trkpt>
      <trkpt lat="47.27743" lon="-1.39261">
        <ele>52</ele>
        <time>2021-02-06T14:13:06.000Z</time>
      </trkpt>
      <trkpt lat="47.27734" lon="-1.39278">
        <ele>53</ele>
        <time>2021-02-06T14:13:08.000Z</time>
      </trkpt>
      <trkpt lat="47.27725" lon="-1.39297">
        <ele>53</ele>
        <time>2021-02-06T14:13:10.000Z</time>
      </trkpt>
      <trkpt lat="47.27718" lon="-1.39314">
        <ele>53</ele>
        <time>2021-02-06T14:13:12.000Z</time>
      </trkpt>
      <trkpt lat="47.27709" lon="-1.39331">
        <ele>53</ele>
        <time>2021-02-06T14:13:14.000Z</time>
      </trkpt>
      <trkpt lat="47.27702" lon="-1.3935">
        <ele>55</ele>
        <time>2021-02-06T14:13:16.000Z</time>
      </trkpt>
      <trkpt lat="47.27694" lon="-1.39367">
        <ele>55</ele>
        <time>2021-02-06T14:13:18.000Z</time>
      </trkpt>
      <trkpt lat="47.27686" lon="-1.39383">
        <ele>55</ele>
        <time>2021-02-06T14:13:20.000Z</time>
      </trkpt>
      <trkpt lat="47.27674" lon="-1.39408">
        <ele>54</ele>
        <time>2021-02-06T14:13:23.000Z</time>
      </trkpt>
      <trkpt lat="47.27666" lon="-1.39424">
        <ele>54</ele>
        <time>2021-02-06T14:13:25.000Z</time>
      </trkpt>
      <trkpt lat="47.27657" lon="-1.39443">
        <ele>52</ele>
        <time>2021-02-06T14:13:27.000Z</time>
      </trkpt>
      <trkpt lat="47.27647" lon="-1.39457">
        <ele>53</ele>
        <time>2021-02-06T14:13:29.000Z</time>
      </trkpt>
      <trkpt lat="47.27633" lon="-1.39478">
        <ele>54</ele>
        <time>2021-02-06T14:13:32.000Z</time>
      </trkpt>
      <trkpt lat="47.27623" lon="-1.39492">
        <ele>54</ele>
        <time>2021-02-06T14:13:34.000Z</time>
      </trkpt>
      <trkpt lat="47.27613" lon="-1.39507">
        <ele>53</ele>
        <time>2021-02-06T14:13:36.000Z</time>
      </trkpt>
      <trkpt lat="47.27602" lon="-1.39522">
        <ele>53</ele>
        <time>2021-02-06T14:13:38.000Z</time>
      </trkpt>
      <trkpt lat="47.27589" lon="-1.39544">
        <ele>54</ele>
        <time>2021-02-06T14:13:41.000Z</time>
      </trkpt>
      <trkpt lat="47.27577" lon="-1.39564">
        <ele>54</ele>
        <time>2021-02-06T14:13:43.000Z</time>
      </trkpt>
      <trkpt lat="47.27569" lon="-1.39577">
        <ele>54</ele>
        <time>2021-02-06T14:13:45.000Z</time>
      </trkpt>
      <trkpt lat="47.2756" lon="-1.3959">
        <ele>54</ele>
        <time>2021-02-06T14:13:47.000Z</time>
      </trkpt>
      <trkpt lat="47.27551" lon="-1.39605">
        <ele>54</ele>
        <time>2021-02-06T14:13:49.000Z</time>
      </trkpt>
      <trkpt lat="47.27542" lon="-1.3962">
        <ele>54</ele>
        <time>2021-02-06T14:13:51.000Z</time>
      </trkpt>
      <trkpt lat="47.27533" lon="-1.39633">
        <ele>54</ele>
        <time>2021-02-06T14:13:53.000Z</time>
      </trkpt>
      <trkpt lat="47.27524" lon="-1.39648">
        <ele>54</ele>
        <time>2021-02-06T14:13:55.000Z</time>
      </trkpt>
      <trkpt lat="47.27515" lon="-1.39663">
        <ele>55</ele>
        <time>2021-02-06T14:13:57.000Z</time>
      </trkpt>
      <trkpt lat="47.27505" lon="-1.39678">
        <ele>55</ele>
        <time>2021-02-06T14:13:59.000Z</time>
      </trkpt>
      <trkpt lat="47.27497" lon="-1.39691">
        <ele>55</ele>
        <time>2021-02-06T14:14:01.000Z</time>
      </trkpt>
      <trkpt lat="47.27487" lon="-1.39707">
        <ele>55</ele>
        <time>2021-02-06T14:14:03.000Z</time>
      </trkpt>
      <trkpt lat="47.27477" lon="-1.39722">
        <ele>55</ele>
        <time>2021-02-06T14:14:05.000Z</time>
      </trkpt>
      <trkpt lat="47.27468" lon="-1.39737">
        <ele>54</ele>
        <time>2021-02-06T14:14:07.000Z</time>
      </trkpt>
      <trkpt lat="47.27459" lon="-1.39752">
        <ele>54</ele>
        <time>2021-02-06T14:14:09.000Z</time>
      </trkpt>
      <trkpt lat="47.27449" lon="-1.39766">
        <ele>54</ele>
        <time>2021-02-06T14:14:11.000Z</time>
      </trkpt>
      <trkpt lat="47.27439" lon="-1.39782">
        <ele>53</ele>
        <time>2021-02-06T14:14:13.000Z</time>
      </trkpt>
      <trkpt lat="47.27426" lon="-1.39809">
        <ele>54</ele>
        <time>2021-02-06T14:14:16.998Z</time>
      </trkpt>
      <trkpt lat="47.27413" lon="-1.39818">
        <ele>51</ele>
        <time>2021-02-06T14:14:17.999Z</time>
      </trkpt>
      <trkpt lat="47.27405" lon="-1.39836">
        <ele>53</ele>
        <time>2021-02-06T14:14:20.000Z</time>
      </trkpt>
      <trkpt lat="47.27394" lon="-1.39852">
        <ele>54</ele>
        <time>2021-02-06T14:14:22.000Z</time>
      </trkpt>
      <trkpt lat="47.27384" lon="-1.39868">
        <ele>53</ele>
        <time>2021-02-06T14:14:24.000Z</time>
      </trkpt>
      <trkpt lat="47.27374" lon="-1.39884">
        <ele>54</ele>
        <time>2021-02-06T14:14:26.000Z</time>
      </trkpt>
      <trkpt lat="47.27365" lon="-1.39901">
        <ele>54</ele>
        <time>2021-02-06T14:14:28.000Z</time>
      </trkpt>
      <trkpt lat="47.27355" lon="-1.39917">
        <ele>54</ele>
        <time>2021-02-06T14:14:30.000Z</time>
      </trkpt>
      <trkpt lat="47.27347" lon="-1.39932">
        <ele>55</ele>
        <time>2021-02-06T14:14:32.000Z</time>
      </trkpt>
      <trkpt lat="47.27337" lon="-1.39946">
        <ele>54</ele>
        <time>2021-02-06T14:14:34.000Z</time>
      </trkpt>
      <trkpt lat="47.27327" lon="-1.39961">
        <ele>54</ele>
        <time>2021-02-06T14:14:36.000Z</time>
      </trkpt>
      <trkpt lat="47.27317" lon="-1.39976">
        <ele>54</ele>
        <time>2021-02-06T14:14:38.000Z</time>
      </trkpt>
      <trkpt lat="47.2731" lon="-1.39985">
        <ele>53</ele>
        <time>2021-02-06T14:14:39.000Z</time>
      </trkpt>
      <trkpt lat="47.27299" lon="-1.40001">
        <ele>54</ele>
        <time>2021-02-06T14:14:41.000Z</time>
      </trkpt>
      <trkpt lat="47.2729" lon="-1.40015">
        <ele>54</ele>
        <time>2021-02-06T14:14:43.000Z</time>
      </trkpt>
      <trkpt lat="47.27281" lon="-1.4003">
        <ele>54</ele>
        <time>2021-02-06T14:14:45.000Z</time>
      </trkpt>
      <trkpt lat="47.27271" lon="-1.40045">
        <ele>54</ele>
        <time>2021-02-06T14:14:47.000Z</time>
      </trkpt>
      <trkpt lat="47.27261" lon="-1.40061">
        <ele>54</ele>
        <time>2021-02-06T14:14:49.000Z</time>
      </trkpt>
      <trkpt lat="47.27247" lon="-1.40083">
        <ele>53</ele>
        <time>2021-02-06T14:14:52.000Z</time>
      </trkpt>
      <trkpt lat="47.27237" lon="-1.40099">
        <ele>51</ele>
        <time>2021-02-06T14:14:54.000Z</time>
      </trkpt>
      <trkpt lat="47.27229" lon="-1.40113">
        <ele>52</ele>
        <time>2021-02-06T14:14:56.000Z</time>
      </trkpt>
      <trkpt lat="47.2722" lon="-1.40128">
        <ele>53</ele>
        <time>2021-02-06T14:14:58.000Z</time>
      </trkpt>
      <trkpt lat="47.2721" lon="-1.40144">
        <ele>54</ele>
        <time>2021-02-06T14:15:00.000Z</time>
      </trkpt>
      <trkpt lat="47.27196" lon="-1.40174">
        <ele>50</ele>
        <time>2021-02-06T14:15:03.000Z</time>
      </trkpt>
      <trkpt lat="47.27186" lon="-1.40185">
        <ele>49</ele>
        <time>2021-02-06T14:15:05.000Z</time>
      </trkpt>
      <trkpt lat="47.2717" lon="-1.40205">
        <ele>51</ele>
        <time>2021-02-06T14:15:08.000Z</time>
      </trkpt>
      <trkpt lat="47.27161" lon="-1.4022">
        <ele>52</ele>
        <time>2021-02-06T14:15:10.000Z</time>
      </trkpt>
      <trkpt lat="47.27152" lon="-1.40235">
        <ele>52</ele>
        <time>2021-02-06T14:15:12.000Z</time>
      </trkpt>
      <trkpt lat="47.27143" lon="-1.4025">
        <ele>53</ele>
        <time>2021-02-06T14:15:14.000Z</time>
      </trkpt>
      <trkpt lat="47.27133" lon="-1.40265">
        <ele>53</ele>
        <time>2021-02-06T14:15:16.000Z</time>
      </trkpt>
      <trkpt lat="47.27124" lon="-1.4028">
        <ele>53</ele>
        <time>2021-02-06T14:15:18.000Z</time>
      </trkpt>
      <trkpt lat="47.27115" lon="-1.40294">
        <ele>54</ele>
        <time>2021-02-06T14:15:20.000Z</time>
      </trkpt>
      <trkpt lat="47.27105" lon="-1.40309">
        <ele>55</ele>
        <time>2021-02-06T14:15:22.000Z</time>
      </trkpt>
      <trkpt lat="47.27096" lon="-1.40324">
        <ele>55</ele>
        <time>2021-02-06T14:15:24.000Z</time>
      </trkpt>
      <trkpt lat="47.27087" lon="-1.40338">
        <ele>55</ele>
        <time>2021-02-06T14:15:26.000Z</time>
      </trkpt>
      <trkpt lat="47.27078" lon="-1.40354">
        <ele>55</ele>
        <time>2021-02-06T14:15:28.000Z</time>
      </trkpt>
      <trkpt lat="47.27063" lon="-1.40375">
        <ele>55</ele>
        <time>2021-02-06T14:15:31.000Z</time>
      </trkpt>
      <trkpt lat="47.27049" lon="-1.40395">
        <ele>56</ele>
        <time>2021-02-06T14:15:34.000Z</time>
      </trkpt>
      <trkpt lat="47.2704" lon="-1.40411">
        <ele>56</ele>
        <time>2021-02-06T14:15:36.000Z</time>
      </trkpt>
      <trkpt lat="47.27031" lon="-1.40426">
        <ele>56</ele>
        <time>2021-02-06T14:15:38.000Z</time>
      </trkpt>
      <trkpt lat="47.27022" lon="-1.40441">
        <ele>56</ele>
        <time>2021-02-06T14:15:40.000Z</time>
      </trkpt>
      <trkpt lat="47.27013" lon="-1.40455">
        <ele>55</ele>
        <time>2021-02-06T14:15:42.000Z</time>
      </trkpt>
      <trkpt lat="47.27004" lon="-1.40468">
        <ele>55</ele>
        <time>2021-02-06T14:15:44.000Z</time>
      </trkpt>
      <trkpt lat="47.26994" lon="-1.40483">
        <ele>55</ele>
        <time>2021-02-06T14:15:46.000Z</time>
      </trkpt>
      <trkpt lat="47.26985" lon="-1.40497">
        <ele>55</ele>
        <time>2021-02-06T14:15:48.000Z</time>
      </trkpt>
      <trkpt lat="47.26976" lon="-1.40511">
        <ele>55</ele>
        <time>2021-02-06T14:15:50.000Z</time>
      </trkpt>
      <trkpt lat="47.26968" lon="-1.40526">
        <ele>55</ele>
        <time>2021-02-06T14:15:52.000Z</time>
      </trkpt>
      <trkpt lat="47.26953" lon="-1.40551">
        <ele>56</ele>
        <time>2021-02-06T14:15:55.000Z</time>
      </trkpt>
      <trkpt lat="47.26948" lon="-1.40567">
        <ele>56</ele>
        <time>2021-02-06T14:15:57.000Z</time>
      </trkpt>
      <trkpt lat="47.26942" lon="-1.40583">
        <ele>55</ele>
        <time>2021-02-06T14:15:59.000Z</time>
      </trkpt>
      <trkpt lat="47.26934" lon="-1.4062">
        <ele>55</ele>
        <time>2021-02-06T14:16:03.000Z</time>
      </trkpt>
      <trkpt lat="47.26931" lon="-1.40638">
        <ele>55</ele>
        <time>2021-02-06T14:16:05.000Z</time>
      </trkpt>
      <trkpt lat="47.26928" lon="-1.40656">
        <ele>55</ele>
        <time>2021-02-06T14:16:07.000Z</time>
      </trkpt>
      <trkpt lat="47.26924" lon="-1.40675">
        <ele>55</ele>
        <time>2021-02-06T14:16:09.000Z</time>
      </trkpt>
      <trkpt lat="47.26922" lon="-1.40695">
        <ele>55</ele>
        <time>2021-02-06T14:16:11.000Z</time>
      </trkpt>
      <trkpt lat="47.26924" lon="-1.40713">
        <ele>53</ele>
        <time>2021-02-06T14:16:13.000Z</time>
      </trkpt>
      <trkpt lat="47.26922" lon="-1.40731">
        <ele>52</ele>
        <time>2021-02-06T14:16:15.000Z</time>
      </trkpt>
      <trkpt lat="47.26923" lon="-1.40749">
        <ele>52</ele>
        <time>2021-02-06T14:16:17.000Z</time>
      </trkpt>
      <trkpt lat="47.26923" lon="-1.40779">
        <ele>53</ele>
        <time>2021-02-06T14:16:19.999Z</time>
      </trkpt>
      <trkpt lat="47.26919" lon="-1.40795">
        <ele>54</ele>
        <time>2021-02-06T14:16:22.000Z</time>
      </trkpt>
      <trkpt lat="47.26911" lon="-1.40809">
        <ele>55</ele>
        <time>2021-02-06T14:16:24.000Z</time>
      </trkpt>
      <trkpt lat="47.26902" lon="-1.40823">
        <ele>55</ele>
        <time>2021-02-06T14:16:26.000Z</time>
      </trkpt>
      <trkpt lat="47.26888" lon="-1.40843">
        <ele>54</ele>
        <time>2021-02-06T14:16:29.000Z</time>
      </trkpt>
      <trkpt lat="47.26874" lon="-1.40865">
        <ele>53</ele>
        <time>2021-02-06T14:16:32.000Z</time>
      </trkpt>
      <trkpt lat="47.26865" lon="-1.40879">
        <ele>54</ele>
        <time>2021-02-06T14:16:34.000Z</time>
      </trkpt>
      <trkpt lat="47.26856" lon="-1.40893">
        <ele>54</ele>
        <time>2021-02-06T14:16:36.000Z</time>
      </trkpt>
      <trkpt lat="47.26847" lon="-1.40907">
        <ele>54</ele>
        <time>2021-02-06T14:16:38.000Z</time>
      </trkpt>
      <trkpt lat="47.26839" lon="-1.40922">
        <ele>54</ele>
        <time>2021-02-06T14:16:40.000Z</time>
      </trkpt>
      <trkpt lat="47.2683" lon="-1.40936">
        <ele>54</ele>
        <time>2021-02-06T14:16:42.000Z</time>
      </trkpt>
      <trkpt lat="47.26822" lon="-1.40951">
        <ele>54</ele>
        <time>2021-02-06T14:16:44.000Z</time>
      </trkpt>
      <trkpt lat="47.26811" lon="-1.40975">
        <ele>54</ele>
        <time>2021-02-06T14:16:47.000Z</time>
      </trkpt>
      <trkpt lat="47.26804" lon="-1.40992">
        <ele>54</ele>
        <time>2021-02-06T14:16:49.000Z</time>
      </trkpt>
      <trkpt lat="47.26797" lon="-1.41009">
        <ele>54</ele>
        <time>2021-02-06T14:16:51.000Z</time>
      </trkpt>
      <trkpt lat="47.26791" lon="-1.41026">
        <ele>54</ele>
        <time>2021-02-06T14:16:53.000Z</time>
      </trkpt>
      <trkpt lat="47.26784" lon="-1.41044">
        <ele>54</ele>
        <time>2021-02-06T14:16:55.000Z</time>
      </trkpt>
      <trkpt lat="47.26779" lon="-1.41061">
        <ele>54</ele>
        <time>2021-02-06T14:16:57.000Z</time>
      </trkpt>
      <trkpt lat="47.26773" lon="-1.41078">
        <ele>54</ele>
        <time>2021-02-06T14:16:59.000Z</time>
      </trkpt>
      <trkpt lat="47.26766" lon="-1.41094">
        <ele>55</ele>
        <time>2021-02-06T14:17:01.000Z</time>
      </trkpt>
      <trkpt lat="47.26759" lon="-1.4111">
        <ele>55</ele>
        <time>2021-02-06T14:17:03.000Z</time>
      </trkpt>
      <trkpt lat="47.26747" lon="-1.41131">
        <ele>55</ele>
        <time>2021-02-06T14:17:06.000Z</time>
      </trkpt>
      <trkpt lat="47.26738" lon="-1.41141">
        <ele>54</ele>
        <time>2021-02-06T14:17:08.000Z</time>
      </trkpt>
      <trkpt lat="47.26727" lon="-1.41155">
        <ele>51</ele>
        <time>2021-02-06T14:17:10.000Z</time>
      </trkpt>
      <trkpt lat="47.26718" lon="-1.41168">
        <ele>52</ele>
        <time>2021-02-06T14:17:12.000Z</time>
      </trkpt>
      <trkpt lat="47.26702" lon="-1.41185">
        <ele>54</ele>
        <time>2021-02-06T14:17:15.000Z</time>
      </trkpt>
      <trkpt lat="47.26691" lon="-1.41197">
        <ele>54</ele>
        <time>2021-02-06T14:17:17.000Z</time>
      </trkpt>
      <trkpt lat="47.26681" lon="-1.41209">
        <ele>53</ele>
        <time>2021-02-06T14:17:19.000Z</time>
      </trkpt>
      <trkpt lat="47.26671" lon="-1.41222">
        <ele>53</ele>
        <time>2021-02-06T14:17:21.000Z</time>
      </trkpt>
      <trkpt lat="47.26661" lon="-1.41234">
        <ele>53</ele>
        <time>2021-02-06T14:17:23.000Z</time>
      </trkpt>
      <trkpt lat="47.2665" lon="-1.41246">
        <ele>54</ele>
        <time>2021-02-06T14:17:25.000Z</time>
      </trkpt>
      <trkpt lat="47.26642" lon="-1.41261">
        <ele>54</ele>
        <time>2021-02-06T14:17:27.000Z</time>
      </trkpt>
      <trkpt lat="47.26634" lon="-1.41276">
        <ele>54</ele>
        <time>2021-02-06T14:17:29.000Z</time>
      </trkpt>
      <trkpt lat="47.26626" lon="-1.4129">
        <ele>54</ele>
        <time>2021-02-06T14:17:31.000Z</time>
      </trkpt>
      <trkpt lat="47.26618" lon="-1.41305">
        <ele>54</ele>
        <time>2021-02-06T14:17:33.000Z</time>
      </trkpt>
      <trkpt lat="47.26609" lon="-1.41319">
        <ele>54</ele>
        <time>2021-02-06T14:17:35.000Z</time>
      </trkpt>
      <trkpt lat="47.26597" lon="-1.41343">
        <ele>54</ele>
        <time>2021-02-06T14:17:38.000Z</time>
      </trkpt>
      <trkpt lat="47.26589" lon="-1.41361">
        <ele>51</ele>
        <time>2021-02-06T14:17:40.000Z</time>
      </trkpt>
      <trkpt lat="47.2658" lon="-1.41376">
        <ele>49</ele>
        <time>2021-02-06T14:17:42.000Z</time>
      </trkpt>
      <trkpt lat="47.26574" lon="-1.41392">
        <ele>49</ele>
        <time>2021-02-06T14:17:44.000Z</time>
      </trkpt>
      <trkpt lat="47.26562" lon="-1.41427">
        <ele>52</ele>
        <time>2021-02-06T14:17:48.000Z</time>
      </trkpt>
      <trkpt lat="47.26551" lon="-1.41446">
        <ele>56</ele>
        <time>2021-02-06T14:17:51.000Z</time>
      </trkpt>
      <trkpt lat="47.26542" lon="-1.41462">
        <ele>54</ele>
        <time>2021-02-06T14:17:53.000Z</time>
      </trkpt>
      <trkpt lat="47.26534" lon="-1.41477">
        <ele>55</ele>
        <time>2021-02-06T14:17:55.000Z</time>
      </trkpt>
      <trkpt lat="47.26526" lon="-1.41491">
        <ele>55</ele>
        <time>2021-02-06T14:17:57.000Z</time>
      </trkpt>
      <trkpt lat="47.26517" lon="-1.41506">
        <ele>54</ele>
        <time>2021-02-06T14:17:59.000Z</time>
      </trkpt>
      <trkpt lat="47.26509" lon="-1.4152">
        <ele>54</ele>
        <time>2021-02-06T14:18:01.000Z</time>
      </trkpt>
      <trkpt lat="47.26499" lon="-1.41534">
        <ele>53</ele>
        <time>2021-02-06T14:18:03.000Z</time>
      </trkpt>
      <trkpt lat="47.26491" lon="-1.41549">
        <ele>52</ele>
        <time>2021-02-06T14:18:05.000Z</time>
      </trkpt>
      <trkpt lat="47.26484" lon="-1.41564">
        <ele>53</ele>
        <time>2021-02-06T14:18:07.000Z</time>
      </trkpt>
      <trkpt lat="47.26475" lon="-1.41579">
        <ele>54</ele>
        <time>2021-02-06T14:18:09.000Z</time>
      </trkpt>
      <trkpt lat="47.26467" lon="-1.41594">
        <ele>54</ele>
        <time>2021-02-06T14:18:11.000Z</time>
      </trkpt>
      <trkpt lat="47.26458" lon="-1.41608">
        <ele>54</ele>
        <time>2021-02-06T14:18:13.000Z</time>
      </trkpt>
      <trkpt lat="47.26449" lon="-1.41624">
        <ele>54</ele>
        <time>2021-02-06T14:18:15.000Z</time>
      </trkpt>
      <trkpt lat="47.26441" lon="-1.41639">
        <ele>53</ele>
        <time>2021-02-06T14:18:17.000Z</time>
      </trkpt>
      <trkpt lat="47.26435" lon="-1.41653">
        <ele>50</ele>
        <time>2021-02-06T14:18:19.000Z</time>
      </trkpt>
      <trkpt lat="47.26425" lon="-1.41668">
        <ele>52</ele>
        <time>2021-02-06T14:18:21.000Z</time>
      </trkpt>
      <trkpt lat="47.26416" lon="-1.41683">
        <ele>53</ele>
        <time>2021-02-06T14:18:23.000Z</time>
      </trkpt>
      <trkpt lat="47.26408" lon="-1.41698">
        <ele>52</ele>
        <time>2021-02-06T14:18:25.000Z</time>
      </trkpt>
      <trkpt lat="47.264" lon="-1.41711">
        <ele>53</ele>
        <time>2021-02-06T14:18:27.000Z</time>
      </trkpt>
      <trkpt lat="47.2639" lon="-1.41727">
        <ele>54</ele>
        <time>2021-02-06T14:18:29.000Z</time>
      </trkpt>
      <trkpt lat="47.26377" lon="-1.41749">
        <ele>54</ele>
        <time>2021-02-06T14:18:32.000Z</time>
      </trkpt>
      <trkpt lat="47.26368" lon="-1.41763">
        <ele>54</ele>
        <time>2021-02-06T14:18:34.000Z</time>
      </trkpt>
      <trkpt lat="47.26359" lon="-1.41778">
        <ele>54</ele>
        <time>2021-02-06T14:18:36.000Z</time>
      </trkpt>
      <trkpt lat="47.26351" lon="-1.41793">
        <ele>55</ele>
        <time>2021-02-06T14:18:38.000Z</time>
      </trkpt>
      <trkpt lat="47.26343" lon="-1.41808">
        <ele>55</ele>
        <time>2021-02-06T14:18:40.000Z</time>
      </trkpt>
      <trkpt lat="47.26334" lon="-1.41822">
        <ele>55</ele>
        <time>2021-02-06T14:18:42.000Z</time>
      </trkpt>
      <trkpt lat="47.26325" lon="-1.41838">
        <ele>55</ele>
        <time>2021-02-06T14:18:44.000Z</time>
      </trkpt>
      <trkpt lat="47.26317" lon="-1.41853">
        <ele>55</ele>
        <time>2021-02-06T14:18:46.000Z</time>
      </trkpt>
      <trkpt lat="47.26308" lon="-1.41868">
        <ele>55</ele>
        <time>2021-02-06T14:18:48.000Z</time>
      </trkpt>
      <trkpt lat="47.26299" lon="-1.41883">
        <ele>55</ele>
        <time>2021-02-06T14:18:50.000Z</time>
      </trkpt>
      <trkpt lat="47.2629" lon="-1.41898">
        <ele>55</ele>
        <time>2021-02-06T14:18:52.000Z</time>
      </trkpt>
      <trkpt lat="47.26281" lon="-1.41913">
        <ele>55</ele>
        <time>2021-02-06T14:18:54.000Z</time>
      </trkpt>
      <trkpt lat="47.26272" lon="-1.41928">
        <ele>55</ele>
        <time>2021-02-06T14:18:56.000Z</time>
      </trkpt>
      <trkpt lat="47.26263" lon="-1.41943">
        <ele>55</ele>
        <time>2021-02-06T14:18:58.000Z</time>
      </trkpt>
      <trkpt lat="47.26254" lon="-1.41957">
        <ele>54</ele>
        <time>2021-02-06T14:19:00.000Z</time>
      </trkpt>
      <trkpt lat="47.26246" lon="-1.41972">
        <ele>53</ele>
        <time>2021-02-06T14:19:02.000Z</time>
      </trkpt>
      <trkpt lat="47.26238" lon="-1.41987">
        <ele>54</ele>
        <time>2021-02-06T14:19:04.000Z</time>
      </trkpt>
      <trkpt lat="47.2623" lon="-1.42001">
        <ele>54</ele>
        <time>2021-02-06T14:19:06.000Z</time>
      </trkpt>
      <trkpt lat="47.26217" lon="-1.42022">
        <ele>54</ele>
        <time>2021-02-06T14:19:09.000Z</time>
      </trkpt>
      <trkpt lat="47.26208" lon="-1.42037">
        <ele>54</ele>
        <time>2021-02-06T14:19:11.000Z</time>
      </trkpt>
      <trkpt lat="47.262" lon="-1.42052">
        <ele>54</ele>
        <time>2021-02-06T14:19:13.000Z</time>
      </trkpt>
      <trkpt lat="47.26191" lon="-1.42067">
        <ele>54</ele>
        <time>2021-02-06T14:19:15.000Z</time>
      </trkpt>
      <trkpt lat="47.26182" lon="-1.42081">
        <ele>54</ele>
        <time>2021-02-06T14:19:17.000Z</time>
      </trkpt>
      <trkpt lat="47.26174" lon="-1.42095">
        <ele>54</ele>
        <time>2021-02-06T14:19:19.000Z</time>
      </trkpt>
      <trkpt lat="47.26165" lon="-1.4211">
        <ele>54</ele>
        <time>2021-02-06T14:19:21.000Z</time>
      </trkpt>
      <trkpt lat="47.26157" lon="-1.42125">
        <ele>54</ele>
        <time>2021-02-06T14:19:23.000Z</time>
      </trkpt>
      <trkpt lat="47.26149" lon="-1.4214">
        <ele>54</ele>
        <time>2021-02-06T14:19:25.000Z</time>
      </trkpt>
      <trkpt lat="47.26136" lon="-1.42162">
        <ele>55</ele>
        <time>2021-02-06T14:19:28.000Z</time>
      </trkpt>
      <trkpt lat="47.26126" lon="-1.42175">
        <ele>55</ele>
        <time>2021-02-06T14:19:30.000Z</time>
      </trkpt>
      <trkpt lat="47.26112" lon="-1.42195">
        <ele>56</ele>
        <time>2021-02-06T14:19:33.000Z</time>
      </trkpt>
      <trkpt lat="47.26097" lon="-1.42214">
        <ele>56</ele>
        <time>2021-02-06T14:19:36.000Z</time>
      </trkpt>
      <trkpt lat="47.26087" lon="-1.42227">
        <ele>55</ele>
        <time>2021-02-06T14:19:38.000Z</time>
      </trkpt>
      <trkpt lat="47.26077" lon="-1.42241">
        <ele>56</ele>
        <time>2021-02-06T14:19:40.000Z</time>
      </trkpt>
      <trkpt lat="47.26062" lon="-1.4226">
        <ele>55</ele>
        <time>2021-02-06T14:19:43.000Z</time>
      </trkpt>
      <trkpt lat="47.26053" lon="-1.42272">
        <ele>55</ele>
        <time>2021-02-06T14:19:45.000Z</time>
      </trkpt>
      <trkpt lat="47.26039" lon="-1.4229">
        <ele>54</ele>
        <time>2021-02-06T14:19:48.000Z</time>
      </trkpt>
      <trkpt lat="47.26028" lon="-1.42305">
        <ele>55</ele>
        <time>2021-02-06T14:19:50.000Z</time>
      </trkpt>
      <trkpt lat="47.26018" lon="-1.42319">
        <ele>54</ele>
        <time>2021-02-06T14:19:52.000Z</time>
      </trkpt>
      <trkpt lat="47.26008" lon="-1.42331">
        <ele>55</ele>
        <time>2021-02-06T14:19:54.000Z</time>
      </trkpt>
      <trkpt lat="47.25998" lon="-1.42344">
        <ele>55</ele>
        <time>2021-02-06T14:19:56.000Z</time>
      </trkpt>
      <trkpt lat="47.25988" lon="-1.42356">
        <ele>55</ele>
        <time>2021-02-06T14:19:58.000Z</time>
      </trkpt>
      <trkpt lat="47.25978" lon="-1.42369">
        <ele>55</ele>
        <time>2021-02-06T14:20:00.000Z</time>
      </trkpt>
      <trkpt lat="47.25967" lon="-1.42381">
        <ele>55</ele>
        <time>2021-02-06T14:20:02.000Z</time>
      </trkpt>
      <trkpt lat="47.25953" lon="-1.42401">
        <ele>56</ele>
        <time>2021-02-06T14:20:05.000Z</time>
      </trkpt>
      <trkpt lat="47.25943" lon="-1.42414">
        <ele>56</ele>
        <time>2021-02-06T14:20:07.000Z</time>
      </trkpt>
      <trkpt lat="47.25933" lon="-1.42426">
        <ele>56</ele>
        <time>2021-02-06T14:20:09.000Z</time>
      </trkpt>
      <trkpt lat="47.25923" lon="-1.4244">
        <ele>54</ele>
        <time>2021-02-06T14:20:11.000Z</time>
      </trkpt>
      <trkpt lat="47.25914" lon="-1.42455">
        <ele>54</ele>
        <time>2021-02-06T14:20:13.000Z</time>
      </trkpt>
      <trkpt lat="47.25902" lon="-1.42465">
        <ele>54</ele>
        <time>2021-02-06T14:20:15.000Z</time>
      </trkpt>
      <trkpt lat="47.25891" lon="-1.42475">
        <ele>54</ele>
        <time>2021-02-06T14:20:17.000Z</time>
      </trkpt>
      <trkpt lat="47.2588" lon="-1.42486">
        <ele>53</ele>
        <time>2021-02-06T14:20:19.000Z</time>
      </trkpt>
      <trkpt lat="47.2587" lon="-1.42496">
        <ele>53</ele>
        <time>2021-02-06T14:20:21.000Z</time>
      </trkpt>
      <trkpt lat="47.25857" lon="-1.42506">
        <ele>53</ele>
        <time>2021-02-06T14:20:23.000Z</time>
      </trkpt>
      <trkpt lat="47.25844" lon="-1.42515">
        <ele>53</ele>
        <time>2021-02-06T14:20:25.000Z</time>
      </trkpt>
      <trkpt lat="47.25832" lon="-1.42525">
        <ele>53</ele>
        <time>2021-02-06T14:20:27.000Z</time>
      </trkpt>
      <trkpt lat="47.2582" lon="-1.42535">
        <ele>53</ele>
        <time>2021-02-06T14:20:29.000Z</time>
      </trkpt>
      <trkpt lat="47.25802" lon="-1.42548">
        <ele>53</ele>
        <time>2021-02-06T14:20:32.000Z</time>
      </trkpt>
      <trkpt lat="47.25791" lon="-1.42559">
        <ele>53</ele>
        <time>2021-02-06T14:20:34.000Z</time>
      </trkpt>
      <trkpt lat="47.25779" lon="-1.42568">
        <ele>53</ele>
        <time>2021-02-06T14:20:36.000Z</time>
      </trkpt>
      <trkpt lat="47.25767" lon="-1.42578">
        <ele>53</ele>
        <time>2021-02-06T14:20:38.000Z</time>
      </trkpt>
      <trkpt lat="47.25756" lon="-1.42588">
        <ele>54</ele>
        <time>2021-02-06T14:20:40.000Z</time>
      </trkpt>
      <trkpt lat="47.25746" lon="-1.42598">
        <ele>54</ele>
        <time>2021-02-06T14:20:42.000Z</time>
      </trkpt>
      <trkpt lat="47.25737" lon="-1.42609">
        <ele>55</ele>
        <time>2021-02-06T14:20:44.000Z</time>
      </trkpt>
      <trkpt lat="47.25724" lon="-1.42627">
        <ele>55</ele>
        <time>2021-02-06T14:20:47.000Z</time>
      </trkpt>
      <trkpt lat="47.25712" lon="-1.42632">
        <ele>55</ele>
        <time>2021-02-06T14:20:49.000Z</time>
      </trkpt>
      <trkpt lat="47.25699" lon="-1.42636">
        <ele>55</ele>
        <time>2021-02-06T14:20:51.000Z</time>
      </trkpt>
      <trkpt lat="47.25688" lon="-1.42644">
        <ele>56</ele>
        <time>2021-02-06T14:20:53.000Z</time>
      </trkpt>
      <trkpt lat="47.25676" lon="-1.42654">
        <ele>56</ele>
        <time>2021-02-06T14:20:55.000Z</time>
      </trkpt>
      <trkpt lat="47.25662" lon="-1.42665">
        <ele>55</ele>
        <time>2021-02-06T14:20:57.000Z</time>
      </trkpt>
      <trkpt lat="47.25637" lon="-1.42685">
        <ele>55</ele>
        <time>2021-02-06T14:21:01.000Z</time>
      </trkpt>
      <trkpt lat="47.25625" lon="-1.42694">
        <ele>54</ele>
        <time>2021-02-06T14:21:03.000Z</time>
      </trkpt>
      <trkpt lat="47.25613" lon="-1.42705">
        <ele>55</ele>
        <time>2021-02-06T14:21:05.000Z</time>
      </trkpt>
      <trkpt lat="47.25601" lon="-1.42715">
        <ele>55</ele>
        <time>2021-02-06T14:21:07.000Z</time>
      </trkpt>
      <trkpt lat="47.25582" lon="-1.4273">
        <ele>55</ele>
        <time>2021-02-06T14:21:10.000Z</time>
      </trkpt>
      <trkpt lat="47.2557" lon="-1.4274">
        <ele>54</ele>
        <time>2021-02-06T14:21:12.000Z</time>
      </trkpt>
      <trkpt lat="47.25558" lon="-1.4275">
        <ele>54</ele>
        <time>2021-02-06T14:21:14.000Z</time>
      </trkpt>
      <trkpt lat="47.25546" lon="-1.4276">
        <ele>55</ele>
        <time>2021-02-06T14:21:16.000Z</time>
      </trkpt>
      <trkpt lat="47.25533" lon="-1.4277">
        <ele>55</ele>
        <time>2021-02-06T14:21:18.000Z</time>
      </trkpt>
      <trkpt lat="47.25521" lon="-1.4278">
        <ele>55</ele>
        <time>2021-02-06T14:21:20.000Z</time>
      </trkpt>
      <trkpt lat="47.25502" lon="-1.42793">
        <ele>52</ele>
        <time>2021-02-06T14:21:23.000Z</time>
      </trkpt>
      <trkpt lat="47.25489" lon="-1.42802">
        <ele>50</ele>
        <time>2021-02-06T14:21:25.000Z</time>
      </trkpt>
      <trkpt lat="47.2547" lon="-1.4282">
        <ele>52</ele>
        <time>2021-02-06T14:21:28.000Z</time>
      </trkpt>
      <trkpt lat="47.25451" lon="-1.42836">
        <ele>52</ele>
        <time>2021-02-06T14:21:31.000Z</time>
      </trkpt>
      <trkpt lat="47.25438" lon="-1.42845">
        <ele>50</ele>
        <time>2021-02-06T14:21:33.000Z</time>
      </trkpt>
      <trkpt lat="47.25425" lon="-1.42852">
        <ele>52</ele>
        <time>2021-02-06T14:21:35.000Z</time>
      </trkpt>
      <trkpt lat="47.25406" lon="-1.42865">
        <ele>51</ele>
        <time>2021-02-06T14:21:38.000Z</time>
      </trkpt>
      <trkpt lat="47.25385" lon="-1.42876">
        <ele>51</ele>
        <time>2021-02-06T14:21:41.000Z</time>
      </trkpt>
      <trkpt lat="47.25374" lon="-1.42883">
        <ele>52</ele>
        <time>2021-02-06T14:21:43.000Z</time>
      </trkpt>
      <trkpt lat="47.25361" lon="-1.42891">
        <ele>53</ele>
        <time>2021-02-06T14:21:45.000Z</time>
      </trkpt>
      <trkpt lat="47.25347" lon="-1.42899">
        <ele>53</ele>
        <time>2021-02-06T14:21:47.000Z</time>
      </trkpt>
      <trkpt lat="47.25331" lon="-1.42909">
        <ele>54</ele>
        <time>2021-02-06T14:21:49.000Z</time>
      </trkpt>
      <trkpt lat="47.25319" lon="-1.42915">
        <ele>54</ele>
        <time>2021-02-06T14:21:51.000Z</time>
      </trkpt>
      <trkpt lat="47.25307" lon="-1.42923">
        <ele>55</ele>
        <time>2021-02-06T14:21:53.000Z</time>
      </trkpt>
      <trkpt lat="47.25287" lon="-1.42934">
        <ele>54</ele>
        <time>2021-02-06T14:21:56.000Z</time>
      </trkpt>
      <trkpt lat="47.25274" lon="-1.42942">
        <ele>54</ele>
        <time>2021-02-06T14:21:58.000Z</time>
      </trkpt>
      <trkpt lat="47.25253" lon="-1.42954">
        <ele>54</ele>
        <time>2021-02-06T14:22:01.000Z</time>
      </trkpt>
      <trkpt lat="47.25234" lon="-1.42966">
        <ele>54</ele>
        <time>2021-02-06T14:22:04.000Z</time>
      </trkpt>
      <trkpt lat="47.25221" lon="-1.42975">
        <ele>54</ele>
        <time>2021-02-06T14:22:06.000Z</time>
      </trkpt>
      <trkpt lat="47.25203" lon="-1.42991">
        <ele>54</ele>
        <time>2021-02-06T14:22:09.000Z</time>
      </trkpt>
      <trkpt lat="47.25189" lon="-1.43003">
        <ele>54</ele>
        <time>2021-02-06T14:22:11.000Z</time>
      </trkpt>
      <trkpt lat="47.25178" lon="-1.43017">
        <ele>54</ele>
        <time>2021-02-06T14:22:13.000Z</time>
      </trkpt>
      <trkpt lat="47.25168" lon="-1.4303">
        <ele>54</ele>
        <time>2021-02-06T14:22:15.000Z</time>
      </trkpt>
      <trkpt lat="47.25158" lon="-1.43044">
        <ele>54</ele>
        <time>2021-02-06T14:22:17.000Z</time>
      </trkpt>
      <trkpt lat="47.25147" lon="-1.43058">
        <ele>55</ele>
        <time>2021-02-06T14:22:19.000Z</time>
      </trkpt>
      <trkpt lat="47.25136" lon="-1.43071">
        <ele>54</ele>
        <time>2021-02-06T14:22:21.000Z</time>
      </trkpt>
      <trkpt lat="47.2512" lon="-1.43092">
        <ele>54</ele>
        <time>2021-02-06T14:22:24.000Z</time>
      </trkpt>
      <trkpt lat="47.2511" lon="-1.43105">
        <ele>54</ele>
        <time>2021-02-06T14:22:26.000Z</time>
      </trkpt>
      <trkpt lat="47.25099" lon="-1.43119">
        <ele>54</ele>
        <time>2021-02-06T14:22:28.000Z</time>
      </trkpt>
      <trkpt lat="47.25088" lon="-1.43132">
        <ele>54</ele>
        <time>2021-02-06T14:22:30.000Z</time>
      </trkpt>
      <trkpt lat="47.25078" lon="-1.43145">
        <ele>54</ele>
        <time>2021-02-06T14:22:32.000Z</time>
      </trkpt>
      <trkpt lat="47.25067" lon="-1.43158">
        <ele>54</ele>
        <time>2021-02-06T14:22:34.000Z</time>
      </trkpt>
      <trkpt lat="47.25056" lon="-1.43171">
        <ele>54</ele>
        <time>2021-02-06T14:22:36.000Z</time>
      </trkpt>
      <trkpt lat="47.25045" lon="-1.43182">
        <ele>54</ele>
        <time>2021-02-06T14:22:38.000Z</time>
      </trkpt>
      <trkpt lat="47.25033" lon="-1.43193">
        <ele>54</ele>
        <time>2021-02-06T14:22:40.000Z</time>
      </trkpt>
      <trkpt lat="47.25021" lon="-1.43202">
        <ele>54</ele>
        <time>2021-02-06T14:22:42.000Z</time>
      </trkpt>
      <trkpt lat="47.25001" lon="-1.43217">
        <ele>54</ele>
        <time>2021-02-06T14:22:45.000Z</time>
      </trkpt>
      <trkpt lat="47.2499" lon="-1.43224">
        <ele>54</ele>
        <time>2021-02-06T14:22:47.000Z</time>
      </trkpt>
      <trkpt lat="47.24972" lon="-1.43237">
        <ele>54</ele>
        <time>2021-02-06T14:22:50.000Z</time>
      </trkpt>
      <trkpt lat="47.24954" lon="-1.4325">
        <ele>54</ele>
        <time>2021-02-06T14:22:53.000Z</time>
      </trkpt>
      <trkpt lat="47.24941" lon="-1.43258">
        <ele>54</ele>
        <time>2021-02-06T14:22:55.000Z</time>
      </trkpt>
      <trkpt lat="47.2493" lon="-1.43267">
        <ele>54</ele>
        <time>2021-02-06T14:22:57.000Z</time>
      </trkpt>
      <trkpt lat="47.24917" lon="-1.43276">
        <ele>54</ele>
        <time>2021-02-06T14:22:59.000Z</time>
      </trkpt>
      <trkpt lat="47.24905" lon="-1.43284">
        <ele>54</ele>
        <time>2021-02-06T14:23:01.000Z</time>
      </trkpt>
      <trkpt lat="47.24895" lon="-1.43294">
        <ele>54</ele>
        <time>2021-02-06T14:23:03.000Z</time>
      </trkpt>
      <trkpt lat="47.24884" lon="-1.43302">
        <ele>54</ele>
        <time>2021-02-06T14:23:05.000Z</time>
      </trkpt>
      <trkpt lat="47.24871" lon="-1.4331">
        <ele>54</ele>
        <time>2021-02-06T14:23:07.000Z</time>
      </trkpt>
      <trkpt lat="47.24858" lon="-1.43318">
        <ele>53</ele>
        <time>2021-02-06T14:23:09.000Z</time>
      </trkpt>
      <trkpt lat="47.24844" lon="-1.43327">
        <ele>55</ele>
        <time>2021-02-06T14:23:11.000Z</time>
      </trkpt>
      <trkpt lat="47.24832" lon="-1.43335">
        <ele>55</ele>
        <time>2021-02-06T14:23:13.000Z</time>
      </trkpt>
      <trkpt lat="47.2482" lon="-1.43343">
        <ele>54</ele>
        <time>2021-02-06T14:23:15.000Z</time>
      </trkpt>
      <trkpt lat="47.24799" lon="-1.43356">
        <ele>54</ele>
        <time>2021-02-06T14:23:18.000Z</time>
      </trkpt>
      <trkpt lat="47.24789" lon="-1.43364">
        <ele>55</ele>
        <time>2021-02-06T14:23:20.000Z</time>
      </trkpt>
      <trkpt lat="47.24777" lon="-1.43373">
        <ele>55</ele>
        <time>2021-02-06T14:23:22.000Z</time>
      </trkpt>
      <trkpt lat="47.24767" lon="-1.43384">
        <ele>54</ele>
        <time>2021-02-06T14:23:24.000Z</time>
      </trkpt>
      <trkpt lat="47.24756" lon="-1.43396">
        <ele>55</ele>
        <time>2021-02-06T14:23:26.000Z</time>
      </trkpt>
      <trkpt lat="47.24746" lon="-1.43408">
        <ele>54</ele>
        <time>2021-02-06T14:23:28.000Z</time>
      </trkpt>
      <trkpt lat="47.24737" lon="-1.43421">
        <ele>54</ele>
        <time>2021-02-06T14:23:30.000Z</time>
      </trkpt>
      <trkpt lat="47.24728" lon="-1.43436">
        <ele>54</ele>
        <time>2021-02-06T14:23:32.000Z</time>
      </trkpt>
      <trkpt lat="47.2472" lon="-1.43452">
        <ele>54</ele>
        <time>2021-02-06T14:23:34.000Z</time>
      </trkpt>
      <trkpt lat="47.24712" lon="-1.43468">
        <ele>55</ele>
        <time>2021-02-06T14:23:36.000Z</time>
      </trkpt>
      <trkpt lat="47.24701" lon="-1.43493">
        <ele>54</ele>
        <time>2021-02-06T14:23:39.000Z</time>
      </trkpt>
      <trkpt lat="47.24695" lon="-1.4351">
        <ele>53</ele>
        <time>2021-02-06T14:23:41.000Z</time>
      </trkpt>
      <trkpt lat="47.24687" lon="-1.43527">
        <ele>53</ele>
        <time>2021-02-06T14:23:43.000Z</time>
      </trkpt>
      <trkpt lat="47.24679" lon="-1.43544">
        <ele>54</ele>
        <time>2021-02-06T14:23:45.000Z</time>
      </trkpt>
      <trkpt lat="47.24671" lon="-1.43559">
        <ele>55</ele>
        <time>2021-02-06T14:23:47.000Z</time>
      </trkpt>
      <trkpt lat="47.24661" lon="-1.43573">
        <ele>55</ele>
        <time>2021-02-06T14:23:49.000Z</time>
      </trkpt>
      <trkpt lat="47.2465" lon="-1.43586">
        <ele>55</ele>
        <time>2021-02-06T14:23:51.000Z</time>
      </trkpt>
      <trkpt lat="47.24639" lon="-1.43597">
        <ele>55</ele>
        <time>2021-02-06T14:23:53.000Z</time>
      </trkpt>
      <trkpt lat="47.24628" lon="-1.43608">
        <ele>55</ele>
        <time>2021-02-06T14:23:55.000Z</time>
      </trkpt>
      <trkpt lat="47.24617" lon="-1.43618">
        <ele>54</ele>
        <time>2021-02-06T14:23:57.000Z</time>
      </trkpt>
      <trkpt lat="47.24606" lon="-1.43629">
        <ele>55</ele>
        <time>2021-02-06T14:23:59.000Z</time>
      </trkpt>
      <trkpt lat="47.24595" lon="-1.4364">
        <ele>55</ele>
        <time>2021-02-06T14:24:01.000Z</time>
      </trkpt>
      <trkpt lat="47.24584" lon="-1.43651">
        <ele>54</ele>
        <time>2021-02-06T14:24:03.000Z</time>
      </trkpt>
      <trkpt lat="47.24572" lon="-1.4366">
        <ele>52</ele>
        <time>2021-02-06T14:24:05.000Z</time>
      </trkpt>
      <trkpt lat="47.24556" lon="-1.43678">
        <ele>54</ele>
        <time>2021-02-06T14:24:08.000Z</time>
      </trkpt>
      <trkpt lat="47.24546" lon="-1.43692">
        <ele>53</ele>
        <time>2021-02-06T14:24:10.000Z</time>
      </trkpt>
      <trkpt lat="47.24536" lon="-1.43709">
        <ele>53</ele>
        <time>2021-02-06T14:24:12.000Z</time>
      </trkpt>
      <trkpt lat="47.24529" lon="-1.43726">
        <ele>54</ele>
        <time>2021-02-06T14:24:14.000Z</time>
      </trkpt>
      <trkpt lat="47.24523" lon="-1.43745">
        <ele>54</ele>
        <time>2021-02-06T14:24:16.000Z</time>
      </trkpt>
      <trkpt lat="47.24517" lon="-1.43763">
        <ele>54</ele>
        <time>2021-02-06T14:24:18.000Z</time>
      </trkpt>
      <trkpt lat="47.24511" lon="-1.43782">
        <ele>54</ele>
        <time>2021-02-06T14:24:20.000Z</time>
      </trkpt>
      <trkpt lat="47.24505" lon="-1.43801">
        <ele>53</ele>
        <time>2021-02-06T14:24:22.000Z</time>
      </trkpt>
      <trkpt lat="47.24497" lon="-1.43829">
        <ele>54</ele>
        <time>2021-02-06T14:24:25.000Z</time>
      </trkpt>
      <trkpt lat="47.24491" lon="-1.43847">
        <ele>54</ele>
        <time>2021-02-06T14:24:27.000Z</time>
      </trkpt>
      <trkpt lat="47.24486" lon="-1.43865">
        <ele>54</ele>
        <time>2021-02-06T14:24:29.000Z</time>
      </trkpt>
      <trkpt lat="47.24479" lon="-1.43883">
        <ele>55</ele>
        <time>2021-02-06T14:24:31.000Z</time>
      </trkpt>
      <trkpt lat="47.24473" lon="-1.43901">
        <ele>55</ele>
        <time>2021-02-06T14:24:33.000Z</time>
      </trkpt>
      <trkpt lat="47.24465" lon="-1.43918">
        <ele>54</ele>
        <time>2021-02-06T14:24:35.000Z</time>
      </trkpt>
      <trkpt lat="47.24458" lon="-1.43935">
        <ele>54</ele>
        <time>2021-02-06T14:24:37.000Z</time>
      </trkpt>
      <trkpt lat="47.24451" lon="-1.43952">
        <ele>54</ele>
        <time>2021-02-06T14:24:39.000Z</time>
      </trkpt>
      <trkpt lat="47.24435" lon="-1.43984">
        <ele>54</ele>
        <time>2021-02-06T14:24:43.000Z</time>
      </trkpt>
      <trkpt lat="47.24422" lon="-1.4401">
        <ele>54</ele>
        <time>2021-02-06T14:24:46.000Z</time>
      </trkpt>
      <trkpt lat="47.24411" lon="-1.44034">
        <ele>54</ele>
        <time>2021-02-06T14:24:49.000Z</time>
      </trkpt>
      <trkpt lat="47.24398" lon="-1.44059">
        <ele>55</ele>
        <time>2021-02-06T14:24:52.000Z</time>
      </trkpt>
      <trkpt lat="47.24386" lon="-1.44081">
        <ele>55</ele>
        <time>2021-02-06T14:24:55.000Z</time>
      </trkpt>
      <trkpt lat="47.24378" lon="-1.44097">
        <ele>54</ele>
        <time>2021-02-06T14:24:57.000Z</time>
      </trkpt>
      <trkpt lat="47.24366" lon="-1.44122">
        <ele>55</ele>
        <time>2021-02-06T14:25:00.000Z</time>
      </trkpt>
      <trkpt lat="47.24359" lon="-1.44136">
        <ele>55</ele>
        <time>2021-02-06T14:25:02.000Z</time>
      </trkpt>
      <trkpt lat="47.24352" lon="-1.44153">
        <ele>56</ele>
        <time>2021-02-06T14:25:04.000Z</time>
      </trkpt>
      <trkpt lat="47.24346" lon="-1.44171">
        <ele>56</ele>
        <time>2021-02-06T14:25:06.000Z</time>
      </trkpt>
      <trkpt lat="47.24339" lon="-1.44199">
        <ele>55</ele>
        <time>2021-02-06T14:25:09.000Z</time>
      </trkpt>
      <trkpt lat="47.24335" lon="-1.44228">
        <ele>55</ele>
        <time>2021-02-06T14:25:12.000Z</time>
      </trkpt>
      <trkpt lat="47.24332" lon="-1.44247">
        <ele>54</ele>
        <time>2021-02-06T14:25:14.000Z</time>
      </trkpt>
      <trkpt lat="47.2433" lon="-1.44266">
        <ele>54</ele>
        <time>2021-02-06T14:25:16.000Z</time>
      </trkpt>
      <trkpt lat="47.24329" lon="-1.44285">
        <ele>54</ele>
        <time>2021-02-06T14:25:18.000Z</time>
      </trkpt>
      <trkpt lat="47.24328" lon="-1.44305">
        <ele>54</ele>
        <time>2021-02-06T14:25:20.000Z</time>
      </trkpt>
      <trkpt lat="47.24327" lon="-1.44323">
        <ele>54</ele>
        <time>2021-02-06T14:25:22.000Z</time>
      </trkpt>
      <trkpt lat="47.24325" lon="-1.44341">
        <ele>54</ele>
        <time>2021-02-06T14:25:24.000Z</time>
      </trkpt>
      <trkpt lat="47.24323" lon="-1.44369">
        <ele>54</ele>
        <time>2021-02-06T14:25:27.000Z</time>
      </trkpt>
      <trkpt lat="47.24321" lon="-1.44396">
        <ele>54</ele>
        <time>2021-02-06T14:25:30.000Z</time>
      </trkpt>
      <trkpt lat="47.2432" lon="-1.44415">
        <ele>54</ele>
        <time>2021-02-06T14:25:32.000Z</time>
      </trkpt>
      <trkpt lat="47.24318" lon="-1.44434">
        <ele>54</ele>
        <time>2021-02-06T14:25:34.000Z</time>
      </trkpt>
      <trkpt lat="47.24315" lon="-1.44472">
        <ele>54</ele>
        <time>2021-02-06T14:25:38.000Z</time>
      </trkpt>
      <trkpt lat="47.24312" lon="-1.44492">
        <ele>53</ele>
        <time>2021-02-06T14:25:40.000Z</time>
      </trkpt>
      <trkpt lat="47.24311" lon="-1.44512">
        <ele>52</ele>
        <time>2021-02-06T14:25:42.000Z</time>
      </trkpt>
      <trkpt lat="47.2431" lon="-1.44529">
        <ele>53</ele>
        <time>2021-02-06T14:25:44.000Z</time>
      </trkpt>
      <trkpt lat="47.24308" lon="-1.44548">
        <ele>53</ele>
        <time>2021-02-06T14:25:46.000Z</time>
      </trkpt>
      <trkpt lat="47.24307" lon="-1.44566">
        <ele>54</ele>
        <time>2021-02-06T14:25:48.000Z</time>
      </trkpt>
      <trkpt lat="47.24305" lon="-1.44594">
        <ele>54</ele>
        <time>2021-02-06T14:25:51.000Z</time>
      </trkpt>
      <trkpt lat="47.24304" lon="-1.44612">
        <ele>54</ele>
        <time>2021-02-06T14:25:53.000Z</time>
      </trkpt>
      <trkpt lat="47.24303" lon="-1.4463">
        <ele>54</ele>
        <time>2021-02-06T14:25:55.000Z</time>
      </trkpt>
      <trkpt lat="47.243" lon="-1.44659">
        <ele>53</ele>
        <time>2021-02-06T14:25:58.000Z</time>
      </trkpt>
      <trkpt lat="47.24299" lon="-1.44678">
        <ele>52</ele>
        <time>2021-02-06T14:26:00.000Z</time>
      </trkpt>
      <trkpt lat="47.24297" lon="-1.44696">
        <ele>53</ele>
        <time>2021-02-06T14:26:02.000Z</time>
      </trkpt>
      <trkpt lat="47.24295" lon="-1.44724">
        <ele>53</ele>
        <time>2021-02-06T14:26:05.000Z</time>
      </trkpt>
      <trkpt lat="47.24294" lon="-1.44743">
        <ele>53</ele>
        <time>2021-02-06T14:26:07.000Z</time>
      </trkpt>
      <trkpt lat="47.24292" lon="-1.44762">
        <ele>51</ele>
        <time>2021-02-06T14:26:09.000Z</time>
      </trkpt>
      <trkpt lat="47.2429" lon="-1.4479">
        <ele>52</ele>
        <time>2021-02-06T14:26:12.000Z</time>
      </trkpt>
      <trkpt lat="47.24288" lon="-1.44817">
        <ele>52</ele>
        <time>2021-02-06T14:26:15.000Z</time>
      </trkpt>
      <trkpt lat="47.24286" lon="-1.44835">
        <ele>53</ele>
        <time>2021-02-06T14:26:17.000Z</time>
      </trkpt>
      <trkpt lat="47.24285" lon="-1.44853">
        <ele>53</ele>
        <time>2021-02-06T14:26:19.000Z</time>
      </trkpt>
      <trkpt lat="47.24285" lon="-1.44873">
        <ele>54</ele>
        <time>2021-02-06T14:26:21.000Z</time>
      </trkpt>
      <trkpt lat="47.24284" lon="-1.4489">
        <ele>54</ele>
        <time>2021-02-06T14:26:23.000Z</time>
      </trkpt>
      <trkpt lat="47.24282" lon="-1.44908">
        <ele>54</ele>
        <time>2021-02-06T14:26:25.000Z</time>
      </trkpt>
      <trkpt lat="47.2428" lon="-1.44927">
        <ele>54</ele>
        <time>2021-02-06T14:26:27.000Z</time>
      </trkpt>
      <trkpt lat="47.24278" lon="-1.44945">
        <ele>55</ele>
        <time>2021-02-06T14:26:29.000Z</time>
      </trkpt>
      <trkpt lat="47.24277" lon="-1.44964">
        <ele>54</ele>
        <time>2021-02-06T14:26:31.000Z</time>
      </trkpt>
      <trkpt lat="47.24275" lon="-1.44982">
        <ele>55</ele>
        <time>2021-02-06T14:26:33.000Z</time>
      </trkpt>
      <trkpt lat="47.24273" lon="-1.45002">
        <ele>55</ele>
        <time>2021-02-06T14:26:35.000Z</time>
      </trkpt>
      <trkpt lat="47.24271" lon="-1.45021">
        <ele>55</ele>
        <time>2021-02-06T14:26:37.000Z</time>
      </trkpt>
      <trkpt lat="47.24271" lon="-1.45038">
        <ele>55</ele>
        <time>2021-02-06T14:26:39.000Z</time>
      </trkpt>
      <trkpt lat="47.24267" lon="-1.45061">
        <ele>55</ele>
        <time>2021-02-06T14:26:41.000Z</time>
      </trkpt>
      <trkpt lat="47.24267" lon="-1.45077">
        <ele>54</ele>
        <time>2021-02-06T14:26:43.000Z</time>
      </trkpt>
      <trkpt lat="47.24265" lon="-1.45104">
        <ele>54</ele>
        <time>2021-02-06T14:26:46.000Z</time>
      </trkpt>
      <trkpt lat="47.24264" lon="-1.45132">
        <ele>54</ele>
        <time>2021-02-06T14:26:49.000Z</time>
      </trkpt>
      <trkpt lat="47.24262" lon="-1.4515">
        <ele>54</ele>
        <time>2021-02-06T14:26:51.000Z</time>
      </trkpt>
      <trkpt lat="47.2426" lon="-1.45168">
        <ele>55</ele>
        <time>2021-02-06T14:26:53.000Z</time>
      </trkpt>
      <trkpt lat="47.24258" lon="-1.45187">
        <ele>55</ele>
        <time>2021-02-06T14:26:55.000Z</time>
      </trkpt>
      <trkpt lat="47.24255" lon="-1.45205">
        <ele>55</ele>
        <time>2021-02-06T14:26:57.000Z</time>
      </trkpt>
      <trkpt lat="47.24252" lon="-1.45223">
        <ele>55</ele>
        <time>2021-02-06T14:26:59.000Z</time>
      </trkpt>
      <trkpt lat="47.24248" lon="-1.45241">
        <ele>55</ele>
        <time>2021-02-06T14:27:01.000Z</time>
      </trkpt>
      <trkpt lat="47.24243" lon="-1.45259">
        <ele>55</ele>
        <time>2021-02-06T14:27:03.000Z</time>
      </trkpt>
      <trkpt lat="47.24239" lon="-1.45276">
        <ele>56</ele>
        <time>2021-02-06T14:27:05.000Z</time>
      </trkpt>
      <trkpt lat="47.24233" lon="-1.45293">
        <ele>56</ele>
        <time>2021-02-06T14:27:07.000Z</time>
      </trkpt>
      <trkpt lat="47.24228" lon="-1.4531">
        <ele>55</ele>
        <time>2021-02-06T14:27:09.000Z</time>
      </trkpt>
      <trkpt lat="47.24222" lon="-1.45327">
        <ele>55</ele>
        <time>2021-02-06T14:27:11.000Z</time>
      </trkpt>
      <trkpt lat="47.24217" lon="-1.45344">
        <ele>55</ele>
        <time>2021-02-06T14:27:13.000Z</time>
      </trkpt>
      <trkpt lat="47.24211" lon="-1.45361">
        <ele>55</ele>
        <time>2021-02-06T14:27:15.000Z</time>
      </trkpt>
      <trkpt lat="47.24207" lon="-1.45378">
        <ele>55</ele>
        <time>2021-02-06T14:27:17.000Z</time>
      </trkpt>
      <trkpt lat="47.242" lon="-1.45396">
        <ele>55</ele>
        <time>2021-02-06T14:27:19.000Z</time>
      </trkpt>
      <trkpt lat="47.24191" lon="-1.45422">
        <ele>57</ele>
        <time>2021-02-06T14:27:22.000Z</time>
      </trkpt>
      <trkpt lat="47.24186" lon="-1.4544">
        <ele>56</ele>
        <time>2021-02-06T14:27:24.000Z</time>
      </trkpt>
      <trkpt lat="47.2418" lon="-1.45457">
        <ele>56</ele>
        <time>2021-02-06T14:27:26.000Z</time>
      </trkpt>
      <trkpt lat="47.24171" lon="-1.45483">
        <ele>57</ele>
        <time>2021-02-06T14:27:29.000Z</time>
      </trkpt>
      <trkpt lat="47.24163" lon="-1.45509">
        <ele>56</ele>
        <time>2021-02-06T14:27:32.000Z</time>
      </trkpt>
      <trkpt lat="47.24158" lon="-1.45525">
        <ele>55</ele>
        <time>2021-02-06T14:27:34.000Z</time>
      </trkpt>
      <trkpt lat="47.24153" lon="-1.45542">
        <ele>56</ele>
        <time>2021-02-06T14:27:36.000Z</time>
      </trkpt>
      <trkpt lat="47.24148" lon="-1.45559">
        <ele>57</ele>
        <time>2021-02-06T14:27:38.000Z</time>
      </trkpt>
      <trkpt lat="47.24142" lon="-1.45576">
        <ele>57</ele>
        <time>2021-02-06T14:27:40.000Z</time>
      </trkpt>
      <trkpt lat="47.24136" lon="-1.45593">
        <ele>57</ele>
        <time>2021-02-06T14:27:42.000Z</time>
      </trkpt>
      <trkpt lat="47.2413" lon="-1.4561">
        <ele>56</ele>
        <time>2021-02-06T14:27:44.000Z</time>
      </trkpt>
      <trkpt lat="47.24123" lon="-1.45627">
        <ele>56</ele>
        <time>2021-02-06T14:27:46.000Z</time>
      </trkpt>
      <trkpt lat="47.24116" lon="-1.45644">
        <ele>56</ele>
        <time>2021-02-06T14:27:48.000Z</time>
      </trkpt>
      <trkpt lat="47.24109" lon="-1.4566">
        <ele>56</ele>
        <time>2021-02-06T14:27:50.000Z</time>
      </trkpt>
      <trkpt lat="47.24099" lon="-1.45674">
        <ele>56</ele>
        <time>2021-02-06T14:27:52.000Z</time>
      </trkpt>
      <trkpt lat="47.24092" lon="-1.45689">
        <ele>57</ele>
        <time>2021-02-06T14:27:54.000Z</time>
      </trkpt>
      <trkpt lat="47.24084" lon="-1.45705">
        <ele>57</ele>
        <time>2021-02-06T14:27:56.000Z</time>
      </trkpt>
      <trkpt lat="47.24075" lon="-1.45719">
        <ele>57</ele>
        <time>2021-02-06T14:27:58.000Z</time>
      </trkpt>
      <trkpt lat="47.24066" lon="-1.45733">
        <ele>56</ele>
        <time>2021-02-06T14:28:00.000Z</time>
      </trkpt>
      <trkpt lat="47.24057" lon="-1.45747">
        <ele>56</ele>
        <time>2021-02-06T14:28:02.000Z</time>
      </trkpt>
      <trkpt lat="47.24048" lon="-1.45762">
        <ele>56</ele>
        <time>2021-02-06T14:28:04.000Z</time>
      </trkpt>
      <trkpt lat="47.24039" lon="-1.45776">
        <ele>55</ele>
        <time>2021-02-06T14:28:06.000Z</time>
      </trkpt>
      <trkpt lat="47.24032" lon="-1.45789">
        <ele>55</ele>
        <time>2021-02-06T14:28:08.000Z</time>
      </trkpt>
      <trkpt lat="47.24026" lon="-1.45802">
        <ele>55</ele>
        <time>2021-02-06T14:28:10.000Z</time>
      </trkpt>
      <trkpt lat="47.24016" lon="-1.45816">
        <ele>55</ele>
        <time>2021-02-06T14:28:12.000Z</time>
      </trkpt>
      <trkpt lat="47.24005" lon="-1.45831">
        <ele>56</ele>
        <time>2021-02-06T14:28:14.000Z</time>
      </trkpt>
      <trkpt lat="47.23997" lon="-1.45845">
        <ele>56</ele>
        <time>2021-02-06T14:28:16.000Z</time>
      </trkpt>
      <trkpt lat="47.23988" lon="-1.45859">
        <ele>55</ele>
        <time>2021-02-06T14:28:18.000Z</time>
      </trkpt>
      <trkpt lat="47.23976" lon="-1.45881">
        <ele>53</ele>
        <time>2021-02-06T14:28:21.000Z</time>
      </trkpt>
      <trkpt lat="47.23968" lon="-1.45895">
        <ele>51</ele>
        <time>2021-02-06T14:28:23.000Z</time>
      </trkpt>
      <trkpt lat="47.23957" lon="-1.45905">
        <ele>53</ele>
        <time>2021-02-06T14:28:25.000Z</time>
      </trkpt>
      <trkpt lat="47.23945" lon="-1.45913">
        <ele>54</ele>
        <time>2021-02-06T14:28:27.000Z</time>
      </trkpt>
      <trkpt lat="47.23926" lon="-1.45925">
        <ele>55</ele>
        <time>2021-02-06T14:28:30.000Z</time>
      </trkpt>
      <trkpt lat="47.23913" lon="-1.45929">
        <ele>55</ele>
        <time>2021-02-06T14:28:32.000Z</time>
      </trkpt>
      <trkpt lat="47.239" lon="-1.45932">
        <ele>55</ele>
        <time>2021-02-06T14:28:34.000Z</time>
      </trkpt>
      <trkpt lat="47.23887" lon="-1.45936">
        <ele>55</ele>
        <time>2021-02-06T14:28:36.000Z</time>
      </trkpt>
      <trkpt lat="47.23874" lon="-1.45939">
        <ele>54</ele>
        <time>2021-02-06T14:28:38.000Z</time>
      </trkpt>
      <trkpt lat="47.2386" lon="-1.45941">
        <ele>55</ele>
        <time>2021-02-06T14:28:40.000Z</time>
      </trkpt>
      <trkpt lat="47.23842" lon="-1.45946">
        <ele>56</ele>
        <time>2021-02-06T14:28:43.000Z</time>
      </trkpt>
      <trkpt lat="47.23829" lon="-1.4595">
        <ele>56</ele>
        <time>2021-02-06T14:28:45.000Z</time>
      </trkpt>
      <trkpt lat="47.2381" lon="-1.45955">
        <ele>56</ele>
        <time>2021-02-06T14:28:48.000Z</time>
      </trkpt>
      <trkpt lat="47.23797" lon="-1.45957">
        <ele>55</ele>
        <time>2021-02-06T14:28:50.000Z</time>
      </trkpt>
      <trkpt lat="47.23777" lon="-1.45962">
        <ele>55</ele>
        <time>2021-02-06T14:28:53.000Z</time>
      </trkpt>
      <trkpt lat="47.23763" lon="-1.45966">
        <ele>55</ele>
        <time>2021-02-06T14:28:55.000Z</time>
      </trkpt>
      <trkpt lat="47.2375" lon="-1.45969">
        <ele>55</ele>
        <time>2021-02-06T14:28:57.000Z</time>
      </trkpt>
      <trkpt lat="47.2373" lon="-1.45974">
        <ele>55</ele>
        <time>2021-02-06T14:29:00.000Z</time>
      </trkpt>
      <trkpt lat="47.23717" lon="-1.45977">
        <ele>55</ele>
        <time>2021-02-06T14:29:02.000Z</time>
      </trkpt>
      <trkpt lat="47.23704" lon="-1.4598">
        <ele>55</ele>
        <time>2021-02-06T14:29:04.000Z</time>
      </trkpt>
      <trkpt lat="47.23691" lon="-1.45983">
        <ele>55</ele>
        <time>2021-02-06T14:29:06.000Z</time>
      </trkpt>
      <trkpt lat="47.23672" lon="-1.45988">
        <ele>55</ele>
        <time>2021-02-06T14:29:09.000Z</time>
      </trkpt>
      <trkpt lat="47.23653" lon="-1.45993">
        <ele>54</ele>
        <time>2021-02-06T14:29:12.000Z</time>
      </trkpt>
      <trkpt lat="47.2364" lon="-1.45996">
        <ele>55</ele>
        <time>2021-02-06T14:29:14.000Z</time>
      </trkpt>
      <trkpt lat="47.23627" lon="-1.46001">
        <ele>54</ele>
        <time>2021-02-06T14:29:16.000Z</time>
      </trkpt>
      <trkpt lat="47.23614" lon="-1.46007">
        <ele>54</ele>
        <time>2021-02-06T14:29:18.000Z</time>
      </trkpt>
      <trkpt lat="47.23602" lon="-1.46014">
        <ele>54</ele>
        <time>2021-02-06T14:29:20.000Z</time>
      </trkpt>
      <trkpt lat="47.23585" lon="-1.46028">
        <ele>54</ele>
        <time>2021-02-06T14:29:23.000Z</time>
      </trkpt>
      <trkpt lat="47.23572" lon="-1.46039">
        <ele>52</ele>
        <time>2021-02-06T14:29:25.000Z</time>
      </trkpt>
      <trkpt lat="47.23555" lon="-1.46055">
        <ele>53</ele>
        <time>2021-02-06T14:29:28.000Z</time>
      </trkpt>
      <trkpt lat="47.23545" lon="-1.46066">
        <ele>55</ele>
        <time>2021-02-06T14:29:30.000Z</time>
      </trkpt>
      <trkpt lat="47.23534" lon="-1.46076">
        <ele>54</ele>
        <time>2021-02-06T14:29:32.000Z</time>
      </trkpt>
      <trkpt lat="47.23523" lon="-1.46087">
        <ele>55</ele>
        <time>2021-02-06T14:29:34.000Z</time>
      </trkpt>
      <trkpt lat="47.23512" lon="-1.46097">
        <ele>55</ele>
        <time>2021-02-06T14:29:36.000Z</time>
      </trkpt>
      <trkpt lat="47.23501" lon="-1.46107">
        <ele>54</ele>
        <time>2021-02-06T14:29:38.000Z</time>
      </trkpt>
      <trkpt lat="47.2349" lon="-1.46118">
        <ele>54</ele>
        <time>2021-02-06T14:29:40.000Z</time>
      </trkpt>
      <trkpt lat="47.23479" lon="-1.46129">
        <ele>54</ele>
        <time>2021-02-06T14:29:42.000Z</time>
      </trkpt>
      <trkpt lat="47.23463" lon="-1.46145">
        <ele>54</ele>
        <time>2021-02-06T14:29:45.000Z</time>
      </trkpt>
      <trkpt lat="47.23446" lon="-1.46161">
        <ele>54</ele>
        <time>2021-02-06T14:29:48.000Z</time>
      </trkpt>
      <trkpt lat="47.2343" lon="-1.46178">
        <ele>54</ele>
        <time>2021-02-06T14:29:51.000Z</time>
      </trkpt>
      <trkpt lat="47.23414" lon="-1.46196">
        <ele>54</ele>
        <time>2021-02-06T14:29:54.000Z</time>
      </trkpt>
      <trkpt lat="47.23403" lon="-1.46209">
        <ele>54</ele>
        <time>2021-02-06T14:29:56.000Z</time>
      </trkpt>
      <trkpt lat="47.23394" lon="-1.46221">
        <ele>54</ele>
        <time>2021-02-06T14:29:58.000Z</time>
      </trkpt>
      <trkpt lat="47.23383" lon="-1.46234">
        <ele>54</ele>
        <time>2021-02-06T14:30:00.000Z</time>
      </trkpt>
      <trkpt lat="47.23374" lon="-1.46245">
        <ele>54</ele>
        <time>2021-02-06T14:30:02.000Z</time>
      </trkpt>
      <trkpt lat="47.23364" lon="-1.46259">
        <ele>55</ele>
        <time>2021-02-06T14:30:04.000Z</time>
      </trkpt>
      <trkpt lat="47.23354" lon="-1.46271">
        <ele>55</ele>
        <time>2021-02-06T14:30:06.000Z</time>
      </trkpt>
      <trkpt lat="47.23344" lon="-1.46284">
        <ele>55</ele>
        <time>2021-02-06T14:30:08.000Z</time>
      </trkpt>
      <trkpt lat="47.23335" lon="-1.46296">
        <ele>55</ele>
        <time>2021-02-06T14:30:10.000Z</time>
      </trkpt>
      <trkpt lat="47.23325" lon="-1.46309">
        <ele>56</ele>
        <time>2021-02-06T14:30:12.000Z</time>
      </trkpt>
      <trkpt lat="47.2331" lon="-1.46327">
        <ele>55</ele>
        <time>2021-02-06T14:30:15.000Z</time>
      </trkpt>
      <trkpt lat="47.23301" lon="-1.46339">
        <ele>54</ele>
        <time>2021-02-06T14:30:17.000Z</time>
      </trkpt>
      <trkpt lat="47.23292" lon="-1.46352">
        <ele>55</ele>
        <time>2021-02-06T14:30:19.000Z</time>
      </trkpt>
      <trkpt lat="47.23278" lon="-1.46371">
        <ele>55</ele>
        <time>2021-02-06T14:30:22.000Z</time>
      </trkpt>
      <trkpt lat="47.23263" lon="-1.4639">
        <ele>54</ele>
        <time>2021-02-06T14:30:25.000Z</time>
      </trkpt>
      <trkpt lat="47.2325" lon="-1.464">
        <ele>53</ele>
        <time>2021-02-06T14:30:27.000Z</time>
      </trkpt>
      <trkpt lat="47.23242" lon="-1.46414">
        <ele>54</ele>
        <time>2021-02-06T14:30:29.000Z</time>
      </trkpt>
      <trkpt lat="47.23233" lon="-1.46428">
        <ele>55</ele>
        <time>2021-02-06T14:30:31.000Z</time>
      </trkpt>
      <trkpt lat="47.23218" lon="-1.46447">
        <ele>55</ele>
        <time>2021-02-06T14:30:34.000Z</time>
      </trkpt>
      <trkpt lat="47.23209" lon="-1.46459">
        <ele>54</ele>
        <time>2021-02-06T14:30:36.000Z</time>
      </trkpt>
      <trkpt lat="47.232" lon="-1.46471">
        <ele>54</ele>
        <time>2021-02-06T14:30:38.000Z</time>
      </trkpt>
      <trkpt lat="47.2319" lon="-1.46484">
        <ele>54</ele>
        <time>2021-02-06T14:30:40.000Z</time>
      </trkpt>
      <trkpt lat="47.23181" lon="-1.46497">
        <ele>55</ele>
        <time>2021-02-06T14:30:42.000Z</time>
      </trkpt>
      <trkpt lat="47.23171" lon="-1.46509">
        <ele>55</ele>
        <time>2021-02-06T14:30:44.000Z</time>
      </trkpt>
      <trkpt lat="47.23161" lon="-1.4652">
        <ele>55</ele>
        <time>2021-02-06T14:30:46.000Z</time>
      </trkpt>
      <trkpt lat="47.23151" lon="-1.46532">
        <ele>55</ele>
        <time>2021-02-06T14:30:48.000Z</time>
      </trkpt>
      <trkpt lat="47.23141" lon="-1.46544">
        <ele>55</ele>
        <time>2021-02-06T14:30:50.000Z</time>
      </trkpt>
      <trkpt lat="47.23124" lon="-1.46562">
        <ele>55</ele>
        <time>2021-02-06T14:30:53.000Z</time>
      </trkpt>
      <trkpt lat="47.23115" lon="-1.46572">
        <ele>56</ele>
        <time>2021-02-06T14:30:55.000Z</time>
      </trkpt>
      <trkpt lat="47.23107" lon="-1.46583">
        <ele>55</ele>
        <time>2021-02-06T14:30:57.000Z</time>
      </trkpt>
      <trkpt lat="47.23097" lon="-1.46593">
        <ele>55</ele>
        <time>2021-02-06T14:30:59.000Z</time>
      </trkpt>
      <trkpt lat="47.23081" lon="-1.46608">
        <ele>54</ele>
        <time>2021-02-06T14:31:02.000Z</time>
      </trkpt>
      <trkpt lat="47.23066" lon="-1.46621">
        <ele>55</ele>
        <time>2021-02-06T14:31:05.000Z</time>
      </trkpt>
      <trkpt lat="47.23056" lon="-1.46629">
        <ele>56</ele>
        <time>2021-02-06T14:31:07.000Z</time>
      </trkpt>
      <trkpt lat="47.23046" lon="-1.46638">
        <ele>55</ele>
        <time>2021-02-06T14:31:09.000Z</time>
      </trkpt>
      <trkpt lat="47.23036" lon="-1.46644">
        <ele>56</ele>
        <time>2021-02-06T14:31:11.000Z</time>
      </trkpt>
      <trkpt lat="47.23023" lon="-1.46655">
        <ele>58</ele>
        <time>2021-02-06T14:31:14.000Z</time>
      </trkpt>
      <trkpt lat="47.23015" lon="-1.46665">
        <ele>58</ele>
        <time>2021-02-06T14:31:16.000Z</time>
      </trkpt>
      <trkpt lat="47.23012" lon="-1.46679">
        <ele>57</ele>
        <time>2021-02-06T14:31:18.000Z</time>
      </trkpt>
      <trkpt lat="47.23014" lon="-1.46696">
        <ele>55</ele>
        <time>2021-02-06T14:31:20.000Z</time>
      </trkpt>
      <trkpt lat="47.23013" lon="-1.46711">
        <ele>55</ele>
        <time>2021-02-06T14:31:22.000Z</time>
      </trkpt>
      <trkpt lat="47.2301" lon="-1.46728">
        <ele>55</ele>
        <time>2021-02-06T14:31:24.000Z</time>
      </trkpt>
      <trkpt lat="47.23003" lon="-1.4674">
        <ele>56</ele>
        <time>2021-02-06T14:31:26.000Z</time>
      </trkpt>
      <trkpt lat="47.22986" lon="-1.46755">
        <ele>56</ele>
        <time>2021-02-06T14:31:29.000Z</time>
      </trkpt>
      <trkpt lat="47.22976" lon="-1.46769">
        <ele>56</ele>
        <time>2021-02-06T14:31:31.000Z</time>
      </trkpt>
      <trkpt lat="47.22968" lon="-1.46785">
        <ele>56</ele>
        <time>2021-02-06T14:31:33.000Z</time>
      </trkpt>
      <trkpt lat="47.22961" lon="-1.46804">
        <ele>55</ele>
        <time>2021-02-06T14:31:35.000Z</time>
      </trkpt>
      <trkpt lat="47.2295" lon="-1.46834">
        <ele>53</ele>
        <time>2021-02-06T14:31:38.000Z</time>
      </trkpt>
      <trkpt lat="47.22944" lon="-1.46858">
        <ele>52</ele>
        <time>2021-02-06T14:31:40.000Z</time>
      </trkpt>
      <trkpt lat="47.22938" lon="-1.46882">
        <ele>52</ele>
        <time>2021-02-06T14:31:42.000Z</time>
      </trkpt>
      <trkpt lat="47.22932" lon="-1.46904">
        <ele>51</ele>
        <time>2021-02-06T14:31:44.000Z</time>
      </trkpt>
      <trkpt lat="47.22923" lon="-1.46936">
        <ele>52</ele>
        <time>2021-02-06T14:31:47.000Z</time>
      </trkpt>
      <trkpt lat="47.22914" lon="-1.46966">
        <ele>50</ele>
        <time>2021-02-06T14:31:50.000Z</time>
      </trkpt>
      <trkpt lat="47.22907" lon="-1.46993">
        <ele>37</ele>
        <time>2021-02-06T14:31:53.000Z</time>
      </trkpt>
      <trkpt lat="47.22897" lon="-1.47003">
        <ele>43</ele>
        <time>2021-02-06T14:31:55.000Z</time>
      </trkpt>
      <trkpt lat="47.22883" lon="-1.47004">
        <ele>46</ele>
        <time>2021-02-06T14:31:57.000Z</time>
      </trkpt>
      <trkpt lat="47.2287" lon="-1.47">
        <ele>45</ele>
        <time>2021-02-06T14:31:59.000Z</time>
      </trkpt>
      <trkpt lat="47.22857" lon="-1.46992">
        <ele>46</ele>
        <time>2021-02-06T14:32:01.000Z</time>
      </trkpt>
      <trkpt lat="47.22846" lon="-1.46985">
        <ele>48</ele>
        <time>2021-02-06T14:32:03.000Z</time>
      </trkpt>
      <trkpt lat="47.22827" lon="-1.46976">
        <ele>49</ele>
        <time>2021-02-06T14:32:06.000Z</time>
      </trkpt>
      <trkpt lat="47.22815" lon="-1.46968">
        <ele>47</ele>
        <time>2021-02-06T14:32:08.000Z</time>
      </trkpt>
      <trkpt lat="47.22801" lon="-1.46963">
        <ele>50</ele>
        <time>2021-02-06T14:32:10.000Z</time>
      </trkpt>
      <trkpt lat="47.22786" lon="-1.46959">
        <ele>50</ele>
        <time>2021-02-06T14:32:12.000Z</time>
      </trkpt>
      <trkpt lat="47.22773" lon="-1.4696">
        <ele>49</ele>
        <time>2021-02-06T14:32:14.000Z</time>
      </trkpt>
      <trkpt lat="47.22752" lon="-1.46959">
        <ele>50</ele>
        <time>2021-02-06T14:32:17.000Z</time>
      </trkpt>
      <trkpt lat="47.22738" lon="-1.4696">
        <ele>52</ele>
        <time>2021-02-06T14:32:19.000Z</time>
      </trkpt>
      <trkpt lat="47.22723" lon="-1.46964">
        <ele>52</ele>
        <time>2021-02-06T14:32:21.000Z</time>
      </trkpt>
      <trkpt lat="47.22709" lon="-1.4697">
        <ele>50</ele>
        <time>2021-02-06T14:32:23.000Z</time>
      </trkpt>
      <trkpt lat="47.22696" lon="-1.46975">
        <ele>50</ele>
        <time>2021-02-06T14:32:25.000Z</time>
      </trkpt>
      <trkpt lat="47.22683" lon="-1.46981">
        <ele>52</ele>
        <time>2021-02-06T14:32:27.000Z</time>
      </trkpt>
      <trkpt lat="47.22675" lon="-1.46988">
        <ele>50</ele>
        <time>2021-02-06T14:32:28.000Z</time>
      </trkpt>
      <trkpt lat="47.22662" lon="-1.47">
        <ele>49</ele>
        <time>2021-02-06T14:32:30.000Z</time>
      </trkpt>
      <trkpt lat="47.22652" lon="-1.47009">
        <ele>49</ele>
        <time>2021-02-06T14:32:32.000Z</time>
      </trkpt>
      <trkpt lat="47.22637" lon="-1.47028">
        <ele>51</ele>
        <time>2021-02-06T14:32:35.000Z</time>
      </trkpt>
      <trkpt lat="47.22628" lon="-1.47046">
        <ele>50</ele>
        <time>2021-02-06T14:32:37.000Z</time>
      </trkpt>
      <trkpt lat="47.22616" lon="-1.47063">
        <ele>50</ele>
        <time>2021-02-06T14:32:39.000Z</time>
      </trkpt>
      <trkpt lat="47.22608" lon="-1.47078">
        <ele>51</ele>
        <time>2021-02-06T14:32:41.000Z</time>
      </trkpt>
      <trkpt lat="47.22601" lon="-1.47093">
        <ele>52</ele>
        <time>2021-02-06T14:32:43.000Z</time>
      </trkpt>
      <trkpt lat="47.22584" lon="-1.47111">
        <ele>52</ele>
        <time>2021-02-06T14:32:46.000Z</time>
      </trkpt>
      <trkpt lat="47.22572" lon="-1.47118">
        <ele>53</ele>
        <time>2021-02-06T14:32:48.000Z</time>
      </trkpt>
      <trkpt lat="47.22559" lon="-1.47123">
        <ele>53</ele>
        <time>2021-02-06T14:32:50.000Z</time>
      </trkpt>
      <trkpt lat="47.22546" lon="-1.47126">
        <ele>53</ele>
        <time>2021-02-06T14:32:52.000Z</time>
      </trkpt>
      <trkpt lat="47.22534" lon="-1.4713">
        <ele>52</ele>
        <time>2021-02-06T14:32:54.000Z</time>
      </trkpt>
      <trkpt lat="47.2252" lon="-1.47133">
        <ele>54</ele>
        <time>2021-02-06T14:32:56.000Z</time>
      </trkpt>
      <trkpt lat="47.22507" lon="-1.47136">
        <ele>55</ele>
        <time>2021-02-06T14:32:58.000Z</time>
      </trkpt>
      <trkpt lat="47.22487" lon="-1.47144">
        <ele>53</ele>
        <time>2021-02-06T14:33:01.000Z</time>
      </trkpt>
      <trkpt lat="47.22467" lon="-1.47155">
        <ele>52</ele>
        <time>2021-02-06T14:33:04.000Z</time>
      </trkpt>
      <trkpt lat="47.22448" lon="-1.47173">
        <ele>54</ele>
        <time>2021-02-06T14:33:08.000Z</time>
      </trkpt>
      <trkpt lat="47.22436" lon="-1.47186">
        <ele>51</ele>
        <time>2021-02-06T14:33:10.000Z</time>
      </trkpt>
      <trkpt lat="47.2242" lon="-1.472">
        <ele>52</ele>
        <time>2021-02-06T14:33:13.000Z</time>
      </trkpt>
      <trkpt lat="47.22403" lon="-1.47217">
        <ele>51</ele>
        <time>2021-02-06T14:33:16.000Z</time>
      </trkpt>
      <trkpt lat="47.22386" lon="-1.47238">
        <ele>50</ele>
        <time>2021-02-06T14:33:19.000Z</time>
      </trkpt>
      <trkpt lat="47.22369" lon="-1.47254">
        <ele>52</ele>
        <time>2021-02-06T14:33:22.000Z</time>
      </trkpt>
      <trkpt lat="47.22356" lon="-1.47266">
        <ele>52</ele>
        <time>2021-02-06T14:33:24.000Z</time>
      </trkpt>
      <trkpt lat="47.22344" lon="-1.47276">
        <ele>53</ele>
        <time>2021-02-06T14:33:26.000Z</time>
      </trkpt>
      <trkpt lat="47.22331" lon="-1.47286">
        <ele>53</ele>
        <time>2021-02-06T14:33:28.000Z</time>
      </trkpt>
      <trkpt lat="47.22319" lon="-1.47296">
        <ele>53</ele>
        <time>2021-02-06T14:33:30.000Z</time>
      </trkpt>
      <trkpt lat="47.22307" lon="-1.47306">
        <ele>53</ele>
        <time>2021-02-06T14:33:32.000Z</time>
      </trkpt>
      <trkpt lat="47.22296" lon="-1.47315">
        <ele>54</ele>
        <time>2021-02-06T14:33:34.000Z</time>
      </trkpt>
      <trkpt lat="47.22285" lon="-1.47326">
        <ele>53</ele>
        <time>2021-02-06T14:33:36.000Z</time>
      </trkpt>
      <trkpt lat="47.22267" lon="-1.4734">
        <ele>53</ele>
        <time>2021-02-06T14:33:39.000Z</time>
      </trkpt>
      <trkpt lat="47.22254" lon="-1.4735">
        <ele>52</ele>
        <time>2021-02-06T14:33:41.000Z</time>
      </trkpt>
      <trkpt lat="47.2224" lon="-1.47358">
        <ele>51</ele>
        <time>2021-02-06T14:33:43.000Z</time>
      </trkpt>
      <trkpt lat="47.22228" lon="-1.47362">
        <ele>52</ele>
        <time>2021-02-06T14:33:45.000Z</time>
      </trkpt>
      <trkpt lat="47.22218" lon="-1.47371">
        <ele>52</ele>
        <time>2021-02-06T14:33:47.000Z</time>
      </trkpt>
      <trkpt lat="47.22207" lon="-1.47381">
        <ele>52</ele>
        <time>2021-02-06T14:33:49.000Z</time>
      </trkpt>
      <trkpt lat="47.22196" lon="-1.47392">
        <ele>52</ele>
        <time>2021-02-06T14:33:51.000Z</time>
      </trkpt>
      <trkpt lat="47.22184" lon="-1.474">
        <ele>52</ele>
        <time>2021-02-06T14:33:53.000Z</time>
      </trkpt>
      <trkpt lat="47.22168" lon="-1.47415">
        <ele>52</ele>
        <time>2021-02-06T14:33:56.000Z</time>
      </trkpt>
      <trkpt lat="47.22157" lon="-1.47424">
        <ele>52</ele>
        <time>2021-02-06T14:33:58.000Z</time>
      </trkpt>
      <trkpt lat="47.22145" lon="-1.47433">
        <ele>52</ele>
        <time>2021-02-06T14:34:00.000Z</time>
      </trkpt>
      <trkpt lat="47.22133" lon="-1.47441">
        <ele>51</ele>
        <time>2021-02-06T14:34:02.000Z</time>
      </trkpt>
      <trkpt lat="47.22122" lon="-1.47451">
        <ele>51</ele>
        <time>2021-02-06T14:34:04.000Z</time>
      </trkpt>
      <trkpt lat="47.2211" lon="-1.47462">
        <ele>51</ele>
        <time>2021-02-06T14:34:06.000Z</time>
      </trkpt>
      <trkpt lat="47.22099" lon="-1.47471">
        <ele>50</ele>
        <time>2021-02-06T14:34:08.000Z</time>
      </trkpt>
      <trkpt lat="47.22086" lon="-1.4748">
        <ele>52</ele>
        <time>2021-02-06T14:34:10.000Z</time>
      </trkpt>
      <trkpt lat="47.22075" lon="-1.47491">
        <ele>52</ele>
        <time>2021-02-06T14:34:12.000Z</time>
      </trkpt>
      <trkpt lat="47.22064" lon="-1.47502">
        <ele>52</ele>
        <time>2021-02-06T14:34:14.000Z</time>
      </trkpt>
      <trkpt lat="47.22052" lon="-1.47512">
        <ele>49</ele>
        <time>2021-02-06T14:34:16.000Z</time>
      </trkpt>
      <trkpt lat="47.2204" lon="-1.47523">
        <ele>49</ele>
        <time>2021-02-06T14:34:18.000Z</time>
      </trkpt>
      <trkpt lat="47.22025" lon="-1.4754">
        <ele>51</ele>
        <time>2021-02-06T14:34:21.000Z</time>
      </trkpt>
      <trkpt lat="47.22011" lon="-1.47553">
        <ele>49</ele>
        <time>2021-02-06T14:34:23.000Z</time>
      </trkpt>
      <trkpt lat="47.21994" lon="-1.47567">
        <ele>49</ele>
        <time>2021-02-06T14:34:26.000Z</time>
      </trkpt>
      <trkpt lat="47.21983" lon="-1.47577">
        <ele>50</ele>
        <time>2021-02-06T14:34:28.000Z</time>
      </trkpt>
      <trkpt lat="47.21972" lon="-1.47587">
        <ele>50</ele>
        <time>2021-02-06T14:34:30.000Z</time>
      </trkpt>
      <trkpt lat="47.21962" lon="-1.47598">
        <ele>50</ele>
        <time>2021-02-06T14:34:32.000Z</time>
      </trkpt>
      <trkpt lat="47.21945" lon="-1.47614">
        <ele>50</ele>
        <time>2021-02-06T14:34:35.000Z</time>
      </trkpt>
      <trkpt lat="47.21933" lon="-1.47624">
        <ele>48</ele>
        <time>2021-02-06T14:34:37.000Z</time>
      </trkpt>
      <trkpt lat="47.21922" lon="-1.47634">
        <ele>48</ele>
        <time>2021-02-06T14:34:39.000Z</time>
      </trkpt>
      <trkpt lat="47.21911" lon="-1.47644">
        <ele>50</ele>
        <time>2021-02-06T14:34:41.000Z</time>
      </trkpt>
      <trkpt lat="47.21894" lon="-1.47658">
        <ele>51</ele>
        <time>2021-02-06T14:34:44.000Z</time>
      </trkpt>
      <trkpt lat="47.21881" lon="-1.47671">
        <ele>49</ele>
        <time>2021-02-06T14:34:46.000Z</time>
      </trkpt>
      <trkpt lat="47.21871" lon="-1.47679">
        <ele>50</ele>
        <time>2021-02-06T14:34:48.000Z</time>
      </trkpt>
      <trkpt lat="47.2186" lon="-1.47688">
        <ele>50</ele>
        <time>2021-02-06T14:34:50.000Z</time>
      </trkpt>
      <trkpt lat="47.2185" lon="-1.47698">
        <ele>51</ele>
        <time>2021-02-06T14:34:52.000Z</time>
      </trkpt>
      <trkpt lat="47.21839" lon="-1.47708">
        <ele>49</ele>
        <time>2021-02-06T14:34:54.000Z</time>
      </trkpt>
      <trkpt lat="47.21826" lon="-1.47721">
        <ele>49</ele>
        <time>2021-02-06T14:34:57.000Z</time>
      </trkpt>
      <trkpt lat="47.21816" lon="-1.47727">
        <ele>45</ele>
        <time>2021-02-06T14:34:59.000Z</time>
      </trkpt>
      <trkpt lat="47.21803" lon="-1.47733">
        <ele>45</ele>
        <time>2021-02-06T14:35:01.000Z</time>
      </trkpt>
      <trkpt lat="47.21792" lon="-1.47743">
        <ele>45</ele>
        <time>2021-02-06T14:35:03.000Z</time>
      </trkpt>
      <trkpt lat="47.21777" lon="-1.47755">
        <ele>48</ele>
        <time>2021-02-06T14:35:05.000Z</time>
      </trkpt>
      <trkpt lat="47.21763" lon="-1.47767">
        <ele>51</ele>
        <time>2021-02-06T14:35:07.000Z</time>
      </trkpt>
      <trkpt lat="47.21752" lon="-1.47778">
        <ele>52</ele>
        <time>2021-02-06T14:35:09.000Z</time>
      </trkpt>
      <trkpt lat="47.21741" lon="-1.4779">
        <ele>49</ele>
        <time>2021-02-06T14:35:11.000Z</time>
      </trkpt>
      <trkpt lat="47.21729" lon="-1.478">
        <ele>50</ele>
        <time>2021-02-06T14:35:13.000Z</time>
      </trkpt>
      <trkpt lat="47.21719" lon="-1.4781">
        <ele>51</ele>
        <time>2021-02-06T14:35:15.000Z</time>
      </trkpt>
      <trkpt lat="47.21707" lon="-1.4782">
        <ele>52</ele>
        <time>2021-02-06T14:35:17.000Z</time>
      </trkpt>
      <trkpt lat="47.21696" lon="-1.4783">
        <ele>52</ele>
        <time>2021-02-06T14:35:19.000Z</time>
      </trkpt>
      <trkpt lat="47.21679" lon="-1.47846">
        <ele>52</ele>
        <time>2021-02-06T14:35:22.000Z</time>
      </trkpt>
      <trkpt lat="47.21668" lon="-1.47857">
        <ele>52</ele>
        <time>2021-02-06T14:35:24.000Z</time>
      </trkpt>
      <trkpt lat="47.21655" lon="-1.47868">
        <ele>52</ele>
        <time>2021-02-06T14:35:26.000Z</time>
      </trkpt>
      <trkpt lat="47.21645" lon="-1.47878">
        <ele>54</ele>
        <time>2021-02-06T14:35:28.000Z</time>
      </trkpt>
      <trkpt lat="47.21634" lon="-1.47888">
        <ele>54</ele>
        <time>2021-02-06T14:35:30.000Z</time>
      </trkpt>
      <trkpt lat="47.21623" lon="-1.47897">
        <ele>54</ele>
        <time>2021-02-06T14:35:32.000Z</time>
      </trkpt>
      <trkpt lat="47.21613" lon="-1.4791">
        <ele>51</ele>
        <time>2021-02-06T14:35:34.000Z</time>
      </trkpt>
      <trkpt lat="47.21601" lon="-1.47918">
        <ele>51</ele>
        <time>2021-02-06T14:35:36.000Z</time>
      </trkpt>
      <trkpt lat="47.21592" lon="-1.47928">
        <ele>52</ele>
        <time>2021-02-06T14:35:38.000Z</time>
      </trkpt>
      <trkpt lat="47.2158" lon="-1.47939">
        <ele>51</ele>
        <time>2021-02-06T14:35:40.000Z</time>
      </trkpt>
      <trkpt lat="47.2157" lon="-1.47951">
        <ele>50</ele>
        <time>2021-02-06T14:35:42.000Z</time>
      </trkpt>
      <trkpt lat="47.21558" lon="-1.4796">
        <ele>51</ele>
        <time>2021-02-06T14:35:44.000Z</time>
      </trkpt>
      <trkpt lat="47.21548" lon="-1.47969">
        <ele>52</ele>
        <time>2021-02-06T14:35:46.000Z</time>
      </trkpt>
      <trkpt lat="47.21538" lon="-1.47981">
        <ele>52</ele>
        <time>2021-02-06T14:35:48.000Z</time>
      </trkpt>
      <trkpt lat="47.2153" lon="-1.47994">
        <ele>52</ele>
        <time>2021-02-06T14:35:50.000Z</time>
      </trkpt>
      <trkpt lat="47.21519" lon="-1.48007">
        <ele>50</ele>
        <time>2021-02-06T14:35:52.000Z</time>
      </trkpt>
      <trkpt lat="47.21505" lon="-1.4802">
        <ele>50</ele>
        <time>2021-02-06T14:35:54.000Z</time>
      </trkpt>
      <trkpt lat="47.21491" lon="-1.48033">
        <ele>51</ele>
        <time>2021-02-06T14:35:56.000Z</time>
      </trkpt>
      <trkpt lat="47.2148" lon="-1.48046">
        <ele>51</ele>
        <time>2021-02-06T14:35:58.000Z</time>
      </trkpt>
      <trkpt lat="47.21469" lon="-1.48061">
        <ele>50</ele>
        <time>2021-02-06T14:36:00.000Z</time>
      </trkpt>
      <trkpt lat="47.21458" lon="-1.48075">
        <ele>50</ele>
        <time>2021-02-06T14:36:02.000Z</time>
      </trkpt>
      <trkpt lat="47.21449" lon="-1.4809">
        <ele>50</ele>
        <time>2021-02-06T14:36:04.000Z</time>
      </trkpt>
      <trkpt lat="47.21441" lon="-1.48103">
        <ele>51</ele>
        <time>2021-02-06T14:36:06.000Z</time>
      </trkpt>
      <trkpt lat="47.21431" lon="-1.48126">
        <ele>49</ele>
        <time>2021-02-06T14:36:09.000Z</time>
      </trkpt>
      <trkpt lat="47.21422" lon="-1.48142">
        <ele>49</ele>
        <time>2021-02-06T14:36:11.000Z</time>
      </trkpt>
      <trkpt lat="47.21414" lon="-1.48157">
        <ele>50</ele>
        <time>2021-02-06T14:36:13.000Z</time>
      </trkpt>
      <trkpt lat="47.21405" lon="-1.48172">
        <ele>50</ele>
        <time>2021-02-06T14:36:15.000Z</time>
      </trkpt>
      <trkpt lat="47.21399" lon="-1.48187">
        <ele>48</ele>
        <time>2021-02-06T14:36:17.000Z</time>
      </trkpt>
      <trkpt lat="47.21393" lon="-1.48203">
        <ele>50</ele>
        <time>2021-02-06T14:36:19.000Z</time>
      </trkpt>
      <trkpt lat="47.21384" lon="-1.48219">
        <ele>51</ele>
        <time>2021-02-06T14:36:21.000Z</time>
      </trkpt>
      <trkpt lat="47.21376" lon="-1.48236">
        <ele>49</ele>
        <time>2021-02-06T14:36:23.000Z</time>
      </trkpt>
      <trkpt lat="47.21369" lon="-1.48253">
        <ele>49</ele>
        <time>2021-02-06T14:36:25.000Z</time>
      </trkpt>
      <trkpt lat="47.21363" lon="-1.48271">
        <ele>49</ele>
        <time>2021-02-06T14:36:27.000Z</time>
      </trkpt>
      <trkpt lat="47.21357" lon="-1.48289">
        <ele>50</ele>
        <time>2021-02-06T14:36:29.000Z</time>
      </trkpt>
      <trkpt lat="47.21351" lon="-1.48306">
        <ele>50</ele>
        <time>2021-02-06T14:36:31.000Z</time>
      </trkpt>
      <trkpt lat="47.21345" lon="-1.48323">
        <ele>50</ele>
        <time>2021-02-06T14:36:33.000Z</time>
      </trkpt>
      <trkpt lat="47.2134" lon="-1.4834">
        <ele>51</ele>
        <time>2021-02-06T14:36:35.000Z</time>
      </trkpt>
      <trkpt lat="47.21334" lon="-1.48357">
        <ele>50</ele>
        <time>2021-02-06T14:36:37.000Z</time>
      </trkpt>
      <trkpt lat="47.2133" lon="-1.48374">
        <ele>50</ele>
        <time>2021-02-06T14:36:39.000Z</time>
      </trkpt>
      <trkpt lat="47.21324" lon="-1.48392">
        <ele>51</ele>
        <time>2021-02-06T14:36:41.000Z</time>
      </trkpt>
      <trkpt lat="47.21319" lon="-1.48409">
        <ele>51</ele>
        <time>2021-02-06T14:36:43.000Z</time>
      </trkpt>
      <trkpt lat="47.21313" lon="-1.48427">
        <ele>51</ele>
        <time>2021-02-06T14:36:45.000Z</time>
      </trkpt>
      <trkpt lat="47.21307" lon="-1.48445">
        <ele>51</ele>
        <time>2021-02-06T14:36:47.000Z</time>
      </trkpt>
      <trkpt lat="47.21304" lon="-1.48463">
        <ele>47</ele>
        <time>2021-02-06T14:36:49.000Z</time>
      </trkpt>
      <trkpt lat="47.213" lon="-1.48489">
        <ele>49</ele>
        <time>2021-02-06T14:36:52.000Z</time>
      </trkpt>
      <trkpt lat="47.21292" lon="-1.48512">
        <ele>50</ele>
        <time>2021-02-06T14:36:55.000Z</time>
      </trkpt>
      <trkpt lat="47.21282" lon="-1.48521">
        <ele>50</ele>
        <time>2021-02-06T14:36:57.000Z</time>
      </trkpt>
      <trkpt lat="47.21274" lon="-1.48525">
        <ele>50</ele>
        <time>2021-02-06T14:36:59.000Z</time>
      </trkpt>
      <trkpt lat="47.21266" lon="-1.48545">
        <ele>52</ele>
        <time>2021-02-06T14:37:02.000Z</time>
      </trkpt>
      <trkpt lat="47.21262" lon="-1.48561">
        <ele>52</ele>
        <time>2021-02-06T14:37:04.000Z</time>
      </trkpt>
      <trkpt lat="47.21256" lon="-1.48581">
        <ele>53</ele>
        <time>2021-02-06T14:37:06.000Z</time>
      </trkpt>
      <trkpt lat="47.21251" lon="-1.48599">
        <ele>53</ele>
        <time>2021-02-06T14:37:08.000Z</time>
      </trkpt>
      <trkpt lat="47.21246" lon="-1.48616">
        <ele>53</ele>
        <time>2021-02-06T14:37:10.000Z</time>
      </trkpt>
      <trkpt lat="47.21241" lon="-1.48633">
        <ele>53</ele>
        <time>2021-02-06T14:37:12.000Z</time>
      </trkpt>
      <trkpt lat="47.21232" lon="-1.48659">
        <ele>54</ele>
        <time>2021-02-06T14:37:15.000Z</time>
      </trkpt>
      <trkpt lat="47.21227" lon="-1.48676">
        <ele>54</ele>
        <time>2021-02-06T14:37:17.000Z</time>
      </trkpt>
      <trkpt lat="47.21222" lon="-1.48694">
        <ele>55</ele>
        <time>2021-02-06T14:37:19.000Z</time>
      </trkpt>
      <trkpt lat="47.21218" lon="-1.48712">
        <ele>55</ele>
        <time>2021-02-06T14:37:21.000Z</time>
      </trkpt>
      <trkpt lat="47.21214" lon="-1.48729">
        <ele>52</ele>
        <time>2021-02-06T14:37:23.000Z</time>
      </trkpt>
      <trkpt lat="47.2121" lon="-1.48747">
        <ele>53</ele>
        <time>2021-02-06T14:37:25.000Z</time>
      </trkpt>
      <trkpt lat="47.21206" lon="-1.48766">
        <ele>52</ele>
        <time>2021-02-06T14:37:27.000Z</time>
      </trkpt>
      <trkpt lat="47.21204" lon="-1.48791">
        <ele>52</ele>
        <time>2021-02-06T14:37:30.000Z</time>
      </trkpt>
      <trkpt lat="47.21202" lon="-1.48806">
        <ele>51</ele>
        <time>2021-02-06T14:37:32.000Z</time>
      </trkpt>
      <trkpt lat="47.212" lon="-1.48823">
        <ele>50</ele>
        <time>2021-02-06T14:37:34.000Z</time>
      </trkpt>
      <trkpt lat="47.21194" lon="-1.48842">
        <ele>51</ele>
        <time>2021-02-06T14:37:36.000Z</time>
      </trkpt>
      <trkpt lat="47.21192" lon="-1.48861">
        <ele>51</ele>
        <time>2021-02-06T14:37:38.000Z</time>
      </trkpt>
      <trkpt lat="47.21192" lon="-1.48879">
        <ele>51</ele>
        <time>2021-02-06T14:37:40.000Z</time>
      </trkpt>
      <trkpt lat="47.21187" lon="-1.48897">
        <ele>51</ele>
        <time>2021-02-06T14:37:42.000Z</time>
      </trkpt>
      <trkpt lat="47.21179" lon="-1.48921">
        <ele>49</ele>
        <time>2021-02-06T14:37:45.000Z</time>
      </trkpt>
      <trkpt lat="47.21176" lon="-1.48938">
        <ele>51</ele>
        <time>2021-02-06T14:37:47.000Z</time>
      </trkpt>
      <trkpt lat="47.21172" lon="-1.48955">
        <ele>52</ele>
        <time>2021-02-06T14:37:49.000Z</time>
      </trkpt>
      <trkpt lat="47.21168" lon="-1.48971">
        <ele>51</ele>
        <time>2021-02-06T14:37:51.000Z</time>
      </trkpt>
      <trkpt lat="47.21164" lon="-1.48988">
        <ele>52</ele>
        <time>2021-02-06T14:37:53.000Z</time>
      </trkpt>
      <trkpt lat="47.21163" lon="-1.49007">
        <ele>52</ele>
        <time>2021-02-06T14:37:55.000Z</time>
      </trkpt>
      <trkpt lat="47.21161" lon="-1.49024">
        <ele>53</ele>
        <time>2021-02-06T14:37:57.000Z</time>
      </trkpt>
      <trkpt lat="47.21157" lon="-1.4905">
        <ele>50</ele>
        <time>2021-02-06T14:38:00.000Z</time>
      </trkpt>
      <trkpt lat="47.2116" lon="-1.49066">
        <ele>51</ele>
        <time>2021-02-06T14:38:02.000Z</time>
      </trkpt>
      <trkpt lat="47.21163" lon="-1.49081">
        <ele>51</ele>
        <time>2021-02-06T14:38:04.000Z</time>
      </trkpt>
      <trkpt lat="47.21159" lon="-1.49099">
        <ele>49</ele>
        <time>2021-02-06T14:38:06.000Z</time>
      </trkpt>
      <trkpt lat="47.21155" lon="-1.49114">
        <ele>48</ele>
        <time>2021-02-06T14:38:08.000Z</time>
      </trkpt>
      <trkpt lat="47.21152" lon="-1.49138">
        <ele>49</ele>
        <time>2021-02-06T14:38:11.000Z</time>
      </trkpt>
      <trkpt lat="47.21148" lon="-1.49164">
        <ele>50</ele>
        <time>2021-02-06T14:38:14.000Z</time>
      </trkpt>
      <trkpt lat="47.21144" lon="-1.4919">
        <ele>49</ele>
        <time>2021-02-06T14:38:17.000Z</time>
      </trkpt>
      <trkpt lat="47.21143" lon="-1.49209">
        <ele>50</ele>
        <time>2021-02-06T14:38:19.000Z</time>
      </trkpt>
      <trkpt lat="47.21142" lon="-1.49229">
        <ele>50</ele>
        <time>2021-02-06T14:38:21.000Z</time>
      </trkpt>
      <trkpt lat="47.21141" lon="-1.49247">
        <ele>48</ele>
        <time>2021-02-06T14:38:23.000Z</time>
      </trkpt>
      <trkpt lat="47.2114" lon="-1.49266">
        <ele>50</ele>
        <time>2021-02-06T14:38:25.000Z</time>
      </trkpt>
      <trkpt lat="47.21139" lon="-1.49283">
        <ele>50</ele>
        <time>2021-02-06T14:38:27.000Z</time>
      </trkpt>
      <trkpt lat="47.21135" lon="-1.49309">
        <ele>51</ele>
        <time>2021-02-06T14:38:30.000Z</time>
      </trkpt>
      <trkpt lat="47.21136" lon="-1.49329">
        <ele>52</ele>
        <time>2021-02-06T14:38:32.000Z</time>
      </trkpt>
      <trkpt lat="47.21134" lon="-1.49347">
        <ele>51</ele>
        <time>2021-02-06T14:38:34.000Z</time>
      </trkpt>
      <trkpt lat="47.21133" lon="-1.49365">
        <ele>52</ele>
        <time>2021-02-06T14:38:36.000Z</time>
      </trkpt>
      <trkpt lat="47.21134" lon="-1.49382">
        <ele>51</ele>
        <time>2021-02-06T14:38:38.000Z</time>
      </trkpt>
      <trkpt lat="47.21133" lon="-1.494">
        <ele>50</ele>
        <time>2021-02-06T14:38:40.000Z</time>
      </trkpt>
      <trkpt lat="47.21132" lon="-1.49419">
        <ele>50</ele>
        <time>2021-02-06T14:38:42.000Z</time>
      </trkpt>
      <trkpt lat="47.21131" lon="-1.49447">
        <ele>51</ele>
        <time>2021-02-06T14:38:45.000Z</time>
      </trkpt>
      <trkpt lat="47.21128" lon="-1.49473">
        <ele>49</ele>
        <time>2021-02-06T14:38:48.000Z</time>
      </trkpt>
      <trkpt lat="47.21128" lon="-1.4949">
        <ele>49</ele>
        <time>2021-02-06T14:38:50.000Z</time>
      </trkpt>
      <trkpt lat="47.21129" lon="-1.49518">
        <ele>50</ele>
        <time>2021-02-06T14:38:53.000Z</time>
      </trkpt>
      <trkpt lat="47.21129" lon="-1.49537">
        <ele>47</ele>
        <time>2021-02-06T14:38:55.000Z</time>
      </trkpt>
      <trkpt lat="47.21132" lon="-1.49554">
        <ele>46</ele>
        <time>2021-02-06T14:38:57.000Z</time>
      </trkpt>
      <trkpt lat="47.21135" lon="-1.49572">
        <ele>46</ele>
        <time>2021-02-06T14:38:59.000Z</time>
      </trkpt>
      <trkpt lat="47.21135" lon="-1.4959">
        <ele>47</ele>
        <time>2021-02-06T14:39:01.000Z</time>
      </trkpt>
      <trkpt lat="47.21127" lon="-1.49603">
        <ele>48</ele>
        <time>2021-02-06T14:39:03.000Z</time>
      </trkpt>
      <trkpt lat="47.21123" lon="-1.49619">
        <ele>50</ele>
        <time>2021-02-06T14:39:05.000Z</time>
      </trkpt>
      <trkpt lat="47.21121" lon="-1.49647">
        <ele>51</ele>
        <time>2021-02-06T14:39:08.000Z</time>
      </trkpt>
      <trkpt lat="47.2112" lon="-1.49664">
        <ele>51</ele>
        <time>2021-02-06T14:39:10.000Z</time>
      </trkpt>
      <trkpt lat="47.21119" lon="-1.49682">
        <ele>51</ele>
        <time>2021-02-06T14:39:12.000Z</time>
      </trkpt>
      <trkpt lat="47.21118" lon="-1.49699">
        <ele>52</ele>
        <time>2021-02-06T14:39:14.000Z</time>
      </trkpt>
      <trkpt lat="47.21116" lon="-1.49728">
        <ele>52</ele>
        <time>2021-02-06T14:39:17.000Z</time>
      </trkpt>
      <trkpt lat="47.21115" lon="-1.49753">
        <ele>50</ele>
        <time>2021-02-06T14:39:20.000Z</time>
      </trkpt>
      <trkpt lat="47.21112" lon="-1.49774">
        <ele>50</ele>
        <time>2021-02-06T14:39:22.000Z</time>
      </trkpt>
      <trkpt lat="47.21108" lon="-1.49804">
        <ele>51</ele>
        <time>2021-02-06T14:39:25.000Z</time>
      </trkpt>
      <trkpt lat="47.21107" lon="-1.49823">
        <ele>51</ele>
        <time>2021-02-06T14:39:27.000Z</time>
      </trkpt>
      <trkpt lat="47.21104" lon="-1.49839">
        <ele>52</ele>
        <time>2021-02-06T14:39:29.000Z</time>
      </trkpt>
      <trkpt lat="47.211" lon="-1.49855">
        <ele>52</ele>
        <time>2021-02-06T14:39:31.000Z</time>
      </trkpt>
      <trkpt lat="47.21098" lon="-1.49871">
        <ele>52</ele>
        <time>2021-02-06T14:39:33.000Z</time>
      </trkpt>
      <trkpt lat="47.21095" lon="-1.49889">
        <ele>51</ele>
        <time>2021-02-06T14:39:35.000Z</time>
      </trkpt>
      <trkpt lat="47.2109" lon="-1.49904">
        <ele>51</ele>
        <time>2021-02-06T14:39:37.000Z</time>
      </trkpt>
      <trkpt lat="47.21084" lon="-1.49921">
        <ele>52</ele>
        <time>2021-02-06T14:39:39.000Z</time>
      </trkpt>
      <trkpt lat="47.21079" lon="-1.49939">
        <ele>52</ele>
        <time>2021-02-06T14:39:41.000Z</time>
      </trkpt>
      <trkpt lat="47.21074" lon="-1.49956">
        <ele>52</ele>
        <time>2021-02-06T14:39:43.000Z</time>
      </trkpt>
      <trkpt lat="47.21071" lon="-1.49976">
        <ele>50</ele>
        <time>2021-02-06T14:39:45.000Z</time>
      </trkpt>
      <trkpt lat="47.21068" lon="-1.49991">
        <ele>51</ele>
        <time>2021-02-06T14:39:47.000Z</time>
      </trkpt>
      <trkpt lat="47.21062" lon="-1.50008">
        <ele>51</ele>
        <time>2021-02-06T14:39:49.000Z</time>
      </trkpt>
      <trkpt lat="47.21058" lon="-1.50025">
        <ele>52</ele>
        <time>2021-02-06T14:39:51.000Z</time>
      </trkpt>
      <trkpt lat="47.21046" lon="-1.50053">
        <ele>51</ele>
        <time>2021-02-06T14:39:54.000Z</time>
      </trkpt>
      <trkpt lat="47.21045" lon="-1.50068">
        <ele>52</ele>
        <time>2021-02-06T14:39:56.000Z</time>
      </trkpt>
      <trkpt lat="47.21042" lon="-1.50084">
        <ele>53</ele>
        <time>2021-02-06T14:39:58.000Z</time>
      </trkpt>
      <trkpt lat="47.21037" lon="-1.50102">
        <ele>54</ele>
        <time>2021-02-06T14:40:00.000Z</time>
      </trkpt>
      <trkpt lat="47.21032" lon="-1.5012">
        <ele>54</ele>
        <time>2021-02-06T14:40:02.000Z</time>
      </trkpt>
      <trkpt lat="47.21028" lon="-1.50137">
        <ele>54</ele>
        <time>2021-02-06T14:40:04.000Z</time>
      </trkpt>
      <trkpt lat="47.21024" lon="-1.50155">
        <ele>53</ele>
        <time>2021-02-06T14:40:06.000Z</time>
      </trkpt>
      <trkpt lat="47.21022" lon="-1.50173">
        <ele>50</ele>
        <time>2021-02-06T14:40:08.000Z</time>
      </trkpt>
      <trkpt lat="47.21019" lon="-1.50188">
        <ele>51</ele>
        <time>2021-02-06T14:40:10.000Z</time>
      </trkpt>
      <trkpt lat="47.21016" lon="-1.50204">
        <ele>51</ele>
        <time>2021-02-06T14:40:12.000Z</time>
      </trkpt>
      <trkpt lat="47.21017" lon="-1.50221">
        <ele>50</ele>
        <time>2021-02-06T14:40:14.000Z</time>
      </trkpt>
      <trkpt lat="47.21017" lon="-1.50237">
        <ele>51</ele>
        <time>2021-02-06T14:40:16.000Z</time>
      </trkpt>
      <trkpt lat="47.21012" lon="-1.50251">
        <ele>51</ele>
        <time>2021-02-06T14:40:18.000Z</time>
      </trkpt>
      <trkpt lat="47.21006" lon="-1.50265">
        <ele>51</ele>
        <time>2021-02-06T14:40:20.000Z</time>
      </trkpt>
      <trkpt lat="47.21004" lon="-1.50283">
        <ele>52</ele>
        <time>2021-02-06T14:40:22.000Z</time>
      </trkpt>
      <trkpt lat="47.21002" lon="-1.50302">
        <ele>51</ele>
        <time>2021-02-06T14:40:24.000Z</time>
      </trkpt>
      <trkpt lat="47.21002" lon="-1.50321">
        <ele>53</ele>
        <time>2021-02-06T14:40:26.000Z</time>
      </trkpt>
      <trkpt lat="47.21001" lon="-1.5034">
        <ele>52</ele>
        <time>2021-02-06T14:40:28.000Z</time>
      </trkpt>
      <trkpt lat="47.21001" lon="-1.50358">
        <ele>51</ele>
        <time>2021-02-06T14:40:30.000Z</time>
      </trkpt>
      <trkpt lat="47.21001" lon="-1.50377">
        <ele>51</ele>
        <time>2021-02-06T14:40:32.000Z</time>
      </trkpt>
      <trkpt lat="47.21001" lon="-1.50396">
        <ele>51</ele>
        <time>2021-02-06T14:40:34.000Z</time>
      </trkpt>
      <trkpt lat="47.21001" lon="-1.50415">
        <ele>52</ele>
        <time>2021-02-06T14:40:36.000Z</time>
      </trkpt>
      <trkpt lat="47.21001" lon="-1.50433">
        <ele>52</ele>
        <time>2021-02-06T14:40:38.000Z</time>
      </trkpt>
      <trkpt lat="47.21002" lon="-1.50459">
        <ele>50</ele>
        <time>2021-02-06T14:40:41.000Z</time>
      </trkpt>
      <trkpt lat="47.21001" lon="-1.50478">
        <ele>51</ele>
        <time>2021-02-06T14:40:43.000Z</time>
      </trkpt>
      <trkpt lat="47.21002" lon="-1.50497">
        <ele>52</ele>
        <time>2021-02-06T14:40:45.000Z</time>
      </trkpt>
      <trkpt lat="47.21001" lon="-1.50515">
        <ele>49</ele>
        <time>2021-02-06T14:40:47.000Z</time>
      </trkpt>
      <trkpt lat="47.21002" lon="-1.50531">
        <ele>50</ele>
        <time>2021-02-06T14:40:49.000Z</time>
      </trkpt>
      <trkpt lat="47.21002" lon="-1.5056">
        <ele>51</ele>
        <time>2021-02-06T14:40:52.000Z</time>
      </trkpt>
      <trkpt lat="47.21002" lon="-1.50579">
        <ele>51</ele>
        <time>2021-02-06T14:40:54.000Z</time>
      </trkpt>
      <trkpt lat="47.21003" lon="-1.50599">
        <ele>51</ele>
        <time>2021-02-06T14:40:56.000Z</time>
      </trkpt>
      <trkpt lat="47.21003" lon="-1.50617">
        <ele>52</ele>
        <time>2021-02-06T14:40:58.000Z</time>
      </trkpt>
      <trkpt lat="47.21002" lon="-1.50637">
        <ele>52</ele>
        <time>2021-02-06T14:41:00.000Z</time>
      </trkpt>
      <trkpt lat="47.21001" lon="-1.50655">
        <ele>53</ele>
        <time>2021-02-06T14:41:02.000Z</time>
      </trkpt>
      <trkpt lat="47.21001" lon="-1.50673">
        <ele>53</ele>
        <time>2021-02-06T14:41:04.000Z</time>
      </trkpt>
      <trkpt lat="47.21" lon="-1.5069">
        <ele>52</ele>
        <time>2021-02-06T14:41:06.000Z</time>
      </trkpt>
      <trkpt lat="47.20998" lon="-1.50709">
        <ele>52</ele>
        <time>2021-02-06T14:41:08.000Z</time>
      </trkpt>
      <trkpt lat="47.20998" lon="-1.50727">
        <ele>52</ele>
        <time>2021-02-06T14:41:10.000Z</time>
      </trkpt>
      <trkpt lat="47.20999" lon="-1.50745">
        <ele>50</ele>
        <time>2021-02-06T14:41:12.000Z</time>
      </trkpt>
      <trkpt lat="47.20996" lon="-1.50763">
        <ele>51</ele>
        <time>2021-02-06T14:41:14.000Z</time>
      </trkpt>
      <trkpt lat="47.20994" lon="-1.50781">
        <ele>51</ele>
        <time>2021-02-06T14:41:16.000Z</time>
      </trkpt>
      <trkpt lat="47.20992" lon="-1.50799">
        <ele>50</ele>
        <time>2021-02-06T14:41:18.000Z</time>
      </trkpt>
      <trkpt lat="47.20991" lon="-1.50819">
        <ele>50</ele>
        <time>2021-02-06T14:41:20.000Z</time>
      </trkpt>
      <trkpt lat="47.20987" lon="-1.50848">
        <ele>51</ele>
        <time>2021-02-06T14:41:23.000Z</time>
      </trkpt>
      <trkpt lat="47.20985" lon="-1.50865">
        <ele>51</ele>
        <time>2021-02-06T14:41:25.000Z</time>
      </trkpt>
      <trkpt lat="47.20978" lon="-1.509">
        <ele>48</ele>
        <time>2021-02-06T14:41:29.000Z</time>
      </trkpt>
      <trkpt lat="47.20977" lon="-1.50917">
        <ele>49</ele>
        <time>2021-02-06T14:41:31.000Z</time>
      </trkpt>
      <trkpt lat="47.20976" lon="-1.50934">
        <ele>51</ele>
        <time>2021-02-06T14:41:33.000Z</time>
      </trkpt>
      <trkpt lat="47.20973" lon="-1.50952">
        <ele>52</ele>
        <time>2021-02-06T14:41:35.000Z</time>
      </trkpt>
      <trkpt lat="47.20971" lon="-1.50969">
        <ele>50</ele>
        <time>2021-02-06T14:41:37.000Z</time>
      </trkpt>
      <trkpt lat="47.20968" lon="-1.50985">
        <ele>51</ele>
        <time>2021-02-06T14:41:39.000Z</time>
      </trkpt>
      <trkpt lat="47.20965" lon="-1.51004">
        <ele>52</ele>
        <time>2021-02-06T14:41:41.000Z</time>
      </trkpt>
      <trkpt lat="47.2096" lon="-1.5102">
        <ele>51</ele>
        <time>2021-02-06T14:41:43.000Z</time>
      </trkpt>
      <trkpt lat="47.20955" lon="-1.51036">
        <ele>50</ele>
        <time>2021-02-06T14:41:45.000Z</time>
      </trkpt>
      <trkpt lat="47.2095" lon="-1.51063">
        <ele>50</ele>
        <time>2021-02-06T14:41:48.000Z</time>
      </trkpt>
      <trkpt lat="47.20947" lon="-1.51082">
        <ele>50</ele>
        <time>2021-02-06T14:41:50.000Z</time>
      </trkpt>
      <trkpt lat="47.20943" lon="-1.511">
        <ele>51</ele>
        <time>2021-02-06T14:41:52.000Z</time>
      </trkpt>
      <trkpt lat="47.20938" lon="-1.51118">
        <ele>51</ele>
        <time>2021-02-06T14:41:54.000Z</time>
      </trkpt>
      <trkpt lat="47.20931" lon="-1.51136">
        <ele>52</ele>
        <time>2021-02-06T14:41:56.000Z</time>
      </trkpt>
      <trkpt lat="47.20925" lon="-1.51153">
        <ele>52</ele>
        <time>2021-02-06T14:41:58.000Z</time>
      </trkpt>
      <trkpt lat="47.20919" lon="-1.51171">
        <ele>52</ele>
        <time>2021-02-06T14:42:00.000Z</time>
      </trkpt>
      <trkpt lat="47.20914" lon="-1.51188">
        <ele>53</ele>
        <time>2021-02-06T14:42:02.000Z</time>
      </trkpt>
      <trkpt lat="47.20904" lon="-1.51215">
        <ele>53</ele>
        <time>2021-02-06T14:42:05.000Z</time>
      </trkpt>
      <trkpt lat="47.20898" lon="-1.51232">
        <ele>53</ele>
        <time>2021-02-06T14:42:07.000Z</time>
      </trkpt>
      <trkpt lat="47.20892" lon="-1.51248">
        <ele>53</ele>
        <time>2021-02-06T14:42:09.000Z</time>
      </trkpt>
      <trkpt lat="47.20886" lon="-1.51265">
        <ele>53</ele>
        <time>2021-02-06T14:42:11.000Z</time>
      </trkpt>
      <trkpt lat="47.20879" lon="-1.5128">
        <ele>53</ele>
        <time>2021-02-06T14:42:13.000Z</time>
      </trkpt>
      <trkpt lat="47.20873" lon="-1.51296">
        <ele>51</ele>
        <time>2021-02-06T14:42:15.000Z</time>
      </trkpt>
      <trkpt lat="47.20866" lon="-1.51311">
        <ele>50</ele>
        <time>2021-02-06T14:42:17.000Z</time>
      </trkpt>
      <trkpt lat="47.20859" lon="-1.51328">
        <ele>51</ele>
        <time>2021-02-06T14:42:19.000Z</time>
      </trkpt>
      <trkpt lat="47.20854" lon="-1.51344">
        <ele>52</ele>
        <time>2021-02-06T14:42:21.000Z</time>
      </trkpt>
      <trkpt lat="47.2085" lon="-1.51361">
        <ele>52</ele>
        <time>2021-02-06T14:42:23.000Z</time>
      </trkpt>
      <trkpt lat="47.20846" lon="-1.51377">
        <ele>52</ele>
        <time>2021-02-06T14:42:25.000Z</time>
      </trkpt>
      <trkpt lat="47.20841" lon="-1.51394">
        <ele>50</ele>
        <time>2021-02-06T14:42:27.000Z</time>
      </trkpt>
      <trkpt lat="47.2084" lon="-1.51411">
        <ele>51</ele>
        <time>2021-02-06T14:42:29.000Z</time>
      </trkpt>
      <trkpt lat="47.20836" lon="-1.51428">
        <ele>51</ele>
        <time>2021-02-06T14:42:31.000Z</time>
      </trkpt>
      <trkpt lat="47.20833" lon="-1.51445">
        <ele>52</ele>
        <time>2021-02-06T14:42:33.000Z</time>
      </trkpt>
      <trkpt lat="47.2083" lon="-1.51461">
        <ele>52</ele>
        <time>2021-02-06T14:42:35.000Z</time>
      </trkpt>
      <trkpt lat="47.20824" lon="-1.51478">
        <ele>53</ele>
        <time>2021-02-06T14:42:37.000Z</time>
      </trkpt>
      <trkpt lat="47.20819" lon="-1.51496">
        <ele>54</ele>
        <time>2021-02-06T14:42:39.000Z</time>
      </trkpt>
      <trkpt lat="47.20815" lon="-1.51517">
        <ele>54</ele>
        <time>2021-02-06T14:42:41.000Z</time>
      </trkpt>
      <trkpt lat="47.20813" lon="-1.51538">
        <ele>52</ele>
        <time>2021-02-06T14:42:43.000Z</time>
      </trkpt>
      <trkpt lat="47.20812" lon="-1.51559">
        <ele>51</ele>
        <time>2021-02-06T14:42:45.000Z</time>
      </trkpt>
      <trkpt lat="47.20809" lon="-1.51579">
        <ele>51</ele>
        <time>2021-02-06T14:42:47.000Z</time>
      </trkpt>
      <trkpt lat="47.20808" lon="-1.51599">
        <ele>51</ele>
        <time>2021-02-06T14:42:49.000Z</time>
      </trkpt>
      <trkpt lat="47.20805" lon="-1.5163">
        <ele>50</ele>
        <time>2021-02-06T14:42:52.000Z</time>
      </trkpt>
      <trkpt lat="47.20802" lon="-1.51646">
        <ele>51</ele>
        <time>2021-02-06T14:42:54.000Z</time>
      </trkpt>
      <trkpt lat="47.20797" lon="-1.51664">
        <ele>51</ele>
        <time>2021-02-06T14:42:56.000Z</time>
      </trkpt>
      <trkpt lat="47.20794" lon="-1.51683">
        <ele>51</ele>
        <time>2021-02-06T14:42:58.000Z</time>
      </trkpt>
      <trkpt lat="47.20791" lon="-1.51703">
        <ele>49</ele>
        <time>2021-02-06T14:43:00.000Z</time>
      </trkpt>
      <trkpt lat="47.20787" lon="-1.51723">
        <ele>48</ele>
        <time>2021-02-06T14:43:02.000Z</time>
      </trkpt>
      <trkpt lat="47.20781" lon="-1.51739">
        <ele>49</ele>
        <time>2021-02-06T14:43:04.000Z</time>
      </trkpt>
      <trkpt lat="47.20776" lon="-1.51757">
        <ele>49</ele>
        <time>2021-02-06T14:43:06.000Z</time>
      </trkpt>
      <trkpt lat="47.20771" lon="-1.51776">
        <ele>49</ele>
        <time>2021-02-06T14:43:08.000Z</time>
      </trkpt>
      <trkpt lat="47.20768" lon="-1.51793">
        <ele>50</ele>
        <time>2021-02-06T14:43:10.000Z</time>
      </trkpt>
      <trkpt lat="47.20766" lon="-1.51812">
        <ele>51</ele>
        <time>2021-02-06T14:43:12.000Z</time>
      </trkpt>
      <trkpt lat="47.20762" lon="-1.51829">
        <ele>51</ele>
        <time>2021-02-06T14:43:14.000Z</time>
      </trkpt>
      <trkpt lat="47.20756" lon="-1.51845">
        <ele>52</ele>
        <time>2021-02-06T14:43:16.000Z</time>
      </trkpt>
      <trkpt lat="47.20749" lon="-1.51862">
        <ele>52</ele>
        <time>2021-02-06T14:43:18.000Z</time>
      </trkpt>
      <trkpt lat="47.20743" lon="-1.51877">
        <ele>52</ele>
        <time>2021-02-06T14:43:20.000Z</time>
      </trkpt>
      <trkpt lat="47.20736" lon="-1.51894">
        <ele>49</ele>
        <time>2021-02-06T14:43:22.000Z</time>
      </trkpt>
      <trkpt lat="47.20729" lon="-1.51909">
        <ele>49</ele>
        <time>2021-02-06T14:43:24.000Z</time>
      </trkpt>
      <trkpt lat="47.20721" lon="-1.51924">
        <ele>50</ele>
        <time>2021-02-06T14:43:26.000Z</time>
      </trkpt>
      <trkpt lat="47.20715" lon="-1.51939">
        <ele>51</ele>
        <time>2021-02-06T14:43:28.000Z</time>
      </trkpt>
      <trkpt lat="47.20704" lon="-1.51961">
        <ele>49</ele>
        <time>2021-02-06T14:43:31.000Z</time>
      </trkpt>
      <trkpt lat="47.20698" lon="-1.51975">
        <ele>50</ele>
        <time>2021-02-06T14:43:33.000Z</time>
      </trkpt>
      <trkpt lat="47.20689" lon="-1.51989">
        <ele>51</ele>
        <time>2021-02-06T14:43:35.000Z</time>
      </trkpt>
      <trkpt lat="47.20681" lon="-1.52004">
        <ele>50</ele>
        <time>2021-02-06T14:43:37.000Z</time>
      </trkpt>
      <trkpt lat="47.20673" lon="-1.52019">
        <ele>49</ele>
        <time>2021-02-06T14:43:39.000Z</time>
      </trkpt>
      <trkpt lat="47.20664" lon="-1.52032">
        <ele>50</ele>
        <time>2021-02-06T14:43:41.000Z</time>
      </trkpt>
      <trkpt lat="47.20655" lon="-1.52045">
        <ele>50</ele>
        <time>2021-02-06T14:43:43.000Z</time>
      </trkpt>
      <trkpt lat="47.20644" lon="-1.52058">
        <ele>52</ele>
        <time>2021-02-06T14:43:45.000Z</time>
      </trkpt>
      <trkpt lat="47.20636" lon="-1.52074">
        <ele>52</ele>
        <time>2021-02-06T14:43:47.000Z</time>
      </trkpt>
      <trkpt lat="47.20628" lon="-1.52089">
        <ele>51</ele>
        <time>2021-02-06T14:43:49.000Z</time>
      </trkpt>
      <trkpt lat="47.20619" lon="-1.52103">
        <ele>52</ele>
        <time>2021-02-06T14:43:51.000Z</time>
      </trkpt>
      <trkpt lat="47.20612" lon="-1.52118">
        <ele>51</ele>
        <time>2021-02-06T14:43:53.000Z</time>
      </trkpt>
      <trkpt lat="47.20603" lon="-1.52132">
        <ele>49</ele>
        <time>2021-02-06T14:43:55.000Z</time>
      </trkpt>
      <trkpt lat="47.20595" lon="-1.52145">
        <ele>49</ele>
        <time>2021-02-06T14:43:57.000Z</time>
      </trkpt>
      <trkpt lat="47.20587" lon="-1.5216">
        <ele>50</ele>
        <time>2021-02-06T14:43:59.000Z</time>
      </trkpt>
      <trkpt lat="47.2058" lon="-1.52175">
        <ele>51</ele>
        <time>2021-02-06T14:44:01.000Z</time>
      </trkpt>
      <trkpt lat="47.20571" lon="-1.52188">
        <ele>51</ele>
        <time>2021-02-06T14:44:03.000Z</time>
      </trkpt>
      <trkpt lat="47.20563" lon="-1.52202">
        <ele>52</ele>
        <time>2021-02-06T14:44:05.000Z</time>
      </trkpt>
      <trkpt lat="47.20556" lon="-1.52216">
        <ele>52</ele>
        <time>2021-02-06T14:44:07.000Z</time>
      </trkpt>
      <trkpt lat="47.20549" lon="-1.52231">
        <ele>53</ele>
        <time>2021-02-06T14:44:09.000Z</time>
      </trkpt>
      <trkpt lat="47.20542" lon="-1.52245">
        <ele>53</ele>
        <time>2021-02-06T14:44:11.000Z</time>
      </trkpt>
      <trkpt lat="47.20535" lon="-1.5226">
        <ele>53</ele>
        <time>2021-02-06T14:44:13.000Z</time>
      </trkpt>
      <trkpt lat="47.20527" lon="-1.52274">
        <ele>53</ele>
        <time>2021-02-06T14:44:15.000Z</time>
      </trkpt>
      <trkpt lat="47.20521" lon="-1.52289">
        <ele>54</ele>
        <time>2021-02-06T14:44:17.000Z</time>
      </trkpt>
      <trkpt lat="47.20516" lon="-1.52302">
        <ele>53</ele>
        <time>2021-02-06T14:44:19.000Z</time>
      </trkpt>
      <trkpt lat="47.20512" lon="-1.52318">
        <ele>54</ele>
        <time>2021-02-06T14:44:21.000Z</time>
      </trkpt>
      <trkpt lat="47.20508" lon="-1.52333">
        <ele>54</ele>
        <time>2021-02-06T14:44:23.000Z</time>
      </trkpt>
      <trkpt lat="47.20504" lon="-1.5235">
        <ele>54</ele>
        <time>2021-02-06T14:44:26.000Z</time>
      </trkpt>
      <trkpt lat="47.20501" lon="-1.52363">
        <ele>53</ele>
        <time>2021-02-06T14:44:29.000Z</time>
      </trkpt>
      <trkpt lat="47.20493" lon="-1.52385">
        <ele>54</ele>
        <time>2021-02-06T14:44:33.000Z</time>
      </trkpt>
      <trkpt lat="47.20488" lon="-1.52402">
        <ele>52</ele>
        <time>2021-02-06T14:44:35.000Z</time>
      </trkpt>
      <trkpt lat="47.20483" lon="-1.52417">
        <ele>54</ele>
        <time>2021-02-06T14:44:37.000Z</time>
      </trkpt>
      <trkpt lat="47.20478" lon="-1.52432">
        <ele>54</ele>
        <time>2021-02-06T14:44:39.000Z</time>
      </trkpt>
      <trkpt lat="47.20472" lon="-1.52449">
        <ele>54</ele>
        <time>2021-02-06T14:44:41.000Z</time>
      </trkpt>
      <trkpt lat="47.20466" lon="-1.52466">
        <ele>54</ele>
        <time>2021-02-06T14:44:43.000Z</time>
      </trkpt>
      <trkpt lat="47.20457" lon="-1.52492">
        <ele>54</ele>
        <time>2021-02-06T14:44:46.000Z</time>
      </trkpt>
      <trkpt lat="47.20451" lon="-1.52509">
        <ele>54</ele>
        <time>2021-02-06T14:44:48.000Z</time>
      </trkpt>
      <trkpt lat="47.20445" lon="-1.52525">
        <ele>54</ele>
        <time>2021-02-06T14:44:50.000Z</time>
      </trkpt>
      <trkpt lat="47.20438" lon="-1.52545">
        <ele>53</ele>
        <time>2021-02-06T14:44:52.000Z</time>
      </trkpt>
      <trkpt lat="47.20433" lon="-1.52562">
        <ele>52</ele>
        <time>2021-02-06T14:44:54.000Z</time>
      </trkpt>
      <trkpt lat="47.20426" lon="-1.52577">
        <ele>52</ele>
        <time>2021-02-06T14:44:56.000Z</time>
      </trkpt>
      <trkpt lat="47.2042" lon="-1.52595">
        <ele>50</ele>
        <time>2021-02-06T14:44:58.000Z</time>
      </trkpt>
      <trkpt lat="47.20416" lon="-1.52614">
        <ele>51</ele>
        <time>2021-02-06T14:45:00.000Z</time>
      </trkpt>
      <trkpt lat="47.20411" lon="-1.5263">
        <ele>52</ele>
        <time>2021-02-06T14:45:02.000Z</time>
      </trkpt>
      <trkpt lat="47.20405" lon="-1.52646">
        <ele>52</ele>
        <time>2021-02-06T14:45:04.000Z</time>
      </trkpt>
      <trkpt lat="47.20399" lon="-1.52661">
        <ele>50</ele>
        <time>2021-02-06T14:45:06.000Z</time>
      </trkpt>
      <trkpt lat="47.20393" lon="-1.52683">
        <ele>50</ele>
        <time>2021-02-06T14:45:09.000Z</time>
      </trkpt>
      <trkpt lat="47.20384" lon="-1.52698">
        <ele>51</ele>
        <time>2021-02-06T14:45:11.000Z</time>
      </trkpt>
      <trkpt lat="47.20375" lon="-1.52712">
        <ele>51</ele>
        <time>2021-02-06T14:45:13.000Z</time>
      </trkpt>
      <trkpt lat="47.20366" lon="-1.52727">
        <ele>52</ele>
        <time>2021-02-06T14:45:15.000Z</time>
      </trkpt>
      <trkpt lat="47.20359" lon="-1.52742">
        <ele>52</ele>
        <time>2021-02-06T14:45:17.000Z</time>
      </trkpt>
      <trkpt lat="47.20347" lon="-1.52764">
        <ele>52</ele>
        <time>2021-02-06T14:45:20.000Z</time>
      </trkpt>
      <trkpt lat="47.20339" lon="-1.52786">
        <ele>52</ele>
        <time>2021-02-06T14:45:23.000Z</time>
      </trkpt>
      <trkpt lat="47.20333" lon="-1.52801">
        <ele>52</ele>
        <time>2021-02-06T14:45:25.000Z</time>
      </trkpt>
      <trkpt lat="47.20325" lon="-1.52816">
        <ele>53</ele>
        <time>2021-02-06T14:45:27.000Z</time>
      </trkpt>
      <trkpt lat="47.20317" lon="-1.52832">
        <ele>53</ele>
        <time>2021-02-06T14:45:29.000Z</time>
      </trkpt>
      <trkpt lat="47.2031" lon="-1.52846">
        <ele>53</ele>
        <time>2021-02-06T14:45:31.000Z</time>
      </trkpt>
      <trkpt lat="47.20303" lon="-1.52863">
        <ele>56</ele>
        <time>2021-02-06T14:45:33.000Z</time>
      </trkpt>
      <trkpt lat="47.20296" lon="-1.52879">
        <ele>54</ele>
        <time>2021-02-06T14:45:35.000Z</time>
      </trkpt>
      <trkpt lat="47.20292" lon="-1.52897">
        <ele>51</ele>
        <time>2021-02-06T14:45:37.000Z</time>
      </trkpt>
      <trkpt lat="47.20287" lon="-1.52911">
        <ele>50</ele>
        <time>2021-02-06T14:45:39.000Z</time>
      </trkpt>
      <trkpt lat="47.20273" lon="-1.52933">
        <ele>52</ele>
        <time>2021-02-06T14:45:42.000Z</time>
      </trkpt>
      <trkpt lat="47.20264" lon="-1.52948">
        <ele>52</ele>
        <time>2021-02-06T14:45:44.000Z</time>
      </trkpt>
      <trkpt lat="47.20251" lon="-1.52968">
        <ele>51</ele>
        <time>2021-02-06T14:45:47.000Z</time>
      </trkpt>
      <trkpt lat="47.20242" lon="-1.52989">
        <ele>51</ele>
        <time>2021-02-06T14:45:50.000Z</time>
      </trkpt>
      <trkpt lat="47.20232" lon="-1.53002">
        <ele>52</ele>
        <time>2021-02-06T14:45:52.000Z</time>
      </trkpt>
      <trkpt lat="47.20223" lon="-1.53015">
        <ele>52</ele>
        <time>2021-02-06T14:45:54.000Z</time>
      </trkpt>
      <trkpt lat="47.20213" lon="-1.53026">
        <ele>52</ele>
        <time>2021-02-06T14:45:56.000Z</time>
      </trkpt>
      <trkpt lat="47.20202" lon="-1.53037">
        <ele>53</ele>
        <time>2021-02-06T14:45:58.000Z</time>
      </trkpt>
      <trkpt lat="47.20192" lon="-1.53048">
        <ele>53</ele>
        <time>2021-02-06T14:46:00.000Z</time>
      </trkpt>
      <trkpt lat="47.20184" lon="-1.53061">
        <ele>53</ele>
        <time>2021-02-06T14:46:02.000Z</time>
      </trkpt>
      <trkpt lat="47.20175" lon="-1.53074">
        <ele>53</ele>
        <time>2021-02-06T14:46:04.000Z</time>
      </trkpt>
      <trkpt lat="47.20168" lon="-1.53088">
        <ele>53</ele>
        <time>2021-02-06T14:46:06.000Z</time>
      </trkpt>
      <trkpt lat="47.2016" lon="-1.53102">
        <ele>53</ele>
        <time>2021-02-06T14:46:08.000Z</time>
      </trkpt>
      <trkpt lat="47.20153" lon="-1.53119">
        <ele>53</ele>
        <time>2021-02-06T14:46:10.000Z</time>
      </trkpt>
      <trkpt lat="47.20147" lon="-1.53134">
        <ele>53</ele>
        <time>2021-02-06T14:46:12.000Z</time>
      </trkpt>
      <trkpt lat="47.20138" lon="-1.53157">
        <ele>52</ele>
        <time>2021-02-06T14:46:15.000Z</time>
      </trkpt>
      <trkpt lat="47.20133" lon="-1.53172">
        <ele>53</ele>
        <time>2021-02-06T14:46:17.000Z</time>
      </trkpt>
      <trkpt lat="47.20128" lon="-1.53189">
        <ele>53</ele>
        <time>2021-02-06T14:46:19.000Z</time>
      </trkpt>
      <trkpt lat="47.20124" lon="-1.53206">
        <ele>53</ele>
        <time>2021-02-06T14:46:21.000Z</time>
      </trkpt>
      <trkpt lat="47.2012" lon="-1.53224">
        <ele>53</ele>
        <time>2021-02-06T14:46:23.000Z</time>
      </trkpt>
      <trkpt lat="47.20116" lon="-1.53241">
        <ele>53</ele>
        <time>2021-02-06T14:46:25.000Z</time>
      </trkpt>
      <trkpt lat="47.20111" lon="-1.53259">
        <ele>53</ele>
        <time>2021-02-06T14:46:27.000Z</time>
      </trkpt>
      <trkpt lat="47.20106" lon="-1.53275">
        <ele>53</ele>
        <time>2021-02-06T14:46:29.000Z</time>
      </trkpt>
      <trkpt lat="47.201" lon="-1.53291">
        <ele>53</ele>
        <time>2021-02-06T14:46:31.000Z</time>
      </trkpt>
      <trkpt lat="47.20094" lon="-1.53306">
        <ele>53</ele>
        <time>2021-02-06T14:46:33.000Z</time>
      </trkpt>
      <trkpt lat="47.20088" lon="-1.53321">
        <ele>53</ele>
        <time>2021-02-06T14:46:35.000Z</time>
      </trkpt>
      <trkpt lat="47.20079" lon="-1.53343">
        <ele>53</ele>
        <time>2021-02-06T14:46:38.000Z</time>
      </trkpt>
      <trkpt lat="47.20073" lon="-1.53357">
        <ele>53</ele>
        <time>2021-02-06T14:46:40.000Z</time>
      </trkpt>
      <trkpt lat="47.20067" lon="-1.53373">
        <ele>53</ele>
        <time>2021-02-06T14:46:42.000Z</time>
      </trkpt>
      <trkpt lat="47.20062" lon="-1.53389">
        <ele>53</ele>
        <time>2021-02-06T14:46:44.000Z</time>
      </trkpt>
      <trkpt lat="47.20057" lon="-1.53403">
        <ele>53</ele>
        <time>2021-02-06T14:46:46.000Z</time>
      </trkpt>
      <trkpt lat="47.20051" lon="-1.53416">
        <ele>54</ele>
        <time>2021-02-06T14:46:48.000Z</time>
      </trkpt>
      <trkpt lat="47.20045" lon="-1.53428">
        <ele>54</ele>
        <time>2021-02-06T14:46:50.000Z</time>
      </trkpt>
      <trkpt lat="47.2004" lon="-1.5344">
        <ele>53</ele>
        <time>2021-02-06T14:46:52.000Z</time>
      </trkpt>
      <trkpt lat="47.20035" lon="-1.53453">
        <ele>53</ele>
        <time>2021-02-06T14:46:54.000Z</time>
      </trkpt>
      <trkpt lat="47.2003" lon="-1.53469">
        <ele>53</ele>
        <time>2021-02-06T14:46:56.000Z</time>
      </trkpt>
      <trkpt lat="47.20025" lon="-1.53481">
        <ele>53</ele>
        <time>2021-02-06T14:46:58.000Z</time>
      </trkpt>
      <trkpt lat="47.2002" lon="-1.53493">
        <ele>53</ele>
        <time>2021-02-06T14:47:00.000Z</time>
      </trkpt>
      <trkpt lat="47.20011" lon="-1.53505">
        <ele>52</ele>
        <time>2021-02-06T14:47:02.000Z</time>
      </trkpt>
      <trkpt lat="47.20002" lon="-1.53518">
        <ele>51</ele>
        <time>2021-02-06T14:47:04.000Z</time>
      </trkpt>
      <trkpt lat="47.19988" lon="-1.53537">
        <ele>50</ele>
        <time>2021-02-06T14:47:07.000Z</time>
      </trkpt>
      <trkpt lat="47.19984" lon="-1.53553">
        <ele>50</ele>
        <time>2021-02-06T14:47:09.000Z</time>
      </trkpt>
      <trkpt lat="47.19981" lon="-1.53569">
        <ele>51</ele>
        <time>2021-02-06T14:47:11.000Z</time>
      </trkpt>
      <trkpt lat="47.19978" lon="-1.53586">
        <ele>52</ele>
        <time>2021-02-06T14:47:13.000Z</time>
      </trkpt>
      <trkpt lat="47.19974" lon="-1.53612">
        <ele>52</ele>
        <time>2021-02-06T14:47:16.000Z</time>
      </trkpt>
      <trkpt lat="47.1997" lon="-1.53628">
        <ele>53</ele>
        <time>2021-02-06T14:47:18.000Z</time>
      </trkpt>
      <trkpt lat="47.19966" lon="-1.53645">
        <ele>53</ele>
        <time>2021-02-06T14:47:20.000Z</time>
      </trkpt>
      <trkpt lat="47.19963" lon="-1.5366">
        <ele>52</ele>
        <time>2021-02-06T14:47:22.000Z</time>
      </trkpt>
      <trkpt lat="47.19958" lon="-1.53685">
        <ele>48</ele>
        <time>2021-02-06T14:47:25.000Z</time>
      </trkpt>
      <trkpt lat="47.19954" lon="-1.53701">
        <ele>48</ele>
        <time>2021-02-06T14:47:27.000Z</time>
      </trkpt>
      <trkpt lat="47.19951" lon="-1.53716">
        <ele>48</ele>
        <time>2021-02-06T14:47:29.000Z</time>
      </trkpt>
      <trkpt lat="47.19948" lon="-1.53734">
        <ele>49</ele>
        <time>2021-02-06T14:47:31.000Z</time>
      </trkpt>
      <trkpt lat="47.19943" lon="-1.53752">
        <ele>49</ele>
        <time>2021-02-06T14:47:33.000Z</time>
      </trkpt>
      <trkpt lat="47.1994" lon="-1.53769">
        <ele>51</ele>
        <time>2021-02-06T14:47:35.000Z</time>
      </trkpt>
      <trkpt lat="47.19936" lon="-1.53786">
        <ele>51</ele>
        <time>2021-02-06T14:47:37.000Z</time>
      </trkpt>
      <trkpt lat="47.19935" lon="-1.53802">
        <ele>51</ele>
        <time>2021-02-06T14:47:39.000Z</time>
      </trkpt>
      <trkpt lat="47.19933" lon="-1.53815">
        <ele>51</ele>
        <time>2021-02-06T14:47:41.000Z</time>
      </trkpt>
      <trkpt lat="47.19929" lon="-1.53832">
        <ele>52</ele>
        <time>2021-02-06T14:47:43.000Z</time>
      </trkpt>
      <trkpt lat="47.19927" lon="-1.53847">
        <ele>52</ele>
        <time>2021-02-06T14:47:45.000Z</time>
      </trkpt>
      <trkpt lat="47.19923" lon="-1.53863">
        <ele>52</ele>
        <time>2021-02-06T14:47:47.000Z</time>
      </trkpt>
      <trkpt lat="47.19918" lon="-1.53881">
        <ele>52</ele>
        <time>2021-02-06T14:47:49.000Z</time>
      </trkpt>
      <trkpt lat="47.19913" lon="-1.53906">
        <ele>53</ele>
        <time>2021-02-06T14:47:52.000Z</time>
      </trkpt>
      <trkpt lat="47.1991" lon="-1.53921">
        <ele>52</ele>
        <time>2021-02-06T14:47:54.000Z</time>
      </trkpt>
      <trkpt lat="47.19906" lon="-1.53938">
        <ele>51</ele>
        <time>2021-02-06T14:47:56.000Z</time>
      </trkpt>
      <trkpt lat="47.199" lon="-1.53955">
        <ele>51</ele>
        <time>2021-02-06T14:47:58.000Z</time>
      </trkpt>
      <trkpt lat="47.19893" lon="-1.53972">
        <ele>51</ele>
        <time>2021-02-06T14:48:00.000Z</time>
      </trkpt>
      <trkpt lat="47.19888" lon="-1.53989">
        <ele>52</ele>
        <time>2021-02-06T14:48:02.000Z</time>
      </trkpt>
      <trkpt lat="47.19883" lon="-1.54004">
        <ele>50</ele>
        <time>2021-02-06T14:48:04.000Z</time>
      </trkpt>
      <trkpt lat="47.19879" lon="-1.54019">
        <ele>50</ele>
        <time>2021-02-06T14:48:06.000Z</time>
      </trkpt>
      <trkpt lat="47.19874" lon="-1.54034">
        <ele>50</ele>
        <time>2021-02-06T14:48:08.000Z</time>
      </trkpt>
      <trkpt lat="47.19867" lon="-1.54047">
        <ele>51</ele>
        <time>2021-02-06T14:48:10.000Z</time>
      </trkpt>
      <trkpt lat="47.1986" lon="-1.54062">
        <ele>50</ele>
        <time>2021-02-06T14:48:13.000Z</time>
      </trkpt>
      <trkpt lat="47.19853" lon="-1.54079">
        <ele>51</ele>
        <time>2021-02-06T14:48:15.000Z</time>
      </trkpt>
      <trkpt lat="47.19847" lon="-1.54095">
        <ele>52</ele>
        <time>2021-02-06T14:48:17.000Z</time>
      </trkpt>
      <trkpt lat="47.19841" lon="-1.54107">
        <ele>53</ele>
        <time>2021-02-06T14:48:19.000Z</time>
      </trkpt>
      <trkpt lat="47.19832" lon="-1.54125">
        <ele>50</ele>
        <time>2021-02-06T14:48:22.000Z</time>
      </trkpt>
      <trkpt lat="47.19828" lon="-1.54141">
        <ele>51</ele>
        <time>2021-02-06T14:48:26.000Z</time>
      </trkpt>
      <trkpt lat="47.19825" lon="-1.54157">
        <ele>53</ele>
        <time>2021-02-06T14:48:29.000Z</time>
      </trkpt>
      <trkpt lat="47.19815" lon="-1.54168">
        <ele>55</ele>
        <time>2021-02-06T14:48:32.000Z</time>
      </trkpt>
      <trkpt lat="47.19807" lon="-1.54181">
        <ele>57</ele>
        <time>2021-02-06T14:48:35.000Z</time>
      </trkpt>
      <trkpt lat="47.19801" lon="-1.54194">
        <ele>57</ele>
        <time>2021-02-06T14:48:38.000Z</time>
      </trkpt>
      <trkpt lat="47.19796" lon="-1.54206">
        <ele>56</ele>
        <time>2021-02-06T14:48:43.000Z</time>
      </trkpt>
      <trkpt lat="47.19794" lon="-1.5422">
        <ele>54</ele>
        <time>2021-02-06T14:49:02.000Z</time>
      </trkpt>
      <trkpt lat="47.19787" lon="-1.54235">
        <ele>54</ele>
        <time>2021-02-06T14:49:04.000Z</time>
      </trkpt>
      <trkpt lat="47.19779" lon="-1.5425">
        <ele>54</ele>
        <time>2021-02-06T14:49:06.000Z</time>
      </trkpt>
      <trkpt lat="47.19769" lon="-1.54266">
        <ele>53</ele>
        <time>2021-02-06T14:49:08.000Z</time>
      </trkpt>
      <trkpt lat="47.19761" lon="-1.5428">
        <ele>52</ele>
        <time>2021-02-06T14:49:10.000Z</time>
      </trkpt>
      <trkpt lat="47.1975" lon="-1.54294">
        <ele>53</ele>
        <time>2021-02-06T14:49:12.000Z</time>
      </trkpt>
      <trkpt lat="47.19737" lon="-1.54303">
        <ele>53</ele>
        <time>2021-02-06T14:49:14.000Z</time>
      </trkpt>
      <trkpt lat="47.19723" lon="-1.54315">
        <ele>51</ele>
        <time>2021-02-06T14:49:16.000Z</time>
      </trkpt>
      <trkpt lat="47.1971" lon="-1.54325">
        <ele>48</ele>
        <time>2021-02-06T14:49:18.000Z</time>
      </trkpt>
      <trkpt lat="47.19697" lon="-1.54334">
        <ele>48</ele>
        <time>2021-02-06T14:49:20.000Z</time>
      </trkpt>
      <trkpt lat="47.19676" lon="-1.54348">
        <ele>52</ele>
        <time>2021-02-06T14:49:23.000Z</time>
      </trkpt>
      <trkpt lat="47.19664" lon="-1.54358">
        <ele>51</ele>
        <time>2021-02-06T14:49:25.000Z</time>
      </trkpt>
      <trkpt lat="47.19645" lon="-1.54372">
        <ele>52</ele>
        <time>2021-02-06T14:49:28.000Z</time>
      </trkpt>
      <trkpt lat="47.19634" lon="-1.54383">
        <ele>54</ele>
        <time>2021-02-06T14:49:30.000Z</time>
      </trkpt>
      <trkpt lat="47.19623" lon="-1.54396">
        <ele>53</ele>
        <time>2021-02-06T14:49:32.000Z</time>
      </trkpt>
      <trkpt lat="47.19613" lon="-1.54405">
        <ele>52</ele>
        <time>2021-02-06T14:49:34.000Z</time>
      </trkpt>
      <trkpt lat="47.19603" lon="-1.54416">
        <ele>52</ele>
        <time>2021-02-06T14:49:36.000Z</time>
      </trkpt>
      <trkpt lat="47.19591" lon="-1.54426">
        <ele>51</ele>
        <time>2021-02-06T14:49:38.000Z</time>
      </trkpt>
      <trkpt lat="47.19579" lon="-1.54437">
        <ele>52</ele>
        <time>2021-02-06T14:49:40.000Z</time>
      </trkpt>
      <trkpt lat="47.19568" lon="-1.54449">
        <ele>54</ele>
        <time>2021-02-06T14:49:42.000Z</time>
      </trkpt>
      <trkpt lat="47.19552" lon="-1.54464">
        <ele>55</ele>
        <time>2021-02-06T14:49:45.000Z</time>
      </trkpt>
      <trkpt lat="47.19542" lon="-1.54474">
        <ele>54</ele>
        <time>2021-02-06T14:49:47.000Z</time>
      </trkpt>
      <trkpt lat="47.19532" lon="-1.54485">
        <ele>54</ele>
        <time>2021-02-06T14:49:49.000Z</time>
      </trkpt>
      <trkpt lat="47.19521" lon="-1.54494">
        <ele>54</ele>
        <time>2021-02-06T14:49:51.000Z</time>
      </trkpt>
      <trkpt lat="47.19511" lon="-1.54503">
        <ele>54</ele>
        <time>2021-02-06T14:49:53.000Z</time>
      </trkpt>
      <trkpt lat="47.195" lon="-1.54511">
        <ele>54</ele>
        <time>2021-02-06T14:49:55.000Z</time>
      </trkpt>
      <trkpt lat="47.1949" lon="-1.5452">
        <ele>54</ele>
        <time>2021-02-06T14:49:57.000Z</time>
      </trkpt>
      <trkpt lat="47.19481" lon="-1.54531">
        <ele>54</ele>
        <time>2021-02-06T14:49:59.000Z</time>
      </trkpt>
      <trkpt lat="47.19475" lon="-1.54547">
        <ele>53</ele>
        <time>2021-02-06T14:50:01.000Z</time>
      </trkpt>
      <trkpt lat="47.19469" lon="-1.54568">
        <ele>50</ele>
        <time>2021-02-06T14:50:04.000Z</time>
      </trkpt>
      <trkpt lat="47.19474" lon="-1.54596">
        <ele>59</ele>
        <time>2021-02-06T14:50:10.000Z</time>
      </trkpt>
      <trkpt lat="47.19471" lon="-1.54625">
        <ele>59</ele>
        <time>2021-02-06T14:50:14.000Z</time>
      </trkpt>
      <trkpt lat="47.19461" lon="-1.54635">
        <ele>59</ele>
        <time>2021-02-06T14:50:16.000Z</time>
      </trkpt>
      <trkpt lat="47.19449" lon="-1.54641">
        <ele>61</ele>
        <time>2021-02-06T14:50:18.000Z</time>
      </trkpt>
      <trkpt lat="47.19443" lon="-1.54655">
        <ele>64</ele>
        <time>2021-02-06T14:50:20.000Z</time>
      </trkpt>
      <trkpt lat="47.19439" lon="-1.54673">
        <ele>63</ele>
        <time>2021-02-06T14:50:22.000Z</time>
      </trkpt>
      <trkpt lat="47.19437" lon="-1.54692">
        <ele>63</ele>
        <time>2021-02-06T14:50:24.000Z</time>
      </trkpt>
      <trkpt lat="47.19431" lon="-1.54708">
        <ele>65</ele>
        <time>2021-02-06T14:50:26.000Z</time>
      </trkpt>
      <trkpt lat="47.19423" lon="-1.54724">
        <ele>62</ele>
        <time>2021-02-06T14:50:28.000Z</time>
      </trkpt>
      <trkpt lat="47.1942" lon="-1.54741">
        <ele>57</ele>
        <time>2021-02-06T14:50:30.000Z</time>
      </trkpt>
      <trkpt lat="47.19418" lon="-1.54758">
        <ele>55</ele>
        <time>2021-02-06T14:50:32.000Z</time>
      </trkpt>
      <trkpt lat="47.19413" lon="-1.54771">
        <ele>56</ele>
        <time>2021-02-06T14:50:34.000Z</time>
      </trkpt>
      <trkpt lat="47.19409" lon="-1.54787">
        <ele>56</ele>
        <time>2021-02-06T14:50:36.000Z</time>
      </trkpt>
      <trkpt lat="47.19404" lon="-1.5481">
        <ele>58</ele>
        <time>2021-02-06T14:50:39.000Z</time>
      </trkpt>
      <trkpt lat="47.19399" lon="-1.54825">
        <ele>58</ele>
        <time>2021-02-06T14:50:41.000Z</time>
      </trkpt>
      <trkpt lat="47.19395" lon="-1.54839">
        <ele>57</ele>
        <time>2021-02-06T14:50:43.000Z</time>
      </trkpt>
      <trkpt lat="47.19391" lon="-1.54853">
        <ele>59</ele>
        <time>2021-02-06T14:50:45.000Z</time>
      </trkpt>
      <trkpt lat="47.19388" lon="-1.54871">
        <ele>58</ele>
        <time>2021-02-06T14:50:48.000Z</time>
      </trkpt>
      <trkpt lat="47.19382" lon="-1.54897">
        <ele>61</ele>
        <time>2021-02-06T14:50:51.000Z</time>
      </trkpt>
      <trkpt lat="47.19377" lon="-1.54911">
        <ele>61</ele>
        <time>2021-02-06T14:50:53.000Z</time>
      </trkpt>
      <trkpt lat="47.19373" lon="-1.54925">
        <ele>62</ele>
        <time>2021-02-06T14:50:55.000Z</time>
      </trkpt>
      <trkpt lat="47.1937" lon="-1.54939">
        <ele>62</ele>
        <time>2021-02-06T14:50:57.000Z</time>
      </trkpt>
      <trkpt lat="47.19363" lon="-1.54963">
        <ele>61</ele>
        <time>2021-02-06T14:51:01.000Z</time>
      </trkpt>
      <trkpt lat="47.1936" lon="-1.54977">
        <ele>60</ele>
        <time>2021-02-06T14:51:03.000Z</time>
      </trkpt>
      <trkpt lat="47.19357" lon="-1.54991">
        <ele>60</ele>
        <time>2021-02-06T14:51:05.000Z</time>
      </trkpt>
      <trkpt lat="47.19353" lon="-1.55006">
        <ele>59</ele>
        <time>2021-02-06T14:51:07.000Z</time>
      </trkpt>
      <trkpt lat="47.19346" lon="-1.55023">
        <ele>59</ele>
        <time>2021-02-06T14:51:09.000Z</time>
      </trkpt>
      <trkpt lat="47.19344" lon="-1.55039">
        <ele>58</ele>
        <time>2021-02-06T14:51:11.000Z</time>
      </trkpt>
      <trkpt lat="47.1934" lon="-1.55056">
        <ele>57</ele>
        <time>2021-02-06T14:51:13.000Z</time>
      </trkpt>
      <trkpt lat="47.19335" lon="-1.55071">
        <ele>56</ele>
        <time>2021-02-06T14:51:15.000Z</time>
      </trkpt>
      <trkpt lat="47.1933" lon="-1.55088">
        <ele>56</ele>
        <time>2021-02-06T14:51:17.000Z</time>
      </trkpt>
      <trkpt lat="47.19325" lon="-1.55106">
        <ele>55</ele>
        <time>2021-02-06T14:51:19.000Z</time>
      </trkpt>
      <trkpt lat="47.19319" lon="-1.55126">
        <ele>55</ele>
        <time>2021-02-06T14:51:21.000Z</time>
      </trkpt>
      <trkpt lat="47.19317" lon="-1.55147">
        <ele>54</ele>
        <time>2021-02-06T14:51:23.000Z</time>
      </trkpt>
      <trkpt lat="47.19312" lon="-1.55167">
        <ele>54</ele>
        <time>2021-02-06T14:51:25.000Z</time>
      </trkpt>
      <trkpt lat="47.19304" lon="-1.55198">
        <ele>53</ele>
        <time>2021-02-06T14:51:28.000Z</time>
      </trkpt>
      <trkpt lat="47.193" lon="-1.55218">
        <ele>52</ele>
        <time>2021-02-06T14:51:30.000Z</time>
      </trkpt>
      <trkpt lat="47.19295" lon="-1.55238">
        <ele>51</ele>
        <time>2021-02-06T14:51:32.000Z</time>
      </trkpt>
      <trkpt lat="47.1929" lon="-1.55257">
        <ele>51</ele>
        <time>2021-02-06T14:51:34.000Z</time>
      </trkpt>
      <trkpt lat="47.19286" lon="-1.55276">
        <ele>50</ele>
        <time>2021-02-06T14:51:36.000Z</time>
      </trkpt>
      <trkpt lat="47.19281" lon="-1.55305">
        <ele>51</ele>
        <time>2021-02-06T14:51:39.000Z</time>
      </trkpt>
      <trkpt lat="47.19277" lon="-1.55324">
        <ele>52</ele>
        <time>2021-02-06T14:51:41.000Z</time>
      </trkpt>
      <trkpt lat="47.19272" lon="-1.55343">
        <ele>52</ele>
        <time>2021-02-06T14:51:43.000Z</time>
      </trkpt>
      <trkpt lat="47.19267" lon="-1.55361">
        <ele>52</ele>
        <time>2021-02-06T14:51:45.000Z</time>
      </trkpt>
      <trkpt lat="47.1926" lon="-1.55387">
        <ele>52</ele>
        <time>2021-02-06T14:51:48.000Z</time>
      </trkpt>
      <trkpt lat="47.19251" lon="-1.55403">
        <ele>52</ele>
        <time>2021-02-06T14:51:50.000Z</time>
      </trkpt>
      <trkpt lat="47.19254" lon="-1.55421">
        <ele>52</ele>
        <time>2021-02-06T14:51:54.000Z</time>
      </trkpt>
      <trkpt lat="47.19256" lon="-1.55437">
        <ele>52</ele>
        <time>2021-02-06T14:51:56.000Z</time>
      </trkpt>
      <trkpt lat="47.19256" lon="-1.55453">
        <ele>53</ele>
        <time>2021-02-06T14:51:58.000Z</time>
      </trkpt>
      <trkpt lat="47.1925" lon="-1.55467">
        <ele>52</ele>
        <time>2021-02-06T14:52:00.000Z</time>
      </trkpt>
      <trkpt lat="47.19246" lon="-1.55479">
        <ele>51</ele>
        <time>2021-02-06T14:52:02.000Z</time>
      </trkpt>
      <trkpt lat="47.19245" lon="-1.55502">
        <ele>51</ele>
        <time>2021-02-06T14:52:05.000Z</time>
      </trkpt>
      <trkpt lat="47.19245" lon="-1.5552">
        <ele>51</ele>
        <time>2021-02-06T14:52:07.000Z</time>
      </trkpt>
      <trkpt lat="47.19244" lon="-1.55538">
        <ele>51</ele>
        <time>2021-02-06T14:52:09.000Z</time>
      </trkpt>
      <trkpt lat="47.19242" lon="-1.55558">
        <ele>51</ele>
        <time>2021-02-06T14:52:11.000Z</time>
      </trkpt>
      <trkpt lat="47.19241" lon="-1.55577">
        <ele>51</ele>
        <time>2021-02-06T14:52:13.000Z</time>
      </trkpt>
      <trkpt lat="47.19241" lon="-1.55597">
        <ele>51</ele>
        <time>2021-02-06T14:52:15.000Z</time>
      </trkpt>
      <trkpt lat="47.1924" lon="-1.55614">
        <ele>52</ele>
        <time>2021-02-06T14:52:17.000Z</time>
      </trkpt>
      <trkpt lat="47.1924" lon="-1.55633">
        <ele>53</ele>
        <time>2021-02-06T14:52:19.000Z</time>
      </trkpt>
      <trkpt lat="47.1924" lon="-1.55652">
        <ele>53</ele>
        <time>2021-02-06T14:52:21.004Z</time>
      </trkpt>
      <trkpt lat="47.19238" lon="-1.55672">
        <ele>52</ele>
        <time>2021-02-06T14:52:23.000Z</time>
      </trkpt>
      <trkpt lat="47.19237" lon="-1.55692">
        <ele>53</ele>
        <time>2021-02-06T14:52:25.000Z</time>
      </trkpt>
      <trkpt lat="47.19237" lon="-1.55709">
        <ele>54</ele>
        <time>2021-02-06T14:52:27.000Z</time>
      </trkpt>
      <trkpt lat="47.19236" lon="-1.55728">
        <ele>53</ele>
        <time>2021-02-06T14:52:29.000Z</time>
      </trkpt>
      <trkpt lat="47.19234" lon="-1.55749">
        <ele>53</ele>
        <time>2021-02-06T14:52:31.000Z</time>
      </trkpt>
      <trkpt lat="47.19235" lon="-1.55768">
        <ele>52</ele>
        <time>2021-02-06T14:52:33.000Z</time>
      </trkpt>
      <trkpt lat="47.19235" lon="-1.55787">
        <ele>52</ele>
        <time>2021-02-06T14:52:35.000Z</time>
      </trkpt>
      <trkpt lat="47.19236" lon="-1.55801">
        <ele>52</ele>
        <time>2021-02-06T14:52:37.000Z</time>
      </trkpt>
      <trkpt lat="47.19239" lon="-1.55828">
        <ele>53</ele>
        <time>2021-02-06T14:52:40.000Z</time>
      </trkpt>
      <trkpt lat="47.1924" lon="-1.55856">
        <ele>52</ele>
        <time>2021-02-06T14:52:43.000Z</time>
      </trkpt>
      <trkpt lat="47.19242" lon="-1.55873">
        <ele>53</ele>
        <time>2021-02-06T14:52:45.000Z</time>
      </trkpt>
      <trkpt lat="47.19242" lon="-1.55893">
        <ele>53</ele>
        <time>2021-02-06T14:52:47.000Z</time>
      </trkpt>
      <trkpt lat="47.19243" lon="-1.55911">
        <ele>53</ele>
        <time>2021-02-06T14:52:49.000Z</time>
      </trkpt>
      <trkpt lat="47.19243" lon="-1.5593">
        <ele>53</ele>
        <time>2021-02-06T14:52:51.000Z</time>
      </trkpt>
      <trkpt lat="47.19242" lon="-1.55945">
        <ele>53</ele>
        <time>2021-02-06T14:52:53.000Z</time>
      </trkpt>
      <trkpt lat="47.19243" lon="-1.55964">
        <ele>54</ele>
        <time>2021-02-06T14:52:55.000Z</time>
      </trkpt>
      <trkpt lat="47.19246" lon="-1.55982">
        <ele>54</ele>
        <time>2021-02-06T14:52:57.000Z</time>
      </trkpt>
      <trkpt lat="47.1925" lon="-1.56011">
        <ele>53</ele>
        <time>2021-02-06T14:53:00.000Z</time>
      </trkpt>
      <trkpt lat="47.19252" lon="-1.56027">
        <ele>51</ele>
        <time>2021-02-06T14:53:02.000Z</time>
      </trkpt>
      <trkpt lat="47.19255" lon="-1.56043">
        <ele>51</ele>
        <time>2021-02-06T14:53:04.000Z</time>
      </trkpt>
      <trkpt lat="47.19258" lon="-1.56064">
        <ele>54</ele>
        <time>2021-02-06T14:53:06.000Z</time>
      </trkpt>
      <trkpt lat="47.19258" lon="-1.56082">
        <ele>54</ele>
        <time>2021-02-06T14:53:08.000Z</time>
      </trkpt>
      <trkpt lat="47.1926" lon="-1.5611">
        <ele>52</ele>
        <time>2021-02-06T14:53:11.000Z</time>
      </trkpt>
      <trkpt lat="47.19262" lon="-1.56128">
        <ele>51</ele>
        <time>2021-02-06T14:53:13.000Z</time>
      </trkpt>
      <trkpt lat="47.19262" lon="-1.56146">
        <ele>52</ele>
        <time>2021-02-06T14:53:15.000Z</time>
      </trkpt>
      <trkpt lat="47.19263" lon="-1.56163">
        <ele>52</ele>
        <time>2021-02-06T14:53:17.000Z</time>
      </trkpt>
      <trkpt lat="47.19264" lon="-1.56189">
        <ele>52</ele>
        <time>2021-02-06T14:53:20.000Z</time>
      </trkpt>
      <trkpt lat="47.19264" lon="-1.56205">
        <ele>53</ele>
        <time>2021-02-06T14:53:22.000Z</time>
      </trkpt>
      <trkpt lat="47.19267" lon="-1.56221">
        <ele>53</ele>
        <time>2021-02-06T14:53:24.000Z</time>
      </trkpt>
      <trkpt lat="47.19271" lon="-1.56239">
        <ele>53</ele>
        <time>2021-02-06T14:53:26.000Z</time>
      </trkpt>
      <trkpt lat="47.19279" lon="-1.56252">
        <ele>53</ele>
        <time>2021-02-06T14:53:28.000Z</time>
      </trkpt>
      <trkpt lat="47.19286" lon="-1.56265">
        <ele>54</ele>
        <time>2021-02-06T14:53:30.000Z</time>
      </trkpt>
      <trkpt lat="47.19291" lon="-1.56282">
        <ele>52</ele>
        <time>2021-02-06T14:53:32.000Z</time>
      </trkpt>
      <trkpt lat="47.1929" lon="-1.563">
        <ele>52</ele>
        <time>2021-02-06T14:53:34.000Z</time>
      </trkpt>
      <trkpt lat="47.19285" lon="-1.56317">
        <ele>53</ele>
        <time>2021-02-06T14:53:36.000Z</time>
      </trkpt>
      <trkpt lat="47.1928" lon="-1.56334">
        <ele>53</ele>
        <time>2021-02-06T14:53:38.000Z</time>
      </trkpt>
      <trkpt lat="47.19281" lon="-1.56353">
        <ele>53</ele>
        <time>2021-02-06T14:53:40.000Z</time>
      </trkpt>
      <trkpt lat="47.19284" lon="-1.56372">
        <ele>53</ele>
        <time>2021-02-06T14:53:42.000Z</time>
      </trkpt>
      <trkpt lat="47.19287" lon="-1.5639">
        <ele>52</ele>
        <time>2021-02-06T14:53:44.000Z</time>
      </trkpt>
      <trkpt lat="47.19288" lon="-1.56409">
        <ele>52</ele>
        <time>2021-02-06T14:53:46.000Z</time>
      </trkpt>
      <trkpt lat="47.19289" lon="-1.56427">
        <ele>52</ele>
        <time>2021-02-06T14:53:48.000Z</time>
      </trkpt>
      <trkpt lat="47.19292" lon="-1.56453">
        <ele>52</ele>
        <time>2021-02-06T14:53:51.000Z</time>
      </trkpt>
      <trkpt lat="47.19293" lon="-1.5647">
        <ele>52</ele>
        <time>2021-02-06T14:53:53.000Z</time>
      </trkpt>
      <trkpt lat="47.19297" lon="-1.56489">
        <ele>52</ele>
        <time>2021-02-06T14:53:55.000Z</time>
      </trkpt>
      <trkpt lat="47.19298" lon="-1.56515">
        <ele>53</ele>
        <time>2021-02-06T14:53:58.000Z</time>
      </trkpt>
      <trkpt lat="47.193" lon="-1.56532">
        <ele>52</ele>
        <time>2021-02-06T14:54:00.000Z</time>
      </trkpt>
      <trkpt lat="47.19301" lon="-1.5655">
        <ele>52</ele>
        <time>2021-02-06T14:54:02.000Z</time>
      </trkpt>
      <trkpt lat="47.19303" lon="-1.56568">
        <ele>52</ele>
        <time>2021-02-06T14:54:04.000Z</time>
      </trkpt>
      <trkpt lat="47.19305" lon="-1.56586">
        <ele>52</ele>
        <time>2021-02-06T14:54:06.000Z</time>
      </trkpt>
      <trkpt lat="47.19306" lon="-1.56604">
        <ele>52</ele>
        <time>2021-02-06T14:54:08.000Z</time>
      </trkpt>
      <trkpt lat="47.1931" lon="-1.56623">
        <ele>52</ele>
        <time>2021-02-06T14:54:10.000Z</time>
      </trkpt>
      <trkpt lat="47.19311" lon="-1.5664">
        <ele>53</ele>
        <time>2021-02-06T14:54:12.000Z</time>
      </trkpt>
      <trkpt lat="47.19311" lon="-1.56658">
        <ele>53</ele>
        <time>2021-02-06T14:54:14.000Z</time>
      </trkpt>
      <trkpt lat="47.19313" lon="-1.56676">
        <ele>53</ele>
        <time>2021-02-06T14:54:16.000Z</time>
      </trkpt>
      <trkpt lat="47.19315" lon="-1.56697">
        <ele>53</ele>
        <time>2021-02-06T14:54:18.000Z</time>
      </trkpt>
      <trkpt lat="47.19316" lon="-1.56714">
        <ele>52</ele>
        <time>2021-02-06T14:54:20.000Z</time>
      </trkpt>
      <trkpt lat="47.19317" lon="-1.5673">
        <ele>52</ele>
        <time>2021-02-06T14:54:22.000Z</time>
      </trkpt>
      <trkpt lat="47.1932" lon="-1.56756">
        <ele>52</ele>
        <time>2021-02-06T14:54:25.000Z</time>
      </trkpt>
      <trkpt lat="47.19321" lon="-1.56777">
        <ele>53</ele>
        <time>2021-02-06T14:54:27.000Z</time>
      </trkpt>
      <trkpt lat="47.19323" lon="-1.56795">
        <ele>53</ele>
        <time>2021-02-06T14:54:29.000Z</time>
      </trkpt>
      <trkpt lat="47.19325" lon="-1.56813">
        <ele>53</ele>
        <time>2021-02-06T14:54:31.000Z</time>
      </trkpt>
      <trkpt lat="47.19328" lon="-1.56837">
        <ele>53</ele>
        <time>2021-02-06T14:54:34.000Z</time>
      </trkpt>
      <trkpt lat="47.19331" lon="-1.56857">
        <ele>52</ele>
        <time>2021-02-06T14:54:36.000Z</time>
      </trkpt>
      <trkpt lat="47.1933" lon="-1.56874">
        <ele>53</ele>
        <time>2021-02-06T14:54:38.000Z</time>
      </trkpt>
      <trkpt lat="47.1933" lon="-1.56893">
        <ele>54</ele>
        <time>2021-02-06T14:54:40.000Z</time>
      </trkpt>
      <trkpt lat="47.1933" lon="-1.5692">
        <ele>53</ele>
        <time>2021-02-06T14:54:43.000Z</time>
      </trkpt>
      <trkpt lat="47.19331" lon="-1.5694">
        <ele>51</ele>
        <time>2021-02-06T14:54:45.000Z</time>
      </trkpt>
      <trkpt lat="47.1933" lon="-1.56957">
        <ele>52</ele>
        <time>2021-02-06T14:54:47.000Z</time>
      </trkpt>
      <trkpt lat="47.19328" lon="-1.56974">
        <ele>53</ele>
        <time>2021-02-06T14:54:49.000Z</time>
      </trkpt>
      <trkpt lat="47.19328" lon="-1.56989">
        <ele>53</ele>
        <time>2021-02-06T14:54:51.000Z</time>
      </trkpt>
      <trkpt lat="47.19326" lon="-1.57003">
        <ele>54</ele>
        <time>2021-02-06T14:54:53.000Z</time>
      </trkpt>
      <trkpt lat="47.19324" lon="-1.57017">
        <ele>54</ele>
        <time>2021-02-06T14:54:55.000Z</time>
      </trkpt>
      <trkpt lat="47.19324" lon="-1.57032">
        <ele>55</ele>
        <time>2021-02-06T14:54:58.000Z</time>
      </trkpt>
      <trkpt lat="47.19337" lon="-1.57045">
        <ele>55</ele>
        <time>2021-02-06T14:55:02.000Z</time>
      </trkpt>
      <trkpt lat="47.1934" lon="-1.57058">
        <ele>56</ele>
        <time>2021-02-06T14:55:04.000Z</time>
      </trkpt>
      <trkpt lat="47.19341" lon="-1.57072">
        <ele>56</ele>
        <time>2021-02-06T14:55:06.000Z</time>
      </trkpt>
      <trkpt lat="47.19336" lon="-1.57084">
        <ele>56</ele>
        <time>2021-02-06T14:55:08.000Z</time>
      </trkpt>
      <trkpt lat="47.1932" lon="-1.57093">
        <ele>55</ele>
        <time>2021-02-06T14:55:11.000Z</time>
      </trkpt>
      <trkpt lat="47.19311" lon="-1.57121">
        <ele>55</ele>
        <time>2021-02-06T14:55:16.000Z</time>
      </trkpt>
      <trkpt lat="47.19309" lon="-1.57136">
        <ele>56</ele>
        <time>2021-02-06T14:55:18.000Z</time>
      </trkpt>
      <trkpt lat="47.19305" lon="-1.57163">
        <ele>54</ele>
        <time>2021-02-06T14:55:21.000Z</time>
      </trkpt>
      <trkpt lat="47.19303" lon="-1.57181">
        <ele>54</ele>
        <time>2021-02-06T14:55:23.000Z</time>
      </trkpt>
      <trkpt lat="47.193" lon="-1.572">
        <ele>54</ele>
        <time>2021-02-06T14:55:25.000Z</time>
      </trkpt>
      <trkpt lat="47.19296" lon="-1.57218">
        <ele>54</ele>
        <time>2021-02-06T14:55:27.000Z</time>
      </trkpt>
      <trkpt lat="47.19292" lon="-1.57237">
        <ele>54</ele>
        <time>2021-02-06T14:55:29.000Z</time>
      </trkpt>
      <trkpt lat="47.19286" lon="-1.57265">
        <ele>54</ele>
        <time>2021-02-06T14:55:32.000Z</time>
      </trkpt>
      <trkpt lat="47.19281" lon="-1.57283">
        <ele>55</ele>
        <time>2021-02-06T14:55:34.000Z</time>
      </trkpt>
      <trkpt lat="47.19276" lon="-1.573">
        <ele>55</ele>
        <time>2021-02-06T14:55:36.000Z</time>
      </trkpt>
      <trkpt lat="47.19271" lon="-1.57318">
        <ele>55</ele>
        <time>2021-02-06T14:55:38.000Z</time>
      </trkpt>
      <trkpt lat="47.19266" lon="-1.57336">
        <ele>55</ele>
        <time>2021-02-06T14:55:40.000Z</time>
      </trkpt>
      <trkpt lat="47.19263" lon="-1.5736">
        <ele>49</ele>
        <time>2021-02-06T14:55:43.000Z</time>
      </trkpt>
      <trkpt lat="47.19256" lon="-1.57378">
        <ele>52</ele>
        <time>2021-02-06T14:55:45.000Z</time>
      </trkpt>
      <trkpt lat="47.19248" lon="-1.57397">
        <ele>53</ele>
        <time>2021-02-06T14:55:47.000Z</time>
      </trkpt>
      <trkpt lat="47.19242" lon="-1.57415">
        <ele>53</ele>
        <time>2021-02-06T14:55:49.000Z</time>
      </trkpt>
      <trkpt lat="47.19235" lon="-1.57433">
        <ele>51</ele>
        <time>2021-02-06T14:55:51.000Z</time>
      </trkpt>
      <trkpt lat="47.19228" lon="-1.57451">
        <ele>51</ele>
        <time>2021-02-06T14:55:53.000Z</time>
      </trkpt>
      <trkpt lat="47.19223" lon="-1.57468">
        <ele>53</ele>
        <time>2021-02-06T14:55:55.000Z</time>
      </trkpt>
      <trkpt lat="47.19214" lon="-1.57494">
        <ele>54</ele>
        <time>2021-02-06T14:55:58.000Z</time>
      </trkpt>
      <trkpt lat="47.19207" lon="-1.57512">
        <ele>52</ele>
        <time>2021-02-06T14:56:00.000Z</time>
      </trkpt>
      <trkpt lat="47.19201" lon="-1.57528">
        <ele>53</ele>
        <time>2021-02-06T14:56:02.000Z</time>
      </trkpt>
      <trkpt lat="47.19193" lon="-1.57546">
        <ele>53</ele>
        <time>2021-02-06T14:56:04.000Z</time>
      </trkpt>
      <trkpt lat="47.19187" lon="-1.57562">
        <ele>53</ele>
        <time>2021-02-06T14:56:06.000Z</time>
      </trkpt>
      <trkpt lat="47.1918" lon="-1.57579">
        <ele>53</ele>
        <time>2021-02-06T14:56:08.000Z</time>
      </trkpt>
      <trkpt lat="47.19174" lon="-1.57597">
        <ele>54</ele>
        <time>2021-02-06T14:56:10.000Z</time>
      </trkpt>
      <trkpt lat="47.19167" lon="-1.57613">
        <ele>53</ele>
        <time>2021-02-06T14:56:12.000Z</time>
      </trkpt>
      <trkpt lat="47.19162" lon="-1.57628">
        <ele>53</ele>
        <time>2021-02-06T14:56:14.000Z</time>
      </trkpt>
      <trkpt lat="47.19155" lon="-1.57647">
        <ele>52</ele>
        <time>2021-02-06T14:56:16.000Z</time>
      </trkpt>
      <trkpt lat="47.19148" lon="-1.57663">
        <ele>53</ele>
        <time>2021-02-06T14:56:18.000Z</time>
      </trkpt>
      <trkpt lat="47.19143" lon="-1.57679">
        <ele>53</ele>
        <time>2021-02-06T14:56:20.000Z</time>
      </trkpt>
      <trkpt lat="47.19134" lon="-1.57706">
        <ele>50</ele>
        <time>2021-02-06T14:56:23.000Z</time>
      </trkpt>
      <trkpt lat="47.19129" lon="-1.57723">
        <ele>50</ele>
        <time>2021-02-06T14:56:25.000Z</time>
      </trkpt>
      <trkpt lat="47.19122" lon="-1.57738">
        <ele>51</ele>
        <time>2021-02-06T14:56:27.000Z</time>
      </trkpt>
      <trkpt lat="47.19116" lon="-1.57755">
        <ele>51</ele>
        <time>2021-02-06T14:56:29.000Z</time>
      </trkpt>
      <trkpt lat="47.1911" lon="-1.57771">
        <ele>50</ele>
        <time>2021-02-06T14:56:31.000Z</time>
      </trkpt>
      <trkpt lat="47.19105" lon="-1.57787">
        <ele>48</ele>
        <time>2021-02-06T14:56:33.000Z</time>
      </trkpt>
      <trkpt lat="47.19099" lon="-1.57803">
        <ele>50</ele>
        <time>2021-02-06T14:56:35.000Z</time>
      </trkpt>
      <trkpt lat="47.19094" lon="-1.57819">
        <ele>51</ele>
        <time>2021-02-06T14:56:37.000Z</time>
      </trkpt>
      <trkpt lat="47.19085" lon="-1.57836">
        <ele>49</ele>
        <time>2021-02-06T14:56:39.000Z</time>
      </trkpt>
      <trkpt lat="47.1908" lon="-1.57852">
        <ele>50</ele>
        <time>2021-02-06T14:56:41.000Z</time>
      </trkpt>
      <trkpt lat="47.19074" lon="-1.57868">
        <ele>50</ele>
        <time>2021-02-06T14:56:43.000Z</time>
      </trkpt>
      <trkpt lat="47.19068" lon="-1.57884">
        <ele>51</ele>
        <time>2021-02-06T14:56:45.000Z</time>
      </trkpt>
      <trkpt lat="47.19063" lon="-1.579">
        <ele>52</ele>
        <time>2021-02-06T14:56:47.000Z</time>
      </trkpt>
      <trkpt lat="47.19059" lon="-1.57917">
        <ele>50</ele>
        <time>2021-02-06T14:56:49.000Z</time>
      </trkpt>
      <trkpt lat="47.19053" lon="-1.57933">
        <ele>50</ele>
        <time>2021-02-06T14:56:51.000Z</time>
      </trkpt>
      <trkpt lat="47.19047" lon="-1.5795">
        <ele>51</ele>
        <time>2021-02-06T14:56:53.000Z</time>
      </trkpt>
      <trkpt lat="47.19041" lon="-1.57967">
        <ele>52</ele>
        <time>2021-02-06T14:56:55.000Z</time>
      </trkpt>
      <trkpt lat="47.19035" lon="-1.57984">
        <ele>52</ele>
        <time>2021-02-06T14:56:57.000Z</time>
      </trkpt>
      <trkpt lat="47.19026" lon="-1.58009">
        <ele>52</ele>
        <time>2021-02-06T14:57:00.000Z</time>
      </trkpt>
      <trkpt lat="47.19019" lon="-1.58025">
        <ele>52</ele>
        <time>2021-02-06T14:57:02.000Z</time>
      </trkpt>
      <trkpt lat="47.19012" lon="-1.58044">
        <ele>52</ele>
        <time>2021-02-06T14:57:04.000Z</time>
      </trkpt>
      <trkpt lat="47.19007" lon="-1.58059">
        <ele>53</ele>
        <time>2021-02-06T14:57:06.000Z</time>
      </trkpt>
      <trkpt lat="47.18998" lon="-1.58084">
        <ele>53</ele>
        <time>2021-02-06T14:57:09.000Z</time>
      </trkpt>
      <trkpt lat="47.18992" lon="-1.58099">
        <ele>52</ele>
        <time>2021-02-06T14:57:11.000Z</time>
      </trkpt>
      <trkpt lat="47.18988" lon="-1.58116">
        <ele>51</ele>
        <time>2021-02-06T14:57:13.000Z</time>
      </trkpt>
      <trkpt lat="47.18982" lon="-1.58134">
        <ele>50</ele>
        <time>2021-02-06T14:57:15.000Z</time>
      </trkpt>
      <trkpt lat="47.18976" lon="-1.5815">
        <ele>51</ele>
        <time>2021-02-06T14:57:17.000Z</time>
      </trkpt>
      <trkpt lat="47.18969" lon="-1.58167">
        <ele>52</ele>
        <time>2021-02-06T14:57:19.000Z</time>
      </trkpt>
      <trkpt lat="47.18963" lon="-1.58184">
        <ele>52</ele>
        <time>2021-02-06T14:57:21.000Z</time>
      </trkpt>
      <trkpt lat="47.18958" lon="-1.582">
        <ele>52</ele>
        <time>2021-02-06T14:57:23.000Z</time>
      </trkpt>
      <trkpt lat="47.18952" lon="-1.58216">
        <ele>52</ele>
        <time>2021-02-06T14:57:25.000Z</time>
      </trkpt>
      <trkpt lat="47.18946" lon="-1.58233">
        <ele>52</ele>
        <time>2021-02-06T14:57:27.000Z</time>
      </trkpt>
      <trkpt lat="47.1894" lon="-1.58249">
        <ele>52</ele>
        <time>2021-02-06T14:57:29.000Z</time>
      </trkpt>
      <trkpt lat="47.18934" lon="-1.58265">
        <ele>53</ele>
        <time>2021-02-06T14:57:31.000Z</time>
      </trkpt>
      <trkpt lat="47.18928" lon="-1.58282">
        <ele>53</ele>
        <time>2021-02-06T14:57:33.000Z</time>
      </trkpt>
      <trkpt lat="47.1892" lon="-1.58306">
        <ele>53</ele>
        <time>2021-02-06T14:57:36.000Z</time>
      </trkpt>
      <trkpt lat="47.18913" lon="-1.58323">
        <ele>52</ele>
        <time>2021-02-06T14:57:38.000Z</time>
      </trkpt>
      <trkpt lat="47.18907" lon="-1.58339">
        <ele>52</ele>
        <time>2021-02-06T14:57:40.000Z</time>
      </trkpt>
      <trkpt lat="47.18901" lon="-1.58355">
        <ele>53</ele>
        <time>2021-02-06T14:57:42.000Z</time>
      </trkpt>
      <trkpt lat="47.18893" lon="-1.5838">
        <ele>51</ele>
        <time>2021-02-06T14:57:45.000Z</time>
      </trkpt>
      <trkpt lat="47.18888" lon="-1.58397">
        <ele>52</ele>
        <time>2021-02-06T14:57:47.000Z</time>
      </trkpt>
      <trkpt lat="47.1888" lon="-1.58422">
        <ele>53</ele>
        <time>2021-02-06T14:57:50.000Z</time>
      </trkpt>
      <trkpt lat="47.18875" lon="-1.58439">
        <ele>49</ele>
        <time>2021-02-06T14:57:52.000Z</time>
      </trkpt>
      <trkpt lat="47.18868" lon="-1.58464">
        <ele>48</ele>
        <time>2021-02-06T14:57:55.000Z</time>
      </trkpt>
      <trkpt lat="47.18862" lon="-1.58481">
        <ele>51</ele>
        <time>2021-02-06T14:57:57.000Z</time>
      </trkpt>
      <trkpt lat="47.18854" lon="-1.58506">
        <ele>52</ele>
        <time>2021-02-06T14:58:00.000Z</time>
      </trkpt>
      <trkpt lat="47.1885" lon="-1.58524">
        <ele>52</ele>
        <time>2021-02-06T14:58:02.000Z</time>
      </trkpt>
      <trkpt lat="47.18845" lon="-1.5854">
        <ele>52</ele>
        <time>2021-02-06T14:58:04.000Z</time>
      </trkpt>
      <trkpt lat="47.18841" lon="-1.58558">
        <ele>52</ele>
        <time>2021-02-06T14:58:06.000Z</time>
      </trkpt>
      <trkpt lat="47.18836" lon="-1.58575">
        <ele>52</ele>
        <time>2021-02-06T14:58:08.000Z</time>
      </trkpt>
      <trkpt lat="47.18832" lon="-1.58593">
        <ele>53</ele>
        <time>2021-02-06T14:58:10.000Z</time>
      </trkpt>
      <trkpt lat="47.18828" lon="-1.58609">
        <ele>53</ele>
        <time>2021-02-06T14:58:12.000Z</time>
      </trkpt>
      <trkpt lat="47.18825" lon="-1.58626">
        <ele>52</ele>
        <time>2021-02-06T14:58:14.000Z</time>
      </trkpt>
      <trkpt lat="47.18821" lon="-1.58643">
        <ele>53</ele>
        <time>2021-02-06T14:58:16.000Z</time>
      </trkpt>
      <trkpt lat="47.18817" lon="-1.58663">
        <ele>50</ele>
        <time>2021-02-06T14:58:18.000Z</time>
      </trkpt>
      <trkpt lat="47.18814" lon="-1.58681">
        <ele>49</ele>
        <time>2021-02-06T14:58:20.000Z</time>
      </trkpt>
      <trkpt lat="47.18814" lon="-1.58695">
        <ele>50</ele>
        <time>2021-02-06T14:58:23.000Z</time>
      </trkpt>
      <trkpt lat="47.18817" lon="-1.58718">
        <ele>48</ele>
        <time>2021-02-06T14:58:27.000Z</time>
      </trkpt>
      <trkpt lat="47.18823" lon="-1.58732">
        <ele>48</ele>
        <time>2021-02-06T14:58:29.000Z</time>
      </trkpt>
      <trkpt lat="47.18827" lon="-1.58752">
        <ele>48</ele>
        <time>2021-02-06T14:58:31.000Z</time>
      </trkpt>
      <trkpt lat="47.18823" lon="-1.58775">
        <ele>48</ele>
        <time>2021-02-06T14:58:33.000Z</time>
      </trkpt>
      <trkpt lat="47.18815" lon="-1.58793">
        <ele>48</ele>
        <time>2021-02-06T14:58:35.000Z</time>
      </trkpt>
      <trkpt lat="47.18805" lon="-1.58803">
        <ele>49</ele>
        <time>2021-02-06T14:58:37.000Z</time>
      </trkpt>
      <trkpt lat="47.18794" lon="-1.58812">
        <ele>50</ele>
        <time>2021-02-06T14:58:39.000Z</time>
      </trkpt>
      <trkpt lat="47.18788" lon="-1.58832">
        <ele>52</ele>
        <time>2021-02-06T14:58:41.000Z</time>
      </trkpt>
      <trkpt lat="47.18782" lon="-1.58861">
        <ele>52</ele>
        <time>2021-02-06T14:58:44.000Z</time>
      </trkpt>
      <trkpt lat="47.18777" lon="-1.58889">
        <ele>53</ele>
        <time>2021-02-06T14:58:47.000Z</time>
      </trkpt>
      <trkpt lat="47.18774" lon="-1.58911">
        <ele>52</ele>
        <time>2021-02-06T14:58:49.000Z</time>
      </trkpt>
      <trkpt lat="47.18769" lon="-1.58942">
        <ele>52</ele>
        <time>2021-02-06T14:58:52.000Z</time>
      </trkpt>
      <trkpt lat="47.18766" lon="-1.58965">
        <ele>53</ele>
        <time>2021-02-06T14:58:54.000Z</time>
      </trkpt>
      <trkpt lat="47.18765" lon="-1.5899">
        <ele>53</ele>
        <time>2021-02-06T14:58:57.000Z</time>
      </trkpt>
      <trkpt lat="47.18763" lon="-1.59008">
        <ele>53</ele>
        <time>2021-02-06T14:58:59.000Z</time>
      </trkpt>
      <trkpt lat="47.18763" lon="-1.59026">
        <ele>53</ele>
        <time>2021-02-06T14:59:01.000Z</time>
      </trkpt>
      <trkpt lat="47.18761" lon="-1.59045">
        <ele>53</ele>
        <time>2021-02-06T14:59:03.000Z</time>
      </trkpt>
      <trkpt lat="47.18759" lon="-1.59063">
        <ele>53</ele>
        <time>2021-02-06T14:59:05.000Z</time>
      </trkpt>
      <trkpt lat="47.18756" lon="-1.59081">
        <ele>53</ele>
        <time>2021-02-06T14:59:07.000Z</time>
      </trkpt>
      <trkpt lat="47.18754" lon="-1.59098">
        <ele>53</ele>
        <time>2021-02-06T14:59:09.000Z</time>
      </trkpt>
      <trkpt lat="47.18753" lon="-1.59115">
        <ele>53</ele>
        <time>2021-02-06T14:59:11.000Z</time>
      </trkpt>
      <trkpt lat="47.18751" lon="-1.59131">
        <ele>52</ele>
        <time>2021-02-06T14:59:13.000Z</time>
      </trkpt>
      <trkpt lat="47.18749" lon="-1.59151">
        <ele>50</ele>
        <time>2021-02-06T14:59:15.000Z</time>
      </trkpt>
      <trkpt lat="47.18746" lon="-1.59167">
        <ele>50</ele>
        <time>2021-02-06T14:59:17.000Z</time>
      </trkpt>
      <trkpt lat="47.18745" lon="-1.59184">
        <ele>51</ele>
        <time>2021-02-06T14:59:19.000Z</time>
      </trkpt>
      <trkpt lat="47.18743" lon="-1.592">
        <ele>51</ele>
        <time>2021-02-06T14:59:21.000Z</time>
      </trkpt>
      <trkpt lat="47.18741" lon="-1.59216">
        <ele>50</ele>
        <time>2021-02-06T14:59:23.000Z</time>
      </trkpt>
      <trkpt lat="47.18739" lon="-1.59234">
        <ele>51</ele>
        <time>2021-02-06T14:59:25.000Z</time>
      </trkpt>
      <trkpt lat="47.18738" lon="-1.59252">
        <ele>52</ele>
        <time>2021-02-06T14:59:27.000Z</time>
      </trkpt>
      <trkpt lat="47.18736" lon="-1.59269">
        <ele>53</ele>
        <time>2021-02-06T14:59:29.000Z</time>
      </trkpt>
      <trkpt lat="47.18733" lon="-1.59289">
        <ele>50</ele>
        <time>2021-02-06T14:59:31.000Z</time>
      </trkpt>
      <trkpt lat="47.18731" lon="-1.59305">
        <ele>50</ele>
        <time>2021-02-06T14:59:33.000Z</time>
      </trkpt>
      <trkpt lat="47.18729" lon="-1.5933">
        <ele>51</ele>
        <time>2021-02-06T14:59:36.000Z</time>
      </trkpt>
      <trkpt lat="47.18727" lon="-1.59347">
        <ele>51</ele>
        <time>2021-02-06T14:59:38.000Z</time>
      </trkpt>
      <trkpt lat="47.18725" lon="-1.59365">
        <ele>51</ele>
        <time>2021-02-06T14:59:40.000Z</time>
      </trkpt>
      <trkpt lat="47.18722" lon="-1.59383">
        <ele>51</ele>
        <time>2021-02-06T14:59:42.000Z</time>
      </trkpt>
      <trkpt lat="47.1872" lon="-1.59401">
        <ele>52</ele>
        <time>2021-02-06T14:59:44.000Z</time>
      </trkpt>
      <trkpt lat="47.18718" lon="-1.5942">
        <ele>51</ele>
        <time>2021-02-06T14:59:46.000Z</time>
      </trkpt>
      <trkpt lat="47.18715" lon="-1.59439">
        <ele>50</ele>
        <time>2021-02-06T14:59:48.000Z</time>
      </trkpt>
      <trkpt lat="47.18714" lon="-1.59453">
        <ele>51</ele>
        <time>2021-02-06T14:59:50.000Z</time>
      </trkpt>
      <trkpt lat="47.18712" lon="-1.5947">
        <ele>52</ele>
        <time>2021-02-06T14:59:52.000Z</time>
      </trkpt>
      <trkpt lat="47.1871" lon="-1.59487">
        <ele>52</ele>
        <time>2021-02-06T14:59:54.000Z</time>
      </trkpt>
      <trkpt lat="47.18709" lon="-1.59505">
        <ele>53</ele>
        <time>2021-02-06T14:59:56.000Z</time>
      </trkpt>
      <trkpt lat="47.18707" lon="-1.59522">
        <ele>52</ele>
        <time>2021-02-06T14:59:58.000Z</time>
      </trkpt>
      <trkpt lat="47.18705" lon="-1.5954">
        <ele>53</ele>
        <time>2021-02-06T15:00:00.000Z</time>
      </trkpt>
      <trkpt lat="47.18703" lon="-1.59557">
        <ele>53</ele>
        <time>2021-02-06T15:00:02.000Z</time>
      </trkpt>
      <trkpt lat="47.18701" lon="-1.59575">
        <ele>53</ele>
        <time>2021-02-06T15:00:04.000Z</time>
      </trkpt>
      <trkpt lat="47.18699" lon="-1.59592">
        <ele>53</ele>
        <time>2021-02-06T15:00:06.000Z</time>
      </trkpt>
      <trkpt lat="47.18697" lon="-1.59609">
        <ele>53</ele>
        <time>2021-02-06T15:00:08.000Z</time>
      </trkpt>
      <trkpt lat="47.18695" lon="-1.59627">
        <ele>53</ele>
        <time>2021-02-06T15:00:10.000Z</time>
      </trkpt>
      <trkpt lat="47.18693" lon="-1.59647">
        <ele>51</ele>
        <time>2021-02-06T15:00:12.000Z</time>
      </trkpt>
      <trkpt lat="47.18691" lon="-1.59666">
        <ele>52</ele>
        <time>2021-02-06T15:00:14.000Z</time>
      </trkpt>
      <trkpt lat="47.18688" lon="-1.59681">
        <ele>53</ele>
        <time>2021-02-06T15:00:16.000Z</time>
      </trkpt>
      <trkpt lat="47.18686" lon="-1.597">
        <ele>52</ele>
        <time>2021-02-06T15:00:18.000Z</time>
      </trkpt>
      <trkpt lat="47.18685" lon="-1.59727">
        <ele>51</ele>
        <time>2021-02-06T15:00:21.000Z</time>
      </trkpt>
      <trkpt lat="47.18684" lon="-1.59749">
        <ele>51</ele>
        <time>2021-02-06T15:00:23.000Z</time>
      </trkpt>
      <trkpt lat="47.18685" lon="-1.59769">
        <ele>50</ele>
        <time>2021-02-06T15:00:25.000Z</time>
      </trkpt>
      <trkpt lat="47.18687" lon="-1.5979">
        <ele>50</ele>
        <time>2021-02-06T15:00:27.000Z</time>
      </trkpt>
      <trkpt lat="47.18683" lon="-1.5982">
        <ele>53</ele>
        <time>2021-02-06T15:00:30.000Z</time>
      </trkpt>
      <trkpt lat="47.18675" lon="-1.59836">
        <ele>54</ele>
        <time>2021-02-06T15:00:32.000Z</time>
      </trkpt>
      <trkpt lat="47.18662" lon="-1.59845">
        <ele>54</ele>
        <time>2021-02-06T15:00:34.000Z</time>
      </trkpt>
      <trkpt lat="47.18647" lon="-1.59844">
        <ele>54</ele>
        <time>2021-02-06T15:00:36.000Z</time>
      </trkpt>
      <trkpt lat="47.18633" lon="-1.59836">
        <ele>54</ele>
        <time>2021-02-06T15:00:38.000Z</time>
      </trkpt>
      <trkpt lat="47.18622" lon="-1.59832">
        <ele>53</ele>
        <time>2021-02-06T15:00:40.000Z</time>
      </trkpt>
      <trkpt lat="47.18619" lon="-1.59845">
        <ele>52</ele>
        <time>2021-02-06T15:00:42.000Z</time>
      </trkpt>
      <trkpt lat="47.18625" lon="-1.59861">
        <ele>52</ele>
        <time>2021-02-06T15:00:44.000Z</time>
      </trkpt>
      <trkpt lat="47.18623" lon="-1.59877">
        <ele>53</ele>
        <time>2021-02-06T15:00:46.000Z</time>
      </trkpt>
      <trkpt lat="47.18619" lon="-1.59894">
        <ele>53</ele>
        <time>2021-02-06T15:00:48.000Z</time>
      </trkpt>
      <trkpt lat="47.18614" lon="-1.59912">
        <ele>53</ele>
        <time>2021-02-06T15:00:50.000Z</time>
      </trkpt>
      <trkpt lat="47.1861" lon="-1.59929">
        <ele>53</ele>
        <time>2021-02-06T15:00:52.000Z</time>
      </trkpt>
      <trkpt lat="47.18605" lon="-1.59946">
        <ele>54</ele>
        <time>2021-02-06T15:00:54.000Z</time>
      </trkpt>
      <trkpt lat="47.18597" lon="-1.59974">
        <ele>52</ele>
        <time>2021-02-06T15:00:57.000Z</time>
      </trkpt>
      <trkpt lat="47.18592" lon="-1.59989">
        <ele>52</ele>
        <time>2021-02-06T15:00:59.000Z</time>
      </trkpt>
      <trkpt lat="47.18588" lon="-1.60004">
        <ele>53</ele>
        <time>2021-02-06T15:01:01.000Z</time>
      </trkpt>
      <trkpt lat="47.18583" lon="-1.6002">
        <ele>54</ele>
        <time>2021-02-06T15:01:03.000Z</time>
      </trkpt>
      <trkpt lat="47.18577" lon="-1.60036">
        <ele>54</ele>
        <time>2021-02-06T15:01:05.000Z</time>
      </trkpt>
      <trkpt lat="47.18566" lon="-1.6006">
        <ele>52</ele>
        <time>2021-02-06T15:01:08.000Z</time>
      </trkpt>
      <trkpt lat="47.1856" lon="-1.60074">
        <ele>51</ele>
        <time>2021-02-06T15:01:10.000Z</time>
      </trkpt>
      <trkpt lat="47.18555" lon="-1.60088">
        <ele>52</ele>
        <time>2021-02-06T15:01:12.000Z</time>
      </trkpt>
      <trkpt lat="47.18545" lon="-1.6011">
        <ele>53</ele>
        <time>2021-02-06T15:01:15.000Z</time>
      </trkpt>
      <trkpt lat="47.1854" lon="-1.60125">
        <ele>53</ele>
        <time>2021-02-06T15:01:17.000Z</time>
      </trkpt>
      <trkpt lat="47.18534" lon="-1.60139">
        <ele>53</ele>
        <time>2021-02-06T15:01:19.000Z</time>
      </trkpt>
      <trkpt lat="47.18527" lon="-1.60154">
        <ele>53</ele>
        <time>2021-02-06T15:01:21.000Z</time>
      </trkpt>
      <trkpt lat="47.18521" lon="-1.60171">
        <ele>51</ele>
        <time>2021-02-06T15:01:23.000Z</time>
      </trkpt>
      <trkpt lat="47.18513" lon="-1.60184">
        <ele>51</ele>
        <time>2021-02-06T15:01:25.000Z</time>
      </trkpt>
      <trkpt lat="47.18506" lon="-1.60198">
        <ele>52</ele>
        <time>2021-02-06T15:01:27.000Z</time>
      </trkpt>
      <trkpt lat="47.18496" lon="-1.60218">
        <ele>53</ele>
        <time>2021-02-06T15:01:30.000Z</time>
      </trkpt>
      <trkpt lat="47.1849" lon="-1.60233">
        <ele>50</ele>
        <time>2021-02-06T15:01:32.000Z</time>
      </trkpt>
      <trkpt lat="47.18481" lon="-1.60246">
        <ele>51</ele>
        <time>2021-02-06T15:01:34.000Z</time>
      </trkpt>
      <trkpt lat="47.18469" lon="-1.60267">
        <ele>52</ele>
        <time>2021-02-06T15:01:37.000Z</time>
      </trkpt>
      <trkpt lat="47.18459" lon="-1.60287">
        <ele>53</ele>
        <time>2021-02-06T15:01:40.000Z</time>
      </trkpt>
      <trkpt lat="47.18452" lon="-1.603">
        <ele>54</ele>
        <time>2021-02-06T15:01:42.000Z</time>
      </trkpt>
      <trkpt lat="47.18444" lon="-1.60314">
        <ele>54</ele>
        <time>2021-02-06T15:01:44.000Z</time>
      </trkpt>
      <trkpt lat="47.18436" lon="-1.60328">
        <ele>55</ele>
        <time>2021-02-06T15:01:46.000Z</time>
      </trkpt>
      <trkpt lat="47.18426" lon="-1.60341">
        <ele>54</ele>
        <time>2021-02-06T15:01:48.000Z</time>
      </trkpt>
      <trkpt lat="47.18418" lon="-1.60353">
        <ele>53</ele>
        <time>2021-02-06T15:01:50.000Z</time>
      </trkpt>
      <trkpt lat="47.18408" lon="-1.60365">
        <ele>53</ele>
        <time>2021-02-06T15:01:52.000Z</time>
      </trkpt>
      <trkpt lat="47.18399" lon="-1.60378">
        <ele>53</ele>
        <time>2021-02-06T15:01:54.000Z</time>
      </trkpt>
      <trkpt lat="47.18389" lon="-1.60392">
        <ele>53</ele>
        <time>2021-02-06T15:01:56.000Z</time>
      </trkpt>
      <trkpt lat="47.1838" lon="-1.60403">
        <ele>53</ele>
        <time>2021-02-06T15:01:58.000Z</time>
      </trkpt>
      <trkpt lat="47.18372" lon="-1.60417">
        <ele>50</ele>
        <time>2021-02-06T15:02:00.000Z</time>
      </trkpt>
      <trkpt lat="47.18363" lon="-1.60427">
        <ele>51</ele>
        <time>2021-02-06T15:02:02.000Z</time>
      </trkpt>
      <trkpt lat="47.18353" lon="-1.60438">
        <ele>52</ele>
        <time>2021-02-06T15:02:04.000Z</time>
      </trkpt>
      <trkpt lat="47.18344" lon="-1.6045">
        <ele>51</ele>
        <time>2021-02-06T15:02:06.000Z</time>
      </trkpt>
      <trkpt lat="47.18335" lon="-1.60461">
        <ele>50</ele>
        <time>2021-02-06T15:02:08.000Z</time>
      </trkpt>
      <trkpt lat="47.18326" lon="-1.6047">
        <ele>52</ele>
        <time>2021-02-06T15:02:10.000Z</time>
      </trkpt>
      <trkpt lat="47.18318" lon="-1.60481">
        <ele>52</ele>
        <time>2021-02-06T15:02:12.000Z</time>
      </trkpt>
      <trkpt lat="47.18307" lon="-1.60491">
        <ele>51</ele>
        <time>2021-02-06T15:02:14.000Z</time>
      </trkpt>
      <trkpt lat="47.18298" lon="-1.60502">
        <ele>52</ele>
        <time>2021-02-06T15:02:16.000Z</time>
      </trkpt>
      <trkpt lat="47.18283" lon="-1.60517">
        <ele>53</ele>
        <time>2021-02-06T15:02:19.000Z</time>
      </trkpt>
      <trkpt lat="47.18272" lon="-1.60528">
        <ele>53</ele>
        <time>2021-02-06T15:02:21.000Z</time>
      </trkpt>
      <trkpt lat="47.18263" lon="-1.60539">
        <ele>53</ele>
        <time>2021-02-06T15:02:23.000Z</time>
      </trkpt>
      <trkpt lat="47.18254" lon="-1.60548">
        <ele>55</ele>
        <time>2021-02-06T15:02:25.000Z</time>
      </trkpt>
      <trkpt lat="47.18243" lon="-1.60554">
        <ele>55</ele>
        <time>2021-02-06T15:02:27.000Z</time>
      </trkpt>
      <trkpt lat="47.18232" lon="-1.60561">
        <ele>55</ele>
        <time>2021-02-06T15:02:29.000Z</time>
      </trkpt>
      <trkpt lat="47.18222" lon="-1.60566">
        <ele>56</ele>
        <time>2021-02-06T15:02:31.000Z</time>
      </trkpt>
      <trkpt lat="47.18212" lon="-1.60572">
        <ele>54</ele>
        <time>2021-02-06T15:02:33.000Z</time>
      </trkpt>
      <trkpt lat="47.18201" lon="-1.60577">
        <ele>56</ele>
        <time>2021-02-06T15:02:35.000Z</time>
      </trkpt>
      <trkpt lat="47.18193" lon="-1.60583">
        <ele>53</ele>
        <time>2021-02-06T15:02:40.000Z</time>
      </trkpt>
      <trkpt lat="47.18189" lon="-1.60599">
        <ele>51</ele>
        <time>2021-02-06T15:02:49.000Z</time>
      </trkpt>
      <trkpt lat="47.18179" lon="-1.60601">
        <ele>52</ele>
        <time>2021-02-06T15:02:51.000Z</time>
      </trkpt>
      <trkpt lat="47.18168" lon="-1.60604">
        <ele>51</ele>
        <time>2021-02-06T15:02:53.000Z</time>
      </trkpt>
      <trkpt lat="47.18157" lon="-1.60608">
        <ele>51</ele>
        <time>2021-02-06T15:02:55.000Z</time>
      </trkpt>
      <trkpt lat="47.18147" lon="-1.60608">
        <ele>51</ele>
        <time>2021-02-06T15:02:57.000Z</time>
      </trkpt>
      <trkpt lat="47.18136" lon="-1.60607">
        <ele>51</ele>
        <time>2021-02-06T15:02:59.000Z</time>
      </trkpt>
      <trkpt lat="47.18119" lon="-1.60603">
        <ele>51</ele>
        <time>2021-02-06T15:03:02.000Z</time>
      </trkpt>
      <trkpt lat="47.18106" lon="-1.60599">
        <ele>51</ele>
        <time>2021-02-06T15:03:04.000Z</time>
      </trkpt>
      <trkpt lat="47.18096" lon="-1.60592">
        <ele>52</ele>
        <time>2021-02-06T15:03:05.000Z</time>
      </trkpt>
      <trkpt lat="47.18084" lon="-1.60583">
        <ele>52</ele>
        <time>2021-02-06T15:03:07.000Z</time>
      </trkpt>
      <trkpt lat="47.18067" lon="-1.60574">
        <ele>51</ele>
        <time>2021-02-06T15:03:10.000Z</time>
      </trkpt>
      <trkpt lat="47.18054" lon="-1.60567">
        <ele>51</ele>
        <time>2021-02-06T15:03:12.000Z</time>
      </trkpt>
      <trkpt lat="47.18044" lon="-1.6056">
        <ele>52</ele>
        <time>2021-02-06T15:03:14.000Z</time>
      </trkpt>
      <trkpt lat="47.18032" lon="-1.60554">
        <ele>52</ele>
        <time>2021-02-06T15:03:16.000Z</time>
      </trkpt>
      <trkpt lat="47.1802" lon="-1.60551">
        <ele>51</ele>
        <time>2021-02-06T15:03:18.000Z</time>
      </trkpt>
      <trkpt lat="47.18009" lon="-1.60553">
        <ele>52</ele>
        <time>2021-02-06T15:03:20.000Z</time>
      </trkpt>
      <trkpt lat="47.17997" lon="-1.60558">
        <ele>53</ele>
        <time>2021-02-06T15:03:22.000Z</time>
      </trkpt>
      <trkpt lat="47.17985" lon="-1.60562">
        <ele>54</ele>
        <time>2021-02-06T15:03:24.000Z</time>
      </trkpt>
      <trkpt lat="47.17973" lon="-1.60569">
        <ele>53</ele>
        <time>2021-02-06T15:03:26.000Z</time>
      </trkpt>
      <trkpt lat="47.17963" lon="-1.60578">
        <ele>53</ele>
        <time>2021-02-06T15:03:28.000Z</time>
      </trkpt>
      <trkpt lat="47.17953" lon="-1.60579">
        <ele>54</ele>
        <time>2021-02-06T15:03:30.000Z</time>
      </trkpt>
      <trkpt lat="47.17938" lon="-1.60587">
        <ele>55</ele>
        <time>2021-02-06T15:03:33.000Z</time>
      </trkpt>
      <trkpt lat="47.17925" lon="-1.6059">
        <ele>55</ele>
        <time>2021-02-06T15:03:36.000Z</time>
      </trkpt>
      <trkpt lat="47.17915" lon="-1.60594">
        <ele>54</ele>
        <time>2021-02-06T15:03:38.000Z</time>
      </trkpt>
      <trkpt lat="47.17907" lon="-1.6061">
        <ele>55</ele>
        <time>2021-02-06T15:03:40.000Z</time>
      </trkpt>
      <trkpt lat="47.179" lon="-1.6064">
        <ele>53</ele>
        <time>2021-02-06T15:03:43.000Z</time>
      </trkpt>
      <trkpt lat="47.17893" lon="-1.60657">
        <ele>52</ele>
        <time>2021-02-06T15:03:45.000Z</time>
      </trkpt>
      <trkpt lat="47.17887" lon="-1.60675">
        <ele>52</ele>
        <time>2021-02-06T15:03:47.000Z</time>
      </trkpt>
      <trkpt lat="47.17881" lon="-1.60694">
        <ele>52</ele>
        <time>2021-02-06T15:03:49.000Z</time>
      </trkpt>
      <trkpt lat="47.17875" lon="-1.60712">
        <ele>53</ele>
        <time>2021-02-06T15:03:51.000Z</time>
      </trkpt>
      <trkpt lat="47.1787" lon="-1.60731">
        <ele>53</ele>
        <time>2021-02-06T15:03:53.000Z</time>
      </trkpt>
      <trkpt lat="47.17866" lon="-1.60749">
        <ele>53</ele>
        <time>2021-02-06T15:03:55.000Z</time>
      </trkpt>
      <trkpt lat="47.17862" lon="-1.60767">
        <ele>53</ele>
        <time>2021-02-06T15:03:57.000Z</time>
      </trkpt>
      <trkpt lat="47.17859" lon="-1.60784">
        <ele>53</ele>
        <time>2021-02-06T15:03:59.000Z</time>
      </trkpt>
      <trkpt lat="47.17854" lon="-1.608">
        <ele>53</ele>
        <time>2021-02-06T15:04:01.000Z</time>
      </trkpt>
      <trkpt lat="47.17849" lon="-1.60825">
        <ele>51</ele>
        <time>2021-02-06T15:04:04.000Z</time>
      </trkpt>
      <trkpt lat="47.17839" lon="-1.60847">
        <ele>52</ele>
        <time>2021-02-06T15:04:07.000Z</time>
      </trkpt>
      <trkpt lat="47.17831" lon="-1.60863">
        <ele>52</ele>
        <time>2021-02-06T15:04:09.000Z</time>
      </trkpt>
      <trkpt lat="47.17823" lon="-1.60877">
        <ele>53</ele>
        <time>2021-02-06T15:04:11.000Z</time>
      </trkpt>
      <trkpt lat="47.17813" lon="-1.60889">
        <ele>53</ele>
        <time>2021-02-06T15:04:13.000Z</time>
      </trkpt>
      <trkpt lat="47.17803" lon="-1.60901">
        <ele>51</ele>
        <time>2021-02-06T15:04:15.000Z</time>
      </trkpt>
      <trkpt lat="47.17787" lon="-1.60914">
        <ele>52</ele>
        <time>2021-02-06T15:04:18.000Z</time>
      </trkpt>
      <trkpt lat="47.17776" lon="-1.60922">
        <ele>52</ele>
        <time>2021-02-06T15:04:20.000Z</time>
      </trkpt>
      <trkpt lat="47.17764" lon="-1.6093">
        <ele>50</ele>
        <time>2021-02-06T15:04:22.000Z</time>
      </trkpt>
      <trkpt lat="47.17756" lon="-1.60938">
        <ele>50</ele>
        <time>2021-02-06T15:04:24.000Z</time>
      </trkpt>
      <trkpt lat="47.17746" lon="-1.60945">
        <ele>51</ele>
        <time>2021-02-06T15:04:26.000Z</time>
      </trkpt>
      <trkpt lat="47.17735" lon="-1.60953">
        <ele>50</ele>
        <time>2021-02-06T15:04:28.000Z</time>
      </trkpt>
      <trkpt lat="47.17725" lon="-1.6096">
        <ele>50</ele>
        <time>2021-02-06T15:04:30.000Z</time>
      </trkpt>
      <trkpt lat="47.17714" lon="-1.60967">
        <ele>48</ele>
        <time>2021-02-06T15:04:32.000Z</time>
      </trkpt>
      <trkpt lat="47.17704" lon="-1.60973">
        <ele>49</ele>
        <time>2021-02-06T15:04:34.000Z</time>
      </trkpt>
      <trkpt lat="47.17694" lon="-1.60977">
        <ele>50</ele>
        <time>2021-02-06T15:04:36.000Z</time>
      </trkpt>
      <trkpt lat="47.17683" lon="-1.60975">
        <ele>50</ele>
        <time>2021-02-06T15:04:38.000Z</time>
      </trkpt>
      <trkpt lat="47.17669" lon="-1.60975">
        <ele>50</ele>
        <time>2021-02-06T15:04:40.000Z</time>
      </trkpt>
      <trkpt lat="47.17653" lon="-1.60981">
        <ele>48</ele>
        <time>2021-02-06T15:04:42.000Z</time>
      </trkpt>
      <trkpt lat="47.17641" lon="-1.60991">
        <ele>49</ele>
        <time>2021-02-06T15:04:44.000Z</time>
      </trkpt>
      <trkpt lat="47.17629" lon="-1.60999">
        <ele>50</ele>
        <time>2021-02-06T15:04:46.000Z</time>
      </trkpt>
      <trkpt lat="47.1762" lon="-1.61009">
        <ele>50</ele>
        <time>2021-02-06T15:04:48.000Z</time>
      </trkpt>
      <trkpt lat="47.1761" lon="-1.61018">
        <ele>50</ele>
        <time>2021-02-06T15:04:50.000Z</time>
      </trkpt>
      <trkpt lat="47.17599" lon="-1.61027">
        <ele>50</ele>
        <time>2021-02-06T15:04:52.000Z</time>
      </trkpt>
      <trkpt lat="47.1759" lon="-1.61035">
        <ele>51</ele>
        <time>2021-02-06T15:04:54.000Z</time>
      </trkpt>
      <trkpt lat="47.17579" lon="-1.61043">
        <ele>50</ele>
        <time>2021-02-06T15:04:56.000Z</time>
      </trkpt>
      <trkpt lat="47.1757" lon="-1.61052">
        <ele>49</ele>
        <time>2021-02-06T15:04:58.000Z</time>
      </trkpt>
      <trkpt lat="47.17553" lon="-1.61065">
        <ele>50</ele>
        <time>2021-02-06T15:05:01.000Z</time>
      </trkpt>
      <trkpt lat="47.17543" lon="-1.61074">
        <ele>51</ele>
        <time>2021-02-06T15:05:03.000Z</time>
      </trkpt>
      <trkpt lat="47.17533" lon="-1.61084">
        <ele>51</ele>
        <time>2021-02-06T15:05:05.000Z</time>
      </trkpt>
      <trkpt lat="47.17523" lon="-1.61093">
        <ele>51</ele>
        <time>2021-02-06T15:05:07.000Z</time>
      </trkpt>
      <trkpt lat="47.17506" lon="-1.61104">
        <ele>52</ele>
        <time>2021-02-06T15:05:10.000Z</time>
      </trkpt>
      <trkpt lat="47.17495" lon="-1.61106">
        <ele>53</ele>
        <time>2021-02-06T15:05:12.000Z</time>
      </trkpt>
      <trkpt lat="47.17484" lon="-1.61106">
        <ele>53</ele>
        <time>2021-02-06T15:05:14.000Z</time>
      </trkpt>
      <trkpt lat="47.17474" lon="-1.61101">
        <ele>54</ele>
        <time>2021-02-06T15:05:16.000Z</time>
      </trkpt>
      <trkpt lat="47.17465" lon="-1.61094">
        <ele>54</ele>
        <time>2021-02-06T15:05:18.000Z</time>
      </trkpt>
      <trkpt lat="47.17456" lon="-1.61085">
        <ele>55</ele>
        <time>2021-02-06T15:05:20.000Z</time>
      </trkpt>
      <trkpt lat="47.17448" lon="-1.61075">
        <ele>57</ele>
        <time>2021-02-06T15:05:22.000Z</time>
      </trkpt>
      <trkpt lat="47.17442" lon="-1.61063">
        <ele>57</ele>
        <time>2021-02-06T15:05:24.000Z</time>
      </trkpt>
      <trkpt lat="47.17435" lon="-1.61046">
        <ele>57</ele>
        <time>2021-02-06T15:05:27.000Z</time>
      </trkpt>
      <trkpt lat="47.1743" lon="-1.61033">
        <ele>56</ele>
        <time>2021-02-06T15:05:29.000Z</time>
      </trkpt>
      <trkpt lat="47.17422" lon="-1.61023">
        <ele>56</ele>
        <time>2021-02-06T15:05:33.000Z</time>
      </trkpt>
      <trkpt lat="47.17421" lon="-1.61038">
        <ele>55</ele>
        <time>2021-02-06T15:05:36.000Z</time>
      </trkpt>
      <trkpt lat="47.17424" lon="-1.61053">
        <ele>55</ele>
        <time>2021-02-06T15:05:39.000Z</time>
      </trkpt>
      <trkpt lat="47.17433" lon="-1.61067">
        <ele>57</ele>
        <time>2021-02-06T15:05:42.000Z</time>
      </trkpt>
      <trkpt lat="47.17438" lon="-1.61077">
        <ele>57</ele>
        <time>2021-02-06T15:05:44.000Z</time>
      </trkpt>
      <trkpt lat="47.17444" lon="-1.61094">
        <ele>57</ele>
        <time>2021-02-06T15:05:47.000Z</time>
      </trkpt>
      <trkpt lat="47.17452" lon="-1.61112">
        <ele>58</ele>
        <time>2021-02-06T15:05:50.000Z</time>
      </trkpt>
      <trkpt lat="47.17456" lon="-1.61124">
        <ele>58</ele>
        <time>2021-02-06T15:05:52.000Z</time>
      </trkpt>
      <trkpt lat="47.17461" lon="-1.6114">
        <ele>56</ele>
        <time>2021-02-06T15:05:55.000Z</time>
      </trkpt>
      <trkpt lat="47.17466" lon="-1.61153">
        <ele>57</ele>
        <time>2021-02-06T15:05:57.000Z</time>
      </trkpt>
      <trkpt lat="47.17472" lon="-1.61164">
        <ele>57</ele>
        <time>2021-02-06T15:05:59.000Z</time>
      </trkpt>
      <trkpt lat="47.17479" lon="-1.61183">
        <ele>58</ele>
        <time>2021-02-06T15:06:02.000Z</time>
      </trkpt>
      <trkpt lat="47.17484" lon="-1.61197">
        <ele>54</ele>
        <time>2021-02-06T15:06:04.000Z</time>
      </trkpt>
      <trkpt lat="47.17492" lon="-1.61214">
        <ele>55</ele>
        <time>2021-02-06T15:06:07.000Z</time>
      </trkpt>
      <trkpt lat="47.17497" lon="-1.61226">
        <ele>57</ele>
        <time>2021-02-06T15:06:09.000Z</time>
      </trkpt>
      <trkpt lat="47.17508" lon="-1.61244">
        <ele>57</ele>
        <time>2021-02-06T15:06:12.000Z</time>
      </trkpt>
      <trkpt lat="47.17514" lon="-1.61257">
        <ele>57</ele>
        <time>2021-02-06T15:06:14.000Z</time>
      </trkpt>
      <trkpt lat="47.17521" lon="-1.61267">
        <ele>57</ele>
        <time>2021-02-06T15:06:16.000Z</time>
      </trkpt>
      <trkpt lat="47.17528" lon="-1.61277">
        <ele>57</ele>
        <time>2021-02-06T15:06:18.000Z</time>
      </trkpt>
      <trkpt lat="47.17536" lon="-1.61286">
        <ele>58</ele>
        <time>2021-02-06T15:06:20.000Z</time>
      </trkpt>
      <trkpt lat="47.17549" lon="-1.61293">
        <ele>59</ele>
        <time>2021-02-06T15:06:23.000Z</time>
      </trkpt>
      <trkpt lat="47.17556" lon="-1.61302">
        <ele>57</ele>
        <time>2021-02-06T15:06:25.000Z</time>
      </trkpt>
      <trkpt lat="47.1756" lon="-1.61322">
        <ele>58</ele>
        <time>2021-02-06T15:06:27.000Z</time>
      </trkpt>
      <trkpt lat="47.17559" lon="-1.61339">
        <ele>58</ele>
        <time>2021-02-06T15:06:29.000Z</time>
      </trkpt>
      <trkpt lat="47.17552" lon="-1.61353">
        <ele>58</ele>
        <time>2021-02-06T15:06:31.000Z</time>
      </trkpt>
      <trkpt lat="47.17537" lon="-1.61367">
        <ele>59</ele>
        <time>2021-02-06T15:06:34.000Z</time>
      </trkpt>
      <trkpt lat="47.17531" lon="-1.61382">
        <ele>59</ele>
        <time>2021-02-06T15:06:36.000Z</time>
      </trkpt>
      <trkpt lat="47.17527" lon="-1.61398">
        <ele>60</ele>
        <time>2021-02-06T15:06:38.000Z</time>
      </trkpt>
      <trkpt lat="47.17521" lon="-1.61421">
        <ele>56</ele>
        <time>2021-02-06T15:06:41.000Z</time>
      </trkpt>
      <trkpt lat="47.17517" lon="-1.61436">
        <ele>56</ele>
        <time>2021-02-06T15:06:43.000Z</time>
      </trkpt>
      <trkpt lat="47.17514" lon="-1.61449">
        <ele>58</ele>
        <time>2021-02-06T15:06:45.000Z</time>
      </trkpt>
      <trkpt lat="47.1751" lon="-1.61461">
        <ele>57</ele>
        <time>2021-02-06T15:06:47.000Z</time>
      </trkpt>
      <trkpt lat="47.17501" lon="-1.61466">
        <ele>58</ele>
        <time>2021-02-06T15:06:49.000Z</time>
      </trkpt>
      <trkpt lat="47.17491" lon="-1.61469">
        <ele>60</ele>
        <time>2021-02-06T15:06:51.000Z</time>
      </trkpt>
      <trkpt lat="47.17481" lon="-1.61473">
        <ele>62</ele>
        <time>2021-02-06T15:06:53.000Z</time>
      </trkpt>
      <trkpt lat="47.17471" lon="-1.61477">
        <ele>63</ele>
        <time>2021-02-06T15:06:55.000Z</time>
      </trkpt>
      <trkpt lat="47.17462" lon="-1.61481">
        <ele>64</ele>
        <time>2021-02-06T15:06:57.000Z</time>
      </trkpt>
      <trkpt lat="47.17453" lon="-1.61486">
        <ele>64</ele>
        <time>2021-02-06T15:06:59.000Z</time>
      </trkpt>
      <trkpt lat="47.17444" lon="-1.61491">
        <ele>65</ele>
        <time>2021-02-06T15:07:01.000Z</time>
      </trkpt>
      <trkpt lat="47.17436" lon="-1.61496">
        <ele>65</ele>
        <time>2021-02-06T15:07:03.000Z</time>
      </trkpt>
      <trkpt lat="47.17423" lon="-1.61505">
        <ele>66</ele>
        <time>2021-02-06T15:07:06.000Z</time>
      </trkpt>
      <trkpt lat="47.17412" lon="-1.61513">
        <ele>66</ele>
        <time>2021-02-06T15:07:09.000Z</time>
      </trkpt>
      <trkpt lat="47.174" lon="-1.61522">
        <ele>67</ele>
        <time>2021-02-06T15:07:12.000Z</time>
      </trkpt>
      <trkpt lat="47.17388" lon="-1.61531">
        <ele>68</ele>
        <time>2021-02-06T15:07:15.000Z</time>
      </trkpt>
      <trkpt lat="47.17377" lon="-1.61543">
        <ele>68</ele>
        <time>2021-02-06T15:07:18.000Z</time>
      </trkpt>
      <trkpt lat="47.17369" lon="-1.61552">
        <ele>70</ele>
        <time>2021-02-06T15:07:20.000Z</time>
      </trkpt>
      <trkpt lat="47.17356" lon="-1.61567">
        <ele>70</ele>
        <time>2021-02-06T15:07:23.000Z</time>
      </trkpt>
      <trkpt lat="47.1735" lon="-1.61576">
        <ele>70</ele>
        <time>2021-02-06T15:07:25.000Z</time>
      </trkpt>
      <trkpt lat="47.17337" lon="-1.61586">
        <ele>71</ele>
        <time>2021-02-06T15:07:28.000Z</time>
      </trkpt>
      <trkpt lat="47.17322" lon="-1.61599">
        <ele>71</ele>
        <time>2021-02-06T15:07:31.000Z</time>
      </trkpt>
      <trkpt lat="47.17315" lon="-1.6161">
        <ele>72</ele>
        <time>2021-02-06T15:07:33.000Z</time>
      </trkpt>
      <trkpt lat="47.17307" lon="-1.61628">
        <ele>70</ele>
        <time>2021-02-06T15:07:36.000Z</time>
      </trkpt>
      <trkpt lat="47.173" lon="-1.61641">
        <ele>71</ele>
        <time>2021-02-06T15:07:38.000Z</time>
      </trkpt>
      <trkpt lat="47.17292" lon="-1.61655">
        <ele>72</ele>
        <time>2021-02-06T15:07:40.000Z</time>
      </trkpt>
      <trkpt lat="47.17284" lon="-1.61668">
        <ele>72</ele>
        <time>2021-02-06T15:07:42.000Z</time>
      </trkpt>
      <trkpt lat="47.17276" lon="-1.61682">
        <ele>71</ele>
        <time>2021-02-06T15:07:44.000Z</time>
      </trkpt>
      <trkpt lat="47.1727" lon="-1.61696">
        <ele>70</ele>
        <time>2021-02-06T15:07:46.000Z</time>
      </trkpt>
      <trkpt lat="47.17263" lon="-1.61711">
        <ele>70</ele>
        <time>2021-02-06T15:07:48.000Z</time>
      </trkpt>
      <trkpt lat="47.17258" lon="-1.61725">
        <ele>69</ele>
        <time>2021-02-06T15:07:50.000Z</time>
      </trkpt>
      <trkpt lat="47.17251" lon="-1.61738">
        <ele>69</ele>
        <time>2021-02-06T15:07:52.000Z</time>
      </trkpt>
      <trkpt lat="47.17247" lon="-1.61753">
        <ele>69</ele>
        <time>2021-02-06T15:07:54.000Z</time>
      </trkpt>
      <trkpt lat="47.17245" lon="-1.61776">
        <ele>67</ele>
        <time>2021-02-06T15:07:57.000Z</time>
      </trkpt>
      <trkpt lat="47.17235" lon="-1.61787">
        <ele>68</ele>
        <time>2021-02-06T15:07:59.000Z</time>
      </trkpt>
      <trkpt lat="47.17225" lon="-1.61795">
        <ele>68</ele>
        <time>2021-02-06T15:08:01.000Z</time>
      </trkpt>
      <trkpt lat="47.17209" lon="-1.61809">
        <ele>68</ele>
        <time>2021-02-06T15:08:04.000Z</time>
      </trkpt>
      <trkpt lat="47.17199" lon="-1.61818">
        <ele>69</ele>
        <time>2021-02-06T15:08:06.000Z</time>
      </trkpt>
      <trkpt lat="47.17188" lon="-1.61827">
        <ele>68</ele>
        <time>2021-02-06T15:08:08.000Z</time>
      </trkpt>
      <trkpt lat="47.17177" lon="-1.61837">
        <ele>68</ele>
        <time>2021-02-06T15:08:10.000Z</time>
      </trkpt>
      <trkpt lat="47.17167" lon="-1.61846">
        <ele>68</ele>
        <time>2021-02-06T15:08:12.000Z</time>
      </trkpt>
      <trkpt lat="47.17156" lon="-1.61856">
        <ele>67</ele>
        <time>2021-02-06T15:08:14.000Z</time>
      </trkpt>
      <trkpt lat="47.17142" lon="-1.6187">
        <ele>69</ele>
        <time>2021-02-06T15:08:17.000Z</time>
      </trkpt>
      <trkpt lat="47.17131" lon="-1.6188">
        <ele>69</ele>
        <time>2021-02-06T15:08:19.000Z</time>
      </trkpt>
      <trkpt lat="47.17121" lon="-1.6189">
        <ele>69</ele>
        <time>2021-02-06T15:08:21.000Z</time>
      </trkpt>
      <trkpt lat="47.17111" lon="-1.61901">
        <ele>68</ele>
        <time>2021-02-06T15:08:23.000Z</time>
      </trkpt>
      <trkpt lat="47.17096" lon="-1.61917">
        <ele>69</ele>
        <time>2021-02-06T15:08:26.000Z</time>
      </trkpt>
      <trkpt lat="47.17086" lon="-1.61926">
        <ele>68</ele>
        <time>2021-02-06T15:08:28.000Z</time>
      </trkpt>
      <trkpt lat="47.17077" lon="-1.61935">
        <ele>69</ele>
        <time>2021-02-06T15:08:30.000Z</time>
      </trkpt>
      <trkpt lat="47.17067" lon="-1.61944">
        <ele>69</ele>
        <time>2021-02-06T15:08:32.000Z</time>
      </trkpt>
      <trkpt lat="47.17058" lon="-1.61955">
        <ele>69</ele>
        <time>2021-02-06T15:08:34.000Z</time>
      </trkpt>
      <trkpt lat="47.17049" lon="-1.61967">
        <ele>68</ele>
        <time>2021-02-06T15:08:36.000Z</time>
      </trkpt>
      <trkpt lat="47.17041" lon="-1.61981">
        <ele>68</ele>
        <time>2021-02-06T15:08:38.000Z</time>
      </trkpt>
      <trkpt lat="47.17032" lon="-1.61993">
        <ele>68</ele>
        <time>2021-02-06T15:08:40.000Z</time>
      </trkpt>
      <trkpt lat="47.17024" lon="-1.62006">
        <ele>68</ele>
        <time>2021-02-06T15:08:42.000Z</time>
      </trkpt>
      <trkpt lat="47.17014" lon="-1.62023">
        <ele>66</ele>
        <time>2021-02-06T15:08:44.000Z</time>
      </trkpt>
      <trkpt lat="47.17007" lon="-1.62034">
        <ele>65</ele>
        <time>2021-02-06T15:08:46.000Z</time>
      </trkpt>
      <trkpt lat="47.16994" lon="-1.62054">
        <ele>67</ele>
        <time>2021-02-06T15:08:49.000Z</time>
      </trkpt>
      <trkpt lat="47.16986" lon="-1.62068">
        <ele>67</ele>
        <time>2021-02-06T15:08:51.000Z</time>
      </trkpt>
      <trkpt lat="47.16975" lon="-1.6209">
        <ele>66</ele>
        <time>2021-02-06T15:08:54.000Z</time>
      </trkpt>
      <trkpt lat="47.16963" lon="-1.6211">
        <ele>67</ele>
        <time>2021-02-06T15:08:57.000Z</time>
      </trkpt>
      <trkpt lat="47.16957" lon="-1.62125">
        <ele>66</ele>
        <time>2021-02-06T15:08:59.000Z</time>
      </trkpt>
      <trkpt lat="47.16947" lon="-1.62147">
        <ele>65</ele>
        <time>2021-02-06T15:09:02.000Z</time>
      </trkpt>
      <trkpt lat="47.16939" lon="-1.62161">
        <ele>67</ele>
        <time>2021-02-06T15:09:04.000Z</time>
      </trkpt>
      <trkpt lat="47.16933" lon="-1.62176">
        <ele>67</ele>
        <time>2021-02-06T15:09:06.000Z</time>
      </trkpt>
      <trkpt lat="47.16922" lon="-1.62197">
        <ele>68</ele>
        <time>2021-02-06T15:09:09.000Z</time>
      </trkpt>
      <trkpt lat="47.16913" lon="-1.6221">
        <ele>68</ele>
        <time>2021-02-06T15:09:11.000Z</time>
      </trkpt>
      <trkpt lat="47.16903" lon="-1.62222">
        <ele>69</ele>
        <time>2021-02-06T15:09:13.000Z</time>
      </trkpt>
      <trkpt lat="47.16893" lon="-1.62234">
        <ele>68</ele>
        <time>2021-02-06T15:09:15.000Z</time>
      </trkpt>
      <trkpt lat="47.16884" lon="-1.62246">
        <ele>69</ele>
        <time>2021-02-06T15:09:17.000Z</time>
      </trkpt>
      <trkpt lat="47.16875" lon="-1.62257">
        <ele>69</ele>
        <time>2021-02-06T15:09:19.000Z</time>
      </trkpt>
      <trkpt lat="47.16865" lon="-1.62269">
        <ele>69</ele>
        <time>2021-02-06T15:09:21.000Z</time>
      </trkpt>
      <trkpt lat="47.16856" lon="-1.6228">
        <ele>69</ele>
        <time>2021-02-06T15:09:23.000Z</time>
      </trkpt>
      <trkpt lat="47.16846" lon="-1.62292">
        <ele>69</ele>
        <time>2021-02-06T15:09:25.000Z</time>
      </trkpt>
      <trkpt lat="47.16837" lon="-1.62303">
        <ele>70</ele>
        <time>2021-02-06T15:09:27.000Z</time>
      </trkpt>
      <trkpt lat="47.16825" lon="-1.62313">
        <ele>70</ele>
        <time>2021-02-06T15:09:29.000Z</time>
      </trkpt>
      <trkpt lat="47.16815" lon="-1.62323">
        <ele>70</ele>
        <time>2021-02-06T15:09:31.000Z</time>
      </trkpt>
      <trkpt lat="47.16803" lon="-1.62328">
        <ele>69</ele>
        <time>2021-02-06T15:09:33.000Z</time>
      </trkpt>
      <trkpt lat="47.16787" lon="-1.62337">
        <ele>69</ele>
        <time>2021-02-06T15:09:36.000Z</time>
      </trkpt>
      <trkpt lat="47.16777" lon="-1.62343">
        <ele>69</ele>
        <time>2021-02-06T15:09:38.000Z</time>
      </trkpt>
      <trkpt lat="47.16765" lon="-1.62352">
        <ele>69</ele>
        <time>2021-02-06T15:09:40.000Z</time>
      </trkpt>
      <trkpt lat="47.16753" lon="-1.62361">
        <ele>68</ele>
        <time>2021-02-06T15:09:42.000Z</time>
      </trkpt>
      <trkpt lat="47.16742" lon="-1.62373">
        <ele>68</ele>
        <time>2021-02-06T15:09:44.000Z</time>
      </trkpt>
      <trkpt lat="47.16735" lon="-1.62389">
        <ele>68</ele>
        <time>2021-02-06T15:09:46.000Z</time>
      </trkpt>
      <trkpt lat="47.16729" lon="-1.62407">
        <ele>67</ele>
        <time>2021-02-06T15:09:48.000Z</time>
      </trkpt>
      <trkpt lat="47.16728" lon="-1.62421">
        <ele>66</ele>
        <time>2021-02-06T15:09:50.000Z</time>
      </trkpt>
      <trkpt lat="47.16726" lon="-1.62439">
        <ele>66</ele>
        <time>2021-02-06T15:09:52.000Z</time>
      </trkpt>
      <trkpt lat="47.16722" lon="-1.62457">
        <ele>66</ele>
        <time>2021-02-06T15:09:54.000Z</time>
      </trkpt>
      <trkpt lat="47.16718" lon="-1.62475">
        <ele>65</ele>
        <time>2021-02-06T15:09:56.000Z</time>
      </trkpt>
      <trkpt lat="47.16718" lon="-1.62497">
        <ele>65</ele>
        <time>2021-02-06T15:09:59.000Z</time>
      </trkpt>
      <trkpt lat="47.16729" lon="-1.625">
        <ele>66</ele>
        <time>2021-02-06T15:10:01.000Z</time>
      </trkpt>
      <trkpt lat="47.16741" lon="-1.62503">
        <ele>67</ele>
        <time>2021-02-06T15:10:03.000Z</time>
      </trkpt>
      <trkpt lat="47.16751" lon="-1.62508">
        <ele>66</ele>
        <time>2021-02-06T15:10:05.000Z</time>
      </trkpt>
      <trkpt lat="47.16761" lon="-1.62512">
        <ele>66</ele>
        <time>2021-02-06T15:10:07.000Z</time>
      </trkpt>
      <trkpt lat="47.16771" lon="-1.62518">
        <ele>68</ele>
        <time>2021-02-06T15:10:09.000Z</time>
      </trkpt>
      <trkpt lat="47.16781" lon="-1.62526">
        <ele>69</ele>
        <time>2021-02-06T15:10:11.000Z</time>
      </trkpt>
      <trkpt lat="47.16792" lon="-1.62533">
        <ele>68</ele>
        <time>2021-02-06T15:10:13.000Z</time>
      </trkpt>
      <trkpt lat="47.16807" lon="-1.62541">
        <ele>68</ele>
        <time>2021-02-06T15:10:16.000Z</time>
      </trkpt>
      <trkpt lat="47.16817" lon="-1.6255">
        <ele>69</ele>
        <time>2021-02-06T15:10:18.000Z</time>
      </trkpt>
      <trkpt lat="47.16825" lon="-1.6256">
        <ele>69</ele>
        <time>2021-02-06T15:10:20.000Z</time>
      </trkpt>
      <trkpt lat="47.16833" lon="-1.62584">
        <ele>70</ele>
        <time>2021-02-06T15:10:23.000Z</time>
      </trkpt>
      <trkpt lat="47.16827" lon="-1.62596">
        <ele>71</ele>
        <time>2021-02-06T15:10:25.000Z</time>
      </trkpt>
    </trkseg>
  </trk>
</gpx>